<?xml version="1.0" encoding="UTF-8" standalone="no" ?>
<gpx xmlns="http://www.topografix.com/GPX/1/1" xmlns:xsi="http://www.w3.org/2001/XMLSchema-instance" xsi:schemaLocation="http://www.topografix.com/GPX/1/1 http://www.topografix.com/GPX/1/1/gpx.xsd" version="1.1" creator="VisuGPX - https://www.visugpx.com">
  <metadata>
    <name>Tour d'Europe: étape 039</name>
    <desc><![CDATA[Étape 039]]></desc>
  </metadata>
  <trk>
    <name><![CDATA[Tour d'Europe: étape 039]]></name>
    <trkseg>
      <trkpt lat="63.2984" lon="9.83936">
        <ele>46.145186</ele>
        <time>2020-08-06T08:18:04.123Z</time>
      </trkpt>
      <trkpt lat="63.29817" lon="9.83964">
        <ele>46.145186</ele>
        <time>2020-08-06T08:18:41.096Z</time>
      </trkpt>
      <trkpt lat="63.29807" lon="9.83969">
        <ele>46.145186</ele>
        <time>2020-08-06T08:18:45.124Z</time>
      </trkpt>
      <trkpt lat="63.29797" lon="9.83972">
        <ele>46.145186</ele>
        <time>2020-08-06T08:18:49.108Z</time>
      </trkpt>
      <trkpt lat="63.29786" lon="9.83979">
        <ele>46.145186</ele>
        <time>2020-08-06T08:18:53.149Z</time>
      </trkpt>
      <trkpt lat="63.29775" lon="9.83982">
        <ele>46.145186</ele>
        <time>2020-08-06T08:18:57.119Z</time>
      </trkpt>
      <trkpt lat="63.29764" lon="9.83988">
        <ele>46.145186</ele>
        <time>2020-08-06T08:19:01.128Z</time>
      </trkpt>
      <trkpt lat="63.29753" lon="9.83995">
        <ele>46.206373</ele>
        <time>2020-08-06T08:19:05.100Z</time>
      </trkpt>
      <trkpt lat="63.29744" lon="9.83999">
        <ele>46.670233</ele>
        <time>2020-08-06T08:19:09.102Z</time>
      </trkpt>
      <trkpt lat="63.29734" lon="9.84001">
        <ele>47.116236</ele>
        <time>2020-08-06T08:19:13.115Z</time>
      </trkpt>
      <trkpt lat="63.29724" lon="9.84">
        <ele>47.608715</ele>
        <time>2020-08-06T08:19:18.127Z</time>
      </trkpt>
      <trkpt lat="63.29714" lon="9.83993">
        <ele>48.091469</ele>
        <time>2020-08-06T08:19:23.117Z</time>
      </trkpt>
      <trkpt lat="63.29705" lon="9.84">
        <ele>48.527158</ele>
        <time>2020-08-06T08:19:29.118Z</time>
      </trkpt>
      <trkpt lat="63.29703" lon="9.84024">
        <ele>49.055272</ele>
        <time>2020-08-06T08:19:34.143Z</time>
      </trkpt>
      <trkpt lat="63.29702" lon="9.84045">
        <ele>49.489077</ele>
        <time>2020-08-06T08:19:38.097Z</time>
      </trkpt>
      <trkpt lat="63.29701" lon="9.84066">
        <ele>49.942403</ele>
        <time>2020-08-06T08:19:42.109Z</time>
      </trkpt>
      <trkpt lat="63.297" lon="9.84091">
        <ele>50.485074</ele>
        <time>2020-08-06T08:19:46.125Z</time>
      </trkpt>
      <trkpt lat="63.297" lon="9.84117">
        <ele>51.038084</ele>
        <time>2020-08-06T08:19:50.132Z</time>
      </trkpt>
      <trkpt lat="63.29699" lon="9.84143">
        <ele>51.59053</ele>
        <time>2020-08-06T08:19:54.116Z</time>
      </trkpt>
      <trkpt lat="63.29697" lon="9.84169">
        <ele>52.136657</ele>
        <time>2020-08-06T08:19:58.142Z</time>
      </trkpt>
      <trkpt lat="63.29695" lon="9.84193">
        <ele>52.655456</ele>
        <time>2020-08-06T08:20:02.119Z</time>
      </trkpt>
      <trkpt lat="63.29694" lon="9.84217">
        <ele>53.185514</ele>
        <time>2020-08-06T08:20:06.123Z</time>
      </trkpt>
      <trkpt lat="63.29693" lon="9.84243">
        <ele>53.725511</ele>
        <time>2020-08-06T08:20:10.116Z</time>
      </trkpt>
      <trkpt lat="63.29691" lon="9.84266">
        <ele>54.230978</ele>
        <time>2020-08-06T08:20:14.111Z</time>
      </trkpt>
      <trkpt lat="63.2969" lon="9.84293">
        <ele>54.757527</ele>
        <time>2020-08-06T08:20:18.124Z</time>
      </trkpt>
      <trkpt lat="63.29687" lon="9.84319">
        <ele>55.168147</ele>
        <time>2020-08-06T08:20:22.107Z</time>
      </trkpt>
      <trkpt lat="63.29686" lon="9.8434">
        <ele>55.495318</ele>
        <time>2020-08-06T08:20:25.120Z</time>
      </trkpt>
      <trkpt lat="63.29686" lon="9.84363">
        <ele>55.841943</ele>
        <time>2020-08-06T08:20:28.116Z</time>
      </trkpt>
      <trkpt lat="63.29685" lon="9.84386">
        <ele>56.198024</ele>
        <time>2020-08-06T08:20:31.161Z</time>
      </trkpt>
      <trkpt lat="63.29684" lon="9.84411">
        <ele>56.591466</ele>
        <time>2020-08-06T08:20:34.136Z</time>
      </trkpt>
      <trkpt lat="63.29683" lon="9.84435">
        <ele>56.960177</ele>
        <time>2020-08-06T08:20:37.124Z</time>
      </trkpt>
      <trkpt lat="63.29683" lon="9.84456">
        <ele>57.273593</ele>
        <time>2020-08-06T08:20:39.125Z</time>
      </trkpt>
      <trkpt lat="63.29681" lon="9.84484">
        <ele>57.714646</ele>
        <time>2020-08-06T08:20:41.116Z</time>
      </trkpt>
      <trkpt lat="63.29679" lon="9.84512">
        <ele>58.147399</ele>
        <time>2020-08-06T08:20:43.124Z</time>
      </trkpt>
      <trkpt lat="63.29677" lon="9.84533">
        <ele>58.466385</ele>
        <time>2020-08-06T08:20:45.135Z</time>
      </trkpt>
      <trkpt lat="63.29678" lon="9.84554">
        <ele>58.802752</ele>
        <time>2020-08-06T08:20:48.129Z</time>
      </trkpt>
      <trkpt lat="63.2968" lon="9.84574">
        <ele>59.115456</ele>
        <time>2020-08-06T08:20:51.112Z</time>
      </trkpt>
      <trkpt lat="63.29682" lon="9.84595">
        <ele>59.43759</ele>
        <time>2020-08-06T08:20:54.126Z</time>
      </trkpt>
      <trkpt lat="63.29686" lon="9.84621">
        <ele>59.858615</ele>
        <time>2020-08-06T08:20:57.121Z</time>
      </trkpt>
      <trkpt lat="63.29687" lon="9.84644">
        <ele>60.218665</ele>
        <time>2020-08-06T08:21:01.100Z</time>
      </trkpt>
      <trkpt lat="63.29688" lon="9.84671">
        <ele>60.632295</ele>
        <time>2020-08-06T08:21:06.155Z</time>
      </trkpt>
      <trkpt lat="63.29681" lon="9.84687">
        <ele>60.839237</ele>
        <time>2020-08-06T08:21:08.105Z</time>
      </trkpt>
      <trkpt lat="63.2969" lon="9.84697">
        <ele>60.925186</ele>
        <time>2020-08-06T08:21:12.164Z</time>
      </trkpt>
      <trkpt lat="63.297" lon="9.84698">
        <ele>61.003001</ele>
        <time>2020-08-06T08:21:16.098Z</time>
      </trkpt>
      <trkpt lat="63.2971" lon="9.84693">
        <ele>61.08885</ele>
        <time>2020-08-06T08:21:21.140Z</time>
      </trkpt>
      <trkpt lat="63.29719" lon="9.84689">
        <ele>61.171262</ele>
        <time>2020-08-06T08:21:26.137Z</time>
      </trkpt>
      <trkpt lat="63.2973" lon="9.84689">
        <ele>61.257222</ele>
        <time>2020-08-06T08:21:31.133Z</time>
      </trkpt>
      <trkpt lat="63.29739" lon="9.84689">
        <ele>61.333258</ele>
        <time>2020-08-06T08:21:35.125Z</time>
      </trkpt>
      <trkpt lat="63.29749" lon="9.8469">
        <ele>61.412821</ele>
        <time>2020-08-06T08:21:39.106Z</time>
      </trkpt>
      <trkpt lat="63.2976" lon="9.84693">
        <ele>61.509894</ele>
        <time>2020-08-06T08:21:43.144Z</time>
      </trkpt>
      <trkpt lat="63.2977" lon="9.84693">
        <ele>61.586828</ele>
        <time>2020-08-06T08:21:46.114Z</time>
      </trkpt>
      <trkpt lat="63.29779" lon="9.84704">
        <ele>61.671037</ele>
        <time>2020-08-06T08:21:50.103Z</time>
      </trkpt>
      <trkpt lat="63.29783" lon="9.84723">
        <ele>61.753816</ele>
        <time>2020-08-06T08:21:53.178Z</time>
      </trkpt>
      <trkpt lat="63.29795" lon="9.84727">
        <ele>61.847093</ele>
        <time>2020-08-06T08:21:57.111Z</time>
      </trkpt>
      <trkpt lat="63.29805" lon="9.84715">
        <ele>61.942001</ele>
        <time>2020-08-06T08:22:00.097Z</time>
      </trkpt>
      <trkpt lat="63.29813" lon="9.84697">
        <ele>62.035404</ele>
        <time>2020-08-06T08:22:03.116Z</time>
      </trkpt>
      <trkpt lat="63.2982" lon="9.84684">
        <ele>62.115058</ele>
        <time>2020-08-06T08:22:06.122Z</time>
      </trkpt>
      <trkpt lat="63.29831" lon="9.84681">
        <ele>62.20014</ele>
        <time>2020-08-06T08:22:09.128Z</time>
      </trkpt>
      <trkpt lat="63.29842" lon="9.84682">
        <ele>62.265171</ele>
        <time>2020-08-06T08:22:12.126Z</time>
      </trkpt>
      <trkpt lat="63.29854" lon="9.84683">
        <ele>62.127249</ele>
        <time>2020-08-06T08:22:15.161Z</time>
      </trkpt>
      <trkpt lat="63.29865" lon="9.84684">
        <ele>61.996158</ele>
        <time>2020-08-06T08:22:18.136Z</time>
      </trkpt>
      <trkpt lat="63.29876" lon="9.84684">
        <ele>61.87531</ele>
        <time>2020-08-06T08:22:21.116Z</time>
      </trkpt>
      <trkpt lat="63.29886" lon="9.84683">
        <ele>61.761018</ele>
        <time>2020-08-06T08:22:24.111Z</time>
      </trkpt>
      <trkpt lat="63.29894" lon="9.84675">
        <ele>61.659278</ele>
        <time>2020-08-06T08:22:27.137Z</time>
      </trkpt>
      <trkpt lat="63.29906" lon="9.84673">
        <ele>61.529228</ele>
        <time>2020-08-06T08:22:31.124Z</time>
      </trkpt>
      <trkpt lat="63.29917" lon="9.84676">
        <ele>61.40777</ele>
        <time>2020-08-06T08:22:34.128Z</time>
      </trkpt>
      <trkpt lat="63.29927" lon="9.84673">
        <ele>61.292939</ele>
        <time>2020-08-06T08:22:37.125Z</time>
      </trkpt>
      <trkpt lat="63.29934" lon="9.84661">
        <ele>61.187638</ele>
        <time>2020-08-06T08:22:40.107Z</time>
      </trkpt>
      <trkpt lat="63.29938" lon="9.8464">
        <ele>61.068176</ele>
        <time>2020-08-06T08:22:44.100Z</time>
      </trkpt>
      <trkpt lat="63.29941" lon="9.84618">
        <ele>60.954898</ele>
        <time>2020-08-06T08:22:48.133Z</time>
      </trkpt>
      <trkpt lat="63.29946" lon="9.84597">
        <ele>60.835934</ele>
        <time>2020-08-06T08:22:52.105Z</time>
      </trkpt>
      <trkpt lat="63.29953" lon="9.84583">
        <ele>60.728124</ele>
        <time>2020-08-06T08:22:57.132Z</time>
      </trkpt>
      <trkpt lat="63.29963" lon="9.84581">
        <ele>60.617214</ele>
        <time>2020-08-06T08:23:03.100Z</time>
      </trkpt>
      <trkpt lat="63.29972" lon="9.84581">
        <ele>60.511045</ele>
        <time>2020-08-06T08:23:08.121Z</time>
      </trkpt>
      <trkpt lat="63.29979" lon="9.84568">
        <ele>60.408283</ele>
        <time>2020-08-06T08:23:15.133Z</time>
      </trkpt>
      <trkpt lat="63.29964" lon="9.84574">
        <ele>60.262474</ele>
        <time>2020-08-06T08:28:06.105Z</time>
      </trkpt>
      <trkpt lat="63.29954" lon="9.84577">
        <ele>60.397309</ele>
        <time>2020-08-06T08:28:10.102Z</time>
      </trkpt>
      <trkpt lat="63.29945" lon="9.8459">
        <ele>60.543642</ele>
        <time>2020-08-06T08:28:14.128Z</time>
      </trkpt>
      <trkpt lat="63.29942" lon="9.84611">
        <ele>60.680018</ele>
        <time>2020-08-06T08:28:18.113Z</time>
      </trkpt>
      <trkpt lat="63.2994" lon="9.84637">
        <ele>60.844905</ele>
        <time>2020-08-06T08:28:22.116Z</time>
      </trkpt>
      <trkpt lat="63.29941" lon="9.84659">
        <ele>60.98189</ele>
        <time>2020-08-06T08:28:25.127Z</time>
      </trkpt>
      <trkpt lat="63.2995" lon="9.84672">
        <ele>61.121813</ele>
        <time>2020-08-06T08:28:28.126Z</time>
      </trkpt>
      <trkpt lat="63.29955" lon="9.84688">
        <ele>61.24789</ele>
        <time>2020-08-06T08:28:31.112Z</time>
      </trkpt>
      <trkpt lat="63.29967" lon="9.84693">
        <ele>61.4065</ele>
        <time>2020-08-06T08:28:34.111Z</time>
      </trkpt>
      <trkpt lat="63.29979" lon="9.84696">
        <ele>61.578343</ele>
        <time>2020-08-06T08:28:37.115Z</time>
      </trkpt>
      <trkpt lat="63.29993" lon="9.84699">
        <ele>61.76742</ele>
        <time>2020-08-06T08:28:40.122Z</time>
      </trkpt>
      <trkpt lat="63.30003" lon="9.84702">
        <ele>61.90665</ele>
        <time>2020-08-06T08:28:42.097Z</time>
      </trkpt>
      <trkpt lat="63.30013" lon="9.84704">
        <ele>62.040174</ele>
        <time>2020-08-06T08:28:44.111Z</time>
      </trkpt>
      <trkpt lat="63.30022" lon="9.84707">
        <ele>62.1692</ele>
        <time>2020-08-06T08:28:46.102Z</time>
      </trkpt>
      <trkpt lat="63.30031" lon="9.84711">
        <ele>62.293134</ele>
        <time>2020-08-06T08:28:48.094Z</time>
      </trkpt>
      <trkpt lat="63.30041" lon="9.84713">
        <ele>62.426719</ele>
        <time>2020-08-06T08:28:50.096Z</time>
      </trkpt>
      <trkpt lat="63.3005" lon="9.84714">
        <ele>62.55282</ele>
        <time>2020-08-06T08:28:52.115Z</time>
      </trkpt>
      <trkpt lat="63.30059" lon="9.84712">
        <ele>62.68467</ele>
        <time>2020-08-06T08:28:54.095Z</time>
      </trkpt>
      <trkpt lat="63.30069" lon="9.84713">
        <ele>62.806191</ele>
        <time>2020-08-06T08:28:56.111Z</time>
      </trkpt>
      <trkpt lat="63.30082" lon="9.84716">
        <ele>62.968223</ele>
        <time>2020-08-06T08:28:59.103Z</time>
      </trkpt>
      <trkpt lat="63.30092" lon="9.8472">
        <ele>63.10432</ele>
        <time>2020-08-06T08:29:02.129Z</time>
      </trkpt>
      <trkpt lat="63.30102" lon="9.84722">
        <ele>63.218536</ele>
        <time>2020-08-06T08:29:05.116Z</time>
      </trkpt>
      <trkpt lat="63.30111" lon="9.84726">
        <ele>63.337906</ele>
        <time>2020-08-06T08:29:08.115Z</time>
      </trkpt>
      <trkpt lat="63.30121" lon="9.84731">
        <ele>63.466446</ele>
        <time>2020-08-06T08:29:11.111Z</time>
      </trkpt>
      <trkpt lat="63.30131" lon="9.84735">
        <ele>63.590425</ele>
        <time>2020-08-06T08:29:15.144Z</time>
      </trkpt>
      <trkpt lat="63.30142" lon="9.84738">
        <ele>63.731838</ele>
        <time>2020-08-06T08:29:19.137Z</time>
      </trkpt>
      <trkpt lat="63.30151" lon="9.84741">
        <ele>63.848306</ele>
        <time>2020-08-06T08:29:23.110Z</time>
      </trkpt>
      <trkpt lat="63.30167" lon="9.84744">
        <ele>64.04305</ele>
        <time>2020-08-06T08:32:12.126Z</time>
      </trkpt>
      <trkpt lat="63.30177" lon="9.84753">
        <ele>64.180551</ele>
        <time>2020-08-06T08:32:16.136Z</time>
      </trkpt>
      <trkpt lat="63.30186" lon="9.84759">
        <ele>64.295968</ele>
        <time>2020-08-06T08:32:19.127Z</time>
      </trkpt>
      <trkpt lat="63.30195" lon="9.84769">
        <ele>64.420647</ele>
        <time>2020-08-06T08:32:23.113Z</time>
      </trkpt>
      <trkpt lat="63.30205" lon="9.84777">
        <ele>64.554461</ele>
        <time>2020-08-06T08:32:27.136Z</time>
      </trkpt>
      <trkpt lat="63.30212" lon="9.84788">
        <ele>64.667824</ele>
        <time>2020-08-06T08:32:30.102Z</time>
      </trkpt>
      <trkpt lat="63.3022" lon="9.84809">
        <ele>64.820187</ele>
        <time>2020-08-06T08:32:33.111Z</time>
      </trkpt>
      <trkpt lat="63.3023" lon="9.8482">
        <ele>64.964073</ele>
        <time>2020-08-06T08:32:36.130Z</time>
      </trkpt>
      <trkpt lat="63.3024" lon="9.84816">
        <ele>64.911236</ele>
        <time>2020-08-06T08:32:39.115Z</time>
      </trkpt>
      <trkpt lat="63.30248" lon="9.84807">
        <ele>64.859012</ele>
        <time>2020-08-06T08:32:42.115Z</time>
      </trkpt>
      <trkpt lat="63.30258" lon="9.84804">
        <ele>64.798328</ele>
        <time>2020-08-06T08:32:45.119Z</time>
      </trkpt>
      <trkpt lat="63.30269" lon="9.84807">
        <ele>64.735986</ele>
        <time>2020-08-06T08:32:48.111Z</time>
      </trkpt>
      <trkpt lat="63.30279" lon="9.84812">
        <ele>64.676435</ele>
        <time>2020-08-06T08:32:51.098Z</time>
      </trkpt>
      <trkpt lat="63.3029" lon="9.84815">
        <ele>64.617065</ele>
        <time>2020-08-06T08:32:54.101Z</time>
      </trkpt>
      <trkpt lat="63.30302" lon="9.8482">
        <ele>64.54292</ele>
        <time>2020-08-06T08:32:57.123Z</time>
      </trkpt>
      <trkpt lat="63.30312" lon="9.84825">
        <ele>64.488388</ele>
        <time>2020-08-06T08:32:59.110Z</time>
      </trkpt>
      <trkpt lat="63.30321" lon="9.84829">
        <ele>64.433914</ele>
        <time>2020-08-06T08:33:01.121Z</time>
      </trkpt>
      <trkpt lat="63.30331" lon="9.84834">
        <ele>64.377596</ele>
        <time>2020-08-06T08:33:03.141Z</time>
      </trkpt>
      <trkpt lat="63.3034" lon="9.8484">
        <ele>64.321037</ele>
        <time>2020-08-06T08:33:05.125Z</time>
      </trkpt>
      <trkpt lat="63.30353" lon="9.84847">
        <ele>64.246401</ele>
        <time>2020-08-06T08:33:08.156Z</time>
      </trkpt>
      <trkpt lat="63.30362" lon="9.84853">
        <ele>64.190265</ele>
        <time>2020-08-06T08:33:12.111Z</time>
      </trkpt>
      <trkpt lat="63.30371" lon="9.84853">
        <ele>64.138856</ele>
        <time>2020-08-06T08:33:16.123Z</time>
      </trkpt>
      <trkpt lat="63.3038" lon="9.84858">
        <ele>64.085436</ele>
        <time>2020-08-06T08:33:19.151Z</time>
      </trkpt>
      <trkpt lat="63.30391" lon="9.84864">
        <ele>64.021791</ele>
        <time>2020-08-06T08:33:22.122Z</time>
      </trkpt>
      <trkpt lat="63.30402" lon="9.8487">
        <ele>63.955867</ele>
        <time>2020-08-06T08:33:25.104Z</time>
      </trkpt>
      <trkpt lat="63.30413" lon="9.84876">
        <ele>64.091104</ele>
        <time>2020-08-06T08:33:28.127Z</time>
      </trkpt>
      <trkpt lat="63.30423" lon="9.84881">
        <ele>64.316109</ele>
        <time>2020-08-06T08:33:31.143Z</time>
      </trkpt>
      <trkpt lat="63.30434" lon="9.84887">
        <ele>64.551441</ele>
        <time>2020-08-06T08:33:34.132Z</time>
      </trkpt>
      <trkpt lat="63.30445" lon="9.84893">
        <ele>64.786662</ele>
        <time>2020-08-06T08:33:37.137Z</time>
      </trkpt>
      <trkpt lat="63.30456" lon="9.84899">
        <ele>65.015859</ele>
        <time>2020-08-06T08:33:40.132Z</time>
      </trkpt>
      <trkpt lat="63.30468" lon="9.84904">
        <ele>65.256719</ele>
        <time>2020-08-06T08:33:43.120Z</time>
      </trkpt>
      <trkpt lat="63.30479" lon="9.84909">
        <ele>65.497226</ele>
        <time>2020-08-06T08:33:46.114Z</time>
      </trkpt>
      <trkpt lat="63.3049" lon="9.84915">
        <ele>65.737616</ele>
        <time>2020-08-06T08:33:49.126Z</time>
      </trkpt>
      <trkpt lat="63.30503" lon="9.84921">
        <ele>66.001066</ele>
        <time>2020-08-06T08:33:52.110Z</time>
      </trkpt>
      <trkpt lat="63.30515" lon="9.84929">
        <ele>66.2667</ele>
        <time>2020-08-06T08:33:55.105Z</time>
      </trkpt>
      <trkpt lat="63.30527" lon="9.84935">
        <ele>66.520479</ele>
        <time>2020-08-06T08:33:58.132Z</time>
      </trkpt>
      <trkpt lat="63.30539" lon="9.84941">
        <ele>66.767801</ele>
        <time>2020-08-06T08:34:01.130Z</time>
      </trkpt>
      <trkpt lat="63.3055" lon="9.84947">
        <ele>67.020241</ele>
        <time>2020-08-06T08:34:04.104Z</time>
      </trkpt>
      <trkpt lat="63.30562" lon="9.84955">
        <ele>67.26839</ele>
        <time>2020-08-06T08:34:07.131Z</time>
      </trkpt>
      <trkpt lat="63.30575" lon="9.84963">
        <ele>67.543988</ele>
        <time>2020-08-06T08:34:10.111Z</time>
      </trkpt>
      <trkpt lat="63.30587" lon="9.8497">
        <ele>67.45294</ele>
        <time>2020-08-06T08:34:13.114Z</time>
      </trkpt>
      <trkpt lat="63.306" lon="9.84977">
        <ele>67.085798</ele>
        <time>2020-08-06T08:34:16.114Z</time>
      </trkpt>
      <trkpt lat="63.30613" lon="9.84983">
        <ele>66.688437</ele>
        <time>2020-08-06T08:34:19.113Z</time>
      </trkpt>
      <trkpt lat="63.30622" lon="9.84989">
        <ele>66.413326</ele>
        <time>2020-08-06T08:34:21.127Z</time>
      </trkpt>
      <trkpt lat="63.30631" lon="9.84996">
        <ele>66.116244</ele>
        <time>2020-08-06T08:34:23.120Z</time>
      </trkpt>
      <trkpt lat="63.30641" lon="9.85004">
        <ele>65.810439</ele>
        <time>2020-08-06T08:34:25.174Z</time>
      </trkpt>
      <trkpt lat="63.30651" lon="9.85012">
        <ele>65.502399</ele>
        <time>2020-08-06T08:34:27.119Z</time>
      </trkpt>
      <trkpt lat="63.3066" lon="9.85022">
        <ele>65.203011</ele>
        <time>2020-08-06T08:34:29.135Z</time>
      </trkpt>
      <trkpt lat="63.30669" lon="9.85034">
        <ele>64.896232</ele>
        <time>2020-08-06T08:34:31.134Z</time>
      </trkpt>
      <trkpt lat="63.30677" lon="9.85046">
        <ele>64.618971</ele>
        <time>2020-08-06T08:34:33.126Z</time>
      </trkpt>
      <trkpt lat="63.30688" lon="9.85064">
        <ele>64.22751</ele>
        <time>2020-08-06T08:34:36.119Z</time>
      </trkpt>
      <trkpt lat="63.30699" lon="9.85079">
        <ele>63.849992</ele>
        <time>2020-08-06T08:34:39.117Z</time>
      </trkpt>
      <trkpt lat="63.3071" lon="9.85092">
        <ele>63.483942</ele>
        <time>2020-08-06T08:34:42.119Z</time>
      </trkpt>
      <trkpt lat="63.30719" lon="9.85105">
        <ele>63.161907</ele>
        <time>2020-08-06T08:34:45.143Z</time>
      </trkpt>
      <trkpt lat="63.3073" lon="9.85119">
        <ele>62.813287</ele>
        <time>2020-08-06T08:34:48.160Z</time>
      </trkpt>
      <trkpt lat="63.30741" lon="9.85131">
        <ele>62.450945</ele>
        <time>2020-08-06T08:34:51.133Z</time>
      </trkpt>
      <trkpt lat="63.30752" lon="9.85143">
        <ele>62.496802</ele>
        <time>2020-08-06T08:34:54.119Z</time>
      </trkpt>
      <trkpt lat="63.30763" lon="9.85155">
        <ele>62.602572</ele>
        <time>2020-08-06T08:34:57.156Z</time>
      </trkpt>
      <trkpt lat="63.30773" lon="9.85166">
        <ele>62.699701</ele>
        <time>2020-08-06T08:35:00.117Z</time>
      </trkpt>
      <trkpt lat="63.30784" lon="9.85179">
        <ele>62.801473</ele>
        <time>2020-08-06T08:35:03.101Z</time>
      </trkpt>
      <trkpt lat="63.30794" lon="9.85194">
        <ele>62.905586</ele>
        <time>2020-08-06T08:35:06.117Z</time>
      </trkpt>
      <trkpt lat="63.30803" lon="9.85207">
        <ele>62.999146</ele>
        <time>2020-08-06T08:35:09.140Z</time>
      </trkpt>
      <trkpt lat="63.30811" lon="9.85223">
        <ele>63.090761</ele>
        <time>2020-08-06T08:35:12.138Z</time>
      </trkpt>
      <trkpt lat="63.30818" lon="9.85237">
        <ele>63.168667</ele>
        <time>2020-08-06T08:35:15.128Z</time>
      </trkpt>
      <trkpt lat="63.30825" lon="9.85251">
        <ele>63.247408</ele>
        <time>2020-08-06T08:35:19.138Z</time>
      </trkpt>
      <trkpt lat="63.30832" lon="9.85268">
        <ele>63.341947</ele>
        <time>2020-08-06T08:35:24.111Z</time>
      </trkpt>
      <trkpt lat="63.30841" lon="9.85284">
        <ele>63.434213</ele>
        <time>2020-08-06T08:35:29.117Z</time>
      </trkpt>
      <trkpt lat="63.30847" lon="9.85301">
        <ele>63.516855</ele>
        <time>2020-08-06T08:35:33.137Z</time>
      </trkpt>
      <trkpt lat="63.30853" lon="9.85319">
        <ele>63.606406</ele>
        <time>2020-08-06T08:35:37.128Z</time>
      </trkpt>
      <trkpt lat="63.30861" lon="9.85337">
        <ele>63.702195</ele>
        <time>2020-08-06T08:35:42.141Z</time>
      </trkpt>
      <trkpt lat="63.30867" lon="9.85357">
        <ele>63.79235</ele>
        <time>2020-08-06T08:35:46.102Z</time>
      </trkpt>
      <trkpt lat="63.30872" lon="9.85377">
        <ele>63.88186</ele>
        <time>2020-08-06T08:35:50.119Z</time>
      </trkpt>
      <trkpt lat="63.30877" lon="9.85399">
        <ele>64.004131</ele>
        <time>2020-08-06T08:35:54.111Z</time>
      </trkpt>
      <trkpt lat="63.30882" lon="9.85416">
        <ele>64.143147</ele>
        <time>2020-08-06T08:35:57.096Z</time>
      </trkpt>
      <trkpt lat="63.30888" lon="9.85433">
        <ele>64.293611</ele>
        <time>2020-08-06T08:36:00.112Z</time>
      </trkpt>
      <trkpt lat="63.30895" lon="9.85454">
        <ele>64.464057</ele>
        <time>2020-08-06T08:36:03.122Z</time>
      </trkpt>
      <trkpt lat="63.309" lon="9.85474">
        <ele>64.62459</ele>
        <time>2020-08-06T08:36:06.122Z</time>
      </trkpt>
      <trkpt lat="63.30907" lon="9.85494">
        <ele>64.787776</ele>
        <time>2020-08-06T08:36:09.117Z</time>
      </trkpt>
      <trkpt lat="63.30913" lon="9.85514">
        <ele>64.953983</ele>
        <time>2020-08-06T08:36:12.143Z</time>
      </trkpt>
      <trkpt lat="63.30918" lon="9.85537">
        <ele>65.127191</ele>
        <time>2020-08-06T08:36:15.114Z</time>
      </trkpt>
      <trkpt lat="63.30925" lon="9.85559">
        <ele>65.312172</ele>
        <time>2020-08-06T08:36:18.097Z</time>
      </trkpt>
      <trkpt lat="63.3093" lon="9.85585">
        <ele>65.500991</ele>
        <time>2020-08-06T08:36:21.111Z</time>
      </trkpt>
      <trkpt lat="63.30932" lon="9.85608">
        <ele>65.661438</ele>
        <time>2020-08-06T08:36:24.134Z</time>
      </trkpt>
      <trkpt lat="63.30932" lon="9.85634">
        <ele>65.834323</ele>
        <time>2020-08-06T08:36:28.111Z</time>
      </trkpt>
      <trkpt lat="63.3093" lon="9.85656">
        <ele>65.98911</ele>
        <time>2020-08-06T08:36:32.103Z</time>
      </trkpt>
      <trkpt lat="63.30937" lon="9.85671">
        <ele>66.138407</ele>
        <time>2020-08-06T08:36:35.107Z</time>
      </trkpt>
      <trkpt lat="63.30945" lon="9.8568">
        <ele>66.280471</ele>
        <time>2020-08-06T08:36:37.115Z</time>
      </trkpt>
      <trkpt lat="63.30954" lon="9.85688">
        <ele>66.428818</ele>
        <time>2020-08-06T08:36:39.114Z</time>
      </trkpt>
      <trkpt lat="63.30964" lon="9.85698">
        <ele>66.582462</ele>
        <time>2020-08-06T08:36:41.138Z</time>
      </trkpt>
      <trkpt lat="63.30973" lon="9.85711">
        <ele>66.528941</ele>
        <time>2020-08-06T08:36:43.132Z</time>
      </trkpt>
      <trkpt lat="63.30981" lon="9.85729">
        <ele>66.293379</ele>
        <time>2020-08-06T08:36:45.105Z</time>
      </trkpt>
      <trkpt lat="63.30988" lon="9.85747">
        <ele>66.075849</ele>
        <time>2020-08-06T08:36:47.113Z</time>
      </trkpt>
      <trkpt lat="63.30994" lon="9.85765">
        <ele>65.869166</ele>
        <time>2020-08-06T08:36:49.107Z</time>
      </trkpt>
      <trkpt lat="63.31001" lon="9.85781">
        <ele>65.676017</ele>
        <time>2020-08-06T08:36:51.117Z</time>
      </trkpt>
      <trkpt lat="63.31007" lon="9.85796">
        <ele>65.486279</ele>
        <time>2020-08-06T08:36:53.113Z</time>
      </trkpt>
      <trkpt lat="63.31013" lon="9.85811">
        <ele>65.30114</ele>
        <time>2020-08-06T08:36:55.157Z</time>
      </trkpt>
      <trkpt lat="63.3102" lon="9.85827">
        <ele>65.110758</ele>
        <time>2020-08-06T08:36:57.130Z</time>
      </trkpt>
      <trkpt lat="63.31026" lon="9.85842">
        <ele>64.917652</ele>
        <time>2020-08-06T08:36:59.118Z</time>
      </trkpt>
      <trkpt lat="63.31033" lon="9.85859">
        <ele>64.721811</ele>
        <time>2020-08-06T08:37:01.114Z</time>
      </trkpt>
      <trkpt lat="63.3104" lon="9.85876">
        <ele>64.501701</ele>
        <time>2020-08-06T08:37:03.117Z</time>
      </trkpt>
      <trkpt lat="63.31048" lon="9.85895">
        <ele>64.268649</ele>
        <time>2020-08-06T08:37:05.133Z</time>
      </trkpt>
      <trkpt lat="63.31056" lon="9.85914">
        <ele>64.026062</ele>
        <time>2020-08-06T08:37:07.116Z</time>
      </trkpt>
      <trkpt lat="63.31066" lon="9.85935">
        <ele>63.756578</ele>
        <time>2020-08-06T08:37:09.117Z</time>
      </trkpt>
      <trkpt lat="63.31076" lon="9.85958">
        <ele>63.459828</ele>
        <time>2020-08-06T08:37:11.102Z</time>
      </trkpt>
      <trkpt lat="63.31087" lon="9.85982">
        <ele>63.155662</ele>
        <time>2020-08-06T08:37:13.121Z</time>
      </trkpt>
      <trkpt lat="63.31097" lon="9.86005">
        <ele>62.642629</ele>
        <time>2020-08-06T08:37:15.122Z</time>
      </trkpt>
      <trkpt lat="63.31106" lon="9.86027">
        <ele>61.99492</ele>
        <time>2020-08-06T08:37:17.163Z</time>
      </trkpt>
      <trkpt lat="63.31115" lon="9.86048">
        <ele>61.385752</ele>
        <time>2020-08-06T08:37:19.149Z</time>
      </trkpt>
      <trkpt lat="63.31123" lon="9.86069">
        <ele>60.782974</ele>
        <time>2020-08-06T08:37:21.116Z</time>
      </trkpt>
      <trkpt lat="63.31131" lon="9.8609">
        <ele>60.186729</ele>
        <time>2020-08-06T08:37:23.109Z</time>
      </trkpt>
      <trkpt lat="63.31139" lon="9.8611">
        <ele>59.607471</ele>
        <time>2020-08-06T08:37:25.112Z</time>
      </trkpt>
      <trkpt lat="63.31146" lon="9.86131">
        <ele>59.036276</ele>
        <time>2020-08-06T08:37:27.109Z</time>
      </trkpt>
      <trkpt lat="63.31154" lon="9.8615">
        <ele>58.465729</ele>
        <time>2020-08-06T08:37:29.129Z</time>
      </trkpt>
      <trkpt lat="63.31162" lon="9.8617">
        <ele>57.916024</ele>
        <time>2020-08-06T08:37:31.161Z</time>
      </trkpt>
      <trkpt lat="63.31169" lon="9.86187">
        <ele>57.406566</ele>
        <time>2020-08-06T08:37:33.145Z</time>
      </trkpt>
      <trkpt lat="63.31177" lon="9.86205">
        <ele>56.861335</ele>
        <time>2020-08-06T08:37:35.111Z</time>
      </trkpt>
      <trkpt lat="63.31184" lon="9.86224">
        <ele>56.316506</ele>
        <time>2020-08-06T08:37:37.114Z</time>
      </trkpt>
      <trkpt lat="63.31192" lon="9.86243">
        <ele>55.749146</ele>
        <time>2020-08-06T08:37:39.107Z</time>
      </trkpt>
      <trkpt lat="63.312" lon="9.86263">
        <ele>55.17539</ele>
        <time>2020-08-06T08:37:41.154Z</time>
      </trkpt>
      <trkpt lat="63.31208" lon="9.86284">
        <ele>54.572623</ele>
        <time>2020-08-06T08:37:43.118Z</time>
      </trkpt>
      <trkpt lat="63.31216" lon="9.86306">
        <ele>54.228291</ele>
        <time>2020-08-06T08:37:45.112Z</time>
      </trkpt>
      <trkpt lat="63.31224" lon="9.86329">
        <ele>54.015887</ele>
        <time>2020-08-06T08:37:47.120Z</time>
      </trkpt>
      <trkpt lat="63.31231" lon="9.86351">
        <ele>53.810879</ele>
        <time>2020-08-06T08:37:49.111Z</time>
      </trkpt>
      <trkpt lat="63.31238" lon="9.86373">
        <ele>53.609687</ele>
        <time>2020-08-06T08:37:51.132Z</time>
      </trkpt>
      <trkpt lat="63.31245" lon="9.86395">
        <ele>53.406686</ele>
        <time>2020-08-06T08:37:53.151Z</time>
      </trkpt>
      <trkpt lat="63.31253" lon="9.86417">
        <ele>53.192213</ele>
        <time>2020-08-06T08:37:55.172Z</time>
      </trkpt>
      <trkpt lat="63.31262" lon="9.86439">
        <ele>52.969534</ele>
        <time>2020-08-06T08:37:57.157Z</time>
      </trkpt>
      <trkpt lat="63.31271" lon="9.86461">
        <ele>52.751864</ele>
        <time>2020-08-06T08:37:59.113Z</time>
      </trkpt>
      <trkpt lat="63.3128" lon="9.86481">
        <ele>52.537496</ele>
        <time>2020-08-06T08:38:01.107Z</time>
      </trkpt>
      <trkpt lat="63.31288" lon="9.86502">
        <ele>52.32984</ele>
        <time>2020-08-06T08:38:03.125Z</time>
      </trkpt>
      <trkpt lat="63.31297" lon="9.86523">
        <ele>52.10994</ele>
        <time>2020-08-06T08:38:05.148Z</time>
      </trkpt>
      <trkpt lat="63.31307" lon="9.86545">
        <ele>51.873404</ele>
        <time>2020-08-06T08:38:07.117Z</time>
      </trkpt>
      <trkpt lat="63.31319" lon="9.86558">
        <ele>51.653638</ele>
        <time>2020-08-06T08:38:09.140Z</time>
      </trkpt>
      <trkpt lat="63.31332" lon="9.86558">
        <ele>51.436493</ele>
        <time>2020-08-06T08:38:11.114Z</time>
      </trkpt>
      <trkpt lat="63.31344" lon="9.86543">
        <ele>51.258661</ele>
        <time>2020-08-06T08:38:13.115Z</time>
      </trkpt>
      <trkpt lat="63.31357" lon="9.86528">
        <ele>51.104325</ele>
        <time>2020-08-06T08:38:15.113Z</time>
      </trkpt>
      <trkpt lat="63.31368" lon="9.86523">
        <ele>50.978513</ele>
        <time>2020-08-06T08:38:17.158Z</time>
      </trkpt>
      <trkpt lat="63.31375" lon="9.86538">
        <ele>50.87044</ele>
        <time>2020-08-06T08:38:19.116Z</time>
      </trkpt>
      <trkpt lat="63.31381" lon="9.86559">
        <ele>50.749447</ele>
        <time>2020-08-06T08:38:21.122Z</time>
      </trkpt>
      <trkpt lat="63.31387" lon="9.86578">
        <ele>50.641197</ele>
        <time>2020-08-06T08:38:23.122Z</time>
      </trkpt>
      <trkpt lat="63.31394" lon="9.86594">
        <ele>50.529356</ele>
        <time>2020-08-06T08:38:25.157Z</time>
      </trkpt>
      <trkpt lat="63.314" lon="9.86612">
        <ele>50.417514</ele>
        <time>2020-08-06T08:38:27.126Z</time>
      </trkpt>
      <trkpt lat="63.31407" lon="9.86627">
        <ele>50.309443</ele>
        <time>2020-08-06T08:38:29.137Z</time>
      </trkpt>
      <trkpt lat="63.31415" lon="9.86642">
        <ele>50.199671</ele>
        <time>2020-08-06T08:38:31.095Z</time>
      </trkpt>
      <trkpt lat="63.31423" lon="9.86657">
        <ele>50.087507</ele>
        <time>2020-08-06T08:38:33.119Z</time>
      </trkpt>
      <trkpt lat="63.31431" lon="9.8667">
        <ele>49.978028</ele>
        <time>2020-08-06T08:38:35.107Z</time>
      </trkpt>
      <trkpt lat="63.3144" lon="9.86684">
        <ele>49.861788</ele>
        <time>2020-08-06T08:38:37.100Z</time>
      </trkpt>
      <trkpt lat="63.31449" lon="9.86696">
        <ele>49.746648</ele>
        <time>2020-08-06T08:38:39.132Z</time>
      </trkpt>
      <trkpt lat="63.31457" lon="9.86709">
        <ele>49.630323</ele>
        <time>2020-08-06T08:38:41.098Z</time>
      </trkpt>
      <trkpt lat="63.31466" lon="9.86723">
        <ele>49.51414</ele>
        <time>2020-08-06T08:38:43.124Z</time>
      </trkpt>
      <trkpt lat="63.31475" lon="9.86737">
        <ele>49.414318</ele>
        <time>2020-08-06T08:38:45.124Z</time>
      </trkpt>
      <trkpt lat="63.31483" lon="9.86751">
        <ele>50.198582</ele>
        <time>2020-08-06T08:38:47.103Z</time>
      </trkpt>
      <trkpt lat="63.3149" lon="9.86766">
        <ele>50.955691</ele>
        <time>2020-08-06T08:38:49.107Z</time>
      </trkpt>
      <trkpt lat="63.31497" lon="9.8678">
        <ele>51.668769</ele>
        <time>2020-08-06T08:38:51.121Z</time>
      </trkpt>
      <trkpt lat="63.31505" lon="9.86803">
        <ele>52.629909</ele>
        <time>2020-08-06T08:38:54.103Z</time>
      </trkpt>
      <trkpt lat="63.3151" lon="9.86821">
        <ele>53.373202</ele>
        <time>2020-08-06T08:38:57.123Z</time>
      </trkpt>
      <trkpt lat="63.31516" lon="9.8684">
        <ele>54.152018</ele>
        <time>2020-08-06T08:39:02.101Z</time>
      </trkpt>
      <trkpt lat="63.31521" lon="9.86859">
        <ele>54.903288</ele>
        <time>2020-08-06T08:39:12.120Z</time>
      </trkpt>
      <trkpt lat="63.31525" lon="9.86876">
        <ele>55.588304</ele>
        <time>2020-08-06T08:39:18.112Z</time>
      </trkpt>
      <trkpt lat="63.3153" lon="9.86897">
        <ele>56.401739</ele>
        <time>2020-08-06T08:39:24.151Z</time>
      </trkpt>
      <trkpt lat="63.31536" lon="9.86916">
        <ele>57.154038</ele>
        <time>2020-08-06T08:39:30.130Z</time>
      </trkpt>
      <trkpt lat="63.3154" lon="9.86936">
        <ele>57.932699</ele>
        <time>2020-08-06T08:39:36.115Z</time>
      </trkpt>
      <trkpt lat="63.31545" lon="9.86956">
        <ele>58.691833</ele>
        <time>2020-08-06T08:39:42.116Z</time>
      </trkpt>
      <trkpt lat="63.31548" lon="9.86977">
        <ele>59.443661</ele>
        <time>2020-08-06T08:39:48.113Z</time>
      </trkpt>
      <trkpt lat="63.3155" lon="9.86999">
        <ele>60.186907</ele>
        <time>2020-08-06T08:39:54.118Z</time>
      </trkpt>
      <trkpt lat="63.31552" lon="9.8702">
        <ele>60.923262</ele>
        <time>2020-08-06T08:39:59.103Z</time>
      </trkpt>
      <trkpt lat="63.31556" lon="9.87039">
        <ele>61.654658</ele>
        <time>2020-08-06T08:40:04.100Z</time>
      </trkpt>
      <trkpt lat="63.31563" lon="9.87055">
        <ele>62.40503</ele>
        <time>2020-08-06T08:40:08.156Z</time>
      </trkpt>
      <trkpt lat="63.31572" lon="9.87069">
        <ele>63.091831</ele>
        <time>2020-08-06T08:40:12.099Z</time>
      </trkpt>
      <trkpt lat="63.31579" lon="9.87081">
        <ele>63.284808</ele>
        <time>2020-08-06T08:40:15.118Z</time>
      </trkpt>
      <trkpt lat="63.31588" lon="9.87095">
        <ele>63.493021</ele>
        <time>2020-08-06T08:40:18.111Z</time>
      </trkpt>
      <trkpt lat="63.31595" lon="9.87109">
        <ele>63.698625</ele>
        <time>2020-08-06T08:40:21.113Z</time>
      </trkpt>
      <trkpt lat="63.31603" lon="9.87123">
        <ele>63.906716</ele>
        <time>2020-08-06T08:40:24.149Z</time>
      </trkpt>
      <trkpt lat="63.31612" lon="9.87139">
        <ele>64.134637</ele>
        <time>2020-08-06T08:40:27.119Z</time>
      </trkpt>
      <trkpt lat="63.31619" lon="9.87156">
        <ele>64.351808</ele>
        <time>2020-08-06T08:40:30.109Z</time>
      </trkpt>
      <trkpt lat="63.31627" lon="9.87173">
        <ele>64.580176</ele>
        <time>2020-08-06T08:40:33.109Z</time>
      </trkpt>
      <trkpt lat="63.31636" lon="9.87192">
        <ele>64.826413</ele>
        <time>2020-08-06T08:40:36.113Z</time>
      </trkpt>
      <trkpt lat="63.31645" lon="9.87211">
        <ele>65.077486</ele>
        <time>2020-08-06T08:40:39.131Z</time>
      </trkpt>
      <trkpt lat="63.31655" lon="9.87229">
        <ele>65.332687</ele>
        <time>2020-08-06T08:40:42.101Z</time>
      </trkpt>
      <trkpt lat="63.31663" lon="9.87247">
        <ele>65.576017</ele>
        <time>2020-08-06T08:40:45.115Z</time>
      </trkpt>
      <trkpt lat="63.31671" lon="9.87266">
        <ele>65.806686</ele>
        <time>2020-08-06T08:40:48.142Z</time>
      </trkpt>
      <trkpt lat="63.31679" lon="9.87285">
        <ele>66.045521</ele>
        <time>2020-08-06T08:40:51.125Z</time>
      </trkpt>
      <trkpt lat="63.31687" lon="9.87306">
        <ele>66.293944</ele>
        <time>2020-08-06T08:40:54.116Z</time>
      </trkpt>
      <trkpt lat="63.31694" lon="9.87327">
        <ele>66.541867</ele>
        <time>2020-08-06T08:40:57.141Z</time>
      </trkpt>
      <trkpt lat="63.31701" lon="9.87348">
        <ele>66.859968</ele>
        <time>2020-08-06T08:41:00.112Z</time>
      </trkpt>
      <trkpt lat="63.31708" lon="9.87366">
        <ele>67.340275</ele>
        <time>2020-08-06T08:41:03.128Z</time>
      </trkpt>
      <trkpt lat="63.31714" lon="9.87387">
        <ele>67.840401</ele>
        <time>2020-08-06T08:41:07.129Z</time>
      </trkpt>
      <trkpt lat="63.31719" lon="9.87408">
        <ele>68.331422</ele>
        <time>2020-08-06T08:41:12.104Z</time>
      </trkpt>
      <trkpt lat="63.31723" lon="9.87427">
        <ele>68.783972</ele>
        <time>2020-08-06T08:41:17.100Z</time>
      </trkpt>
      <trkpt lat="63.31729" lon="9.87448">
        <ele>69.262491</ele>
        <time>2020-08-06T08:41:23.134Z</time>
      </trkpt>
      <trkpt lat="63.31733" lon="9.87466">
        <ele>69.68329</ele>
        <time>2020-08-06T08:41:28.108Z</time>
      </trkpt>
      <trkpt lat="63.31737" lon="9.87486">
        <ele>70.131585</ele>
        <time>2020-08-06T08:41:33.124Z</time>
      </trkpt>
      <trkpt lat="63.31742" lon="9.87506">
        <ele>70.588037</ele>
        <time>2020-08-06T08:41:38.111Z</time>
      </trkpt>
      <trkpt lat="63.31745" lon="9.87528">
        <ele>71.06939</ele>
        <time>2020-08-06T08:41:43.121Z</time>
      </trkpt>
      <trkpt lat="63.31749" lon="9.87549">
        <ele>71.531868</ele>
        <time>2020-08-06T08:41:48.116Z</time>
      </trkpt>
      <trkpt lat="63.31754" lon="9.87571">
        <ele>72.042215</ele>
        <time>2020-08-06T08:41:53.131Z</time>
      </trkpt>
      <trkpt lat="63.31759" lon="9.87593">
        <ele>72.53588</ele>
        <time>2020-08-06T08:41:58.116Z</time>
      </trkpt>
      <trkpt lat="63.31763" lon="9.87616">
        <ele>73.042554</ele>
        <time>2020-08-06T08:42:03.121Z</time>
      </trkpt>
      <trkpt lat="63.31767" lon="9.87634">
        <ele>73.476484</ele>
        <time>2020-08-06T08:42:07.099Z</time>
      </trkpt>
      <trkpt lat="63.31772" lon="9.87652">
        <ele>73.896101</ele>
        <time>2020-08-06T08:42:11.119Z</time>
      </trkpt>
      <trkpt lat="63.31776" lon="9.87673">
        <ele>74.376221</ele>
        <time>2020-08-06T08:42:16.141Z</time>
      </trkpt>
      <trkpt lat="63.31781" lon="9.87692">
        <ele>74.809646</ele>
        <time>2020-08-06T08:42:21.161Z</time>
      </trkpt>
      <trkpt lat="63.31786" lon="9.87709">
        <ele>75.263316</ele>
        <time>2020-08-06T08:42:26.128Z</time>
      </trkpt>
      <trkpt lat="63.31789" lon="9.87728">
        <ele>75.720818</ele>
        <time>2020-08-06T08:42:31.132Z</time>
      </trkpt>
      <trkpt lat="63.31795" lon="9.87748">
        <ele>76.252623</ele>
        <time>2020-08-06T08:42:37.114Z</time>
      </trkpt>
      <trkpt lat="63.31799" lon="9.87767">
        <ele>76.756156</ele>
        <time>2020-08-06T08:42:43.101Z</time>
      </trkpt>
      <trkpt lat="63.31804" lon="9.87786">
        <ele>77.266171</ele>
        <time>2020-08-06T08:42:49.103Z</time>
      </trkpt>
      <trkpt lat="63.3181" lon="9.87802">
        <ele>77.737468</ele>
        <time>2020-08-06T08:42:54.114Z</time>
      </trkpt>
      <trkpt lat="63.31816" lon="9.87821">
        <ele>78.259801</ele>
        <time>2020-08-06T08:43:00.124Z</time>
      </trkpt>
      <trkpt lat="63.31821" lon="9.87838">
        <ele>78.735964</ele>
        <time>2020-08-06T08:43:06.120Z</time>
      </trkpt>
      <trkpt lat="63.31826" lon="9.87856">
        <ele>79.197035</ele>
        <time>2020-08-06T08:43:12.103Z</time>
      </trkpt>
      <trkpt lat="63.31832" lon="9.87873">
        <ele>79.716679</ele>
        <time>2020-08-06T08:43:18.142Z</time>
      </trkpt>
      <trkpt lat="63.3184" lon="9.87891">
        <ele>80.273804</ele>
        <time>2020-08-06T08:43:24.128Z</time>
      </trkpt>
      <trkpt lat="63.31847" lon="9.87906">
        <ele>80.780452</ele>
        <time>2020-08-06T08:43:29.159Z</time>
      </trkpt>
      <trkpt lat="63.31854" lon="9.87923">
        <ele>81.301818</ele>
        <time>2020-08-06T08:43:34.124Z</time>
      </trkpt>
      <trkpt lat="63.3186" lon="9.87937">
        <ele>81.767917</ele>
        <time>2020-08-06T08:43:38.117Z</time>
      </trkpt>
      <trkpt lat="63.31867" lon="9.87957">
        <ele>82.335653</ele>
        <time>2020-08-06T08:43:43.127Z</time>
      </trkpt>
      <trkpt lat="63.31874" lon="9.87972">
        <ele>82.82131</ele>
        <time>2020-08-06T08:43:47.120Z</time>
      </trkpt>
      <trkpt lat="63.31881" lon="9.87988">
        <ele>83.333592</ele>
        <time>2020-08-06T08:43:51.148Z</time>
      </trkpt>
      <trkpt lat="63.31888" lon="9.88003">
        <ele>83.823307</ele>
        <time>2020-08-06T08:43:55.111Z</time>
      </trkpt>
      <trkpt lat="63.31895" lon="9.88019">
        <ele>84.092606</ele>
        <time>2020-08-06T08:43:59.129Z</time>
      </trkpt>
      <trkpt lat="63.31902" lon="9.88036">
        <ele>84.107676</ele>
        <time>2020-08-06T08:44:02.150Z</time>
      </trkpt>
      <trkpt lat="63.31909" lon="9.88054">
        <ele>84.124359</ele>
        <time>2020-08-06T08:44:05.116Z</time>
      </trkpt>
      <trkpt lat="63.31917" lon="9.88073">
        <ele>84.14195</ele>
        <time>2020-08-06T08:44:08.125Z</time>
      </trkpt>
      <trkpt lat="63.31926" lon="9.88092">
        <ele>84.160551</ele>
        <time>2020-08-06T08:44:11.118Z</time>
      </trkpt>
      <trkpt lat="63.31935" lon="9.88113">
        <ele>84.180496</ele>
        <time>2020-08-06T08:44:14.112Z</time>
      </trkpt>
      <trkpt lat="63.31941" lon="9.88128">
        <ele>84.19406</ele>
        <time>2020-08-06T08:44:16.133Z</time>
      </trkpt>
      <trkpt lat="63.31948" lon="9.88144">
        <ele>84.208739</ele>
        <time>2020-08-06T08:44:18.132Z</time>
      </trkpt>
      <trkpt lat="63.31956" lon="9.88162">
        <ele>84.225379</ele>
        <time>2020-08-06T08:44:20.121Z</time>
      </trkpt>
      <trkpt lat="63.31964" lon="9.88179">
        <ele>84.242644</ele>
        <time>2020-08-06T08:44:22.119Z</time>
      </trkpt>
      <trkpt lat="63.31973" lon="9.88197">
        <ele>84.259868</ele>
        <time>2020-08-06T08:44:24.142Z</time>
      </trkpt>
      <trkpt lat="63.31981" lon="9.88213">
        <ele>84.276687</ele>
        <time>2020-08-06T08:44:26.157Z</time>
      </trkpt>
      <trkpt lat="63.31989" lon="9.88229">
        <ele>84.292541</ele>
        <time>2020-08-06T08:44:28.118Z</time>
      </trkpt>
      <trkpt lat="63.31996" lon="9.88246">
        <ele>84.308418</ele>
        <time>2020-08-06T08:44:30.113Z</time>
      </trkpt>
      <trkpt lat="63.32003" lon="9.88264">
        <ele>84.324394</ele>
        <time>2020-08-06T08:44:32.132Z</time>
      </trkpt>
      <trkpt lat="63.3201" lon="9.8828">
        <ele>84.339565</ele>
        <time>2020-08-06T08:44:34.103Z</time>
      </trkpt>
      <trkpt lat="63.32016" lon="9.88295">
        <ele>84.353543</ele>
        <time>2020-08-06T08:44:36.119Z</time>
      </trkpt>
      <trkpt lat="63.32025" lon="9.88316">
        <ele>84.976664</ele>
        <time>2020-08-06T08:44:39.123Z</time>
      </trkpt>
      <trkpt lat="63.32031" lon="9.88332">
        <ele>85.456675</ele>
        <time>2020-08-06T08:44:41.107Z</time>
      </trkpt>
      <trkpt lat="63.32037" lon="9.88347">
        <ele>85.924205</ele>
        <time>2020-08-06T08:44:43.111Z</time>
      </trkpt>
      <trkpt lat="63.32044" lon="9.88362">
        <ele>86.393586</ele>
        <time>2020-08-06T08:44:45.108Z</time>
      </trkpt>
      <trkpt lat="63.32053" lon="9.88384">
        <ele>87.081007</ele>
        <time>2020-08-06T08:44:48.112Z</time>
      </trkpt>
      <trkpt lat="63.32059" lon="9.88399">
        <ele>87.548536</ele>
        <time>2020-08-06T08:44:50.128Z</time>
      </trkpt>
      <trkpt lat="63.32065" lon="9.88414">
        <ele>88.036729</ele>
        <time>2020-08-06T08:44:52.134Z</time>
      </trkpt>
      <trkpt lat="63.32073" lon="9.8843">
        <ele>88.563605</ele>
        <time>2020-08-06T08:44:54.162Z</time>
      </trkpt>
      <trkpt lat="63.3208" lon="9.88447">
        <ele>89.084407</ele>
        <time>2020-08-06T08:44:56.130Z</time>
      </trkpt>
      <trkpt lat="63.32086" lon="9.88464">
        <ele>89.597481</ele>
        <time>2020-08-06T08:44:58.112Z</time>
      </trkpt>
      <trkpt lat="63.32092" lon="9.88481">
        <ele>90.09832</ele>
        <time>2020-08-06T08:45:00.146Z</time>
      </trkpt>
      <trkpt lat="63.32099" lon="9.88498">
        <ele>90.619053</ele>
        <time>2020-08-06T08:45:02.125Z</time>
      </trkpt>
      <trkpt lat="63.32105" lon="9.88514">
        <ele>91.124425</ele>
        <time>2020-08-06T08:45:04.144Z</time>
      </trkpt>
      <trkpt lat="63.32111" lon="9.88531">
        <ele>91.621188</ele>
        <time>2020-08-06T08:45:06.121Z</time>
      </trkpt>
      <trkpt lat="63.32118" lon="9.88546">
        <ele>92.107565</ele>
        <time>2020-08-06T08:45:08.130Z</time>
      </trkpt>
      <trkpt lat="63.32124" lon="9.88562">
        <ele>92.597437</ele>
        <time>2020-08-06T08:45:10.139Z</time>
      </trkpt>
      <trkpt lat="63.32131" lon="9.88578">
        <ele>93.095812</ele>
        <time>2020-08-06T08:45:12.127Z</time>
      </trkpt>
      <trkpt lat="63.32138" lon="9.88595">
        <ele>93.600839</ele>
        <time>2020-08-06T08:45:14.142Z</time>
      </trkpt>
      <trkpt lat="63.32146" lon="9.88614">
        <ele>93.523793</ele>
        <time>2020-08-06T08:45:16.140Z</time>
      </trkpt>
      <trkpt lat="63.32155" lon="9.88632">
        <ele>93.448334</ele>
        <time>2020-08-06T08:45:18.112Z</time>
      </trkpt>
      <trkpt lat="63.32163" lon="9.8865">
        <ele>93.3736</ele>
        <time>2020-08-06T08:45:20.142Z</time>
      </trkpt>
      <trkpt lat="63.32171" lon="9.88669">
        <ele>93.295977</ele>
        <time>2020-08-06T08:45:22.152Z</time>
      </trkpt>
      <trkpt lat="63.3218" lon="9.88689">
        <ele>93.213401</ele>
        <time>2020-08-06T08:45:24.130Z</time>
      </trkpt>
      <trkpt lat="63.32189" lon="9.88711">
        <ele>93.125906</ele>
        <time>2020-08-06T08:45:26.126Z</time>
      </trkpt>
      <trkpt lat="63.32199" lon="9.88733">
        <ele>93.035119</ele>
        <time>2020-08-06T08:45:28.123Z</time>
      </trkpt>
      <trkpt lat="63.32209" lon="9.88756">
        <ele>92.940219</ele>
        <time>2020-08-06T08:45:30.123Z</time>
      </trkpt>
      <trkpt lat="63.3222" lon="9.88779">
        <ele>92.844907</ele>
        <time>2020-08-06T08:45:32.134Z</time>
      </trkpt>
      <trkpt lat="63.3223" lon="9.88802">
        <ele>92.75073</ele>
        <time>2020-08-06T08:45:34.111Z</time>
      </trkpt>
      <trkpt lat="63.32241" lon="9.88825">
        <ele>92.652461</ele>
        <time>2020-08-06T08:45:36.124Z</time>
      </trkpt>
      <trkpt lat="63.32252" lon="9.88849">
        <ele>92.551625</ele>
        <time>2020-08-06T08:45:38.138Z</time>
      </trkpt>
      <trkpt lat="63.32262" lon="9.88873">
        <ele>92.452902</ele>
        <time>2020-08-06T08:45:40.113Z</time>
      </trkpt>
      <trkpt lat="63.32273" lon="9.88896">
        <ele>91.806779</ele>
        <time>2020-08-06T08:45:42.138Z</time>
      </trkpt>
      <trkpt lat="63.32283" lon="9.88919">
        <ele>91.01996</ele>
        <time>2020-08-06T08:45:44.117Z</time>
      </trkpt>
      <trkpt lat="63.32293" lon="9.88942">
        <ele>90.259189</ele>
        <time>2020-08-06T08:45:46.133Z</time>
      </trkpt>
      <trkpt lat="63.32303" lon="9.88964">
        <ele>89.527267</ele>
        <time>2020-08-06T08:45:48.121Z</time>
      </trkpt>
      <trkpt lat="63.32312" lon="9.88985">
        <ele>88.825376</ele>
        <time>2020-08-06T08:45:50.115Z</time>
      </trkpt>
      <trkpt lat="63.32321" lon="9.89007">
        <ele>88.098867</ele>
        <time>2020-08-06T08:45:52.123Z</time>
      </trkpt>
      <trkpt lat="63.32331" lon="9.89029">
        <ele>87.35611</ele>
        <time>2020-08-06T08:45:54.111Z</time>
      </trkpt>
      <trkpt lat="63.32341" lon="9.89051">
        <ele>86.621511</ele>
        <time>2020-08-06T08:45:56.114Z</time>
      </trkpt>
      <trkpt lat="63.3235" lon="9.89072">
        <ele>85.927315</ele>
        <time>2020-08-06T08:45:58.142Z</time>
      </trkpt>
      <trkpt lat="63.32358" lon="9.89091">
        <ele>85.307836</ele>
        <time>2020-08-06T08:46:00.141Z</time>
      </trkpt>
      <trkpt lat="63.32365" lon="9.8911">
        <ele>84.709747</ele>
        <time>2020-08-06T08:46:02.123Z</time>
      </trkpt>
      <trkpt lat="63.32372" lon="9.89128">
        <ele>84.129476</ele>
        <time>2020-08-06T08:46:04.101Z</time>
      </trkpt>
      <trkpt lat="63.32379" lon="9.89144">
        <ele>83.594722</ele>
        <time>2020-08-06T08:46:06.124Z</time>
      </trkpt>
      <trkpt lat="63.32388" lon="9.89165">
        <ele>82.900242</ele>
        <time>2020-08-06T08:46:09.111Z</time>
      </trkpt>
      <trkpt lat="63.32397" lon="9.89185">
        <ele>82.661984</ele>
        <time>2020-08-06T08:46:12.120Z</time>
      </trkpt>
      <trkpt lat="63.32404" lon="9.89203">
        <ele>82.490109</ele>
        <time>2020-08-06T08:46:16.129Z</time>
      </trkpt>
      <trkpt lat="63.3241" lon="9.89223">
        <ele>82.312149</ele>
        <time>2020-08-06T08:46:21.127Z</time>
      </trkpt>
      <trkpt lat="63.32416" lon="9.89238">
        <ele>82.163192</ele>
        <time>2020-08-06T08:46:24.102Z</time>
      </trkpt>
      <trkpt lat="63.32424" lon="9.89254">
        <ele>81.992038</ele>
        <time>2020-08-06T08:46:27.119Z</time>
      </trkpt>
      <trkpt lat="63.32432" lon="9.89269">
        <ele>81.815596</ele>
        <time>2020-08-06T08:46:30.127Z</time>
      </trkpt>
      <trkpt lat="63.32442" lon="9.89289">
        <ele>81.5948</ele>
        <time>2020-08-06T08:46:34.118Z</time>
      </trkpt>
      <trkpt lat="63.3245" lon="9.89304">
        <ele>81.423525</ele>
        <time>2020-08-06T08:46:37.116Z</time>
      </trkpt>
      <trkpt lat="63.32458" lon="9.8932">
        <ele>81.249332</ele>
        <time>2020-08-06T08:46:40.113Z</time>
      </trkpt>
      <trkpt lat="63.32465" lon="9.89337">
        <ele>81.079638</ele>
        <time>2020-08-06T08:46:43.105Z</time>
      </trkpt>
      <trkpt lat="63.32472" lon="9.89356">
        <ele>80.905912</ele>
        <time>2020-08-06T08:46:46.149Z</time>
      </trkpt>
      <trkpt lat="63.32478" lon="9.89374">
        <ele>80.73739</ele>
        <time>2020-08-06T08:46:49.111Z</time>
      </trkpt>
      <trkpt lat="63.32484" lon="9.89391">
        <ele>80.579826</ele>
        <time>2020-08-06T08:46:52.115Z</time>
      </trkpt>
      <trkpt lat="63.32491" lon="9.89407">
        <ele>80.419954</ele>
        <time>2020-08-06T08:46:55.113Z</time>
      </trkpt>
      <trkpt lat="63.32496" lon="9.89423">
        <ele>80.267438</ele>
        <time>2020-08-06T08:46:58.111Z</time>
      </trkpt>
      <trkpt lat="63.32502" lon="9.8944">
        <ele>80.116348</ele>
        <time>2020-08-06T08:47:01.136Z</time>
      </trkpt>
      <trkpt lat="63.32508" lon="9.89455">
        <ele>79.966774</ele>
        <time>2020-08-06T08:47:04.137Z</time>
      </trkpt>
      <trkpt lat="63.32513" lon="9.89472">
        <ele>79.90688</ele>
        <time>2020-08-06T08:47:07.133Z</time>
      </trkpt>
      <trkpt lat="63.32519" lon="9.89488">
        <ele>79.899842</ele>
        <time>2020-08-06T08:47:10.152Z</time>
      </trkpt>
      <trkpt lat="63.32526" lon="9.89509">
        <ele>79.890571</ele>
        <time>2020-08-06T08:47:14.110Z</time>
      </trkpt>
      <trkpt lat="63.3253" lon="9.89527">
        <ele>79.883463</ele>
        <time>2020-08-06T08:47:17.121Z</time>
      </trkpt>
      <trkpt lat="63.32536" lon="9.89545">
        <ele>79.875612</ele>
        <time>2020-08-06T08:47:20.121Z</time>
      </trkpt>
      <trkpt lat="63.32541" lon="9.89563">
        <ele>79.868082</ele>
        <time>2020-08-06T08:47:23.127Z</time>
      </trkpt>
      <trkpt lat="63.32548" lon="9.89583">
        <ele>79.859335</ele>
        <time>2020-08-06T08:47:27.122Z</time>
      </trkpt>
      <trkpt lat="63.32555" lon="9.89603">
        <ele>79.850479</ele>
        <time>2020-08-06T08:47:31.135Z</time>
      </trkpt>
      <trkpt lat="63.32561" lon="9.89619">
        <ele>79.843216</ele>
        <time>2020-08-06T08:47:34.125Z</time>
      </trkpt>
      <trkpt lat="63.32569" lon="9.89639">
        <ele>79.833978</ele>
        <time>2020-08-06T08:47:38.159Z</time>
      </trkpt>
      <trkpt lat="63.32576" lon="9.89654">
        <ele>79.826361</ele>
        <time>2020-08-06T08:47:41.133Z</time>
      </trkpt>
      <trkpt lat="63.32583" lon="9.8967">
        <ele>79.818234</ele>
        <time>2020-08-06T08:47:44.155Z</time>
      </trkpt>
      <trkpt lat="63.32591" lon="9.89686">
        <ele>79.810077</ele>
        <time>2020-08-06T08:47:47.108Z</time>
      </trkpt>
      <trkpt lat="63.32599" lon="9.89704">
        <ele>79.80092</ele>
        <time>2020-08-06T08:47:50.135Z</time>
      </trkpt>
      <trkpt lat="63.32608" lon="9.89724">
        <ele>79.791422</ele>
        <time>2020-08-06T08:47:53.141Z</time>
      </trkpt>
      <trkpt lat="63.32616" lon="9.89743">
        <ele>79.782293</ele>
        <time>2020-08-06T08:47:56.107Z</time>
      </trkpt>
      <trkpt lat="63.32623" lon="9.89764">
        <ele>79.772832</ele>
        <time>2020-08-06T08:47:59.126Z</time>
      </trkpt>
      <trkpt lat="63.32631" lon="9.89787">
        <ele>79.538448</ele>
        <time>2020-08-06T08:48:02.143Z</time>
      </trkpt>
      <trkpt lat="63.32639" lon="9.89811">
        <ele>79.234916</ele>
        <time>2020-08-06T08:48:05.126Z</time>
      </trkpt>
      <trkpt lat="63.32645" lon="9.89831">
        <ele>78.997821</ele>
        <time>2020-08-06T08:48:07.131Z</time>
      </trkpt>
      <trkpt lat="63.32652" lon="9.89853">
        <ele>78.728008</ele>
        <time>2020-08-06T08:48:09.132Z</time>
      </trkpt>
      <trkpt lat="63.3266" lon="9.89876">
        <ele>78.441658</ele>
        <time>2020-08-06T08:48:11.156Z</time>
      </trkpt>
      <trkpt lat="63.32667" lon="9.89902">
        <ele>78.132156</ele>
        <time>2020-08-06T08:48:13.144Z</time>
      </trkpt>
      <trkpt lat="63.32676" lon="9.8993">
        <ele>77.796621</ele>
        <time>2020-08-06T08:48:15.112Z</time>
      </trkpt>
      <trkpt lat="63.32684" lon="9.89957">
        <ele>77.462292</ele>
        <time>2020-08-06T08:48:17.121Z</time>
      </trkpt>
      <trkpt lat="63.32693" lon="9.89984">
        <ele>77.128421</ele>
        <time>2020-08-06T08:48:19.121Z</time>
      </trkpt>
      <trkpt lat="63.32702" lon="9.90012">
        <ele>76.790719</ele>
        <time>2020-08-06T08:48:21.125Z</time>
      </trkpt>
      <trkpt lat="63.32711" lon="9.9004">
        <ele>76.456012</ele>
        <time>2020-08-06T08:48:23.139Z</time>
      </trkpt>
      <trkpt lat="63.32719" lon="9.90067">
        <ele>76.121224</ele>
        <time>2020-08-06T08:48:25.115Z</time>
      </trkpt>
      <trkpt lat="63.32728" lon="9.90095">
        <ele>75.789006</ele>
        <time>2020-08-06T08:48:27.159Z</time>
      </trkpt>
      <trkpt lat="63.32735" lon="9.90122">
        <ele>75.516507</ele>
        <time>2020-08-06T08:48:29.123Z</time>
      </trkpt>
      <trkpt lat="63.32743" lon="9.90149">
        <ele>75.244702</ele>
        <time>2020-08-06T08:48:31.112Z</time>
      </trkpt>
      <trkpt lat="63.32751" lon="9.90175">
        <ele>74.978526</ele>
        <time>2020-08-06T08:48:33.117Z</time>
      </trkpt>
      <trkpt lat="63.32759" lon="9.90201">
        <ele>74.718277</ele>
        <time>2020-08-06T08:48:35.114Z</time>
      </trkpt>
      <trkpt lat="63.32766" lon="9.90226">
        <ele>74.460141</ele>
        <time>2020-08-06T08:48:37.128Z</time>
      </trkpt>
      <trkpt lat="63.32773" lon="9.90252">
        <ele>74.206798</ele>
        <time>2020-08-06T08:48:39.133Z</time>
      </trkpt>
      <trkpt lat="63.3278" lon="9.90276">
        <ele>73.961165</ele>
        <time>2020-08-06T08:48:41.118Z</time>
      </trkpt>
      <trkpt lat="63.32787" lon="9.90301">
        <ele>73.713667</ele>
        <time>2020-08-06T08:48:43.136Z</time>
      </trkpt>
      <trkpt lat="63.32794" lon="9.90326">
        <ele>73.468117</ele>
        <time>2020-08-06T08:48:45.121Z</time>
      </trkpt>
      <trkpt lat="63.328" lon="9.9035">
        <ele>73.242314</ele>
        <time>2020-08-06T08:48:47.121Z</time>
      </trkpt>
      <trkpt lat="63.32806" lon="9.90372">
        <ele>73.024433</ele>
        <time>2020-08-06T08:48:49.115Z</time>
      </trkpt>
      <trkpt lat="63.32811" lon="9.90395">
        <ele>72.8065</ele>
        <time>2020-08-06T08:48:51.160Z</time>
      </trkpt>
      <trkpt lat="63.32816" lon="9.9042">
        <ele>72.571009</ele>
        <time>2020-08-06T08:48:53.132Z</time>
      </trkpt>
      <trkpt lat="63.32821" lon="9.90446">
        <ele>72.268007</ele>
        <time>2020-08-06T08:48:55.139Z</time>
      </trkpt>
      <trkpt lat="63.32827" lon="9.90473">
        <ele>71.767803</ele>
        <time>2020-08-06T08:48:57.128Z</time>
      </trkpt>
      <trkpt lat="63.32832" lon="9.905">
        <ele>71.26103</ele>
        <time>2020-08-06T08:48:59.164Z</time>
      </trkpt>
      <trkpt lat="63.32837" lon="9.90528">
        <ele>70.741892</ele>
        <time>2020-08-06T08:49:01.140Z</time>
      </trkpt>
      <trkpt lat="63.32844" lon="9.90554">
        <ele>70.214027</ele>
        <time>2020-08-06T08:49:03.102Z</time>
      </trkpt>
      <trkpt lat="63.32853" lon="9.90581">
        <ele>69.66599</ele>
        <time>2020-08-06T08:49:05.164Z</time>
      </trkpt>
      <trkpt lat="63.32861" lon="9.90606">
        <ele>69.124541</ele>
        <time>2020-08-06T08:49:07.157Z</time>
      </trkpt>
      <trkpt lat="63.3287" lon="9.90631">
        <ele>68.576691</ele>
        <time>2020-08-06T08:49:09.115Z</time>
      </trkpt>
      <trkpt lat="63.32878" lon="9.90657">
        <ele>68.03145</ele>
        <time>2020-08-06T08:49:11.134Z</time>
      </trkpt>
      <trkpt lat="63.32886" lon="9.90684">
        <ele>67.484201</ele>
        <time>2020-08-06T08:49:13.113Z</time>
      </trkpt>
      <trkpt lat="63.32893" lon="9.90711">
        <ele>66.949068</ele>
        <time>2020-08-06T08:49:15.132Z</time>
      </trkpt>
      <trkpt lat="63.32901" lon="9.90739">
        <ele>66.388447</ele>
        <time>2020-08-06T08:49:17.130Z</time>
      </trkpt>
      <trkpt lat="63.32909" lon="9.90767">
        <ele>65.824716</ele>
        <time>2020-08-06T08:49:19.122Z</time>
      </trkpt>
      <trkpt lat="63.32916" lon="9.90796">
        <ele>65.332442</ele>
        <time>2020-08-06T08:49:21.117Z</time>
      </trkpt>
      <trkpt lat="63.32924" lon="9.90826">
        <ele>64.9283</ele>
        <time>2020-08-06T08:49:23.135Z</time>
      </trkpt>
      <trkpt lat="63.32932" lon="9.90856">
        <ele>64.51583</ele>
        <time>2020-08-06T08:49:25.127Z</time>
      </trkpt>
      <trkpt lat="63.3294" lon="9.90887">
        <ele>64.096441</ele>
        <time>2020-08-06T08:49:27.128Z</time>
      </trkpt>
      <trkpt lat="63.32947" lon="9.90919">
        <ele>63.683681</ele>
        <time>2020-08-06T08:49:29.132Z</time>
      </trkpt>
      <trkpt lat="63.32953" lon="9.9095">
        <ele>63.291327</ele>
        <time>2020-08-06T08:49:31.143Z</time>
      </trkpt>
      <trkpt lat="63.32958" lon="9.9098">
        <ele>62.916262</ele>
        <time>2020-08-06T08:49:33.107Z</time>
      </trkpt>
      <trkpt lat="63.32964" lon="9.91008">
        <ele>62.553732</ele>
        <time>2020-08-06T08:49:35.106Z</time>
      </trkpt>
      <trkpt lat="63.32969" lon="9.91035">
        <ele>62.21141</ele>
        <time>2020-08-06T08:49:37.131Z</time>
      </trkpt>
      <trkpt lat="63.32975" lon="9.91062">
        <ele>61.86801</ele>
        <time>2020-08-06T08:49:39.140Z</time>
      </trkpt>
      <trkpt lat="63.32981" lon="9.91088">
        <ele>61.519641</ele>
        <time>2020-08-06T08:49:41.140Z</time>
      </trkpt>
      <trkpt lat="63.32987" lon="9.91115">
        <ele>61.165071</ele>
        <time>2020-08-06T08:49:43.139Z</time>
      </trkpt>
      <trkpt lat="63.32994" lon="9.91141">
        <ele>60.827599</ele>
        <time>2020-08-06T08:49:45.101Z</time>
      </trkpt>
      <trkpt lat="63.33" lon="9.91168">
        <ele>60.613882</ele>
        <time>2020-08-06T08:49:47.155Z</time>
      </trkpt>
      <trkpt lat="63.33007" lon="9.91196">
        <ele>60.40103</ele>
        <time>2020-08-06T08:49:49.112Z</time>
      </trkpt>
      <trkpt lat="63.33014" lon="9.91222">
        <ele>60.185052</ele>
        <time>2020-08-06T08:49:51.131Z</time>
      </trkpt>
      <trkpt lat="63.33022" lon="9.9125">
        <ele>59.959349</ele>
        <time>2020-08-06T08:49:53.119Z</time>
      </trkpt>
      <trkpt lat="63.3303" lon="9.91278">
        <ele>59.731877</ele>
        <time>2020-08-06T08:49:55.138Z</time>
      </trkpt>
      <trkpt lat="63.33037" lon="9.91305">
        <ele>59.510743</ele>
        <time>2020-08-06T08:49:57.111Z</time>
      </trkpt>
      <trkpt lat="63.33045" lon="9.91331">
        <ele>59.294313</ele>
        <time>2020-08-06T08:49:59.124Z</time>
      </trkpt>
      <trkpt lat="63.33052" lon="9.91358">
        <ele>59.082307</ele>
        <time>2020-08-06T08:50:01.128Z</time>
      </trkpt>
      <trkpt lat="63.33058" lon="9.91383">
        <ele>58.880198</ele>
        <time>2020-08-06T08:50:03.136Z</time>
      </trkpt>
      <trkpt lat="63.33065" lon="9.91407">
        <ele>58.683348</ele>
        <time>2020-08-06T08:50:05.144Z</time>
      </trkpt>
      <trkpt lat="63.33072" lon="9.9143">
        <ele>58.491753</ele>
        <time>2020-08-06T08:50:07.131Z</time>
      </trkpt>
      <trkpt lat="63.33078" lon="9.91453">
        <ele>58.310044</ele>
        <time>2020-08-06T08:50:09.152Z</time>
      </trkpt>
      <trkpt lat="63.33084" lon="9.91474">
        <ele>58.138769</ele>
        <time>2020-08-06T08:50:11.127Z</time>
      </trkpt>
      <trkpt lat="63.33089" lon="9.91494">
        <ele>58.264711</ele>
        <time>2020-08-06T08:50:13.133Z</time>
      </trkpt>
      <trkpt lat="63.33094" lon="9.91514">
        <ele>58.579216</ele>
        <time>2020-08-06T08:50:15.137Z</time>
      </trkpt>
      <trkpt lat="63.33099" lon="9.91532">
        <ele>58.876503</ele>
        <time>2020-08-06T08:50:17.114Z</time>
      </trkpt>
      <trkpt lat="63.33104" lon="9.91552">
        <ele>59.182237</ele>
        <time>2020-08-06T08:50:19.119Z</time>
      </trkpt>
      <trkpt lat="63.33109" lon="9.91571">
        <ele>59.492565</ele>
        <time>2020-08-06T08:50:21.123Z</time>
      </trkpt>
      <trkpt lat="63.33114" lon="9.91591">
        <ele>59.804146</ele>
        <time>2020-08-06T08:50:23.131Z</time>
      </trkpt>
      <trkpt lat="63.33118" lon="9.91611">
        <ele>60.115534</ele>
        <time>2020-08-06T08:50:25.117Z</time>
      </trkpt>
      <trkpt lat="63.33123" lon="9.91631">
        <ele>60.434683</ele>
        <time>2020-08-06T08:50:27.109Z</time>
      </trkpt>
      <trkpt lat="63.33128" lon="9.91652">
        <ele>60.748539</ele>
        <time>2020-08-06T08:50:29.117Z</time>
      </trkpt>
      <trkpt lat="63.33132" lon="9.9167">
        <ele>61.039401</ele>
        <time>2020-08-06T08:50:31.133Z</time>
      </trkpt>
      <trkpt lat="63.33136" lon="9.91689">
        <ele>61.327679</ele>
        <time>2020-08-06T08:50:33.136Z</time>
      </trkpt>
      <trkpt lat="63.33139" lon="9.91708">
        <ele>61.610846</ele>
        <time>2020-08-06T08:50:35.112Z</time>
      </trkpt>
      <trkpt lat="63.33145" lon="9.91735">
        <ele>62.025527</ele>
        <time>2020-08-06T08:50:38.122Z</time>
      </trkpt>
      <trkpt lat="63.33149" lon="9.91762">
        <ele>62.425722</ele>
        <time>2020-08-06T08:50:41.107Z</time>
      </trkpt>
      <trkpt lat="63.33153" lon="9.9179">
        <ele>62.833812</ele>
        <time>2020-08-06T08:50:44.117Z</time>
      </trkpt>
      <trkpt lat="63.33156" lon="9.9181">
        <ele>63.114343</ele>
        <time>2020-08-06T08:50:46.122Z</time>
      </trkpt>
      <trkpt lat="63.33159" lon="9.91829">
        <ele>63.392411</ele>
        <time>2020-08-06T08:50:48.124Z</time>
      </trkpt>
      <trkpt lat="63.33164" lon="9.91854">
        <ele>64.098641</ele>
        <time>2020-08-06T08:50:51.106Z</time>
      </trkpt>
      <trkpt lat="63.33169" lon="9.91876">
        <ele>65.191765</ele>
        <time>2020-08-06T08:50:54.128Z</time>
      </trkpt>
      <trkpt lat="63.33174" lon="9.91896">
        <ele>66.278735</ele>
        <time>2020-08-06T08:50:57.156Z</time>
      </trkpt>
      <trkpt lat="63.3318" lon="9.91916">
        <ele>67.314536</ele>
        <time>2020-08-06T08:51:00.119Z</time>
      </trkpt>
      <trkpt lat="63.33186" lon="9.91934">
        <ele>68.318161</ele>
        <time>2020-08-06T08:51:03.191Z</time>
      </trkpt>
      <trkpt lat="63.33191" lon="9.91952">
        <ele>69.295875</ele>
        <time>2020-08-06T08:51:06.148Z</time>
      </trkpt>
      <trkpt lat="63.33197" lon="9.9197">
        <ele>70.254012</ele>
        <time>2020-08-06T08:51:09.116Z</time>
      </trkpt>
      <trkpt lat="63.33204" lon="9.91989">
        <ele>71.401798</ele>
        <time>2020-08-06T08:51:13.111Z</time>
      </trkpt>
      <trkpt lat="63.33212" lon="9.92007">
        <ele>72.512347</ele>
        <time>2020-08-06T08:51:17.132Z</time>
      </trkpt>
      <trkpt lat="63.33218" lon="9.92023">
        <ele>73.449605</ele>
        <time>2020-08-06T08:51:21.117Z</time>
      </trkpt>
      <trkpt lat="63.33225" lon="9.92041">
        <ele>74.5468</ele>
        <time>2020-08-06T08:51:25.113Z</time>
      </trkpt>
      <trkpt lat="63.33233" lon="9.92061">
        <ele>75.704446</ele>
        <time>2020-08-06T08:51:29.109Z</time>
      </trkpt>
      <trkpt lat="63.33238" lon="9.92077">
        <ele>76.62682</ele>
        <time>2020-08-06T08:51:32.118Z</time>
      </trkpt>
      <trkpt lat="63.33245" lon="9.92093">
        <ele>77.563919</ele>
        <time>2020-08-06T08:51:35.112Z</time>
      </trkpt>
      <trkpt lat="63.33251" lon="9.92108">
        <ele>78.464477</ele>
        <time>2020-08-06T08:51:38.122Z</time>
      </trkpt>
      <trkpt lat="63.33259" lon="9.92124">
        <ele>79.594724</ele>
        <time>2020-08-06T08:51:42.150Z</time>
      </trkpt>
      <trkpt lat="63.33266" lon="9.92145">
        <ele>80.750675</ele>
        <time>2020-08-06T08:51:46.143Z</time>
      </trkpt>
      <trkpt lat="63.33272" lon="9.92165">
        <ele>81.478611</ele>
        <time>2020-08-06T08:51:50.143Z</time>
      </trkpt>
      <trkpt lat="63.33278" lon="9.92184">
        <ele>81.061989</ele>
        <time>2020-08-06T08:51:54.135Z</time>
      </trkpt>
      <trkpt lat="63.33285" lon="9.92204">
        <ele>80.603563</ele>
        <time>2020-08-06T08:51:58.122Z</time>
      </trkpt>
      <trkpt lat="63.33289" lon="9.92221">
        <ele>80.237428</ele>
        <time>2020-08-06T08:52:01.131Z</time>
      </trkpt>
      <trkpt lat="63.33294" lon="9.9224">
        <ele>79.855749</ele>
        <time>2020-08-06T08:52:04.112Z</time>
      </trkpt>
      <trkpt lat="63.33299" lon="9.9226">
        <ele>79.443564</ele>
        <time>2020-08-06T08:52:07.149Z</time>
      </trkpt>
      <trkpt lat="63.33303" lon="9.92282">
        <ele>78.999469</ele>
        <time>2020-08-06T08:52:10.115Z</time>
      </trkpt>
      <trkpt lat="63.33309" lon="9.92306">
        <ele>78.50497</ele>
        <time>2020-08-06T08:52:13.128Z</time>
      </trkpt>
      <trkpt lat="63.33314" lon="9.92334">
        <ele>77.958572</ele>
        <time>2020-08-06T08:52:16.139Z</time>
      </trkpt>
      <trkpt lat="63.33317" lon="9.92355">
        <ele>77.54561</ele>
        <time>2020-08-06T08:52:18.106Z</time>
      </trkpt>
      <trkpt lat="63.33321" lon="9.92378">
        <ele>77.102513</ele>
        <time>2020-08-06T08:52:20.124Z</time>
      </trkpt>
      <trkpt lat="63.33324" lon="9.92401">
        <ele>76.653089</ele>
        <time>2020-08-06T08:52:22.153Z</time>
      </trkpt>
      <trkpt lat="63.33328" lon="9.92425">
        <ele>76.203666</ele>
        <time>2020-08-06T08:52:24.121Z</time>
      </trkpt>
      <trkpt lat="63.33331" lon="9.92451">
        <ele>75.708665</ele>
        <time>2020-08-06T08:52:26.159Z</time>
      </trkpt>
      <trkpt lat="63.33335" lon="9.92478">
        <ele>75.185831</ele>
        <time>2020-08-06T08:52:28.106Z</time>
      </trkpt>
      <trkpt lat="63.33339" lon="9.92508">
        <ele>74.606185</ele>
        <time>2020-08-06T08:52:30.117Z</time>
      </trkpt>
      <trkpt lat="63.33345" lon="9.92539">
        <ele>73.892375</ele>
        <time>2020-08-06T08:52:32.119Z</time>
      </trkpt>
      <trkpt lat="63.33351" lon="9.92571">
        <ele>73.035275</ele>
        <time>2020-08-06T08:52:34.110Z</time>
      </trkpt>
      <trkpt lat="63.33358" lon="9.92601">
        <ele>72.168743</ele>
        <time>2020-08-06T08:52:36.136Z</time>
      </trkpt>
      <trkpt lat="63.33368" lon="9.92631">
        <ele>71.252792</ele>
        <time>2020-08-06T08:52:38.128Z</time>
      </trkpt>
      <trkpt lat="63.33379" lon="9.92659">
        <ele>70.307999</ele>
        <time>2020-08-06T08:52:40.112Z</time>
      </trkpt>
      <trkpt lat="63.33386" lon="9.92673">
        <ele>69.79132</ele>
        <time>2020-08-06T08:52:41.163Z</time>
      </trkpt>
      <trkpt lat="63.33393" lon="9.92686">
        <ele>69.282312</ele>
        <time>2020-08-06T08:52:42.152Z</time>
      </trkpt>
      <trkpt lat="63.33407" lon="9.9271">
        <ele>68.284461</ele>
        <time>2020-08-06T08:52:44.128Z</time>
      </trkpt>
      <trkpt lat="63.3342" lon="9.92733">
        <ele>67.341091</ele>
        <time>2020-08-06T08:52:46.121Z</time>
      </trkpt>
      <trkpt lat="63.33432" lon="9.92757">
        <ele>66.447906</ele>
        <time>2020-08-06T08:52:48.118Z</time>
      </trkpt>
      <trkpt lat="63.33444" lon="9.92782">
        <ele>65.554939</ele>
        <time>2020-08-06T08:52:50.118Z</time>
      </trkpt>
      <trkpt lat="63.33454" lon="9.92807">
        <ele>64.689723</ele>
        <time>2020-08-06T08:52:52.141Z</time>
      </trkpt>
      <trkpt lat="63.33464" lon="9.92832">
        <ele>64.323058</ele>
        <time>2020-08-06T08:52:54.156Z</time>
      </trkpt>
      <trkpt lat="63.33472" lon="9.92856">
        <ele>64.546611</ele>
        <time>2020-08-06T08:52:56.119Z</time>
      </trkpt>
      <trkpt lat="63.3348" lon="9.9288">
        <ele>64.751101</ele>
        <time>2020-08-06T08:52:58.101Z</time>
      </trkpt>
      <trkpt lat="63.33487" lon="9.92902">
        <ele>64.943716</ele>
        <time>2020-08-06T08:53:00.153Z</time>
      </trkpt>
      <trkpt lat="63.33493" lon="9.92923">
        <ele>65.12943</ele>
        <time>2020-08-06T08:53:02.113Z</time>
      </trkpt>
      <trkpt lat="63.33499" lon="9.92944">
        <ele>65.302433</ele>
        <time>2020-08-06T08:53:04.114Z</time>
      </trkpt>
      <trkpt lat="63.33505" lon="9.92964">
        <ele>65.47131</ele>
        <time>2020-08-06T08:53:06.122Z</time>
      </trkpt>
      <trkpt lat="63.3351" lon="9.92982">
        <ele>65.628298</ele>
        <time>2020-08-06T08:53:08.123Z</time>
      </trkpt>
      <trkpt lat="63.33515" lon="9.93">
        <ele>65.778911</ele>
        <time>2020-08-06T08:53:10.161Z</time>
      </trkpt>
      <trkpt lat="63.33521" lon="9.93026">
        <ele>65.990247</ele>
        <time>2020-08-06T08:53:13.105Z</time>
      </trkpt>
      <trkpt lat="63.33528" lon="9.93051">
        <ele>66.201724</ele>
        <time>2020-08-06T08:53:16.114Z</time>
      </trkpt>
      <trkpt lat="63.33535" lon="9.93076">
        <ele>66.411978</ele>
        <time>2020-08-06T08:53:19.119Z</time>
      </trkpt>
      <trkpt lat="63.33542" lon="9.93099">
        <ele>66.609886</ele>
        <time>2020-08-06T08:53:22.106Z</time>
      </trkpt>
      <trkpt lat="63.33549" lon="9.93121">
        <ele>66.801844</ele>
        <time>2020-08-06T08:53:25.145Z</time>
      </trkpt>
      <trkpt lat="63.33556" lon="9.93143">
        <ele>67.000734</ele>
        <time>2020-08-06T08:53:28.146Z</time>
      </trkpt>
      <trkpt lat="63.33564" lon="9.93165">
        <ele>66.97964</ele>
        <time>2020-08-06T08:53:31.123Z</time>
      </trkpt>
      <trkpt lat="63.3357" lon="9.93187">
        <ele>66.770533</ele>
        <time>2020-08-06T08:53:34.132Z</time>
      </trkpt>
      <trkpt lat="63.33577" lon="9.93207">
        <ele>66.583943</ele>
        <time>2020-08-06T08:53:37.140Z</time>
      </trkpt>
      <trkpt lat="63.33582" lon="9.93225">
        <ele>66.412641</ele>
        <time>2020-08-06T08:53:40.116Z</time>
      </trkpt>
      <trkpt lat="63.33588" lon="9.93242">
        <ele>66.240596</ele>
        <time>2020-08-06T08:53:43.109Z</time>
      </trkpt>
      <trkpt lat="63.33594" lon="9.93261">
        <ele>66.05983</ele>
        <time>2020-08-06T08:53:46.140Z</time>
      </trkpt>
      <trkpt lat="63.336" lon="9.9328">
        <ele>65.88709</ele>
        <time>2020-08-06T08:53:49.111Z</time>
      </trkpt>
      <trkpt lat="63.33604" lon="9.93299">
        <ele>65.718555</ele>
        <time>2020-08-06T08:53:52.128Z</time>
      </trkpt>
      <trkpt lat="63.3361" lon="9.93318">
        <ele>65.541339</ele>
        <time>2020-08-06T08:53:55.124Z</time>
      </trkpt>
      <trkpt lat="63.33614" lon="9.93338">
        <ele>65.365682</ele>
        <time>2020-08-06T08:53:58.122Z</time>
      </trkpt>
      <trkpt lat="63.33618" lon="9.93361">
        <ele>65.176387</ele>
        <time>2020-08-06T08:54:01.129Z</time>
      </trkpt>
      <trkpt lat="63.33622" lon="9.93385">
        <ele>64.976035</ele>
        <time>2020-08-06T08:54:04.136Z</time>
      </trkpt>
      <trkpt lat="63.33625" lon="9.9341">
        <ele>64.772439</ele>
        <time>2020-08-06T08:54:07.141Z</time>
      </trkpt>
      <trkpt lat="63.33629" lon="9.93436">
        <ele>64.563174</ele>
        <time>2020-08-06T08:54:10.116Z</time>
      </trkpt>
      <trkpt lat="63.33632" lon="9.93461">
        <ele>64.362858</ele>
        <time>2020-08-06T08:54:13.122Z</time>
      </trkpt>
      <trkpt lat="63.33634" lon="9.93485">
        <ele>64.168988</ele>
        <time>2020-08-06T08:54:16.137Z</time>
      </trkpt>
      <trkpt lat="63.33637" lon="9.93508">
        <ele>63.983861</ele>
        <time>2020-08-06T08:54:19.109Z</time>
      </trkpt>
      <trkpt lat="63.3364" lon="9.93533">
        <ele>64.177078</ele>
        <time>2020-08-06T08:54:22.128Z</time>
      </trkpt>
      <trkpt lat="63.33643" lon="9.93556">
        <ele>64.385146</ele>
        <time>2020-08-06T08:54:25.125Z</time>
      </trkpt>
      <trkpt lat="63.33647" lon="9.93578">
        <ele>64.583579</ele>
        <time>2020-08-06T08:54:28.122Z</time>
      </trkpt>
      <trkpt lat="63.33651" lon="9.93599">
        <ele>64.784604</ele>
        <time>2020-08-06T08:54:31.150Z</time>
      </trkpt>
      <trkpt lat="63.33656" lon="9.93621">
        <ele>64.997485</ele>
        <time>2020-08-06T08:54:34.104Z</time>
      </trkpt>
      <trkpt lat="63.33661" lon="9.93641">
        <ele>65.197574</ele>
        <time>2020-08-06T08:54:37.114Z</time>
      </trkpt>
      <trkpt lat="63.33666" lon="9.93661">
        <ele>65.389178</ele>
        <time>2020-08-06T08:54:40.107Z</time>
      </trkpt>
      <trkpt lat="63.33672" lon="9.9368">
        <ele>65.589926</ele>
        <time>2020-08-06T08:54:43.115Z</time>
      </trkpt>
      <trkpt lat="63.33679" lon="9.937">
        <ele>65.80605</ele>
        <time>2020-08-06T08:54:46.110Z</time>
      </trkpt>
      <trkpt lat="63.33685" lon="9.93721">
        <ele>66.028689</ele>
        <time>2020-08-06T08:54:49.128Z</time>
      </trkpt>
      <trkpt lat="63.33692" lon="9.93743">
        <ele>66.259598</ele>
        <time>2020-08-06T08:54:52.111Z</time>
      </trkpt>
      <trkpt lat="63.33698" lon="9.93766">
        <ele>66.49292</ele>
        <time>2020-08-06T08:54:55.141Z</time>
      </trkpt>
      <trkpt lat="63.33705" lon="9.93787">
        <ele>66.720144</ele>
        <time>2020-08-06T08:54:58.149Z</time>
      </trkpt>
      <trkpt lat="63.33712" lon="9.93807">
        <ele>66.936587</ele>
        <time>2020-08-06T08:55:01.131Z</time>
      </trkpt>
      <trkpt lat="63.33718" lon="9.93826">
        <ele>67.138874</ele>
        <time>2020-08-06T08:55:04.122Z</time>
      </trkpt>
      <trkpt lat="63.33724" lon="9.93845">
        <ele>67.342085</ele>
        <time>2020-08-06T08:55:07.121Z</time>
      </trkpt>
      <trkpt lat="63.3373" lon="9.93863">
        <ele>67.823694</ele>
        <time>2020-08-06T08:55:10.133Z</time>
      </trkpt>
      <trkpt lat="63.33737" lon="9.9388">
        <ele>68.543157</ele>
        <time>2020-08-06T08:55:13.150Z</time>
      </trkpt>
      <trkpt lat="63.33744" lon="9.93897">
        <ele>69.270166</ele>
        <time>2020-08-06T08:55:16.132Z</time>
      </trkpt>
      <trkpt lat="63.3375" lon="9.93913">
        <ele>69.972803</ele>
        <time>2020-08-06T08:55:19.113Z</time>
      </trkpt>
      <trkpt lat="63.33757" lon="9.93929">
        <ele>70.668185</ele>
        <time>2020-08-06T08:55:22.158Z</time>
      </trkpt>
      <trkpt lat="63.33764" lon="9.93948">
        <ele>71.453019</ele>
        <time>2020-08-06T08:55:25.124Z</time>
      </trkpt>
      <trkpt lat="63.33771" lon="9.93967">
        <ele>72.276954</ele>
        <time>2020-08-06T08:55:28.115Z</time>
      </trkpt>
      <trkpt lat="63.33778" lon="9.93986">
        <ele>73.049725</ele>
        <time>2020-08-06T08:55:31.185Z</time>
      </trkpt>
      <trkpt lat="63.33785" lon="9.94004">
        <ele>73.855773</ele>
        <time>2020-08-06T08:55:34.119Z</time>
      </trkpt>
      <trkpt lat="63.33791" lon="9.94021">
        <ele>74.527195</ele>
        <time>2020-08-06T08:55:37.116Z</time>
      </trkpt>
      <trkpt lat="63.33797" lon="9.94038">
        <ele>75.246805</ele>
        <time>2020-08-06T08:55:40.152Z</time>
      </trkpt>
      <trkpt lat="63.33805" lon="9.94058">
        <ele>76.125038</ele>
        <time>2020-08-06T08:55:44.131Z</time>
      </trkpt>
      <trkpt lat="63.33812" lon="9.94075">
        <ele>76.87345</ele>
        <time>2020-08-06T08:55:47.131Z</time>
      </trkpt>
      <trkpt lat="63.33819" lon="9.9409">
        <ele>77.537949</ele>
        <time>2020-08-06T08:55:50.147Z</time>
      </trkpt>
      <trkpt lat="63.33827" lon="9.94109">
        <ele>78.386553</ele>
        <time>2020-08-06T08:55:54.139Z</time>
      </trkpt>
      <trkpt lat="63.33833" lon="9.94125">
        <ele>79.065317</ele>
        <time>2020-08-06T08:55:57.116Z</time>
      </trkpt>
      <trkpt lat="63.3384" lon="9.94146">
        <ele>79.91043</ele>
        <time>2020-08-06T08:56:01.113Z</time>
      </trkpt>
      <trkpt lat="63.33845" lon="9.94162">
        <ele>80.484406</ele>
        <time>2020-08-06T08:56:04.116Z</time>
      </trkpt>
      <trkpt lat="63.33852" lon="9.94182">
        <ele>80.918815</ele>
        <time>2020-08-06T08:56:08.118Z</time>
      </trkpt>
      <trkpt lat="63.3386" lon="9.94197">
        <ele>81.340541</ele>
        <time>2020-08-06T08:56:12.115Z</time>
      </trkpt>
      <trkpt lat="63.33867" lon="9.94214">
        <ele>81.7464</ele>
        <time>2020-08-06T08:56:16.132Z</time>
      </trkpt>
      <trkpt lat="63.33873" lon="9.94231">
        <ele>82.128704</ele>
        <time>2020-08-06T08:56:20.109Z</time>
      </trkpt>
      <trkpt lat="63.3388" lon="9.94249">
        <ele>82.552994</ele>
        <time>2020-08-06T08:56:24.142Z</time>
      </trkpt>
      <trkpt lat="63.33887" lon="9.94268">
        <ele>82.984108</ele>
        <time>2020-08-06T08:56:28.113Z</time>
      </trkpt>
      <trkpt lat="63.33892" lon="9.94284">
        <ele>83.338043</ele>
        <time>2020-08-06T08:56:31.131Z</time>
      </trkpt>
      <trkpt lat="63.33898" lon="9.94306">
        <ele>83.784757</ele>
        <time>2020-08-06T08:56:35.131Z</time>
      </trkpt>
      <trkpt lat="63.33904" lon="9.94328">
        <ele>84.24152</ele>
        <time>2020-08-06T08:56:39.128Z</time>
      </trkpt>
      <trkpt lat="63.33909" lon="9.94345">
        <ele>84.607959</ele>
        <time>2020-08-06T08:56:42.141Z</time>
      </trkpt>
      <trkpt lat="63.33914" lon="9.94364">
        <ele>84.98894</ele>
        <time>2020-08-06T08:56:45.156Z</time>
      </trkpt>
      <trkpt lat="63.33919" lon="9.94383">
        <ele>85.392071</ele>
        <time>2020-08-06T08:56:48.143Z</time>
      </trkpt>
      <trkpt lat="63.33925" lon="9.94403">
        <ele>85.801267</ele>
        <time>2020-08-06T08:56:51.121Z</time>
      </trkpt>
      <trkpt lat="63.3393" lon="9.94422">
        <ele>86.195811</ele>
        <time>2020-08-06T08:56:54.113Z</time>
      </trkpt>
      <trkpt lat="63.33935" lon="9.94441">
        <ele>86.590328</ele>
        <time>2020-08-06T08:56:57.125Z</time>
      </trkpt>
      <trkpt lat="63.3394" lon="9.94458">
        <ele>86.952493</ele>
        <time>2020-08-06T08:57:00.121Z</time>
      </trkpt>
      <trkpt lat="63.33946" lon="9.94481">
        <ele>87.40528</ele>
        <time>2020-08-06T08:57:04.116Z</time>
      </trkpt>
      <trkpt lat="63.3395" lon="9.94498">
        <ele>87.744222</ele>
        <time>2020-08-06T08:57:07.112Z</time>
      </trkpt>
      <trkpt lat="63.33956" lon="9.94519">
        <ele>88.150565</ele>
        <time>2020-08-06T08:57:11.171Z</time>
      </trkpt>
      <trkpt lat="63.33961" lon="9.9454">
        <ele>88.53585</ele>
        <time>2020-08-06T08:57:15.122Z</time>
      </trkpt>
      <trkpt lat="63.33966" lon="9.9456">
        <ele>88.929378</ele>
        <time>2020-08-06T08:57:19.113Z</time>
      </trkpt>
      <trkpt lat="63.33973" lon="9.9458">
        <ele>89.341312</ele>
        <time>2020-08-06T08:57:23.132Z</time>
      </trkpt>
      <trkpt lat="63.33979" lon="9.94598">
        <ele>89.723596</ele>
        <time>2020-08-06T08:57:27.125Z</time>
      </trkpt>
      <trkpt lat="63.33985" lon="9.94618">
        <ele>90.107022</ele>
        <time>2020-08-06T08:57:31.122Z</time>
      </trkpt>
      <trkpt lat="63.33992" lon="9.94635">
        <ele>90.482666</ele>
        <time>2020-08-06T08:57:35.113Z</time>
      </trkpt>
      <trkpt lat="63.33999" lon="9.94653">
        <ele>90.883943</ele>
        <time>2020-08-06T08:57:39.148Z</time>
      </trkpt>
      <trkpt lat="63.34007" lon="9.94668">
        <ele>91.265326</ele>
        <time>2020-08-06T08:57:43.151Z</time>
      </trkpt>
      <trkpt lat="63.34013" lon="9.94685">
        <ele>91.643137</ele>
        <time>2020-08-06T08:57:47.111Z</time>
      </trkpt>
      <trkpt lat="63.3402" lon="9.94703">
        <ele>92.018514</ele>
        <time>2020-08-06T08:57:51.124Z</time>
      </trkpt>
      <trkpt lat="63.34026" lon="9.94722">
        <ele>92.41852</ele>
        <time>2020-08-06T08:57:55.120Z</time>
      </trkpt>
      <trkpt lat="63.34033" lon="9.9474">
        <ele>92.804168</ele>
        <time>2020-08-06T08:57:59.138Z</time>
      </trkpt>
      <trkpt lat="63.34039" lon="9.94762">
        <ele>93.216655</ele>
        <time>2020-08-06T08:58:03.133Z</time>
      </trkpt>
      <trkpt lat="63.34044" lon="9.9478">
        <ele>93.575375</ele>
        <time>2020-08-06T08:58:07.115Z</time>
      </trkpt>
      <trkpt lat="63.34049" lon="9.948">
        <ele>93.950405</ele>
        <time>2020-08-06T08:58:11.133Z</time>
      </trkpt>
      <trkpt lat="63.34054" lon="9.94821">
        <ele>94.259603</ele>
        <time>2020-08-06T08:58:15.131Z</time>
      </trkpt>
      <trkpt lat="63.3406" lon="9.94842">
        <ele>94.502246</ele>
        <time>2020-08-06T08:58:19.108Z</time>
      </trkpt>
      <trkpt lat="63.34065" lon="9.94862">
        <ele>94.736344</ele>
        <time>2020-08-06T08:58:23.104Z</time>
      </trkpt>
      <trkpt lat="63.3407" lon="9.94881">
        <ele>94.953413</ele>
        <time>2020-08-06T08:58:27.152Z</time>
      </trkpt>
      <trkpt lat="63.34075" lon="9.94899">
        <ele>95.166769</ele>
        <time>2020-08-06T08:58:31.138Z</time>
      </trkpt>
      <trkpt lat="63.34082" lon="9.94918">
        <ele>95.404127</ele>
        <time>2020-08-06T08:58:35.139Z</time>
      </trkpt>
      <trkpt lat="63.34088" lon="9.94938">
        <ele>95.634708</ele>
        <time>2020-08-06T08:58:39.111Z</time>
      </trkpt>
      <trkpt lat="63.34093" lon="9.94957">
        <ele>95.857166</ele>
        <time>2020-08-06T08:58:43.118Z</time>
      </trkpt>
      <trkpt lat="63.34098" lon="9.94975">
        <ele>96.079892</ele>
        <time>2020-08-06T08:58:47.112Z</time>
      </trkpt>
      <trkpt lat="63.34104" lon="9.94994">
        <ele>96.306064</ele>
        <time>2020-08-06T08:58:51.133Z</time>
      </trkpt>
      <trkpt lat="63.34111" lon="9.95011">
        <ele>96.53846</ele>
        <time>2020-08-06T08:58:55.150Z</time>
      </trkpt>
      <trkpt lat="63.34119" lon="9.95029">
        <ele>96.777514</ele>
        <time>2020-08-06T08:58:59.112Z</time>
      </trkpt>
      <trkpt lat="63.34124" lon="9.95045">
        <ele>96.980071</ele>
        <time>2020-08-06T08:59:02.119Z</time>
      </trkpt>
      <trkpt lat="63.34132" lon="9.95065">
        <ele>97.236966</ele>
        <time>2020-08-06T08:59:06.125Z</time>
      </trkpt>
      <trkpt lat="63.34138" lon="9.95087">
        <ele>97.502217</ele>
        <time>2020-08-06T08:59:10.153Z</time>
      </trkpt>
      <trkpt lat="63.34145" lon="9.95103">
        <ele>97.715382</ele>
        <time>2020-08-06T08:59:13.124Z</time>
      </trkpt>
      <trkpt lat="63.34151" lon="9.95119">
        <ele>97.928674</ele>
        <time>2020-08-06T08:59:16.123Z</time>
      </trkpt>
      <trkpt lat="63.34158" lon="9.95133">
        <ele>98.060003</ele>
        <time>2020-08-06T08:59:19.137Z</time>
      </trkpt>
      <trkpt lat="63.34165" lon="9.95147">
        <ele>97.737323</ele>
        <time>2020-08-06T08:59:22.118Z</time>
      </trkpt>
      <trkpt lat="63.34172" lon="9.95163">
        <ele>97.392332</ele>
        <time>2020-08-06T08:59:25.121Z</time>
      </trkpt>
      <trkpt lat="63.34179" lon="9.95178">
        <ele>97.063328</ele>
        <time>2020-08-06T08:59:28.135Z</time>
      </trkpt>
      <trkpt lat="63.34186" lon="9.95193">
        <ele>96.743948</ele>
        <time>2020-08-06T08:59:31.136Z</time>
      </trkpt>
      <trkpt lat="63.34192" lon="9.95209">
        <ele>96.425412</ele>
        <time>2020-08-06T08:59:34.117Z</time>
      </trkpt>
      <trkpt lat="63.34199" lon="9.95225">
        <ele>96.070272</ele>
        <time>2020-08-06T08:59:37.140Z</time>
      </trkpt>
      <trkpt lat="63.34207" lon="9.95241">
        <ele>95.711059</ele>
        <time>2020-08-06T08:59:40.104Z</time>
      </trkpt>
      <trkpt lat="63.34215" lon="9.95261">
        <ele>95.3191</ele>
        <time>2020-08-06T08:59:43.161Z</time>
      </trkpt>
      <trkpt lat="63.34221" lon="9.95283">
        <ele>94.929599</ele>
        <time>2020-08-06T08:59:46.120Z</time>
      </trkpt>
      <trkpt lat="63.34228" lon="9.95305">
        <ele>94.502544</ele>
        <time>2020-08-06T08:59:49.129Z</time>
      </trkpt>
      <trkpt lat="63.34234" lon="9.95328">
        <ele>94.108343</ele>
        <time>2020-08-06T08:59:52.115Z</time>
      </trkpt>
      <trkpt lat="63.34239" lon="9.9535">
        <ele>93.741364</ele>
        <time>2020-08-06T08:59:55.115Z</time>
      </trkpt>
      <trkpt lat="63.34245" lon="9.95369">
        <ele>93.385018</ele>
        <time>2020-08-06T08:59:58.139Z</time>
      </trkpt>
      <trkpt lat="63.34251" lon="9.95388">
        <ele>93.028906</ele>
        <time>2020-08-06T09:00:01.127Z</time>
      </trkpt>
      <trkpt lat="63.34258" lon="9.95407">
        <ele>92.647068</ele>
        <time>2020-08-06T09:00:04.137Z</time>
      </trkpt>
      <trkpt lat="63.34266" lon="9.95425">
        <ele>92.265272</ele>
        <time>2020-08-06T09:00:07.122Z</time>
      </trkpt>
      <trkpt lat="63.34274" lon="9.95444">
        <ele>92.010112</ele>
        <time>2020-08-06T09:00:10.130Z</time>
      </trkpt>
      <trkpt lat="63.34282" lon="9.95461">
        <ele>91.989991</ele>
        <time>2020-08-06T09:00:13.133Z</time>
      </trkpt>
      <trkpt lat="63.3429" lon="9.95475">
        <ele>91.97101</ele>
        <time>2020-08-06T09:00:16.128Z</time>
      </trkpt>
      <trkpt lat="63.34298" lon="9.95492">
        <ele>91.950771</ele>
        <time>2020-08-06T09:00:19.108Z</time>
      </trkpt>
      <trkpt lat="63.34305" lon="9.95508">
        <ele>91.931681</ele>
        <time>2020-08-06T09:00:22.113Z</time>
      </trkpt>
      <trkpt lat="63.34313" lon="9.95522">
        <ele>91.912895</ele>
        <time>2020-08-06T09:00:25.101Z</time>
      </trkpt>
      <trkpt lat="63.34323" lon="9.95539">
        <ele>91.890783</ele>
        <time>2020-08-06T09:00:28.115Z</time>
      </trkpt>
      <trkpt lat="63.34332" lon="9.95556">
        <ele>91.868075</ele>
        <time>2020-08-06T09:00:31.115Z</time>
      </trkpt>
      <trkpt lat="63.34342" lon="9.95571">
        <ele>91.84561</ele>
        <time>2020-08-06T09:00:34.117Z</time>
      </trkpt>
      <trkpt lat="63.34353" lon="9.95586">
        <ele>91.821696</ele>
        <time>2020-08-06T09:00:37.120Z</time>
      </trkpt>
      <trkpt lat="63.34364" lon="9.95603">
        <ele>91.797991</ele>
        <time>2020-08-06T09:00:40.119Z</time>
      </trkpt>
      <trkpt lat="63.34375" lon="9.95617">
        <ele>91.774336</ele>
        <time>2020-08-06T09:00:43.116Z</time>
      </trkpt>
      <trkpt lat="63.34386" lon="9.9563">
        <ele>91.751333</ele>
        <time>2020-08-06T09:00:46.124Z</time>
      </trkpt>
      <trkpt lat="63.34397" lon="9.95644">
        <ele>91.728292</ele>
        <time>2020-08-06T09:00:49.111Z</time>
      </trkpt>
      <trkpt lat="63.34405" lon="9.95655">
        <ele>91.710734</ele>
        <time>2020-08-06T09:00:51.120Z</time>
      </trkpt>
      <trkpt lat="63.34414" lon="9.95665">
        <ele>91.69292</ele>
        <time>2020-08-06T09:00:53.174Z</time>
      </trkpt>
      <trkpt lat="63.34423" lon="9.95675">
        <ele>91.395108</ele>
        <time>2020-08-06T09:00:55.132Z</time>
      </trkpt>
      <trkpt lat="63.34432" lon="9.95683">
        <ele>90.957568</ele>
        <time>2020-08-06T09:00:57.129Z</time>
      </trkpt>
      <trkpt lat="63.34442" lon="9.95696">
        <ele>90.438671</ele>
        <time>2020-08-06T09:00:59.121Z</time>
      </trkpt>
      <trkpt lat="63.34452" lon="9.95709">
        <ele>89.918498</ele>
        <time>2020-08-06T09:01:01.137Z</time>
      </trkpt>
      <trkpt lat="63.34462" lon="9.95724">
        <ele>89.376775</ele>
        <time>2020-08-06T09:01:03.125Z</time>
      </trkpt>
      <trkpt lat="63.34472" lon="9.95737">
        <ele>88.825455</ele>
        <time>2020-08-06T09:01:05.142Z</time>
      </trkpt>
      <trkpt lat="63.34483" lon="9.95751">
        <ele>88.282564</ele>
        <time>2020-08-06T09:01:07.153Z</time>
      </trkpt>
      <trkpt lat="63.34492" lon="9.95768">
        <ele>87.732071</ele>
        <time>2020-08-06T09:01:09.115Z</time>
      </trkpt>
      <trkpt lat="63.34501" lon="9.95784">
        <ele>87.228341</ele>
        <time>2020-08-06T09:01:11.121Z</time>
      </trkpt>
      <trkpt lat="63.3451" lon="9.95796">
        <ele>86.760347</ele>
        <time>2020-08-06T09:01:13.145Z</time>
      </trkpt>
      <trkpt lat="63.34518" lon="9.95807">
        <ele>86.313139</ele>
        <time>2020-08-06T09:01:15.174Z</time>
      </trkpt>
      <trkpt lat="63.34527" lon="9.95818">
        <ele>85.861073</ele>
        <time>2020-08-06T09:01:17.134Z</time>
      </trkpt>
      <trkpt lat="63.34536" lon="9.9583">
        <ele>85.413618</ele>
        <time>2020-08-06T09:01:19.120Z</time>
      </trkpt>
      <trkpt lat="63.34544" lon="9.95844">
        <ele>84.938017</ele>
        <time>2020-08-06T09:01:21.115Z</time>
      </trkpt>
      <trkpt lat="63.34552" lon="9.95862">
        <ele>84.418309</ele>
        <time>2020-08-06T09:01:23.119Z</time>
      </trkpt>
      <trkpt lat="63.34559" lon="9.95881">
        <ele>83.909379</ele>
        <time>2020-08-06T09:01:25.115Z</time>
      </trkpt>
      <trkpt lat="63.34566" lon="9.959">
        <ele>83.49378</ele>
        <time>2020-08-06T09:01:27.112Z</time>
      </trkpt>
      <trkpt lat="63.34571" lon="9.9592">
        <ele>83.184101</ele>
        <time>2020-08-06T09:01:29.124Z</time>
      </trkpt>
      <trkpt lat="63.34575" lon="9.95942">
        <ele>82.864404</ele>
        <time>2020-08-06T09:01:31.124Z</time>
      </trkpt>
      <trkpt lat="63.34579" lon="9.95965">
        <ele>82.532846</ele>
        <time>2020-08-06T09:01:33.112Z</time>
      </trkpt>
      <trkpt lat="63.34584" lon="9.9599">
        <ele>82.172291</ele>
        <time>2020-08-06T09:01:35.119Z</time>
      </trkpt>
      <trkpt lat="63.34589" lon="9.96016">
        <ele>81.801838</ele>
        <time>2020-08-06T09:01:37.145Z</time>
      </trkpt>
      <trkpt lat="63.34592" lon="9.96044">
        <ele>81.424076</ele>
        <time>2020-08-06T09:01:39.131Z</time>
      </trkpt>
      <trkpt lat="63.34597" lon="9.96071">
        <ele>81.03552</ele>
        <time>2020-08-06T09:01:41.133Z</time>
      </trkpt>
      <trkpt lat="63.34603" lon="9.96097">
        <ele>80.650765</ele>
        <time>2020-08-06T09:01:43.147Z</time>
      </trkpt>
      <trkpt lat="63.34609" lon="9.96122">
        <ele>80.275454</ele>
        <time>2020-08-06T09:01:45.110Z</time>
      </trkpt>
      <trkpt lat="63.34617" lon="9.96146">
        <ele>79.878589</ele>
        <time>2020-08-06T09:01:47.133Z</time>
      </trkpt>
      <trkpt lat="63.34626" lon="9.96168">
        <ele>79.479775</ele>
        <time>2020-08-06T09:01:49.145Z</time>
      </trkpt>
      <trkpt lat="63.34635" lon="9.96189">
        <ele>79.092242</ele>
        <time>2020-08-06T09:01:51.109Z</time>
      </trkpt>
      <trkpt lat="63.34644" lon="9.96208">
        <ele>78.719359</ele>
        <time>2020-08-06T09:01:53.117Z</time>
      </trkpt>
      <trkpt lat="63.34654" lon="9.96226">
        <ele>78.35004</ele>
        <time>2020-08-06T09:01:55.113Z</time>
      </trkpt>
      <trkpt lat="63.34663" lon="9.96245">
        <ele>77.715537</ele>
        <time>2020-08-06T09:01:57.136Z</time>
      </trkpt>
      <trkpt lat="63.34672" lon="9.96262">
        <ele>77.024023</ele>
        <time>2020-08-06T09:01:59.114Z</time>
      </trkpt>
      <trkpt lat="63.34681" lon="9.96281">
        <ele>76.324241</ele>
        <time>2020-08-06T09:02:01.132Z</time>
      </trkpt>
      <trkpt lat="63.34689" lon="9.963">
        <ele>75.630118</ele>
        <time>2020-08-06T09:02:03.128Z</time>
      </trkpt>
      <trkpt lat="63.34696" lon="9.9632">
        <ele>74.957189</ele>
        <time>2020-08-06T09:02:05.117Z</time>
      </trkpt>
      <trkpt lat="63.34703" lon="9.9634">
        <ele>74.316023</ele>
        <time>2020-08-06T09:02:07.127Z</time>
      </trkpt>
      <trkpt lat="63.34707" lon="9.96362">
        <ele>73.680355</ele>
        <time>2020-08-06T09:02:09.117Z</time>
      </trkpt>
      <trkpt lat="63.34712" lon="9.96387">
        <ele>73.001526</ele>
        <time>2020-08-06T09:02:11.129Z</time>
      </trkpt>
      <trkpt lat="63.34716" lon="9.96415">
        <ele>72.238951</ele>
        <time>2020-08-06T09:02:13.139Z</time>
      </trkpt>
      <trkpt lat="63.3472" lon="9.96444">
        <ele>71.440129</ele>
        <time>2020-08-06T09:02:15.137Z</time>
      </trkpt>
      <trkpt lat="63.34723" lon="9.96475">
        <ele>70.610095</ele>
        <time>2020-08-06T09:02:17.131Z</time>
      </trkpt>
      <trkpt lat="63.34726" lon="9.96506">
        <ele>69.794889</ele>
        <time>2020-08-06T09:02:19.117Z</time>
      </trkpt>
      <trkpt lat="63.3473" lon="9.96535">
        <ele>68.997283</ele>
        <time>2020-08-06T09:02:21.122Z</time>
      </trkpt>
      <trkpt lat="63.34735" lon="9.96566">
        <ele>68.160689</ele>
        <time>2020-08-06T09:02:23.123Z</time>
      </trkpt>
      <trkpt lat="63.34741" lon="9.96593">
        <ele>67.580622</ele>
        <time>2020-08-06T09:02:25.117Z</time>
      </trkpt>
      <trkpt lat="63.34748" lon="9.96618">
        <ele>67.137965</ele>
        <time>2020-08-06T09:02:27.126Z</time>
      </trkpt>
      <trkpt lat="63.34757" lon="9.9664">
        <ele>66.70308</ele>
        <time>2020-08-06T09:02:29.109Z</time>
      </trkpt>
      <trkpt lat="63.34766" lon="9.96659">
        <ele>66.296431</ele>
        <time>2020-08-06T09:02:31.129Z</time>
      </trkpt>
      <trkpt lat="63.34776" lon="9.96678">
        <ele>65.867433</ele>
        <time>2020-08-06T09:02:33.153Z</time>
      </trkpt>
      <trkpt lat="63.34787" lon="9.96698">
        <ele>65.416562</ele>
        <time>2020-08-06T09:02:35.123Z</time>
      </trkpt>
      <trkpt lat="63.34796" lon="9.96717">
        <ele>64.987566</ele>
        <time>2020-08-06T09:02:37.142Z</time>
      </trkpt>
      <trkpt lat="63.34806" lon="9.96736">
        <ele>64.565312</ele>
        <time>2020-08-06T09:02:39.117Z</time>
      </trkpt>
      <trkpt lat="63.34815" lon="9.96757">
        <ele>64.144413</ele>
        <time>2020-08-06T09:02:41.124Z</time>
      </trkpt>
      <trkpt lat="63.34824" lon="9.96779">
        <ele>63.696223</ele>
        <time>2020-08-06T09:02:43.123Z</time>
      </trkpt>
      <trkpt lat="63.34833" lon="9.96802">
        <ele>63.245955</ele>
        <time>2020-08-06T09:02:45.171Z</time>
      </trkpt>
      <trkpt lat="63.34841" lon="9.96826">
        <ele>62.811429</ele>
        <time>2020-08-06T09:02:47.129Z</time>
      </trkpt>
      <trkpt lat="63.34848" lon="9.96851">
        <ele>62.37318</ele>
        <time>2020-08-06T09:02:49.153Z</time>
      </trkpt>
      <trkpt lat="63.34854" lon="9.96878">
        <ele>61.95452</ele>
        <time>2020-08-06T09:02:51.145Z</time>
      </trkpt>
      <trkpt lat="63.3486" lon="9.96904">
        <ele>61.871881</ele>
        <time>2020-08-06T09:02:53.119Z</time>
      </trkpt>
      <trkpt lat="63.34864" lon="9.96931">
        <ele>61.78893</ele>
        <time>2020-08-06T09:02:55.108Z</time>
      </trkpt>
      <trkpt lat="63.34867" lon="9.96959">
        <ele>61.704816</ele>
        <time>2020-08-06T09:02:57.122Z</time>
      </trkpt>
      <trkpt lat="63.34869" lon="9.96988">
        <ele>61.617216</ele>
        <time>2020-08-06T09:02:59.112Z</time>
      </trkpt>
      <trkpt lat="63.34871" lon="9.97018">
        <ele>61.529732</ele>
        <time>2020-08-06T09:03:01.108Z</time>
      </trkpt>
      <trkpt lat="63.34871" lon="9.97047">
        <ele>61.445818</ele>
        <time>2020-08-06T09:03:03.133Z</time>
      </trkpt>
      <trkpt lat="63.3487" lon="9.97075">
        <ele>61.363237</ele>
        <time>2020-08-06T09:03:05.131Z</time>
      </trkpt>
      <trkpt lat="63.34869" lon="9.97103">
        <ele>61.281775</ele>
        <time>2020-08-06T09:03:07.115Z</time>
      </trkpt>
      <trkpt lat="63.34868" lon="9.9713">
        <ele>61.20189</ele>
        <time>2020-08-06T09:03:09.131Z</time>
      </trkpt>
      <trkpt lat="63.34867" lon="9.97157">
        <ele>61.124969</ele>
        <time>2020-08-06T09:03:11.152Z</time>
      </trkpt>
      <trkpt lat="63.34864" lon="9.97181">
        <ele>61.052358</ele>
        <time>2020-08-06T09:03:13.117Z</time>
      </trkpt>
      <trkpt lat="63.34862" lon="9.97205">
        <ele>60.981454</ele>
        <time>2020-08-06T09:03:15.161Z</time>
      </trkpt>
      <trkpt lat="63.34859" lon="9.97227">
        <ele>60.914467</ele>
        <time>2020-08-06T09:03:17.125Z</time>
      </trkpt>
      <trkpt lat="63.34856" lon="9.97248">
        <ele>60.850635</ele>
        <time>2020-08-06T09:03:19.120Z</time>
      </trkpt>
      <trkpt lat="63.34853" lon="9.97268">
        <ele>60.779473</ele>
        <time>2020-08-06T09:03:21.133Z</time>
      </trkpt>
      <trkpt lat="63.3485" lon="9.97288">
        <ele>60.612855</ele>
        <time>2020-08-06T09:03:23.146Z</time>
      </trkpt>
      <trkpt lat="63.34847" lon="9.97307">
        <ele>60.45368</ele>
        <time>2020-08-06T09:03:25.115Z</time>
      </trkpt>
      <trkpt lat="63.34843" lon="9.97327">
        <ele>60.292052</ele>
        <time>2020-08-06T09:03:27.112Z</time>
      </trkpt>
      <trkpt lat="63.3484" lon="9.97345">
        <ele>60.129852</ele>
        <time>2020-08-06T09:03:29.135Z</time>
      </trkpt>
      <trkpt lat="63.34836" lon="9.97365">
        <ele>59.963305</ele>
        <time>2020-08-06T09:03:31.123Z</time>
      </trkpt>
      <trkpt lat="63.34832" lon="9.97384">
        <ele>59.796757</ele>
        <time>2020-08-06T09:03:33.118Z</time>
      </trkpt>
      <trkpt lat="63.34828" lon="9.97403">
        <ele>59.628105</ele>
        <time>2020-08-06T09:03:35.115Z</time>
      </trkpt>
      <trkpt lat="63.34824" lon="9.97423">
        <ele>59.459426</ele>
        <time>2020-08-06T09:03:37.128Z</time>
      </trkpt>
      <trkpt lat="63.34819" lon="9.97441">
        <ele>59.296236</ele>
        <time>2020-08-06T09:03:39.124Z</time>
      </trkpt>
      <trkpt lat="63.34814" lon="9.97467">
        <ele>59.066537</ele>
        <time>2020-08-06T09:03:42.120Z</time>
      </trkpt>
      <trkpt lat="63.34809" lon="9.97485">
        <ele>58.905299</ele>
        <time>2020-08-06T09:03:44.114Z</time>
      </trkpt>
      <trkpt lat="63.34805" lon="9.97503">
        <ele>58.746971</ele>
        <time>2020-08-06T09:03:46.115Z</time>
      </trkpt>
      <trkpt lat="63.34801" lon="9.97521">
        <ele>58.586683</ele>
        <time>2020-08-06T09:03:48.111Z</time>
      </trkpt>
      <trkpt lat="63.34797" lon="9.9754">
        <ele>58.425082</ele>
        <time>2020-08-06T09:03:50.116Z</time>
      </trkpt>
      <trkpt lat="63.34793" lon="9.97558">
        <ele>58.266372</ele>
        <time>2020-08-06T09:03:52.117Z</time>
      </trkpt>
      <trkpt lat="63.3479" lon="9.97578">
        <ele>58.101282</ele>
        <time>2020-08-06T09:03:54.114Z</time>
      </trkpt>
      <trkpt lat="63.34785" lon="9.97596">
        <ele>57.933529</ele>
        <time>2020-08-06T09:03:56.113Z</time>
      </trkpt>
      <trkpt lat="63.3478" lon="9.97615">
        <ele>57.766981</ele>
        <time>2020-08-06T09:03:58.111Z</time>
      </trkpt>
      <trkpt lat="63.34776" lon="9.97633">
        <ele>57.665206</ele>
        <time>2020-08-06T09:04:00.142Z</time>
      </trkpt>
      <trkpt lat="63.34771" lon="9.97652">
        <ele>57.793966</ele>
        <time>2020-08-06T09:04:02.111Z</time>
      </trkpt>
      <trkpt lat="63.34766" lon="9.9767">
        <ele>57.922678</ele>
        <time>2020-08-06T09:04:04.119Z</time>
      </trkpt>
      <trkpt lat="63.34761" lon="9.97688">
        <ele>58.048687</ele>
        <time>2020-08-06T09:04:06.122Z</time>
      </trkpt>
      <trkpt lat="63.34757" lon="9.97706">
        <ele>58.170658</ele>
        <time>2020-08-06T09:04:08.119Z</time>
      </trkpt>
      <trkpt lat="63.34751" lon="9.97731">
        <ele>58.340975</ele>
        <time>2020-08-06T09:04:11.125Z</time>
      </trkpt>
      <trkpt lat="63.34747" lon="9.97756">
        <ele>58.499409</ele>
        <time>2020-08-06T09:04:14.118Z</time>
      </trkpt>
      <trkpt lat="63.34742" lon="9.9778">
        <ele>58.65874</ele>
        <time>2020-08-06T09:04:17.119Z</time>
      </trkpt>
      <trkpt lat="63.34739" lon="9.97804">
        <ele>58.812075</ele>
        <time>2020-08-06T09:04:20.156Z</time>
      </trkpt>
      <trkpt lat="63.34737" lon="9.97829">
        <ele>58.963371</ele>
        <time>2020-08-06T09:04:23.126Z</time>
      </trkpt>
      <trkpt lat="63.34736" lon="9.97856">
        <ele>59.126354</ele>
        <time>2020-08-06T09:04:26.132Z</time>
      </trkpt>
      <trkpt lat="63.34735" lon="9.97884">
        <ele>59.294597</ele>
        <time>2020-08-06T09:04:29.113Z</time>
      </trkpt>
      <trkpt lat="63.34736" lon="9.97905">
        <ele>59.418457</ele>
        <time>2020-08-06T09:04:31.152Z</time>
      </trkpt>
      <trkpt lat="63.34736" lon="9.97926">
        <ele>59.543466</ele>
        <time>2020-08-06T09:04:33.112Z</time>
      </trkpt>
      <trkpt lat="63.34736" lon="9.97946">
        <ele>59.664874</ele>
        <time>2020-08-06T09:04:35.123Z</time>
      </trkpt>
      <trkpt lat="63.34737" lon="9.97974">
        <ele>59.834099</ele>
        <time>2020-08-06T09:04:38.124Z</time>
      </trkpt>
      <trkpt lat="63.34737" lon="9.98002">
        <ele>60.001099</ele>
        <time>2020-08-06T09:04:41.146Z</time>
      </trkpt>
      <trkpt lat="63.34737" lon="9.9803">
        <ele>60.346241</ele>
        <time>2020-08-06T09:04:44.123Z</time>
      </trkpt>
      <trkpt lat="63.34739" lon="9.98058">
        <ele>60.766051</ele>
        <time>2020-08-06T09:04:47.127Z</time>
      </trkpt>
      <trkpt lat="63.3474" lon="9.98085">
        <ele>61.182437</ele>
        <time>2020-08-06T09:04:50.121Z</time>
      </trkpt>
      <trkpt lat="63.3474" lon="9.98115">
        <ele>61.625007</ele>
        <time>2020-08-06T09:04:53.120Z</time>
      </trkpt>
      <trkpt lat="63.3474" lon="9.98144">
        <ele>62.060229</ele>
        <time>2020-08-06T09:04:56.117Z</time>
      </trkpt>
      <trkpt lat="63.3474" lon="9.98174">
        <ele>62.495349</ele>
        <time>2020-08-06T09:04:59.138Z</time>
      </trkpt>
      <trkpt lat="63.3474" lon="9.98201">
        <ele>62.905246</ele>
        <time>2020-08-06T09:05:02.112Z</time>
      </trkpt>
      <trkpt lat="63.3474" lon="9.9823">
        <ele>63.338914</ele>
        <time>2020-08-06T09:05:05.136Z</time>
      </trkpt>
      <trkpt lat="63.3474" lon="9.9826">
        <ele>63.780094</ele>
        <time>2020-08-06T09:05:08.159Z</time>
      </trkpt>
      <trkpt lat="63.34739" lon="9.98289">
        <ele>64.218045</ele>
        <time>2020-08-06T09:05:11.126Z</time>
      </trkpt>
      <trkpt lat="63.34737" lon="9.98317">
        <ele>64.637165</ele>
        <time>2020-08-06T09:05:14.128Z</time>
      </trkpt>
      <trkpt lat="63.34736" lon="9.98344">
        <ele>65.048091</ele>
        <time>2020-08-06T09:05:17.135Z</time>
      </trkpt>
      <trkpt lat="63.34734" lon="9.98372">
        <ele>65.466421</ele>
        <time>2020-08-06T09:05:20.140Z</time>
      </trkpt>
      <trkpt lat="63.34732" lon="9.98399">
        <ele>65.876612</ele>
        <time>2020-08-06T09:05:23.140Z</time>
      </trkpt>
      <trkpt lat="63.3473" lon="9.98425">
        <ele>65.89456</ele>
        <time>2020-08-06T09:05:26.109Z</time>
      </trkpt>
      <trkpt lat="63.34727" lon="9.9845">
        <ele>65.690471</ele>
        <time>2020-08-06T09:05:29.113Z</time>
      </trkpt>
      <trkpt lat="63.34724" lon="9.98474">
        <ele>65.495819</ele>
        <time>2020-08-06T09:05:32.164Z</time>
      </trkpt>
      <trkpt lat="63.34721" lon="9.98497">
        <ele>65.301729</ele>
        <time>2020-08-06T09:05:35.135Z</time>
      </trkpt>
      <trkpt lat="63.34718" lon="9.98521">
        <ele>65.101994</ele>
        <time>2020-08-06T09:05:38.116Z</time>
      </trkpt>
      <trkpt lat="63.34714" lon="9.98545">
        <ele>64.899454</ele>
        <time>2020-08-06T09:05:41.128Z</time>
      </trkpt>
      <trkpt lat="63.34712" lon="9.9857">
        <ele>64.70534</ele>
        <time>2020-08-06T09:05:44.134Z</time>
      </trkpt>
      <trkpt lat="63.34709" lon="9.98593">
        <ele>64.512035</ele>
        <time>2020-08-06T09:05:47.138Z</time>
      </trkpt>
      <trkpt lat="63.34706" lon="9.98619">
        <ele>64.301311</ele>
        <time>2020-08-06T09:05:50.119Z</time>
      </trkpt>
      <trkpt lat="63.34702" lon="9.98647">
        <ele>64.071413</ele>
        <time>2020-08-06T09:05:53.117Z</time>
      </trkpt>
      <trkpt lat="63.34697" lon="9.98674">
        <ele>63.844382</ele>
        <time>2020-08-06T09:05:56.113Z</time>
      </trkpt>
      <trkpt lat="63.34692" lon="9.98693">
        <ele>63.665901</ele>
        <time>2020-08-06T09:05:58.139Z</time>
      </trkpt>
      <trkpt lat="63.34686" lon="9.98713">
        <ele>63.471998</ele>
        <time>2020-08-06T09:06:00.125Z</time>
      </trkpt>
      <trkpt lat="63.34679" lon="9.98733">
        <ele>63.274383</ele>
        <time>2020-08-06T09:06:02.136Z</time>
      </trkpt>
      <trkpt lat="63.3467" lon="9.98753">
        <ele>63.052591</ele>
        <time>2020-08-06T09:06:04.128Z</time>
      </trkpt>
      <trkpt lat="63.34661" lon="9.98771">
        <ele>62.802865</ele>
        <time>2020-08-06T09:06:06.129Z</time>
      </trkpt>
      <trkpt lat="63.34651" lon="9.98786">
        <ele>62.221653</ele>
        <time>2020-08-06T09:06:08.114Z</time>
      </trkpt>
      <trkpt lat="63.34641" lon="9.98801">
        <ele>61.602684</ele>
        <time>2020-08-06T09:06:10.111Z</time>
      </trkpt>
      <trkpt lat="63.3463" lon="9.98813">
        <ele>61.007659</ele>
        <time>2020-08-06T09:06:12.155Z</time>
      </trkpt>
      <trkpt lat="63.34619" lon="9.98824">
        <ele>60.415658</ele>
        <time>2020-08-06T09:06:14.134Z</time>
      </trkpt>
      <trkpt lat="63.34609" lon="9.98836">
        <ele>59.846772</ele>
        <time>2020-08-06T09:06:16.113Z</time>
      </trkpt>
      <trkpt lat="63.34599" lon="9.98849">
        <ele>59.275315</ele>
        <time>2020-08-06T09:06:18.106Z</time>
      </trkpt>
      <trkpt lat="63.34589" lon="9.98864">
        <ele>58.675752</ele>
        <time>2020-08-06T09:06:20.198Z</time>
      </trkpt>
      <trkpt lat="63.34579" lon="9.9888">
        <ele>58.04932</ele>
        <time>2020-08-06T09:06:22.112Z</time>
      </trkpt>
      <trkpt lat="63.34568" lon="9.98899">
        <ele>57.378961</ele>
        <time>2020-08-06T09:06:24.113Z</time>
      </trkpt>
      <trkpt lat="63.34558" lon="9.9892">
        <ele>56.676955</ele>
        <time>2020-08-06T09:06:26.109Z</time>
      </trkpt>
      <trkpt lat="63.34547" lon="9.98944">
        <ele>55.925951</ele>
        <time>2020-08-06T09:06:28.155Z</time>
      </trkpt>
      <trkpt lat="63.34537" lon="9.98971">
        <ele>55.138611</ele>
        <time>2020-08-06T09:06:30.157Z</time>
      </trkpt>
      <trkpt lat="63.34529" lon="9.99001">
        <ele>54.357139</ele>
        <time>2020-08-06T09:06:32.166Z</time>
      </trkpt>
      <trkpt lat="63.34524" lon="9.99035">
        <ele>53.80127</ele>
        <time>2020-08-06T09:06:34.140Z</time>
      </trkpt>
      <trkpt lat="63.34523" lon="9.99071">
        <ele>53.521418</ele>
        <time>2020-08-06T09:06:36.135Z</time>
      </trkpt>
      <trkpt lat="63.34524" lon="9.9911">
        <ele>53.225224</ele>
        <time>2020-08-06T09:06:38.155Z</time>
      </trkpt>
      <trkpt lat="63.34527" lon="9.99148">
        <ele>52.930007</ele>
        <time>2020-08-06T09:06:40.145Z</time>
      </trkpt>
      <trkpt lat="63.3453" lon="9.99183">
        <ele>52.655443</ele>
        <time>2020-08-06T09:06:42.122Z</time>
      </trkpt>
      <trkpt lat="63.34532" lon="9.99215">
        <ele>52.411702</ele>
        <time>2020-08-06T09:06:44.116Z</time>
      </trkpt>
      <trkpt lat="63.34533" lon="9.99242">
        <ele>52.202287</ele>
        <time>2020-08-06T09:06:46.165Z</time>
      </trkpt>
      <trkpt lat="63.34535" lon="9.99265">
        <ele>52.028413</ele>
        <time>2020-08-06T09:06:48.113Z</time>
      </trkpt>
      <trkpt lat="63.34536" lon="9.99285">
        <ele>51.873529</ele>
        <time>2020-08-06T09:06:50.127Z</time>
      </trkpt>
      <trkpt lat="63.34536" lon="9.99313">
        <ele>51.663155</ele>
        <time>2020-08-06T09:06:53.118Z</time>
      </trkpt>
      <trkpt lat="63.34536" lon="9.99339">
        <ele>51.46726</ele>
        <time>2020-08-06T09:06:56.103Z</time>
      </trkpt>
      <trkpt lat="63.34535" lon="9.99364">
        <ele>51.271418</ele>
        <time>2020-08-06T09:06:59.135Z</time>
      </trkpt>
      <trkpt lat="63.34533" lon="9.9939">
        <ele>51.07268</ele>
        <time>2020-08-06T09:07:02.156Z</time>
      </trkpt>
      <trkpt lat="63.34531" lon="9.99417">
        <ele>50.861115</ele>
        <time>2020-08-06T09:07:05.112Z</time>
      </trkpt>
      <trkpt lat="63.3453" lon="9.99445">
        <ele>50.982494</ele>
        <time>2020-08-06T09:07:08.140Z</time>
      </trkpt>
      <trkpt lat="63.34529" lon="9.99465">
        <ele>51.071715</ele>
        <time>2020-08-06T09:07:10.113Z</time>
      </trkpt>
      <trkpt lat="63.34529" lon="9.99486">
        <ele>51.16213</ele>
        <time>2020-08-06T09:07:12.120Z</time>
      </trkpt>
      <trkpt lat="63.34528" lon="9.99506">
        <ele>51.252002</ele>
        <time>2020-08-06T09:07:14.138Z</time>
      </trkpt>
      <trkpt lat="63.34527" lon="9.99526">
        <ele>51.340837</ele>
        <time>2020-08-06T09:07:16.117Z</time>
      </trkpt>
      <trkpt lat="63.34525" lon="9.99546">
        <ele>51.432097</ele>
        <time>2020-08-06T09:07:18.124Z</time>
      </trkpt>
      <trkpt lat="63.34523" lon="9.99566">
        <ele>51.522303</ele>
        <time>2020-08-06T09:07:20.133Z</time>
      </trkpt>
      <trkpt lat="63.34522" lon="9.99586">
        <ele>51.610862</ele>
        <time>2020-08-06T09:07:22.129Z</time>
      </trkpt>
      <trkpt lat="63.3452" lon="9.99614">
        <ele>51.736785</ele>
        <time>2020-08-06T09:07:25.131Z</time>
      </trkpt>
      <trkpt lat="63.34518" lon="9.99643">
        <ele>51.863582</ele>
        <time>2020-08-06T09:07:28.139Z</time>
      </trkpt>
      <trkpt lat="63.34517" lon="9.99672">
        <ele>51.992128</ele>
        <time>2020-08-06T09:07:31.148Z</time>
      </trkpt>
      <trkpt lat="63.34515" lon="9.99701">
        <ele>52.121549</ele>
        <time>2020-08-06T09:07:34.108Z</time>
      </trkpt>
      <trkpt lat="63.34514" lon="9.99729">
        <ele>52.247665</ele>
        <time>2020-08-06T09:07:37.111Z</time>
      </trkpt>
      <trkpt lat="63.34511" lon="9.99757">
        <ele>52.372596</ele>
        <time>2020-08-06T09:07:40.104Z</time>
      </trkpt>
      <trkpt lat="63.3451" lon="9.99784">
        <ele>52.493713</ele>
        <time>2020-08-06T09:07:43.122Z</time>
      </trkpt>
      <trkpt lat="63.34509" lon="9.99813">
        <ele>52.620531</ele>
        <time>2020-08-06T09:07:46.136Z</time>
      </trkpt>
      <trkpt lat="63.34508" lon="9.99842">
        <ele>52.707403</ele>
        <time>2020-08-06T09:07:49.116Z</time>
      </trkpt>
      <trkpt lat="63.34508" lon="9.99872">
        <ele>52.791307</ele>
        <time>2020-08-06T09:07:52.123Z</time>
      </trkpt>
      <trkpt lat="63.34507" lon="9.99901">
        <ele>52.874588</ele>
        <time>2020-08-06T09:07:55.123Z</time>
      </trkpt>
      <trkpt lat="63.34505" lon="9.9993">
        <ele>52.958139</ele>
        <time>2020-08-06T09:07:58.118Z</time>
      </trkpt>
      <trkpt lat="63.34504" lon="9.9996">
        <ele>53.043064</ele>
        <time>2020-08-06T09:08:01.110Z</time>
      </trkpt>
      <trkpt lat="63.34503" lon="9.9998">
        <ele>53.100845</ele>
        <time>2020-08-06T09:08:03.128Z</time>
      </trkpt>
      <trkpt lat="63.34503" lon="10.00002">
        <ele>53.160858</ele>
        <time>2020-08-06T09:08:05.134Z</time>
      </trkpt>
      <trkpt lat="63.34503" lon="10.00023">
        <ele>53.22079</ele>
        <time>2020-08-06T09:08:07.120Z</time>
      </trkpt>
      <trkpt lat="63.34503" lon="10.00044">
        <ele>53.282168</ele>
        <time>2020-08-06T09:08:09.111Z</time>
      </trkpt>
      <trkpt lat="63.34502" lon="10.00066">
        <ele>53.344292</ele>
        <time>2020-08-06T09:08:11.108Z</time>
      </trkpt>
      <trkpt lat="63.34502" lon="10.00087">
        <ele>53.402886</ele>
        <time>2020-08-06T09:08:13.141Z</time>
      </trkpt>
      <trkpt lat="63.34501" lon="10.00108">
        <ele>53.462868</ele>
        <time>2020-08-06T09:08:15.136Z</time>
      </trkpt>
      <trkpt lat="63.34501" lon="10.00128">
        <ele>53.520556</ele>
        <time>2020-08-06T09:08:17.147Z</time>
      </trkpt>
      <trkpt lat="63.34501" lon="10.00149">
        <ele>53.578781</ele>
        <time>2020-08-06T09:08:19.162Z</time>
      </trkpt>
      <trkpt lat="63.34501" lon="10.00169">
        <ele>53.637009</ele>
        <time>2020-08-06T09:08:21.124Z</time>
      </trkpt>
      <trkpt lat="63.34501" lon="10.00189">
        <ele>53.694753</ele>
        <time>2020-08-06T09:08:23.145Z</time>
      </trkpt>
      <trkpt lat="63.345" lon="10.00219">
        <ele>53.812942</ele>
        <time>2020-08-06T09:08:26.129Z</time>
      </trkpt>
      <trkpt lat="63.34501" lon="10.00248">
        <ele>54.134537</ele>
        <time>2020-08-06T09:08:29.149Z</time>
      </trkpt>
      <trkpt lat="63.34503" lon="10.00277">
        <ele>54.452506</ele>
        <time>2020-08-06T09:08:32.127Z</time>
      </trkpt>
      <trkpt lat="63.34504" lon="10.00306">
        <ele>54.767998</ele>
        <time>2020-08-06T09:08:35.135Z</time>
      </trkpt>
      <trkpt lat="63.34505" lon="10.00335">
        <ele>55.094456</ele>
        <time>2020-08-06T09:08:38.108Z</time>
      </trkpt>
      <trkpt lat="63.34506" lon="10.00364">
        <ele>55.412898</ele>
        <time>2020-08-06T09:08:41.127Z</time>
      </trkpt>
      <trkpt lat="63.34507" lon="10.00391">
        <ele>55.712157</ele>
        <time>2020-08-06T09:08:44.118Z</time>
      </trkpt>
      <trkpt lat="63.34508" lon="10.00417">
        <ele>55.999871</ele>
        <time>2020-08-06T09:08:47.108Z</time>
      </trkpt>
      <trkpt lat="63.34509" lon="10.00442">
        <ele>56.269826</ele>
        <time>2020-08-06T09:08:50.116Z</time>
      </trkpt>
      <trkpt lat="63.3451" lon="10.00465">
        <ele>56.534054</ele>
        <time>2020-08-06T09:08:53.120Z</time>
      </trkpt>
      <trkpt lat="63.34511" lon="10.0049">
        <ele>56.801564</ele>
        <time>2020-08-06T09:08:56.122Z</time>
      </trkpt>
      <trkpt lat="63.34513" lon="10.00513">
        <ele>57.064176</ele>
        <time>2020-08-06T09:08:59.128Z</time>
      </trkpt>
      <trkpt lat="63.34515" lon="10.00537">
        <ele>57.326154</ele>
        <time>2020-08-06T09:09:02.117Z</time>
      </trkpt>
      <trkpt lat="63.34516" lon="10.00559">
        <ele>57.578194</ele>
        <time>2020-08-06T09:09:05.129Z</time>
      </trkpt>
      <trkpt lat="63.34515" lon="10.0058">
        <ele>57.800566</ele>
        <time>2020-08-06T09:09:08.158Z</time>
      </trkpt>
      <trkpt lat="63.34518" lon="10.00605">
        <ele>58.082802</ele>
        <time>2020-08-06T09:09:12.131Z</time>
      </trkpt>
      <trkpt lat="63.34524" lon="10.00623">
        <ele>58.33535</ele>
        <time>2020-08-06T09:09:15.117Z</time>
      </trkpt>
      <trkpt lat="63.34525" lon="10.00647">
        <ele>58.597583</ele>
        <time>2020-08-06T09:09:18.125Z</time>
      </trkpt>
      <trkpt lat="63.34526" lon="10.00671">
        <ele>58.863096</ele>
        <time>2020-08-06T09:09:21.121Z</time>
      </trkpt>
      <trkpt lat="63.34528" lon="10.00694">
        <ele>59.120224</ele>
        <time>2020-08-06T09:09:24.151Z</time>
      </trkpt>
      <trkpt lat="63.34531" lon="10.00715">
        <ele>59.364122</ele>
        <time>2020-08-06T09:09:27.124Z</time>
      </trkpt>
      <trkpt lat="63.34533" lon="10.00736">
        <ele>59.597071</ele>
        <time>2020-08-06T09:09:30.152Z</time>
      </trkpt>
      <trkpt lat="63.34536" lon="10.00756">
        <ele>59.831204</ele>
        <time>2020-08-06T09:09:33.143Z</time>
      </trkpt>
      <trkpt lat="63.34539" lon="10.00776">
        <ele>60.069193</ele>
        <time>2020-08-06T09:09:36.131Z</time>
      </trkpt>
      <trkpt lat="63.34543" lon="10.00797">
        <ele>60.311371</ele>
        <time>2020-08-06T09:09:39.118Z</time>
      </trkpt>
      <trkpt lat="63.34544" lon="10.00819">
        <ele>60.554387</ele>
        <time>2020-08-06T09:09:42.153Z</time>
      </trkpt>
      <trkpt lat="63.34545" lon="10.00841">
        <ele>60.804297</ele>
        <time>2020-08-06T09:09:45.133Z</time>
      </trkpt>
      <trkpt lat="63.34546" lon="10.00862">
        <ele>61.038937</ele>
        <time>2020-08-06T09:09:48.117Z</time>
      </trkpt>
      <trkpt lat="63.34549" lon="10.00884">
        <ele>61.288597</ele>
        <time>2020-08-06T09:09:51.127Z</time>
      </trkpt>
      <trkpt lat="63.3455" lon="10.00907">
        <ele>61.543704</ele>
        <time>2020-08-06T09:09:54.111Z</time>
      </trkpt>
      <trkpt lat="63.34552" lon="10.00931">
        <ele>61.813319</ele>
        <time>2020-08-06T09:09:57.116Z</time>
      </trkpt>
      <trkpt lat="63.34555" lon="10.00954">
        <ele>62.074161</ele>
        <time>2020-08-06T09:10:00.109Z</time>
      </trkpt>
      <trkpt lat="63.34557" lon="10.00977">
        <ele>62.328022</ele>
        <time>2020-08-06T09:10:03.119Z</time>
      </trkpt>
      <trkpt lat="63.3456" lon="10.01001">
        <ele>62.597025</ele>
        <time>2020-08-06T09:10:06.117Z</time>
      </trkpt>
      <trkpt lat="63.34562" lon="10.01025">
        <ele>62.780695</ele>
        <time>2020-08-06T09:10:09.119Z</time>
      </trkpt>
      <trkpt lat="63.34565" lon="10.01048">
        <ele>62.961441</ele>
        <time>2020-08-06T09:10:12.136Z</time>
      </trkpt>
      <trkpt lat="63.34568" lon="10.01071">
        <ele>63.142918</ele>
        <time>2020-08-06T09:10:15.112Z</time>
      </trkpt>
      <trkpt lat="63.3457" lon="10.01094">
        <ele>63.316639</ele>
        <time>2020-08-06T09:10:18.118Z</time>
      </trkpt>
      <trkpt lat="63.34573" lon="10.01117">
        <ele>63.495765</ele>
        <time>2020-08-06T09:10:21.114Z</time>
      </trkpt>
      <trkpt lat="63.34575" lon="10.0114">
        <ele>63.672455</ele>
        <time>2020-08-06T09:10:24.134Z</time>
      </trkpt>
      <trkpt lat="63.34577" lon="10.01163">
        <ele>63.851777</ele>
        <time>2020-08-06T09:10:27.136Z</time>
      </trkpt>
      <trkpt lat="63.34579" lon="10.01186">
        <ele>64.030051</ele>
        <time>2020-08-06T09:10:30.150Z</time>
      </trkpt>
      <trkpt lat="63.34582" lon="10.01209">
        <ele>64.205239</ele>
        <time>2020-08-06T09:10:33.143Z</time>
      </trkpt>
      <trkpt lat="63.34584" lon="10.01231">
        <ele>64.379118</ele>
        <time>2020-08-06T09:10:36.125Z</time>
      </trkpt>
      <trkpt lat="63.34587" lon="10.01254">
        <ele>64.554025</ele>
        <time>2020-08-06T09:10:39.124Z</time>
      </trkpt>
      <trkpt lat="63.34589" lon="10.01275">
        <ele>64.720032</ele>
        <time>2020-08-06T09:10:42.119Z</time>
      </trkpt>
      <trkpt lat="63.34591" lon="10.01298">
        <ele>64.892702</ele>
        <time>2020-08-06T09:10:45.133Z</time>
      </trkpt>
      <trkpt lat="63.34593" lon="10.01321">
        <ele>65.065681</ele>
        <time>2020-08-06T09:10:48.133Z</time>
      </trkpt>
      <trkpt lat="63.34594" lon="10.01344">
        <ele>65.240643</ele>
        <time>2020-08-06T09:10:51.147Z</time>
      </trkpt>
      <trkpt lat="63.34596" lon="10.01367">
        <ele>65.416399</ele>
        <time>2020-08-06T09:10:54.113Z</time>
      </trkpt>
      <trkpt lat="63.34597" lon="10.01389">
        <ele>65.589415</ele>
        <time>2020-08-06T09:10:57.157Z</time>
      </trkpt>
      <trkpt lat="63.34599" lon="10.01412">
        <ele>65.223668</ele>
        <time>2020-08-06T09:11:00.167Z</time>
      </trkpt>
      <trkpt lat="63.34601" lon="10.01434">
        <ele>64.799894</ele>
        <time>2020-08-06T09:11:03.120Z</time>
      </trkpt>
      <trkpt lat="63.34602" lon="10.01458">
        <ele>64.361722</ele>
        <time>2020-08-06T09:11:06.124Z</time>
      </trkpt>
      <trkpt lat="63.34603" lon="10.01481">
        <ele>63.931336</ele>
        <time>2020-08-06T09:11:09.122Z</time>
      </trkpt>
      <trkpt lat="63.34603" lon="10.01503">
        <ele>63.520433</ele>
        <time>2020-08-06T09:11:12.126Z</time>
      </trkpt>
      <trkpt lat="63.34604" lon="10.01526">
        <ele>63.086594</ele>
        <time>2020-08-06T09:11:15.140Z</time>
      </trkpt>
      <trkpt lat="63.34605" lon="10.01549">
        <ele>62.659917</ele>
        <time>2020-08-06T09:11:18.116Z</time>
      </trkpt>
      <trkpt lat="63.34605" lon="10.0157">
        <ele>62.260732</ele>
        <time>2020-08-06T09:11:21.111Z</time>
      </trkpt>
      <trkpt lat="63.34607" lon="10.01592">
        <ele>61.846396</ele>
        <time>2020-08-06T09:11:24.110Z</time>
      </trkpt>
      <trkpt lat="63.34608" lon="10.01615">
        <ele>61.431644</ele>
        <time>2020-08-06T09:11:27.110Z</time>
      </trkpt>
      <trkpt lat="63.34609" lon="10.01638">
        <ele>61.003942</ele>
        <time>2020-08-06T09:11:30.116Z</time>
      </trkpt>
      <trkpt lat="63.3461" lon="10.0166">
        <ele>60.580897</ele>
        <time>2020-08-06T09:11:33.119Z</time>
      </trkpt>
      <trkpt lat="63.34611" lon="10.01683">
        <ele>60.152065</ele>
        <time>2020-08-06T09:11:36.115Z</time>
      </trkpt>
      <trkpt lat="63.34612" lon="10.01707">
        <ele>59.71323</ele>
        <time>2020-08-06T09:11:39.136Z</time>
      </trkpt>
      <trkpt lat="63.34613" lon="10.0173">
        <ele>59.269389</ele>
        <time>2020-08-06T09:11:42.153Z</time>
      </trkpt>
      <trkpt lat="63.34615" lon="10.01754">
        <ele>58.818943</ele>
        <time>2020-08-06T09:11:45.138Z</time>
      </trkpt>
      <trkpt lat="63.34616" lon="10.01778">
        <ele>58.366069</ele>
        <time>2020-08-06T09:11:48.138Z</time>
      </trkpt>
      <trkpt lat="63.34618" lon="10.01802">
        <ele>58.412259</ele>
        <time>2020-08-06T09:11:51.112Z</time>
      </trkpt>
      <trkpt lat="63.3462" lon="10.01825">
        <ele>58.902922</ele>
        <time>2020-08-06T09:11:54.120Z</time>
      </trkpt>
      <trkpt lat="63.34621" lon="10.01848">
        <ele>59.382586</ele>
        <time>2020-08-06T09:11:57.121Z</time>
      </trkpt>
      <trkpt lat="63.34622" lon="10.01872">
        <ele>59.884964</ele>
        <time>2020-08-06T09:12:00.124Z</time>
      </trkpt>
      <trkpt lat="63.34623" lon="10.01895">
        <ele>60.365608</ele>
        <time>2020-08-06T09:12:03.123Z</time>
      </trkpt>
      <trkpt lat="63.34625" lon="10.01917">
        <ele>60.823417</ele>
        <time>2020-08-06T09:12:06.104Z</time>
      </trkpt>
      <trkpt lat="63.34626" lon="10.01939">
        <ele>61.280547</ele>
        <time>2020-08-06T09:12:09.139Z</time>
      </trkpt>
      <trkpt lat="63.34628" lon="10.01962">
        <ele>61.769154</ele>
        <time>2020-08-06T09:12:12.133Z</time>
      </trkpt>
      <trkpt lat="63.34629" lon="10.01984">
        <ele>62.226587</ele>
        <time>2020-08-06T09:12:15.138Z</time>
      </trkpt>
      <trkpt lat="63.3463" lon="10.02007">
        <ele>62.711354</ele>
        <time>2020-08-06T09:12:18.131Z</time>
      </trkpt>
      <trkpt lat="63.34631" lon="10.02031">
        <ele>63.200245</ele>
        <time>2020-08-06T09:12:21.115Z</time>
      </trkpt>
      <trkpt lat="63.34632" lon="10.02054">
        <ele>63.688172</ele>
        <time>2020-08-06T09:12:24.131Z</time>
      </trkpt>
      <trkpt lat="63.34633" lon="10.02078">
        <ele>64.185334</ele>
        <time>2020-08-06T09:12:27.133Z</time>
      </trkpt>
      <trkpt lat="63.34634" lon="10.02102">
        <ele>64.67698</ele>
        <time>2020-08-06T09:12:30.113Z</time>
      </trkpt>
      <trkpt lat="63.34636" lon="10.02127">
        <ele>65.200858</ele>
        <time>2020-08-06T09:12:33.178Z</time>
      </trkpt>
      <trkpt lat="63.34638" lon="10.02151">
        <ele>65.71532</ele>
        <time>2020-08-06T09:12:36.139Z</time>
      </trkpt>
      <trkpt lat="63.3464" lon="10.02173">
        <ele>66.19099</ele>
        <time>2020-08-06T09:12:39.147Z</time>
      </trkpt>
      <trkpt lat="63.34641" lon="10.02196">
        <ele>66.554535</ele>
        <time>2020-08-06T09:12:42.128Z</time>
      </trkpt>
      <trkpt lat="63.34642" lon="10.02218">
        <ele>66.746895</ele>
        <time>2020-08-06T09:12:45.111Z</time>
      </trkpt>
      <trkpt lat="63.34643" lon="10.02241">
        <ele>66.939592</ele>
        <time>2020-08-06T09:12:48.119Z</time>
      </trkpt>
      <trkpt lat="63.34645" lon="10.02264">
        <ele>67.138336</ele>
        <time>2020-08-06T09:12:51.133Z</time>
      </trkpt>
      <trkpt lat="63.34646" lon="10.02286">
        <ele>67.333671</ele>
        <time>2020-08-06T09:12:54.112Z</time>
      </trkpt>
      <trkpt lat="63.34647" lon="10.02308">
        <ele>67.519012</ele>
        <time>2020-08-06T09:12:57.118Z</time>
      </trkpt>
      <trkpt lat="63.34648" lon="10.0233">
        <ele>67.708623</ele>
        <time>2020-08-06T09:13:00.132Z</time>
      </trkpt>
      <trkpt lat="63.34649" lon="10.02351">
        <ele>67.892085</ele>
        <time>2020-08-06T09:13:03.116Z</time>
      </trkpt>
      <trkpt lat="63.3465" lon="10.02372">
        <ele>68.06956</ele>
        <time>2020-08-06T09:13:06.135Z</time>
      </trkpt>
      <trkpt lat="63.3465" lon="10.02394">
        <ele>68.266014</ele>
        <time>2020-08-06T09:13:09.104Z</time>
      </trkpt>
      <trkpt lat="63.34651" lon="10.02418">
        <ele>68.469876</ele>
        <time>2020-08-06T09:13:12.148Z</time>
      </trkpt>
      <trkpt lat="63.34652" lon="10.02441">
        <ele>68.670778</ele>
        <time>2020-08-06T09:13:15.134Z</time>
      </trkpt>
      <trkpt lat="63.34653" lon="10.02465">
        <ele>68.879123</ele>
        <time>2020-08-06T09:13:18.124Z</time>
      </trkpt>
      <trkpt lat="63.34655" lon="10.0249">
        <ele>69.088809</ele>
        <time>2020-08-06T09:13:21.119Z</time>
      </trkpt>
      <trkpt lat="63.34656" lon="10.02513">
        <ele>69.291817</ele>
        <time>2020-08-06T09:13:24.117Z</time>
      </trkpt>
      <trkpt lat="63.34657" lon="10.02536">
        <ele>69.489708</ele>
        <time>2020-08-06T09:13:27.136Z</time>
      </trkpt>
      <trkpt lat="63.34658" lon="10.02558">
        <ele>69.678156</ele>
        <time>2020-08-06T09:13:30.115Z</time>
      </trkpt>
      <trkpt lat="63.34659" lon="10.0258">
        <ele>69.867228</ele>
        <time>2020-08-06T09:13:33.123Z</time>
      </trkpt>
      <trkpt lat="63.34659" lon="10.02601">
        <ele>69.91831</ele>
        <time>2020-08-06T09:13:36.139Z</time>
      </trkpt>
      <trkpt lat="63.34659" lon="10.02623">
        <ele>69.920083</ele>
        <time>2020-08-06T09:13:39.136Z</time>
      </trkpt>
      <trkpt lat="63.34659" lon="10.02644">
        <ele>69.92183</ele>
        <time>2020-08-06T09:13:42.135Z</time>
      </trkpt>
      <trkpt lat="63.3466" lon="10.02667">
        <ele>69.92371</ele>
        <time>2020-08-06T09:13:45.125Z</time>
      </trkpt>
      <trkpt lat="63.3466" lon="10.0269">
        <ele>69.925608</ele>
        <time>2020-08-06T09:13:48.121Z</time>
      </trkpt>
      <trkpt lat="63.34661" lon="10.02715">
        <ele>69.927696</ele>
        <time>2020-08-06T09:13:51.114Z</time>
      </trkpt>
      <trkpt lat="63.34662" lon="10.02739">
        <ele>69.929689</ele>
        <time>2020-08-06T09:13:54.138Z</time>
      </trkpt>
      <trkpt lat="63.34663" lon="10.02763">
        <ele>69.931654</ele>
        <time>2020-08-06T09:13:57.119Z</time>
      </trkpt>
      <trkpt lat="63.34664" lon="10.02787">
        <ele>69.933645</ele>
        <time>2020-08-06T09:14:00.117Z</time>
      </trkpt>
      <trkpt lat="63.34664" lon="10.02811">
        <ele>69.935622</ele>
        <time>2020-08-06T09:14:03.133Z</time>
      </trkpt>
      <trkpt lat="63.34663" lon="10.02835">
        <ele>69.937577</ele>
        <time>2020-08-06T09:14:06.139Z</time>
      </trkpt>
      <trkpt lat="63.34664" lon="10.02858">
        <ele>69.939482</ele>
        <time>2020-08-06T09:14:09.104Z</time>
      </trkpt>
      <trkpt lat="63.34664" lon="10.0288">
        <ele>69.94133</ele>
        <time>2020-08-06T09:14:12.157Z</time>
      </trkpt>
      <trkpt lat="63.34665" lon="10.02902">
        <ele>69.943117</ele>
        <time>2020-08-06T09:14:15.139Z</time>
      </trkpt>
      <trkpt lat="63.34666" lon="10.02928">
        <ele>69.945254</ele>
        <time>2020-08-06T09:14:19.124Z</time>
      </trkpt>
      <trkpt lat="63.34666" lon="10.02952">
        <ele>69.947265</ele>
        <time>2020-08-06T09:14:23.115Z</time>
      </trkpt>
      <trkpt lat="63.34665" lon="10.02976">
        <ele>69.949252</ele>
        <time>2020-08-06T09:14:27.135Z</time>
      </trkpt>
      <trkpt lat="63.34666" lon="10.02998">
        <ele>70.471159</ele>
        <time>2020-08-06T09:14:31.141Z</time>
      </trkpt>
      <trkpt lat="63.34665" lon="10.0302">
        <ele>71.36402</ele>
        <time>2020-08-06T09:14:35.121Z</time>
      </trkpt>
      <trkpt lat="63.34667" lon="10.03041">
        <ele>72.275184</ele>
        <time>2020-08-06T09:14:39.122Z</time>
      </trkpt>
      <trkpt lat="63.34668" lon="10.03062">
        <ele>73.144526</ele>
        <time>2020-08-06T09:14:43.106Z</time>
      </trkpt>
      <trkpt lat="63.34668" lon="10.03084">
        <ele>74.090701</ele>
        <time>2020-08-06T09:14:47.137Z</time>
      </trkpt>
      <trkpt lat="63.34669" lon="10.03105">
        <ele>74.985139</ele>
        <time>2020-08-06T09:14:51.135Z</time>
      </trkpt>
      <trkpt lat="63.34669" lon="10.0313">
        <ele>76.042684</ele>
        <time>2020-08-06T09:14:56.213Z</time>
      </trkpt>
      <trkpt lat="63.34671" lon="10.03152">
        <ele>76.970583</ele>
        <time>2020-08-06T09:15:00.162Z</time>
      </trkpt>
      <trkpt lat="63.34672" lon="10.03174">
        <ele>77.913283</ele>
        <time>2020-08-06T09:15:04.119Z</time>
      </trkpt>
      <trkpt lat="63.34673" lon="10.03196">
        <ele>78.836997</ele>
        <time>2020-08-06T09:15:08.163Z</time>
      </trkpt>
      <trkpt lat="63.34674" lon="10.03217">
        <ele>79.727231</ele>
        <time>2020-08-06T09:15:12.128Z</time>
      </trkpt>
      <trkpt lat="63.34674" lon="10.03239">
        <ele>80.625869</ele>
        <time>2020-08-06T09:15:16.130Z</time>
      </trkpt>
      <trkpt lat="63.34675" lon="10.0326">
        <ele>81.523967</ele>
        <time>2020-08-06T09:15:20.125Z</time>
      </trkpt>
      <trkpt lat="63.34676" lon="10.0328">
        <ele>82.388056</ele>
        <time>2020-08-06T09:15:24.142Z</time>
      </trkpt>
      <trkpt lat="63.34677" lon="10.03302">
        <ele>83.284705</ele>
        <time>2020-08-06T09:15:28.122Z</time>
      </trkpt>
      <trkpt lat="63.34676" lon="10.03322">
        <ele>84.164783</ele>
        <time>2020-08-06T09:15:32.120Z</time>
      </trkpt>
      <trkpt lat="63.34677" lon="10.03344">
        <ele>85.069816</ele>
        <time>2020-08-06T09:15:36.147Z</time>
      </trkpt>
      <trkpt lat="63.34678" lon="10.03365">
        <ele>85.960048</ele>
        <time>2020-08-06T09:15:40.155Z</time>
      </trkpt>
      <trkpt lat="63.34679" lon="10.03387">
        <ele>86.854601</ele>
        <time>2020-08-06T09:15:44.109Z</time>
      </trkpt>
      <trkpt lat="63.3468" lon="10.0341">
        <ele>87.138378</ele>
        <time>2020-08-06T09:15:48.121Z</time>
      </trkpt>
      <trkpt lat="63.3468" lon="10.03431">
        <ele>87.412295</ele>
        <time>2020-08-06T09:15:52.129Z</time>
      </trkpt>
      <trkpt lat="63.34681" lon="10.03452">
        <ele>87.677749</ele>
        <time>2020-08-06T09:15:56.135Z</time>
      </trkpt>
      <trkpt lat="63.34681" lon="10.03473">
        <ele>87.949235</ele>
        <time>2020-08-06T09:16:00.133Z</time>
      </trkpt>
      <trkpt lat="63.3468" lon="10.03495">
        <ele>88.225215</ele>
        <time>2020-08-06T09:16:04.123Z</time>
      </trkpt>
      <trkpt lat="63.34678" lon="10.03517">
        <ele>88.508441</ele>
        <time>2020-08-06T09:16:08.128Z</time>
      </trkpt>
      <trkpt lat="63.34676" lon="10.03539">
        <ele>88.789929</ele>
        <time>2020-08-06T09:16:12.125Z</time>
      </trkpt>
      <trkpt lat="63.34674" lon="10.03561">
        <ele>89.071416</ele>
        <time>2020-08-06T09:16:16.112Z</time>
      </trkpt>
      <trkpt lat="63.34673" lon="10.03582">
        <ele>89.351881</ele>
        <time>2020-08-06T09:16:20.128Z</time>
      </trkpt>
      <trkpt lat="63.3467" lon="10.03604">
        <ele>89.635742</ele>
        <time>2020-08-06T09:16:24.143Z</time>
      </trkpt>
      <trkpt lat="63.34668" lon="10.03627">
        <ele>89.926481</ele>
        <time>2020-08-06T09:16:28.172Z</time>
      </trkpt>
      <trkpt lat="63.34667" lon="10.03647">
        <ele>90.19101</ele>
        <time>2020-08-06T09:16:32.126Z</time>
      </trkpt>
      <trkpt lat="63.34664" lon="10.03667">
        <ele>90.454654</ele>
        <time>2020-08-06T09:16:36.133Z</time>
      </trkpt>
      <trkpt lat="63.34662" lon="10.03689">
        <ele>90.744252</ele>
        <time>2020-08-06T09:16:40.123Z</time>
      </trkpt>
      <trkpt lat="63.34658" lon="10.03711">
        <ele>91.032014</ele>
        <time>2020-08-06T09:16:44.141Z</time>
      </trkpt>
      <trkpt lat="63.34656" lon="10.03732">
        <ele>91.312571</ele>
        <time>2020-08-06T09:16:48.110Z</time>
      </trkpt>
      <trkpt lat="63.34653" lon="10.03752">
        <ele>91.576508</ele>
        <time>2020-08-06T09:16:52.160Z</time>
      </trkpt>
      <trkpt lat="63.3465" lon="10.03773">
        <ele>91.861232</ele>
        <time>2020-08-06T09:16:56.117Z</time>
      </trkpt>
      <trkpt lat="63.34647" lon="10.03794">
        <ele>92.04996</ele>
        <time>2020-08-06T09:17:00.124Z</time>
      </trkpt>
      <trkpt lat="63.34644" lon="10.03814">
        <ele>92.209093</ele>
        <time>2020-08-06T09:17:04.114Z</time>
      </trkpt>
      <trkpt lat="63.34642" lon="10.03836">
        <ele>92.374034</ele>
        <time>2020-08-06T09:17:08.134Z</time>
      </trkpt>
      <trkpt lat="63.34641" lon="10.03857">
        <ele>92.540518</ele>
        <time>2020-08-06T09:17:12.115Z</time>
      </trkpt>
      <trkpt lat="63.34639" lon="10.03878">
        <ele>92.70109</ele>
        <time>2020-08-06T09:17:16.134Z</time>
      </trkpt>
      <trkpt lat="63.34636" lon="10.03898">
        <ele>92.857594</ele>
        <time>2020-08-06T09:17:20.140Z</time>
      </trkpt>
      <trkpt lat="63.34635" lon="10.03919">
        <ele>93.016677</ele>
        <time>2020-08-06T09:17:24.133Z</time>
      </trkpt>
      <trkpt lat="63.34633" lon="10.0394">
        <ele>93.178287</ele>
        <time>2020-08-06T09:17:28.130Z</time>
      </trkpt>
      <trkpt lat="63.3463" lon="10.03961">
        <ele>93.342978</ele>
        <time>2020-08-06T09:17:32.134Z</time>
      </trkpt>
      <trkpt lat="63.34628" lon="10.03981">
        <ele>93.50128</ele>
        <time>2020-08-06T09:17:36.151Z</time>
      </trkpt>
      <trkpt lat="63.34625" lon="10.04002">
        <ele>93.67007</ele>
        <time>2020-08-06T09:17:40.132Z</time>
      </trkpt>
      <trkpt lat="63.34623" lon="10.04025">
        <ele>93.847351</ele>
        <time>2020-08-06T09:17:44.126Z</time>
      </trkpt>
      <trkpt lat="63.3462" lon="10.04047">
        <ele>94.017177</ele>
        <time>2020-08-06T09:17:48.116Z</time>
      </trkpt>
      <trkpt lat="63.34617" lon="10.04069">
        <ele>94.195632</ele>
        <time>2020-08-06T09:17:52.118Z</time>
      </trkpt>
      <trkpt lat="63.34615" lon="10.04093">
        <ele>94.378323</ele>
        <time>2020-08-06T09:17:56.121Z</time>
      </trkpt>
      <trkpt lat="63.34613" lon="10.04116">
        <ele>94.560378</ele>
        <time>2020-08-06T09:18:00.156Z</time>
      </trkpt>
      <trkpt lat="63.3461" lon="10.0414">
        <ele>94.749231</ele>
        <time>2020-08-06T09:18:04.136Z</time>
      </trkpt>
      <trkpt lat="63.34606" lon="10.04165">
        <ele>94.941247</ele>
        <time>2020-08-06T09:18:08.130Z</time>
      </trkpt>
      <trkpt lat="63.34603" lon="10.04188">
        <ele>95.700505</ele>
        <time>2020-08-06T09:18:12.123Z</time>
      </trkpt>
      <trkpt lat="63.34601" lon="10.04212">
        <ele>96.47136</ele>
        <time>2020-08-06T09:18:16.121Z</time>
      </trkpt>
      <trkpt lat="63.34598" lon="10.04233">
        <ele>97.161559</ele>
        <time>2020-08-06T09:18:20.121Z</time>
      </trkpt>
      <trkpt lat="63.34596" lon="10.04255">
        <ele>97.890261</ele>
        <time>2020-08-06T09:18:24.108Z</time>
      </trkpt>
      <trkpt lat="63.34594" lon="10.0428">
        <ele>98.693406</ele>
        <time>2020-08-06T09:18:28.150Z</time>
      </trkpt>
      <trkpt lat="63.34592" lon="10.04299">
        <ele>99.334381</ele>
        <time>2020-08-06T09:18:31.121Z</time>
      </trkpt>
      <trkpt lat="63.3459" lon="10.04319">
        <ele>99.980209</ele>
        <time>2020-08-06T09:18:34.117Z</time>
      </trkpt>
      <trkpt lat="63.34589" lon="10.04343">
        <ele>100.746297</ele>
        <time>2020-08-06T09:18:38.148Z</time>
      </trkpt>
      <trkpt lat="63.34587" lon="10.04367">
        <ele>101.514649</ele>
        <time>2020-08-06T09:18:42.131Z</time>
      </trkpt>
      <trkpt lat="63.34583" lon="10.04391">
        <ele>102.336605</ele>
        <time>2020-08-06T09:18:46.120Z</time>
      </trkpt>
      <trkpt lat="63.3458" lon="10.0441">
        <ele>103.004997</ele>
        <time>2020-08-06T09:18:49.127Z</time>
      </trkpt>
      <trkpt lat="63.34578" lon="10.04433">
        <ele>103.742649</ele>
        <time>2020-08-06T09:18:52.112Z</time>
      </trkpt>
      <trkpt lat="63.34574" lon="10.04456">
        <ele>104.533794</ele>
        <time>2020-08-06T09:18:55.128Z</time>
      </trkpt>
      <trkpt lat="63.34571" lon="10.0448">
        <ele>105.326119</ele>
        <time>2020-08-06T09:18:58.133Z</time>
      </trkpt>
      <trkpt lat="63.34567" lon="10.04506">
        <ele>106.187302</ele>
        <time>2020-08-06T09:19:01.131Z</time>
      </trkpt>
      <trkpt lat="63.34562" lon="10.04532">
        <ele>107.100825</ele>
        <time>2020-08-06T09:19:04.133Z</time>
      </trkpt>
      <trkpt lat="63.34558" lon="10.04557">
        <ele>107.730952</ele>
        <time>2020-08-06T09:19:07.126Z</time>
      </trkpt>
      <trkpt lat="63.34555" lon="10.0458">
        <ele>107.551667</ele>
        <time>2020-08-06T09:19:10.122Z</time>
      </trkpt>
      <trkpt lat="63.3455" lon="10.04606">
        <ele>107.351817</ele>
        <time>2020-08-06T09:19:13.135Z</time>
      </trkpt>
      <trkpt lat="63.34545" lon="10.04634">
        <ele>107.133147</ele>
        <time>2020-08-06T09:19:16.136Z</time>
      </trkpt>
      <trkpt lat="63.3454" lon="10.04652">
        <ele>106.985598</ele>
        <time>2020-08-06T09:19:18.133Z</time>
      </trkpt>
      <trkpt lat="63.34535" lon="10.04678">
        <ele>106.770846</ele>
        <time>2020-08-06T09:19:21.119Z</time>
      </trkpt>
      <trkpt lat="63.34529" lon="10.04705">
        <ele>106.557437</ele>
        <time>2020-08-06T09:19:24.117Z</time>
      </trkpt>
      <trkpt lat="63.34525" lon="10.04724">
        <ele>106.408794</ele>
        <time>2020-08-06T09:19:26.127Z</time>
      </trkpt>
      <trkpt lat="63.34519" lon="10.04751">
        <ele>106.188677</ele>
        <time>2020-08-06T09:19:29.130Z</time>
      </trkpt>
      <trkpt lat="63.34515" lon="10.04769">
        <ele>106.040568</ele>
        <time>2020-08-06T09:19:31.149Z</time>
      </trkpt>
      <trkpt lat="63.34509" lon="10.04794">
        <ele>105.836032</ele>
        <time>2020-08-06T09:19:34.120Z</time>
      </trkpt>
      <trkpt lat="63.34503" lon="10.04821">
        <ele>105.618464</ele>
        <time>2020-08-06T09:19:37.154Z</time>
      </trkpt>
      <trkpt lat="63.34498" lon="10.04838">
        <ele>105.469536</ele>
        <time>2020-08-06T09:19:39.145Z</time>
      </trkpt>
      <trkpt lat="63.34492" lon="10.04858">
        <ele>105.302499</ele>
        <time>2020-08-06T09:19:41.120Z</time>
      </trkpt>
      <trkpt lat="63.34486" lon="10.04878">
        <ele>105.123438</ele>
        <time>2020-08-06T09:19:43.123Z</time>
      </trkpt>
      <trkpt lat="63.34478" lon="10.04899">
        <ele>104.927699</ele>
        <time>2020-08-06T09:19:45.138Z</time>
      </trkpt>
      <trkpt lat="63.3447" lon="10.04922">
        <ele>104.71102</ele>
        <time>2020-08-06T09:19:47.112Z</time>
      </trkpt>
      <trkpt lat="63.34461" lon="10.04946">
        <ele>104.478612</ele>
        <time>2020-08-06T09:19:49.149Z</time>
      </trkpt>
      <trkpt lat="63.34451" lon="10.0497">
        <ele>104.234717</ele>
        <time>2020-08-06T09:19:51.143Z</time>
      </trkpt>
      <trkpt lat="63.3444" lon="10.04995">
        <ele>103.983133</ele>
        <time>2020-08-06T09:19:53.125Z</time>
      </trkpt>
      <trkpt lat="63.3443" lon="10.05021">
        <ele>103.722218</ele>
        <time>2020-08-06T09:19:55.129Z</time>
      </trkpt>
      <trkpt lat="63.34419" lon="10.05049">
        <ele>103.452512</ele>
        <time>2020-08-06T09:19:57.137Z</time>
      </trkpt>
      <trkpt lat="63.34409" lon="10.05076">
        <ele>103.190119</ele>
        <time>2020-08-06T09:19:59.113Z</time>
      </trkpt>
      <trkpt lat="63.34399" lon="10.05104">
        <ele>102.936305</ele>
        <time>2020-08-06T09:20:01.162Z</time>
      </trkpt>
      <trkpt lat="63.34391" lon="10.05129">
        <ele>102.70063</ele>
        <time>2020-08-06T09:20:03.142Z</time>
      </trkpt>
      <trkpt lat="63.34383" lon="10.05153">
        <ele>102.480563</ele>
        <time>2020-08-06T09:20:05.186Z</time>
      </trkpt>
      <trkpt lat="63.34375" lon="10.05176">
        <ele>102.272638</ele>
        <time>2020-08-06T09:20:07.119Z</time>
      </trkpt>
      <trkpt lat="63.34368" lon="10.05197">
        <ele>102.076994</ele>
        <time>2020-08-06T09:20:09.133Z</time>
      </trkpt>
      <trkpt lat="63.3436" lon="10.05217">
        <ele>101.758962</ele>
        <time>2020-08-06T09:20:11.112Z</time>
      </trkpt>
      <trkpt lat="63.34352" lon="10.05237">
        <ele>100.952676</ele>
        <time>2020-08-06T09:20:13.118Z</time>
      </trkpt>
      <trkpt lat="63.34343" lon="10.05259">
        <ele>100.096995</ele>
        <time>2020-08-06T09:20:15.112Z</time>
      </trkpt>
      <trkpt lat="63.34333" lon="10.05281">
        <ele>99.150397</ele>
        <time>2020-08-06T09:20:17.146Z</time>
      </trkpt>
      <trkpt lat="63.34323" lon="10.05306">
        <ele>98.105014</ele>
        <time>2020-08-06T09:20:19.130Z</time>
      </trkpt>
      <trkpt lat="63.34311" lon="10.05332">
        <ele>96.98139</ele>
        <time>2020-08-06T09:20:21.129Z</time>
      </trkpt>
      <trkpt lat="63.34299" lon="10.0536">
        <ele>95.828555</ele>
        <time>2020-08-06T09:20:23.211Z</time>
      </trkpt>
      <trkpt lat="63.34287" lon="10.05387">
        <ele>94.685014</ele>
        <time>2020-08-06T09:20:25.130Z</time>
      </trkpt>
      <trkpt lat="63.34276" lon="10.05416">
        <ele>93.557486</ele>
        <time>2020-08-06T09:20:27.156Z</time>
      </trkpt>
      <trkpt lat="63.34265" lon="10.05444">
        <ele>92.434358</ele>
        <time>2020-08-06T09:20:29.128Z</time>
      </trkpt>
      <trkpt lat="63.34256" lon="10.05471">
        <ele>91.377033</ele>
        <time>2020-08-06T09:20:31.154Z</time>
      </trkpt>
      <trkpt lat="63.34247" lon="10.05497">
        <ele>90.390246</ele>
        <time>2020-08-06T09:20:33.119Z</time>
      </trkpt>
      <trkpt lat="63.34239" lon="10.05522">
        <ele>89.606183</ele>
        <time>2020-08-06T09:20:35.163Z</time>
      </trkpt>
      <trkpt lat="63.34231" lon="10.05545">
        <ele>89.094066</ele>
        <time>2020-08-06T09:20:37.162Z</time>
      </trkpt>
      <trkpt lat="63.34223" lon="10.05567">
        <ele>88.588228</ele>
        <time>2020-08-06T09:20:39.109Z</time>
      </trkpt>
      <trkpt lat="63.34214" lon="10.05588">
        <ele>88.069492</ele>
        <time>2020-08-06T09:20:41.124Z</time>
      </trkpt>
      <trkpt lat="63.34204" lon="10.05608">
        <ele>87.523267</ele>
        <time>2020-08-06T09:20:43.118Z</time>
      </trkpt>
      <trkpt lat="63.34193" lon="10.05628">
        <ele>86.957245</ele>
        <time>2020-08-06T09:20:45.130Z</time>
      </trkpt>
      <trkpt lat="63.34181" lon="10.05646">
        <ele>86.372875</ele>
        <time>2020-08-06T09:20:47.123Z</time>
      </trkpt>
      <trkpt lat="63.34167" lon="10.05662">
        <ele>85.760026</ele>
        <time>2020-08-06T09:20:49.137Z</time>
      </trkpt>
      <trkpt lat="63.34153" lon="10.05678">
        <ele>85.098707</ele>
        <time>2020-08-06T09:20:51.122Z</time>
      </trkpt>
      <trkpt lat="63.34136" lon="10.05691">
        <ele>84.383754</ele>
        <time>2020-08-06T09:20:53.120Z</time>
      </trkpt>
      <trkpt lat="63.34127" lon="10.05695">
        <ele>84.014511</ele>
        <time>2020-08-06T09:20:54.133Z</time>
      </trkpt>
      <trkpt lat="63.34117" lon="10.05698">
        <ele>83.637524</ele>
        <time>2020-08-06T09:20:55.130Z</time>
      </trkpt>
      <trkpt lat="63.34107" lon="10.057">
        <ele>83.24052</ele>
        <time>2020-08-06T09:20:56.149Z</time>
      </trkpt>
      <trkpt lat="63.34097" lon="10.057">
        <ele>82.820168</ele>
        <time>2020-08-06T09:20:57.129Z</time>
      </trkpt>
      <trkpt lat="63.34086" lon="10.05699">
        <ele>82.462794</ele>
        <time>2020-08-06T09:20:58.133Z</time>
      </trkpt>
      <trkpt lat="63.34076" lon="10.05696">
        <ele>82.163572</ele>
        <time>2020-08-06T09:20:59.160Z</time>
      </trkpt>
      <trkpt lat="63.34066" lon="10.05693">
        <ele>81.859143</ele>
        <time>2020-08-06T09:21:00.112Z</time>
      </trkpt>
      <trkpt lat="63.34055" lon="10.05688">
        <ele>81.552134</ele>
        <time>2020-08-06T09:21:01.138Z</time>
      </trkpt>
      <trkpt lat="63.34044" lon="10.05683">
        <ele>81.242059</ele>
        <time>2020-08-06T09:21:02.141Z</time>
      </trkpt>
      <trkpt lat="63.34034" lon="10.05678">
        <ele>80.926895</ele>
        <time>2020-08-06T09:21:03.110Z</time>
      </trkpt>
      <trkpt lat="63.34023" lon="10.05674">
        <ele>80.614749</ele>
        <time>2020-08-06T09:21:04.144Z</time>
      </trkpt>
      <trkpt lat="63.34012" lon="10.05673">
        <ele>80.2991</ele>
        <time>2020-08-06T09:21:05.134Z</time>
      </trkpt>
      <trkpt lat="63.34001" lon="10.05672">
        <ele>79.98699</ele>
        <time>2020-08-06T09:21:06.113Z</time>
      </trkpt>
      <trkpt lat="63.3399" lon="10.05673">
        <ele>79.67206</ele>
        <time>2020-08-06T09:21:07.130Z</time>
      </trkpt>
      <trkpt lat="63.33979" lon="10.05675">
        <ele>79.356105</ele>
        <time>2020-08-06T09:21:08.124Z</time>
      </trkpt>
      <trkpt lat="63.33968" lon="10.05678">
        <ele>79.032078</ele>
        <time>2020-08-06T09:21:09.156Z</time>
      </trkpt>
      <trkpt lat="63.33956" lon="10.05683">
        <ele>78.694194</ele>
        <time>2020-08-06T09:21:10.132Z</time>
      </trkpt>
      <trkpt lat="63.33945" lon="10.05689">
        <ele>78.35559</ele>
        <time>2020-08-06T09:21:11.112Z</time>
      </trkpt>
      <trkpt lat="63.33934" lon="10.05697">
        <ele>78.025238</ele>
        <time>2020-08-06T09:21:12.147Z</time>
      </trkpt>
      <trkpt lat="63.33923" lon="10.05706">
        <ele>77.693021</ele>
        <time>2020-08-06T09:21:13.140Z</time>
      </trkpt>
      <trkpt lat="63.33912" lon="10.05716">
        <ele>77.355404</ele>
        <time>2020-08-06T09:21:14.133Z</time>
      </trkpt>
      <trkpt lat="63.33902" lon="10.05728">
        <ele>76.993837</ele>
        <time>2020-08-06T09:21:15.148Z</time>
      </trkpt>
      <trkpt lat="63.33891" lon="10.05743">
        <ele>76.620121</ele>
        <time>2020-08-06T09:21:16.158Z</time>
      </trkpt>
      <trkpt lat="63.33882" lon="10.05759">
        <ele>76.246219</ele>
        <time>2020-08-06T09:21:17.112Z</time>
      </trkpt>
      <trkpt lat="63.33873" lon="10.05776">
        <ele>75.9015</ele>
        <time>2020-08-06T09:21:18.120Z</time>
      </trkpt>
      <trkpt lat="63.33866" lon="10.05796">
        <ele>75.553231</ele>
        <time>2020-08-06T09:21:19.131Z</time>
      </trkpt>
      <trkpt lat="63.3386" lon="10.05817">
        <ele>75.206459</ele>
        <time>2020-08-06T09:21:20.135Z</time>
      </trkpt>
      <trkpt lat="63.33854" lon="10.05838">
        <ele>74.859142</ele>
        <time>2020-08-06T09:21:21.129Z</time>
      </trkpt>
      <trkpt lat="63.33847" lon="10.05857">
        <ele>74.52955</ele>
        <time>2020-08-06T09:21:22.145Z</time>
      </trkpt>
      <trkpt lat="63.33841" lon="10.05875">
        <ele>74.209057</ele>
        <time>2020-08-06T09:21:23.144Z</time>
      </trkpt>
      <trkpt lat="63.33833" lon="10.05892">
        <ele>73.893747</ele>
        <time>2020-08-06T09:21:24.123Z</time>
      </trkpt>
      <trkpt lat="63.33826" lon="10.05906">
        <ele>73.583078</ele>
        <time>2020-08-06T09:21:25.128Z</time>
      </trkpt>
      <trkpt lat="63.33818" lon="10.05919">
        <ele>73.274732</ele>
        <time>2020-08-06T09:21:26.128Z</time>
      </trkpt>
      <trkpt lat="63.33809" lon="10.05931">
        <ele>72.963379</ele>
        <time>2020-08-06T09:21:27.114Z</time>
      </trkpt>
      <trkpt lat="63.33799" lon="10.05942">
        <ele>72.639064</ele>
        <time>2020-08-06T09:21:28.148Z</time>
      </trkpt>
      <trkpt lat="63.3379" lon="10.05952">
        <ele>72.315354</ele>
        <time>2020-08-06T09:21:29.136Z</time>
      </trkpt>
      <trkpt lat="63.33781" lon="10.05962">
        <ele>71.995285</ele>
        <time>2020-08-06T09:21:30.147Z</time>
      </trkpt>
      <trkpt lat="63.33771" lon="10.05973">
        <ele>71.514862</ele>
        <time>2020-08-06T09:21:31.150Z</time>
      </trkpt>
      <trkpt lat="63.33762" lon="10.05984">
        <ele>71.000797</ele>
        <time>2020-08-06T09:21:32.133Z</time>
      </trkpt>
      <trkpt lat="63.33753" lon="10.05994">
        <ele>70.5057</ele>
        <time>2020-08-06T09:21:33.132Z</time>
      </trkpt>
      <trkpt lat="63.33744" lon="10.06004">
        <ele>70.015946</ele>
        <time>2020-08-06T09:21:34.117Z</time>
      </trkpt>
      <trkpt lat="63.33735" lon="10.06014">
        <ele>69.519218</ele>
        <time>2020-08-06T09:21:35.138Z</time>
      </trkpt>
      <trkpt lat="63.33726" lon="10.06025">
        <ele>69.023625</ele>
        <time>2020-08-06T09:21:36.164Z</time>
      </trkpt>
      <trkpt lat="63.33717" lon="10.06037">
        <ele>68.523601</ele>
        <time>2020-08-06T09:21:37.124Z</time>
      </trkpt>
      <trkpt lat="63.33708" lon="10.06049">
        <ele>68.025806</ele>
        <time>2020-08-06T09:21:38.120Z</time>
      </trkpt>
      <trkpt lat="63.33699" lon="10.06061">
        <ele>67.51063</ele>
        <time>2020-08-06T09:21:39.118Z</time>
      </trkpt>
      <trkpt lat="63.33691" lon="10.06073">
        <ele>66.999607</ele>
        <time>2020-08-06T09:21:40.113Z</time>
      </trkpt>
      <trkpt lat="63.33682" lon="10.06086">
        <ele>66.485623</ele>
        <time>2020-08-06T09:21:41.125Z</time>
      </trkpt>
      <trkpt lat="63.33673" lon="10.06099">
        <ele>65.966773</ele>
        <time>2020-08-06T09:21:42.161Z</time>
      </trkpt>
      <trkpt lat="63.33664" lon="10.06114">
        <ele>65.435331</ele>
        <time>2020-08-06T09:21:43.172Z</time>
      </trkpt>
      <trkpt lat="63.33656" lon="10.06129">
        <ele>64.912055</ele>
        <time>2020-08-06T09:21:44.131Z</time>
      </trkpt>
      <trkpt lat="63.33649" lon="10.06146">
        <ele>64.399318</ele>
        <time>2020-08-06T09:21:45.122Z</time>
      </trkpt>
      <trkpt lat="63.33641" lon="10.06162">
        <ele>63.893785</ele>
        <time>2020-08-06T09:21:46.160Z</time>
      </trkpt>
      <trkpt lat="63.33635" lon="10.06179">
        <ele>63.409757</ele>
        <time>2020-08-06T09:21:47.122Z</time>
      </trkpt>
      <trkpt lat="63.33628" lon="10.06195">
        <ele>63.183757</ele>
        <time>2020-08-06T09:21:48.121Z</time>
      </trkpt>
      <trkpt lat="63.33623" lon="10.06212">
        <ele>63.197515</ele>
        <time>2020-08-06T09:21:49.155Z</time>
      </trkpt>
      <trkpt lat="63.33612" lon="10.06243">
        <ele>63.223134</ele>
        <time>2020-08-06T09:21:51.140Z</time>
      </trkpt>
      <trkpt lat="63.33602" lon="10.06272">
        <ele>63.247461</ele>
        <time>2020-08-06T09:21:53.153Z</time>
      </trkpt>
      <trkpt lat="63.33592" lon="10.06298">
        <ele>63.269706</ele>
        <time>2020-08-06T09:21:55.123Z</time>
      </trkpt>
      <trkpt lat="63.33583" lon="10.06321">
        <ele>63.2894</ele>
        <time>2020-08-06T09:21:57.137Z</time>
      </trkpt>
      <trkpt lat="63.33574" lon="10.06343">
        <ele>63.308599</ele>
        <time>2020-08-06T09:21:59.158Z</time>
      </trkpt>
      <trkpt lat="63.33566" lon="10.06363">
        <ele>63.326821</ele>
        <time>2020-08-06T09:22:01.122Z</time>
      </trkpt>
      <trkpt lat="63.33558" lon="10.06382">
        <ele>63.343772</ele>
        <time>2020-08-06T09:22:03.137Z</time>
      </trkpt>
      <trkpt lat="63.3355" lon="10.06399">
        <ele>63.359535</ele>
        <time>2020-08-06T09:22:05.180Z</time>
      </trkpt>
      <trkpt lat="63.33543" lon="10.06411">
        <ele>63.373556</ele>
        <time>2020-08-06T09:22:07.132Z</time>
      </trkpt>
      <trkpt lat="63.33534" lon="10.06422">
        <ele>63.387397</ele>
        <time>2020-08-06T09:22:09.121Z</time>
      </trkpt>
      <trkpt lat="63.33524" lon="10.06441">
        <ele>63.407166</ele>
        <time>2020-08-06T09:22:12.163Z</time>
      </trkpt>
      <trkpt lat="63.33517" lon="10.06455">
        <ele>63.420314</ele>
        <time>2020-08-06T09:22:14.118Z</time>
      </trkpt>
      <trkpt lat="63.3351" lon="10.06468">
        <ele>63.433983</ele>
        <time>2020-08-06T09:22:16.132Z</time>
      </trkpt>
      <trkpt lat="63.33503" lon="10.06481">
        <ele>63.458326</ele>
        <time>2020-08-06T09:22:18.141Z</time>
      </trkpt>
      <trkpt lat="63.33496" lon="10.06495">
        <ele>63.49018</ele>
        <time>2020-08-06T09:22:20.123Z</time>
      </trkpt>
      <trkpt lat="63.33488" lon="10.06509">
        <ele>63.521589</ele>
        <time>2020-08-06T09:22:22.129Z</time>
      </trkpt>
      <trkpt lat="63.33481" lon="10.06523">
        <ele>63.552867</ele>
        <time>2020-08-06T09:22:24.149Z</time>
      </trkpt>
      <trkpt lat="63.33474" lon="10.06535">
        <ele>63.583573</ele>
        <time>2020-08-06T09:22:26.147Z</time>
      </trkpt>
      <trkpt lat="63.33463" lon="10.06553">
        <ele>63.627696</ele>
        <time>2020-08-06T09:22:29.134Z</time>
      </trkpt>
      <trkpt lat="63.33455" lon="10.06564">
        <ele>63.65889</ele>
        <time>2020-08-06T09:22:31.142Z</time>
      </trkpt>
      <trkpt lat="63.33447" lon="10.06577">
        <ele>63.691985</ele>
        <time>2020-08-06T09:22:33.117Z</time>
      </trkpt>
      <trkpt lat="63.33439" lon="10.0659">
        <ele>63.722601</ele>
        <time>2020-08-06T09:22:35.115Z</time>
      </trkpt>
      <trkpt lat="63.3343" lon="10.06609">
        <ele>63.765775</ele>
        <time>2020-08-06T09:22:38.133Z</time>
      </trkpt>
      <trkpt lat="63.3342" lon="10.06629">
        <ele>63.808866</ele>
        <time>2020-08-06T09:22:41.121Z</time>
      </trkpt>
      <trkpt lat="63.33411" lon="10.06649">
        <ele>63.851153</ele>
        <time>2020-08-06T09:22:44.132Z</time>
      </trkpt>
      <trkpt lat="63.33401" lon="10.06667">
        <ele>63.891768</ele>
        <time>2020-08-06T09:22:47.111Z</time>
      </trkpt>
      <trkpt lat="63.33392" lon="10.06683">
        <ele>63.931301</ele>
        <time>2020-08-06T09:22:50.127Z</time>
      </trkpt>
      <trkpt lat="63.33382" lon="10.06701">
        <ele>63.972359</ele>
        <time>2020-08-06T09:22:53.143Z</time>
      </trkpt>
      <trkpt lat="63.33374" lon="10.06721">
        <ele>64.013025</ele>
        <time>2020-08-06T09:22:56.125Z</time>
      </trkpt>
      <trkpt lat="63.33365" lon="10.06739">
        <ele>64.005523</ele>
        <time>2020-08-06T09:22:59.112Z</time>
      </trkpt>
      <trkpt lat="63.33355" lon="10.06756">
        <ele>63.949816</ele>
        <time>2020-08-06T09:23:02.122Z</time>
      </trkpt>
      <trkpt lat="63.33344" lon="10.06771">
        <ele>63.891646</ele>
        <time>2020-08-06T09:23:05.135Z</time>
      </trkpt>
      <trkpt lat="63.33332" lon="10.06783">
        <ele>63.832722</ele>
        <time>2020-08-06T09:23:08.120Z</time>
      </trkpt>
      <trkpt lat="63.3332" lon="10.06793">
        <ele>63.774719</ele>
        <time>2020-08-06T09:23:11.133Z</time>
      </trkpt>
      <trkpt lat="63.33307" lon="10.068">
        <ele>63.715793</ele>
        <time>2020-08-06T09:23:14.105Z</time>
      </trkpt>
      <trkpt lat="63.33294" lon="10.06805">
        <ele>63.65895</ele>
        <time>2020-08-06T09:23:17.127Z</time>
      </trkpt>
      <trkpt lat="63.33283" lon="10.0681">
        <ele>63.606091</ele>
        <time>2020-08-06T09:23:20.113Z</time>
      </trkpt>
      <trkpt lat="63.33272" lon="10.06818">
        <ele>63.555608</ele>
        <time>2020-08-06T09:23:23.140Z</time>
      </trkpt>
      <trkpt lat="63.33261" lon="10.06829">
        <ele>63.503048</ele>
        <time>2020-08-06T09:23:26.168Z</time>
      </trkpt>
      <trkpt lat="63.3325" lon="10.0684">
        <ele>63.448768</ele>
        <time>2020-08-06T09:23:29.109Z</time>
      </trkpt>
      <trkpt lat="63.3324" lon="10.06855">
        <ele>63.393156</ele>
        <time>2020-08-06T09:23:32.108Z</time>
      </trkpt>
      <trkpt lat="63.33229" lon="10.0687">
        <ele>63.337109</ele>
        <time>2020-08-06T09:23:35.134Z</time>
      </trkpt>
      <trkpt lat="63.33219" lon="10.06887">
        <ele>63.280438</ele>
        <time>2020-08-06T09:23:38.115Z</time>
      </trkpt>
      <trkpt lat="63.33208" lon="10.06903">
        <ele>63.238013</ele>
        <time>2020-08-06T09:23:41.126Z</time>
      </trkpt>
      <trkpt lat="63.33196" lon="10.06917">
        <ele>63.314481</ele>
        <time>2020-08-06T09:23:44.136Z</time>
      </trkpt>
      <trkpt lat="63.33187" lon="10.06924">
        <ele>63.365363</ele>
        <time>2020-08-06T09:23:46.125Z</time>
      </trkpt>
      <trkpt lat="63.33175" lon="10.06933">
        <ele>63.439373</ele>
        <time>2020-08-06T09:23:49.128Z</time>
      </trkpt>
      <trkpt lat="63.33166" lon="10.06938">
        <ele>63.490463</ele>
        <time>2020-08-06T09:23:51.134Z</time>
      </trkpt>
      <trkpt lat="63.33157" lon="10.06943">
        <ele>63.542926</ele>
        <time>2020-08-06T09:23:53.181Z</time>
      </trkpt>
      <trkpt lat="63.33144" lon="10.06949">
        <ele>63.619377</ele>
        <time>2020-08-06T09:23:56.138Z</time>
      </trkpt>
      <trkpt lat="63.33135" lon="10.06953">
        <ele>63.67048</ele>
        <time>2020-08-06T09:23:58.153Z</time>
      </trkpt>
      <trkpt lat="63.33122" lon="10.06958">
        <ele>63.743519</ele>
        <time>2020-08-06T09:24:01.128Z</time>
      </trkpt>
      <trkpt lat="63.33113" lon="10.06963">
        <ele>63.797031</ele>
        <time>2020-08-06T09:24:03.135Z</time>
      </trkpt>
      <trkpt lat="63.33101" lon="10.06965">
        <ele>63.866551</ele>
        <time>2020-08-06T09:24:06.120Z</time>
      </trkpt>
      <trkpt lat="63.33088" lon="10.06966">
        <ele>63.937052</ele>
        <time>2020-08-06T09:24:09.137Z</time>
      </trkpt>
      <trkpt lat="63.33075" lon="10.06967">
        <ele>64.010309</ele>
        <time>2020-08-06T09:24:12.159Z</time>
      </trkpt>
      <trkpt lat="63.33066" lon="10.06967">
        <ele>64.062705</ele>
        <time>2020-08-06T09:24:14.113Z</time>
      </trkpt>
      <trkpt lat="63.33053" lon="10.06966">
        <ele>64.13708</ele>
        <time>2020-08-06T09:24:17.117Z</time>
      </trkpt>
      <trkpt lat="63.3304" lon="10.06966">
        <ele>64.210885</ele>
        <time>2020-08-06T09:24:20.140Z</time>
      </trkpt>
      <trkpt lat="63.33026" lon="10.06968">
        <ele>64.038606</ele>
        <time>2020-08-06T09:24:23.119Z</time>
      </trkpt>
      <trkpt lat="63.33017" lon="10.06967">
        <ele>63.78104</ele>
        <time>2020-08-06T09:24:25.110Z</time>
      </trkpt>
      <trkpt lat="63.33007" lon="10.06967">
        <ele>63.501871</ele>
        <time>2020-08-06T09:24:27.146Z</time>
      </trkpt>
      <trkpt lat="63.32996" lon="10.06966">
        <ele>63.200932</ele>
        <time>2020-08-06T09:24:29.142Z</time>
      </trkpt>
      <trkpt lat="63.32985" lon="10.06963">
        <ele>62.900922</ele>
        <time>2020-08-06T09:24:31.178Z</time>
      </trkpt>
      <trkpt lat="63.32973" lon="10.06959">
        <ele>62.585527</ele>
        <time>2020-08-06T09:24:33.112Z</time>
      </trkpt>
      <trkpt lat="63.32961" lon="10.06955">
        <ele>62.259047</ele>
        <time>2020-08-06T09:24:35.124Z</time>
      </trkpt>
      <trkpt lat="63.32949" lon="10.06951">
        <ele>61.924347</ele>
        <time>2020-08-06T09:24:37.181Z</time>
      </trkpt>
      <trkpt lat="63.32937" lon="10.06945">
        <ele>61.598165</ele>
        <time>2020-08-06T09:24:39.158Z</time>
      </trkpt>
      <trkpt lat="63.32924" lon="10.06939">
        <ele>61.243724</ele>
        <time>2020-08-06T09:24:41.133Z</time>
      </trkpt>
      <trkpt lat="63.32911" lon="10.06933">
        <ele>60.873686</ele>
        <time>2020-08-06T09:24:43.123Z</time>
      </trkpt>
      <trkpt lat="63.32898" lon="10.06925">
        <ele>60.503001</ele>
        <time>2020-08-06T09:24:45.123Z</time>
      </trkpt>
      <trkpt lat="63.32886" lon="10.06914">
        <ele>60.147362</ele>
        <time>2020-08-06T09:24:47.151Z</time>
      </trkpt>
      <trkpt lat="63.32873" lon="10.06903">
        <ele>59.78021</ele>
        <time>2020-08-06T09:24:49.119Z</time>
      </trkpt>
      <trkpt lat="63.3286" lon="10.06892">
        <ele>59.395702</ele>
        <time>2020-08-06T09:24:51.144Z</time>
      </trkpt>
      <trkpt lat="63.32847" lon="10.0688">
        <ele>59.086867</ele>
        <time>2020-08-06T09:24:53.146Z</time>
      </trkpt>
      <trkpt lat="63.32835" lon="10.06871">
        <ele>58.79781</ele>
        <time>2020-08-06T09:24:55.121Z</time>
      </trkpt>
      <trkpt lat="63.32823" lon="10.06863">
        <ele>58.503623</ele>
        <time>2020-08-06T09:24:57.128Z</time>
      </trkpt>
      <trkpt lat="63.32809" lon="10.06856">
        <ele>58.194401</ele>
        <time>2020-08-06T09:24:59.119Z</time>
      </trkpt>
      <trkpt lat="63.32796" lon="10.06849">
        <ele>57.883472</ele>
        <time>2020-08-06T09:25:01.137Z</time>
      </trkpt>
      <trkpt lat="63.32782" lon="10.06846">
        <ele>57.579478</ele>
        <time>2020-08-06T09:25:03.168Z</time>
      </trkpt>
      <trkpt lat="63.32769" lon="10.06847">
        <ele>57.274529</ele>
        <time>2020-08-06T09:25:05.115Z</time>
      </trkpt>
      <trkpt lat="63.32755" lon="10.06851">
        <ele>56.96759</ele>
        <time>2020-08-06T09:25:07.128Z</time>
      </trkpt>
      <trkpt lat="63.32742" lon="10.06855">
        <ele>56.667097</ele>
        <time>2020-08-06T09:25:09.119Z</time>
      </trkpt>
      <trkpt lat="63.3273" lon="10.06859">
        <ele>56.381947</ele>
        <time>2020-08-06T09:25:11.171Z</time>
      </trkpt>
      <trkpt lat="63.32719" lon="10.06864">
        <ele>56.125586</ele>
        <time>2020-08-06T09:25:13.117Z</time>
      </trkpt>
      <trkpt lat="63.32709" lon="10.06867">
        <ele>55.904247</ele>
        <time>2020-08-06T09:25:15.145Z</time>
      </trkpt>
      <trkpt lat="63.32698" lon="10.06871">
        <ele>55.649933</ele>
        <time>2020-08-06T09:25:18.134Z</time>
      </trkpt>
      <trkpt lat="63.32689" lon="10.06876">
        <ele>55.440703</ele>
        <time>2020-08-06T09:25:22.141Z</time>
      </trkpt>
      <trkpt lat="63.32689" lon="10.06897">
        <ele>55.206525</ele>
        <time>2020-08-06T09:25:28.155Z</time>
      </trkpt>
      <trkpt lat="63.32689" lon="10.0692">
        <ele>54.912342</ele>
        <time>2020-08-06T09:25:36.150Z</time>
      </trkpt>
      <trkpt lat="63.32691" lon="10.06943">
        <ele>54.611712</ele>
        <time>2020-08-06T09:25:40.115Z</time>
      </trkpt>
      <trkpt lat="63.32693" lon="10.06963">
        <ele>54.345531</ele>
        <time>2020-08-06T09:25:45.138Z</time>
      </trkpt>
      <trkpt lat="63.32697" lon="10.06983">
        <ele>54.053403</ele>
        <time>2020-08-06T09:25:49.120Z</time>
      </trkpt>
      <trkpt lat="63.32704" lon="10.07003">
        <ele>53.738726</ele>
        <time>2020-08-06T09:25:53.135Z</time>
      </trkpt>
      <trkpt lat="63.32705" lon="10.07025">
        <ele>53.453429</ele>
        <time>2020-08-06T09:25:57.119Z</time>
      </trkpt>
      <trkpt lat="63.32698" lon="10.07011">
        <ele>53.184869</ele>
        <time>2020-08-06T09:26:02.111Z</time>
      </trkpt>
      <trkpt lat="63.32694" lon="10.06993">
        <ele>52.924168</ele>
        <time>2020-08-06T09:26:05.119Z</time>
      </trkpt>
      <trkpt lat="63.32688" lon="10.06977">
        <ele>52.651539</ele>
        <time>2020-08-06T09:26:08.117Z</time>
      </trkpt>
      <trkpt lat="63.32679" lon="10.0697">
        <ele>52.380881</ele>
        <time>2020-08-06T09:26:11.143Z</time>
      </trkpt>
      <trkpt lat="63.32669" lon="10.06973">
        <ele>52.080482</ele>
        <time>2020-08-06T09:26:14.144Z</time>
      </trkpt>
      <trkpt lat="63.32656" lon="10.06977">
        <ele>51.716689</ele>
        <time>2020-08-06T09:26:17.121Z</time>
      </trkpt>
      <trkpt lat="63.32643" lon="10.06978">
        <ele>51.34308</ele>
        <time>2020-08-06T09:26:20.161Z</time>
      </trkpt>
      <trkpt lat="63.32633" lon="10.06975">
        <ele>51.053349</ele>
        <time>2020-08-06T09:26:23.109Z</time>
      </trkpt>
      <trkpt lat="63.32622" lon="10.06982">
        <ele>50.724311</ele>
        <time>2020-08-06T09:26:27.136Z</time>
      </trkpt>
      <trkpt lat="63.32613" lon="10.06991">
        <ele>50.445587</ele>
        <time>2020-08-06T09:26:30.111Z</time>
      </trkpt>
      <trkpt lat="63.32604" lon="10.06996">
        <ele>50.160472</ele>
        <time>2020-08-06T09:26:33.137Z</time>
      </trkpt>
      <trkpt lat="63.32593" lon="10.07003">
        <ele>50.346318</ele>
        <time>2020-08-06T09:26:36.131Z</time>
      </trkpt>
      <trkpt lat="63.32583" lon="10.07011">
        <ele>50.566282</ele>
        <time>2020-08-06T09:26:39.120Z</time>
      </trkpt>
      <trkpt lat="63.32574" lon="10.07019">
        <ele>50.76788</ele>
        <time>2020-08-06T09:26:42.138Z</time>
      </trkpt>
      <trkpt lat="63.32566" lon="10.07031">
        <ele>50.965648</ele>
        <time>2020-08-06T09:26:45.109Z</time>
      </trkpt>
      <trkpt lat="63.32556" lon="10.07047">
        <ele>51.202101</ele>
        <time>2020-08-06T09:26:49.120Z</time>
      </trkpt>
      <trkpt lat="63.32548" lon="10.07063">
        <ele>51.423141</ele>
        <time>2020-08-06T09:26:53.111Z</time>
      </trkpt>
      <trkpt lat="63.3254" lon="10.0708">
        <ele>51.646693</ele>
        <time>2020-08-06T09:26:57.119Z</time>
      </trkpt>
      <trkpt lat="63.32532" lon="10.07099">
        <ele>51.875919</ele>
        <time>2020-08-06T09:27:01.120Z</time>
      </trkpt>
      <trkpt lat="63.32525" lon="10.07119">
        <ele>52.102724</ele>
        <time>2020-08-06T09:27:05.140Z</time>
      </trkpt>
      <trkpt lat="63.32518" lon="10.07141">
        <ele>52.347204</ele>
        <time>2020-08-06T09:27:09.145Z</time>
      </trkpt>
      <trkpt lat="63.32514" lon="10.07161">
        <ele>52.553281</ele>
        <time>2020-08-06T09:27:12.123Z</time>
      </trkpt>
      <trkpt lat="63.3251" lon="10.07181">
        <ele>52.745625</ele>
        <time>2020-08-06T09:27:16.131Z</time>
      </trkpt>
      <trkpt lat="63.32506" lon="10.07204">
        <ele>52.965188</ele>
        <time>2020-08-06T09:27:22.125Z</time>
      </trkpt>
      <trkpt lat="63.32503" lon="10.07223">
        <ele>53.156427</ele>
        <time>2020-08-06T09:27:26.100Z</time>
      </trkpt>
      <trkpt lat="63.32498" lon="10.07245">
        <ele>53.3707</ele>
        <time>2020-08-06T09:27:30.107Z</time>
      </trkpt>
      <trkpt lat="63.32495" lon="10.07266">
        <ele>53.575597</ele>
        <time>2020-08-06T09:27:34.156Z</time>
      </trkpt>
      <trkpt lat="63.32492" lon="10.07287">
        <ele>53.776943</ele>
        <time>2020-08-06T09:27:38.119Z</time>
      </trkpt>
      <trkpt lat="63.32489" lon="10.07308">
        <ele>54.131462</ele>
        <time>2020-08-06T09:27:42.106Z</time>
      </trkpt>
      <trkpt lat="63.32486" lon="10.0733">
        <ele>54.491988</ele>
        <time>2020-08-06T09:27:46.146Z</time>
      </trkpt>
      <trkpt lat="63.32483" lon="10.07352">
        <ele>54.854024</ele>
        <time>2020-08-06T09:27:50.138Z</time>
      </trkpt>
      <trkpt lat="63.3248" lon="10.07375">
        <ele>55.21793</ele>
        <time>2020-08-06T09:27:54.124Z</time>
      </trkpt>
      <trkpt lat="63.32479" lon="10.07395">
        <ele>55.538097</ele>
        <time>2020-08-06T09:27:58.140Z</time>
      </trkpt>
      <trkpt lat="63.32477" lon="10.07416">
        <ele>55.877384</ele>
        <time>2020-08-06T09:28:03.111Z</time>
      </trkpt>
      <trkpt lat="63.32473" lon="10.07439">
        <ele>56.271496</ele>
        <time>2020-08-06T09:28:08.117Z</time>
      </trkpt>
      <trkpt lat="63.32469" lon="10.0746">
        <ele>56.634752</ele>
        <time>2020-08-06T09:28:12.145Z</time>
      </trkpt>
      <trkpt lat="63.32465" lon="10.07482">
        <ele>57.002959</ele>
        <time>2020-08-06T09:28:16.121Z</time>
      </trkpt>
      <trkpt lat="63.3246" lon="10.07505">
        <ele>57.406139</ele>
        <time>2020-08-06T09:28:20.117Z</time>
      </trkpt>
      <trkpt lat="63.32458" lon="10.07528">
        <ele>57.775492</ele>
        <time>2020-08-06T09:28:24.120Z</time>
      </trkpt>
      <trkpt lat="63.32455" lon="10.07553">
        <ele>58.178327</ele>
        <time>2020-08-06T09:28:28.135Z</time>
      </trkpt>
      <trkpt lat="63.32451" lon="10.07576">
        <ele>58.57542</ele>
        <time>2020-08-06T09:28:32.135Z</time>
      </trkpt>
      <trkpt lat="63.32448" lon="10.07601">
        <ele>58.974769</ele>
        <time>2020-08-06T09:28:36.150Z</time>
      </trkpt>
      <trkpt lat="63.32444" lon="10.07625">
        <ele>59.384201</ele>
        <time>2020-08-06T09:28:40.109Z</time>
      </trkpt>
      <trkpt lat="63.32441" lon="10.07645">
        <ele>59.70593</ele>
        <time>2020-08-06T09:28:43.174Z</time>
      </trkpt>
      <trkpt lat="63.32439" lon="10.07666">
        <ele>60.049015</ele>
        <time>2020-08-06T09:28:46.114Z</time>
      </trkpt>
      <trkpt lat="63.32437" lon="10.07691">
        <ele>59.990841</ele>
        <time>2020-08-06T09:28:49.135Z</time>
      </trkpt>
      <trkpt lat="63.32436" lon="10.07718">
        <ele>59.886531</ele>
        <time>2020-08-06T09:28:52.172Z</time>
      </trkpt>
      <trkpt lat="63.32435" lon="10.07745">
        <ele>59.78145</ele>
        <time>2020-08-06T09:28:55.128Z</time>
      </trkpt>
      <trkpt lat="63.32434" lon="10.07771">
        <ele>59.681348</ele>
        <time>2020-08-06T09:28:58.119Z</time>
      </trkpt>
      <trkpt lat="63.32433" lon="10.07795">
        <ele>59.585785</ele>
        <time>2020-08-06T09:29:01.121Z</time>
      </trkpt>
      <trkpt lat="63.32431" lon="10.07819">
        <ele>59.49285</ele>
        <time>2020-08-06T09:29:04.112Z</time>
      </trkpt>
      <trkpt lat="63.32428" lon="10.07842">
        <ele>59.403738</ele>
        <time>2020-08-06T09:29:07.131Z</time>
      </trkpt>
      <trkpt lat="63.32424" lon="10.07862">
        <ele>59.316398</ele>
        <time>2020-08-06T09:29:10.108Z</time>
      </trkpt>
      <trkpt lat="63.32417" lon="10.07876">
        <ele>59.238351</ele>
        <time>2020-08-06T09:29:13.105Z</time>
      </trkpt>
      <trkpt lat="63.32409" lon="10.07889">
        <ele>59.152118</ele>
        <time>2020-08-06T09:29:17.113Z</time>
      </trkpt>
      <trkpt lat="63.32402" lon="10.07907">
        <ele>59.06252</ele>
        <time>2020-08-06T09:29:22.119Z</time>
      </trkpt>
      <trkpt lat="63.32404" lon="10.07933">
        <ele>58.962384</ele>
        <time>2020-08-06T09:29:26.116Z</time>
      </trkpt>
      <trkpt lat="63.32408" lon="10.07955">
        <ele>58.873012</ele>
        <time>2020-08-06T09:29:29.135Z</time>
      </trkpt>
      <trkpt lat="63.32411" lon="10.07979">
        <ele>58.774533</ele>
        <time>2020-08-06T09:29:32.107Z</time>
      </trkpt>
      <trkpt lat="63.32416" lon="10.08005">
        <ele>58.666496</ele>
        <time>2020-08-06T09:29:35.115Z</time>
      </trkpt>
      <trkpt lat="63.3242" lon="10.08023">
        <ele>58.58896</ele>
        <time>2020-08-06T09:29:37.133Z</time>
      </trkpt>
      <trkpt lat="63.32424" lon="10.08041">
        <ele>58.579645</ele>
        <time>2020-08-06T09:29:39.132Z</time>
      </trkpt>
      <trkpt lat="63.32429" lon="10.08058">
        <ele>58.689778</ele>
        <time>2020-08-06T09:29:41.145Z</time>
      </trkpt>
      <trkpt lat="63.32436" lon="10.08083">
        <ele>58.850317</ele>
        <time>2020-08-06T09:29:44.113Z</time>
      </trkpt>
      <trkpt lat="63.32444" lon="10.08107">
        <ele>59.007948</ele>
        <time>2020-08-06T09:29:47.142Z</time>
      </trkpt>
      <trkpt lat="63.32451" lon="10.08128">
        <ele>59.147999</ele>
        <time>2020-08-06T09:29:50.136Z</time>
      </trkpt>
      <trkpt lat="63.32458" lon="10.08146">
        <ele>59.276566</ele>
        <time>2020-08-06T09:29:53.128Z</time>
      </trkpt>
      <trkpt lat="63.32465" lon="10.08165">
        <ele>59.413249</ele>
        <time>2020-08-06T09:29:56.127Z</time>
      </trkpt>
      <trkpt lat="63.32472" lon="10.08181">
        <ele>59.532159</ele>
        <time>2020-08-06T09:29:59.149Z</time>
      </trkpt>
      <trkpt lat="63.32479" lon="10.08196">
        <ele>59.64721</ele>
        <time>2020-08-06T09:30:02.114Z</time>
      </trkpt>
      <trkpt lat="63.32487" lon="10.08214">
        <ele>59.789078</ele>
        <time>2020-08-06T09:30:06.158Z</time>
      </trkpt>
      <trkpt lat="63.32495" lon="10.08233">
        <ele>59.927709</ele>
        <time>2020-08-06T09:30:10.132Z</time>
      </trkpt>
      <trkpt lat="63.32503" lon="10.0825">
        <ele>60.057457</ele>
        <time>2020-08-06T09:30:14.153Z</time>
      </trkpt>
      <trkpt lat="63.32509" lon="10.08269">
        <ele>60.187113</ele>
        <time>2020-08-06T09:30:18.132Z</time>
      </trkpt>
      <trkpt lat="63.32515" lon="10.08289">
        <ele>60.312955</ele>
        <time>2020-08-06T09:30:22.151Z</time>
      </trkpt>
      <trkpt lat="63.32519" lon="10.0831">
        <ele>60.437065</ele>
        <time>2020-08-06T09:30:26.130Z</time>
      </trkpt>
      <trkpt lat="63.32523" lon="10.08333">
        <ele>60.570002</ele>
        <time>2020-08-06T09:30:30.124Z</time>
      </trkpt>
      <trkpt lat="63.32526" lon="10.08357">
        <ele>60.707436</ele>
        <time>2020-08-06T09:30:34.145Z</time>
      </trkpt>
      <trkpt lat="63.32528" lon="10.0838">
        <ele>60.956537</ele>
        <time>2020-08-06T09:30:38.141Z</time>
      </trkpt>
      <trkpt lat="63.32529" lon="10.08405">
        <ele>61.221343</ele>
        <time>2020-08-06T09:30:42.132Z</time>
      </trkpt>
      <trkpt lat="63.3253" lon="10.08431">
        <ele>61.498743</ele>
        <time>2020-08-06T09:30:46.131Z</time>
      </trkpt>
      <trkpt lat="63.3253" lon="10.08453">
        <ele>61.731262</ele>
        <time>2020-08-06T09:30:49.135Z</time>
      </trkpt>
      <trkpt lat="63.32529" lon="10.08479">
        <ele>62.000088</ele>
        <time>2020-08-06T09:30:52.121Z</time>
      </trkpt>
      <trkpt lat="63.3253" lon="10.08506">
        <ele>62.287606</ele>
        <time>2020-08-06T09:30:55.113Z</time>
      </trkpt>
      <trkpt lat="63.32529" lon="10.08527">
        <ele>62.51398</ele>
        <time>2020-08-06T09:30:57.123Z</time>
      </trkpt>
      <trkpt lat="63.32529" lon="10.08549">
        <ele>62.74232</ele>
        <time>2020-08-06T09:30:59.158Z</time>
      </trkpt>
      <trkpt lat="63.32531" lon="10.08577">
        <ele>63.045247</ele>
        <time>2020-08-06T09:31:02.133Z</time>
      </trkpt>
      <trkpt lat="63.32534" lon="10.08597">
        <ele>63.262269</ele>
        <time>2020-08-06T09:31:04.135Z</time>
      </trkpt>
      <trkpt lat="63.32536" lon="10.08616">
        <ele>63.474573</ele>
        <time>2020-08-06T09:31:06.116Z</time>
      </trkpt>
      <trkpt lat="63.3254" lon="10.08643">
        <ele>63.771345</ele>
        <time>2020-08-06T09:31:09.158Z</time>
      </trkpt>
      <trkpt lat="63.32541" lon="10.08665">
        <ele>64.008982</ele>
        <time>2020-08-06T09:31:11.118Z</time>
      </trkpt>
      <trkpt lat="63.32543" lon="10.08688">
        <ele>64.245575</ele>
        <time>2020-08-06T09:31:13.124Z</time>
      </trkpt>
      <trkpt lat="63.32545" lon="10.0871">
        <ele>64.490665</ele>
        <time>2020-08-06T09:31:15.140Z</time>
      </trkpt>
      <trkpt lat="63.32546" lon="10.08735">
        <ele>64.749622</ele>
        <time>2020-08-06T09:31:17.119Z</time>
      </trkpt>
      <trkpt lat="63.32546" lon="10.08761">
        <ele>64.712906</ele>
        <time>2020-08-06T09:31:19.110Z</time>
      </trkpt>
      <trkpt lat="63.32545" lon="10.08791">
        <ele>63.991114</ele>
        <time>2020-08-06T09:31:21.169Z</time>
      </trkpt>
      <trkpt lat="63.32544" lon="10.08824">
        <ele>63.155403</ele>
        <time>2020-08-06T09:31:23.090Z</time>
      </trkpt>
      <trkpt lat="63.32544" lon="10.08861">
        <ele>62.246681</ele>
        <time>2020-08-06T09:31:25.151Z</time>
      </trkpt>
      <trkpt lat="63.32545" lon="10.08899">
        <ele>61.315034</ele>
        <time>2020-08-06T09:31:27.139Z</time>
      </trkpt>
      <trkpt lat="63.32548" lon="10.08937">
        <ele>60.366675</ele>
        <time>2020-08-06T09:31:29.153Z</time>
      </trkpt>
      <trkpt lat="63.32553" lon="10.08975">
        <ele>59.377927</ele>
        <time>2020-08-06T09:31:31.149Z</time>
      </trkpt>
      <trkpt lat="63.32558" lon="10.08993">
        <ele>58.870415</ele>
        <time>2020-08-06T09:31:32.141Z</time>
      </trkpt>
      <trkpt lat="63.32562" lon="10.09011">
        <ele>58.362152</ele>
        <time>2020-08-06T09:31:33.108Z</time>
      </trkpt>
      <trkpt lat="63.32567" lon="10.09029">
        <ele>57.848559</ele>
        <time>2020-08-06T09:31:34.132Z</time>
      </trkpt>
      <trkpt lat="63.32572" lon="10.09047">
        <ele>57.33129</ele>
        <time>2020-08-06T09:31:35.114Z</time>
      </trkpt>
      <trkpt lat="63.32577" lon="10.09064">
        <ele>56.818163</ele>
        <time>2020-08-06T09:31:36.120Z</time>
      </trkpt>
      <trkpt lat="63.32582" lon="10.09081">
        <ele>56.309166</ele>
        <time>2020-08-06T09:31:37.126Z</time>
      </trkpt>
      <trkpt lat="63.32587" lon="10.09099">
        <ele>55.814794</ele>
        <time>2020-08-06T09:31:38.113Z</time>
      </trkpt>
      <trkpt lat="63.32594" lon="10.09135">
        <ele>54.966399</ele>
        <time>2020-08-06T09:31:40.136Z</time>
      </trkpt>
      <trkpt lat="63.32597" lon="10.09153">
        <ele>54.784639</ele>
        <time>2020-08-06T09:31:41.162Z</time>
      </trkpt>
      <trkpt lat="63.326" lon="10.0919">
        <ele>54.442999</ele>
        <time>2020-08-06T09:31:43.144Z</time>
      </trkpt>
      <trkpt lat="63.32601" lon="10.09225">
        <ele>54.126952</ele>
        <time>2020-08-06T09:31:45.124Z</time>
      </trkpt>
      <trkpt lat="63.32603" lon="10.09257">
        <ele>53.832747</ele>
        <time>2020-08-06T09:31:47.124Z</time>
      </trkpt>
      <trkpt lat="63.32605" lon="10.09287">
        <ele>53.55805</ele>
        <time>2020-08-06T09:31:49.152Z</time>
      </trkpt>
      <trkpt lat="63.32607" lon="10.09314">
        <ele>53.310258</ele>
        <time>2020-08-06T09:31:51.124Z</time>
      </trkpt>
      <trkpt lat="63.32609" lon="10.09339">
        <ele>53.080237</ele>
        <time>2020-08-06T09:31:53.122Z</time>
      </trkpt>
      <trkpt lat="63.32612" lon="10.09364">
        <ele>52.852874</ele>
        <time>2020-08-06T09:31:55.116Z</time>
      </trkpt>
      <trkpt lat="63.32614" lon="10.09388">
        <ele>52.629053</ele>
        <time>2020-08-06T09:31:57.124Z</time>
      </trkpt>
      <trkpt lat="63.32617" lon="10.09411">
        <ele>52.408608</ele>
        <time>2020-08-06T09:31:59.125Z</time>
      </trkpt>
      <trkpt lat="63.3262" lon="10.09433">
        <ele>52.201735</ele>
        <time>2020-08-06T09:32:01.114Z</time>
      </trkpt>
      <trkpt lat="63.32624" lon="10.09452">
        <ele>52.009826</ele>
        <time>2020-08-06T09:32:03.136Z</time>
      </trkpt>
      <trkpt lat="63.32629" lon="10.09477">
        <ele>51.760792</ele>
        <time>2020-08-06T09:32:06.139Z</time>
      </trkpt>
      <trkpt lat="63.32635" lon="10.09501">
        <ele>51.517015</ele>
        <time>2020-08-06T09:32:09.134Z</time>
      </trkpt>
      <trkpt lat="63.32641" lon="10.09521">
        <ele>51.347729</ele>
        <time>2020-08-06T09:32:12.117Z</time>
      </trkpt>
      <trkpt lat="63.32649" lon="10.09539">
        <ele>51.22166</ele>
        <time>2020-08-06T09:32:15.156Z</time>
      </trkpt>
      <trkpt lat="63.32656" lon="10.09558">
        <ele>51.102073</ele>
        <time>2020-08-06T09:32:18.154Z</time>
      </trkpt>
      <trkpt lat="63.32664" lon="10.0958">
        <ele>50.964789</ele>
        <time>2020-08-06T09:32:21.139Z</time>
      </trkpt>
      <trkpt lat="63.32669" lon="10.09603">
        <ele>50.838018</ele>
        <time>2020-08-06T09:32:24.142Z</time>
      </trkpt>
      <trkpt lat="63.32676" lon="10.09626">
        <ele>50.701945</ele>
        <time>2020-08-06T09:32:28.155Z</time>
      </trkpt>
      <trkpt lat="63.32682" lon="10.09642">
        <ele>50.599293</ele>
        <time>2020-08-06T09:32:30.115Z</time>
      </trkpt>
      <trkpt lat="63.32694" lon="10.09663">
        <ele>50.432495</ele>
        <time>2020-08-06T09:32:32.133Z</time>
      </trkpt>
      <trkpt lat="63.32704" lon="10.09685">
        <ele>50.280477</ele>
        <time>2020-08-06T09:32:34.127Z</time>
      </trkpt>
      <trkpt lat="63.32713" lon="10.09692">
        <ele>50.170435</ele>
        <time>2020-08-06T09:32:36.109Z</time>
      </trkpt>
      <trkpt lat="63.32724" lon="10.09708">
        <ele>50.025665</ele>
        <time>2020-08-06T09:32:39.123Z</time>
      </trkpt>
      <trkpt lat="63.32733" lon="10.09722">
        <ele>49.904428</ele>
        <time>2020-08-06T09:32:42.219Z</time>
      </trkpt>
      <trkpt lat="63.32741" lon="10.09735">
        <ele>49.798559</ele>
        <time>2020-08-06T09:32:45.121Z</time>
      </trkpt>
      <trkpt lat="63.32747" lon="10.09752">
        <ele>49.692917</ele>
        <time>2020-08-06T09:32:50.121Z</time>
      </trkpt>
      <trkpt lat="63.32756" lon="10.0978">
        <ele>49.524528</ele>
        <time>2020-08-06T09:34:18.131Z</time>
      </trkpt>
      <trkpt lat="63.32763" lon="10.09799">
        <ele>49.462213</ele>
        <time>2020-08-06T09:34:22.159Z</time>
      </trkpt>
      <trkpt lat="63.3277" lon="10.0982">
        <ele>49.560127</ele>
        <time>2020-08-06T09:34:26.136Z</time>
      </trkpt>
      <trkpt lat="63.32777" lon="10.09834">
        <ele>49.638345</ele>
        <time>2020-08-06T09:34:29.151Z</time>
      </trkpt>
      <trkpt lat="63.32786" lon="10.09848">
        <ele>49.720545</ele>
        <time>2020-08-06T09:34:32.100Z</time>
      </trkpt>
      <trkpt lat="63.32793" lon="10.09861">
        <ele>49.79823</ele>
        <time>2020-08-06T09:34:35.118Z</time>
      </trkpt>
      <trkpt lat="63.32801" lon="10.09876">
        <ele>49.882525</ele>
        <time>2020-08-06T09:34:38.137Z</time>
      </trkpt>
      <trkpt lat="63.32809" lon="10.09889">
        <ele>49.963637</ele>
        <time>2020-08-06T09:34:41.180Z</time>
      </trkpt>
      <trkpt lat="63.32817" lon="10.09903">
        <ele>50.047587</ele>
        <time>2020-08-06T09:34:44.135Z</time>
      </trkpt>
      <trkpt lat="63.32825" lon="10.09915">
        <ele>50.128487</ele>
        <time>2020-08-06T09:34:47.134Z</time>
      </trkpt>
      <trkpt lat="63.32833" lon="10.0993">
        <ele>50.212732</ele>
        <time>2020-08-06T09:34:50.132Z</time>
      </trkpt>
      <trkpt lat="63.32841" lon="10.09943">
        <ele>50.294057</ele>
        <time>2020-08-06T09:34:53.140Z</time>
      </trkpt>
      <trkpt lat="63.3285" lon="10.09956">
        <ele>50.375876</ele>
        <time>2020-08-06T09:34:56.137Z</time>
      </trkpt>
      <trkpt lat="63.32858" lon="10.09968">
        <ele>50.458736</ele>
        <time>2020-08-06T09:34:59.115Z</time>
      </trkpt>
      <trkpt lat="63.32867" lon="10.09983">
        <ele>50.544937</ele>
        <time>2020-08-06T09:35:02.156Z</time>
      </trkpt>
      <trkpt lat="63.32874" lon="10.10001">
        <ele>50.635279</ele>
        <time>2020-08-06T09:35:05.125Z</time>
      </trkpt>
      <trkpt lat="63.32881" lon="10.10022">
        <ele>50.733952</ele>
        <time>2020-08-06T09:35:08.158Z</time>
      </trkpt>
      <trkpt lat="63.32887" lon="10.10048">
        <ele>50.837713</ele>
        <time>2020-08-06T09:35:11.136Z</time>
      </trkpt>
      <trkpt lat="63.3289" lon="10.10067">
        <ele>50.933171</ele>
        <time>2020-08-06T09:35:13.133Z</time>
      </trkpt>
      <trkpt lat="63.32891" lon="10.10087">
        <ele>51.170288</ele>
        <time>2020-08-06T09:35:15.120Z</time>
      </trkpt>
      <trkpt lat="63.32892" lon="10.10107">
        <ele>51.405693</ele>
        <time>2020-08-06T09:35:17.113Z</time>
      </trkpt>
      <trkpt lat="63.32891" lon="10.10127">
        <ele>51.643417</ele>
        <time>2020-08-06T09:35:19.152Z</time>
      </trkpt>
      <trkpt lat="63.32888" lon="10.10157">
        <ele>51.992505</ele>
        <time>2020-08-06T09:35:22.131Z</time>
      </trkpt>
      <trkpt lat="63.32882" lon="10.10184">
        <ele>52.341928</ele>
        <time>2020-08-06T09:35:25.118Z</time>
      </trkpt>
      <trkpt lat="63.32877" lon="10.102">
        <ele>52.580915</ele>
        <time>2020-08-06T09:35:27.143Z</time>
      </trkpt>
      <trkpt lat="63.32871" lon="10.10216">
        <ele>52.82409</ele>
        <time>2020-08-06T09:35:29.143Z</time>
      </trkpt>
      <trkpt lat="63.32864" lon="10.10231">
        <ele>53.073177</ele>
        <time>2020-08-06T09:35:31.112Z</time>
      </trkpt>
      <trkpt lat="63.32856" lon="10.10245">
        <ele>53.324958</ele>
        <time>2020-08-06T09:35:33.150Z</time>
      </trkpt>
      <trkpt lat="63.32849" lon="10.10259">
        <ele>53.5778</ele>
        <time>2020-08-06T09:35:35.149Z</time>
      </trkpt>
      <trkpt lat="63.32842" lon="10.10272">
        <ele>53.816217</ele>
        <time>2020-08-06T09:35:37.116Z</time>
      </trkpt>
      <trkpt lat="63.32835" lon="10.10286">
        <ele>54.057486</ele>
        <time>2020-08-06T09:35:39.160Z</time>
      </trkpt>
      <trkpt lat="63.32828" lon="10.10299">
        <ele>54.307273</ele>
        <time>2020-08-06T09:35:41.149Z</time>
      </trkpt>
      <trkpt lat="63.32821" lon="10.10314">
        <ele>54.562087</ele>
        <time>2020-08-06T09:35:43.131Z</time>
      </trkpt>
      <trkpt lat="63.32813" lon="10.10327">
        <ele>54.813869</ele>
        <time>2020-08-06T09:35:45.125Z</time>
      </trkpt>
      <trkpt lat="63.32806" lon="10.10341">
        <ele>55.055442</ele>
        <time>2020-08-06T09:35:47.150Z</time>
      </trkpt>
      <trkpt lat="63.328" lon="10.10356">
        <ele>55.295646</ele>
        <time>2020-08-06T09:35:49.116Z</time>
      </trkpt>
      <trkpt lat="63.32793" lon="10.10369">
        <ele>55.541173</ele>
        <time>2020-08-06T09:35:51.128Z</time>
      </trkpt>
      <trkpt lat="63.32786" lon="10.10384">
        <ele>55.839635</ele>
        <time>2020-08-06T09:35:53.128Z</time>
      </trkpt>
      <trkpt lat="63.32778" lon="10.10408">
        <ele>56.283104</ele>
        <time>2020-08-06T09:35:56.126Z</time>
      </trkpt>
      <trkpt lat="63.32772" lon="10.10433">
        <ele>56.712353</ele>
        <time>2020-08-06T09:35:59.165Z</time>
      </trkpt>
      <trkpt lat="63.32769" lon="10.10459">
        <ele>57.110111</ele>
        <time>2020-08-06T09:36:02.123Z</time>
      </trkpt>
      <trkpt lat="63.3277" lon="10.10485">
        <ele>57.512131</ele>
        <time>2020-08-06T09:36:05.117Z</time>
      </trkpt>
      <trkpt lat="63.32775" lon="10.10508">
        <ele>57.875101</ele>
        <time>2020-08-06T09:36:08.128Z</time>
      </trkpt>
      <trkpt lat="63.3278" lon="10.10526">
        <ele>58.205843</ele>
        <time>2020-08-06T09:36:11.151Z</time>
      </trkpt>
      <trkpt lat="63.32787" lon="10.10547">
        <ele>58.591875</ele>
        <time>2020-08-06T09:36:15.132Z</time>
      </trkpt>
      <trkpt lat="63.32794" lon="10.10565">
        <ele>58.947994</ele>
        <time>2020-08-06T09:36:19.115Z</time>
      </trkpt>
      <trkpt lat="63.328" lon="10.1058">
        <ele>59.246284</ele>
        <time>2020-08-06T09:36:22.144Z</time>
      </trkpt>
      <trkpt lat="63.32806" lon="10.10596">
        <ele>59.566942</ele>
        <time>2020-08-06T09:36:25.157Z</time>
      </trkpt>
      <trkpt lat="63.32811" lon="10.10619">
        <ele>59.954614</ele>
        <time>2020-08-06T09:36:28.135Z</time>
      </trkpt>
      <trkpt lat="63.32814" lon="10.10639">
        <ele>60.259337</ele>
        <time>2020-08-06T09:36:30.138Z</time>
      </trkpt>
      <trkpt lat="63.32814" lon="10.1066">
        <ele>60.570686</ele>
        <time>2020-08-06T09:36:32.116Z</time>
      </trkpt>
      <trkpt lat="63.32812" lon="10.10682">
        <ele>60.917988</ele>
        <time>2020-08-06T09:36:34.138Z</time>
      </trkpt>
      <trkpt lat="63.32807" lon="10.10705">
        <ele>61.299552</ele>
        <time>2020-08-06T09:36:36.123Z</time>
      </trkpt>
      <trkpt lat="63.32799" lon="10.10725">
        <ele>61.4414</ele>
        <time>2020-08-06T09:36:38.136Z</time>
      </trkpt>
      <trkpt lat="63.32789" lon="10.10744">
        <ele>60.828581</ele>
        <time>2020-08-06T09:36:40.123Z</time>
      </trkpt>
      <trkpt lat="63.32779" lon="10.10762">
        <ele>60.251496</ele>
        <time>2020-08-06T09:36:42.136Z</time>
      </trkpt>
      <trkpt lat="63.32769" lon="10.10781">
        <ele>59.655878</ele>
        <time>2020-08-06T09:36:44.124Z</time>
      </trkpt>
      <trkpt lat="63.3276" lon="10.108">
        <ele>59.061081</ele>
        <time>2020-08-06T09:36:46.163Z</time>
      </trkpt>
      <trkpt lat="63.3275" lon="10.10819">
        <ele>58.473704</ele>
        <time>2020-08-06T09:36:48.136Z</time>
      </trkpt>
      <trkpt lat="63.32741" lon="10.10839">
        <ele>57.88491</ele>
        <time>2020-08-06T09:36:50.111Z</time>
      </trkpt>
      <trkpt lat="63.32732" lon="10.10859">
        <ele>57.300984</ele>
        <time>2020-08-06T09:36:52.151Z</time>
      </trkpt>
      <trkpt lat="63.32724" lon="10.1088">
        <ele>56.731021</ele>
        <time>2020-08-06T09:36:54.131Z</time>
      </trkpt>
      <trkpt lat="63.32716" lon="10.10901">
        <ele>56.171222</ele>
        <time>2020-08-06T09:36:56.129Z</time>
      </trkpt>
      <trkpt lat="63.32709" lon="10.10923">
        <ele>55.599249</ele>
        <time>2020-08-06T09:36:58.144Z</time>
      </trkpt>
      <trkpt lat="63.32703" lon="10.10946">
        <ele>55.053614</ele>
        <time>2020-08-06T09:37:00.134Z</time>
      </trkpt>
      <trkpt lat="63.32698" lon="10.1097">
        <ele>54.501569</ele>
        <time>2020-08-06T09:37:02.141Z</time>
      </trkpt>
      <trkpt lat="63.32694" lon="10.10995">
        <ele>53.952068</ele>
        <time>2020-08-06T09:37:04.129Z</time>
      </trkpt>
      <trkpt lat="63.3269" lon="10.11019">
        <ele>53.414184</ele>
        <time>2020-08-06T09:37:06.123Z</time>
      </trkpt>
      <trkpt lat="63.32685" lon="10.11043">
        <ele>52.987738</ele>
        <time>2020-08-06T09:37:08.111Z</time>
      </trkpt>
      <trkpt lat="63.32679" lon="10.11066">
        <ele>52.584649</ele>
        <time>2020-08-06T09:37:10.134Z</time>
      </trkpt>
      <trkpt lat="63.32673" lon="10.11088">
        <ele>52.180193</ele>
        <time>2020-08-06T09:37:12.131Z</time>
      </trkpt>
      <trkpt lat="63.32666" lon="10.11108">
        <ele>51.773304</ele>
        <time>2020-08-06T09:37:14.130Z</time>
      </trkpt>
      <trkpt lat="63.32657" lon="10.11127">
        <ele>51.35224</ele>
        <time>2020-08-06T09:37:16.119Z</time>
      </trkpt>
      <trkpt lat="63.32648" lon="10.11147">
        <ele>50.920257</ele>
        <time>2020-08-06T09:37:18.142Z</time>
      </trkpt>
      <trkpt lat="63.3264" lon="10.11166">
        <ele>50.505145</ele>
        <time>2020-08-06T09:37:20.117Z</time>
      </trkpt>
      <trkpt lat="63.32632" lon="10.11187">
        <ele>50.069217</ele>
        <time>2020-08-06T09:37:22.135Z</time>
      </trkpt>
      <trkpt lat="63.32625" lon="10.1121">
        <ele>49.647423</ele>
        <time>2020-08-06T09:37:24.122Z</time>
      </trkpt>
      <trkpt lat="63.3262" lon="10.11231">
        <ele>49.265716</ele>
        <time>2020-08-06T09:37:26.131Z</time>
      </trkpt>
      <trkpt lat="63.32615" lon="10.11253">
        <ele>48.894548</ele>
        <time>2020-08-06T09:37:28.131Z</time>
      </trkpt>
      <trkpt lat="63.32609" lon="10.11275">
        <ele>48.496259</ele>
        <time>2020-08-06T09:37:30.126Z</time>
      </trkpt>
      <trkpt lat="63.32603" lon="10.11297">
        <ele>48.090029</ele>
        <time>2020-08-06T09:37:32.123Z</time>
      </trkpt>
      <trkpt lat="63.32596" lon="10.11317">
        <ele>47.69171</ele>
        <time>2020-08-06T09:37:34.135Z</time>
      </trkpt>
      <trkpt lat="63.32587" lon="10.11332">
        <ele>47.299906</ele>
        <time>2020-08-06T09:37:36.123Z</time>
      </trkpt>
      <trkpt lat="63.32577" lon="10.11344">
        <ele>47.163281</ele>
        <time>2020-08-06T09:37:38.131Z</time>
      </trkpt>
      <trkpt lat="63.32566" lon="10.11356">
        <ele>47.362718</ele>
        <time>2020-08-06T09:37:40.115Z</time>
      </trkpt>
      <trkpt lat="63.32555" lon="10.11367">
        <ele>47.555929</ele>
        <time>2020-08-06T09:37:42.134Z</time>
      </trkpt>
      <trkpt lat="63.32545" lon="10.11378">
        <ele>47.743672</ele>
        <time>2020-08-06T09:37:44.114Z</time>
      </trkpt>
      <trkpt lat="63.32535" lon="10.11389">
        <ele>47.926457</ele>
        <time>2020-08-06T09:37:46.154Z</time>
      </trkpt>
      <trkpt lat="63.32526" lon="10.114">
        <ele>48.109745</ele>
        <time>2020-08-06T09:37:48.134Z</time>
      </trkpt>
      <trkpt lat="63.32516" lon="10.11412">
        <ele>48.29366</ele>
        <time>2020-08-06T09:37:50.114Z</time>
      </trkpt>
      <trkpt lat="63.32507" lon="10.11425">
        <ele>48.479773</ele>
        <time>2020-08-06T09:37:52.134Z</time>
      </trkpt>
      <trkpt lat="63.32498" lon="10.11439">
        <ele>48.662015</ele>
        <time>2020-08-06T09:37:54.149Z</time>
      </trkpt>
      <trkpt lat="63.32489" lon="10.11454">
        <ele>48.844607</ele>
        <time>2020-08-06T09:37:56.143Z</time>
      </trkpt>
      <trkpt lat="63.32481" lon="10.1147">
        <ele>49.023517</ele>
        <time>2020-08-06T09:37:58.122Z</time>
      </trkpt>
      <trkpt lat="63.32474" lon="10.11489">
        <ele>49.205407</ele>
        <time>2020-08-06T09:38:00.123Z</time>
      </trkpt>
      <trkpt lat="63.32467" lon="10.11509">
        <ele>49.394234</ele>
        <time>2020-08-06T09:38:02.142Z</time>
      </trkpt>
      <trkpt lat="63.32464" lon="10.1153">
        <ele>49.557079</ele>
        <time>2020-08-06T09:38:04.115Z</time>
      </trkpt>
      <trkpt lat="63.32462" lon="10.1155">
        <ele>49.713258</ele>
        <time>2020-08-06T09:38:06.118Z</time>
      </trkpt>
      <trkpt lat="63.32461" lon="10.11574">
        <ele>49.890354</ele>
        <time>2020-08-06T09:38:08.140Z</time>
      </trkpt>
      <trkpt lat="63.3246" lon="10.11598">
        <ele>50.082757</ele>
        <time>2020-08-06T09:38:10.139Z</time>
      </trkpt>
      <trkpt lat="63.32459" lon="10.11622">
        <ele>50.527796</ele>
        <time>2020-08-06T09:38:12.133Z</time>
      </trkpt>
      <trkpt lat="63.32458" lon="10.11645">
        <ele>50.966243</ele>
        <time>2020-08-06T09:38:14.163Z</time>
      </trkpt>
      <trkpt lat="63.32458" lon="10.11668">
        <ele>51.397957</ele>
        <time>2020-08-06T09:38:16.135Z</time>
      </trkpt>
      <trkpt lat="63.32458" lon="10.1169">
        <ele>51.814356</ele>
        <time>2020-08-06T09:38:18.122Z</time>
      </trkpt>
      <trkpt lat="63.32456" lon="10.11711">
        <ele>52.201263</ele>
        <time>2020-08-06T09:38:20.124Z</time>
      </trkpt>
      <trkpt lat="63.32455" lon="10.11732">
        <ele>52.598077</ele>
        <time>2020-08-06T09:38:22.117Z</time>
      </trkpt>
      <trkpt lat="63.32453" lon="10.11751">
        <ele>52.973413</ele>
        <time>2020-08-06T09:38:24.120Z</time>
      </trkpt>
      <trkpt lat="63.3245" lon="10.1178">
        <ele>53.526778</ele>
        <time>2020-08-06T09:38:27.140Z</time>
      </trkpt>
      <trkpt lat="63.32446" lon="10.11807">
        <ele>54.049622</ele>
        <time>2020-08-06T09:38:30.157Z</time>
      </trkpt>
      <trkpt lat="63.32442" lon="10.11833">
        <ele>54.572049</ele>
        <time>2020-08-06T09:38:33.134Z</time>
      </trkpt>
      <trkpt lat="63.32437" lon="10.11861">
        <ele>55.137768</ele>
        <time>2020-08-06T09:38:36.133Z</time>
      </trkpt>
      <trkpt lat="63.32434" lon="10.11882">
        <ele>55.545105</ele>
        <time>2020-08-06T09:38:38.131Z</time>
      </trkpt>
      <trkpt lat="63.3243" lon="10.11902">
        <ele>55.965861</ele>
        <time>2020-08-06T09:38:40.117Z</time>
      </trkpt>
      <trkpt lat="63.32425" lon="10.11923">
        <ele>56.41816</ele>
        <time>2020-08-06T09:38:42.123Z</time>
      </trkpt>
      <trkpt lat="63.32418" lon="10.11944">
        <ele>56.895533</ele>
        <time>2020-08-06T09:38:44.117Z</time>
      </trkpt>
      <trkpt lat="63.32408" lon="10.11961">
        <ele>57.422429</ele>
        <time>2020-08-06T09:38:46.180Z</time>
      </trkpt>
      <trkpt lat="63.32397" lon="10.11978">
        <ele>57.569641</ele>
        <time>2020-08-06T09:38:48.123Z</time>
      </trkpt>
      <trkpt lat="63.32386" lon="10.11995">
        <ele>57.555044</ele>
        <time>2020-08-06T09:38:50.132Z</time>
      </trkpt>
      <trkpt lat="63.32376" lon="10.12015">
        <ele>57.540667</ele>
        <time>2020-08-06T09:38:52.128Z</time>
      </trkpt>
      <trkpt lat="63.32369" lon="10.12038">
        <ele>57.527231</ele>
        <time>2020-08-06T09:38:54.171Z</time>
      </trkpt>
      <trkpt lat="63.32363" lon="10.1206">
        <ele>57.515251</ele>
        <time>2020-08-06T09:38:56.134Z</time>
      </trkpt>
      <trkpt lat="63.3236" lon="10.12082">
        <ele>57.504335</ele>
        <time>2020-08-06T09:38:58.142Z</time>
      </trkpt>
      <trkpt lat="63.32359" lon="10.12103">
        <ele>57.494027</ele>
        <time>2020-08-06T09:39:00.134Z</time>
      </trkpt>
      <trkpt lat="63.32357" lon="10.12131">
        <ele>57.480518</ele>
        <time>2020-08-06T09:39:03.156Z</time>
      </trkpt>
      <trkpt lat="63.32354" lon="10.1216">
        <ele>57.466419</ele>
        <time>2020-08-06T09:39:06.133Z</time>
      </trkpt>
      <trkpt lat="63.3235" lon="10.12179">
        <ele>57.456341</ele>
        <time>2020-08-06T09:39:08.156Z</time>
      </trkpt>
      <trkpt lat="63.32345" lon="10.12199">
        <ele>57.445438</ele>
        <time>2020-08-06T09:39:10.132Z</time>
      </trkpt>
      <trkpt lat="63.3234" lon="10.1222">
        <ele>57.434107</ele>
        <time>2020-08-06T09:39:12.116Z</time>
      </trkpt>
      <trkpt lat="63.32335" lon="10.1224">
        <ele>57.423151</ele>
        <time>2020-08-06T09:39:14.144Z</time>
      </trkpt>
      <trkpt lat="63.3233" lon="10.1226">
        <ele>57.41187</ele>
        <time>2020-08-06T09:39:16.115Z</time>
      </trkpt>
      <trkpt lat="63.32324" lon="10.12281">
        <ele>57.400362</ele>
        <time>2020-08-06T09:39:18.149Z</time>
      </trkpt>
      <trkpt lat="63.32318" lon="10.12301">
        <ele>57.388507</ele>
        <time>2020-08-06T09:39:20.117Z</time>
      </trkpt>
      <trkpt lat="63.32308" lon="10.12318">
        <ele>57.342716</ele>
        <time>2020-08-06T09:39:22.165Z</time>
      </trkpt>
      <trkpt lat="63.32297" lon="10.12335">
        <ele>57.291231</ele>
        <time>2020-08-06T09:39:24.129Z</time>
      </trkpt>
      <trkpt lat="63.32287" lon="10.12352">
        <ele>57.241496</ele>
        <time>2020-08-06T09:39:26.144Z</time>
      </trkpt>
      <trkpt lat="63.32277" lon="10.12373">
        <ele>57.189103</ele>
        <time>2020-08-06T09:39:28.141Z</time>
      </trkpt>
      <trkpt lat="63.32268" lon="10.12394">
        <ele>57.138349</ele>
        <time>2020-08-06T09:39:30.156Z</time>
      </trkpt>
      <trkpt lat="63.32261" lon="10.12417">
        <ele>57.091614</ele>
        <time>2020-08-06T09:39:32.125Z</time>
      </trkpt>
      <trkpt lat="63.32256" lon="10.1244">
        <ele>57.046278</ele>
        <time>2020-08-06T09:39:34.125Z</time>
      </trkpt>
      <trkpt lat="63.32253" lon="10.12465">
        <ele>57.001821</ele>
        <time>2020-08-06T09:39:36.138Z</time>
      </trkpt>
      <trkpt lat="63.32252" lon="10.12492">
        <ele>56.95413</ele>
        <time>2020-08-06T09:39:38.120Z</time>
      </trkpt>
      <trkpt lat="63.32252" lon="10.12518">
        <ele>56.909284</ele>
        <time>2020-08-06T09:39:40.119Z</time>
      </trkpt>
      <trkpt lat="63.32253" lon="10.12543">
        <ele>56.8661</ele>
        <time>2020-08-06T09:39:42.126Z</time>
      </trkpt>
      <trkpt lat="63.32254" lon="10.12568">
        <ele>56.822717</ele>
        <time>2020-08-06T09:39:44.131Z</time>
      </trkpt>
      <trkpt lat="63.32255" lon="10.12594">
        <ele>56.778584</ele>
        <time>2020-08-06T09:39:46.133Z</time>
      </trkpt>
      <trkpt lat="63.32255" lon="10.1262">
        <ele>56.733129</ele>
        <time>2020-08-06T09:39:48.125Z</time>
      </trkpt>
      <trkpt lat="63.32257" lon="10.12646">
        <ele>56.677908</ele>
        <time>2020-08-06T09:39:50.119Z</time>
      </trkpt>
      <trkpt lat="63.32259" lon="10.12671">
        <ele>56.582209</ele>
        <time>2020-08-06T09:39:52.159Z</time>
      </trkpt>
      <trkpt lat="63.32261" lon="10.12692">
        <ele>56.496247</ele>
        <time>2020-08-06T09:39:54.149Z</time>
      </trkpt>
      <trkpt lat="63.32262" lon="10.12721">
        <ele>56.385395</ele>
        <time>2020-08-06T09:39:57.123Z</time>
      </trkpt>
      <trkpt lat="63.32262" lon="10.12747">
        <ele>56.286731</ele>
        <time>2020-08-06T09:40:00.139Z</time>
      </trkpt>
      <trkpt lat="63.32262" lon="10.12772">
        <ele>56.1897</ele>
        <time>2020-08-06T09:40:03.171Z</time>
      </trkpt>
      <trkpt lat="63.32262" lon="10.12798">
        <ele>56.090018</ele>
        <time>2020-08-06T09:40:06.128Z</time>
      </trkpt>
      <trkpt lat="63.32264" lon="10.12826">
        <ele>55.983911</ele>
        <time>2020-08-06T09:40:09.135Z</time>
      </trkpt>
      <trkpt lat="63.32265" lon="10.12851">
        <ele>55.886071</ele>
        <time>2020-08-06T09:40:12.121Z</time>
      </trkpt>
      <trkpt lat="63.32268" lon="10.12875">
        <ele>55.78984</ele>
        <time>2020-08-06T09:40:15.120Z</time>
      </trkpt>
      <trkpt lat="63.32273" lon="10.12901">
        <ele>55.684835</ele>
        <time>2020-08-06T09:40:18.139Z</time>
      </trkpt>
      <trkpt lat="63.32277" lon="10.12928">
        <ele>55.574352</ele>
        <time>2020-08-06T09:40:21.115Z</time>
      </trkpt>
      <trkpt lat="63.32281" lon="10.12956">
        <ele>55.458884</ele>
        <time>2020-08-06T09:40:24.129Z</time>
      </trkpt>
      <trkpt lat="63.32284" lon="10.12976">
        <ele>55.378403</ele>
        <time>2020-08-06T09:40:26.156Z</time>
      </trkpt>
      <trkpt lat="63.32287" lon="10.12997">
        <ele>55.293915</ele>
        <time>2020-08-06T09:40:28.121Z</time>
      </trkpt>
      <trkpt lat="63.32288" lon="10.1302">
        <ele>55.206353</ele>
        <time>2020-08-06T09:40:30.149Z</time>
      </trkpt>
      <trkpt lat="63.32287" lon="10.13044">
        <ele>55.120437</ele>
        <time>2020-08-06T09:40:32.122Z</time>
      </trkpt>
      <trkpt lat="63.32286" lon="10.13071">
        <ele>55.031498</ele>
        <time>2020-08-06T09:40:34.142Z</time>
      </trkpt>
      <trkpt lat="63.32283" lon="10.13096">
        <ele>54.944326</ele>
        <time>2020-08-06T09:40:36.147Z</time>
      </trkpt>
      <trkpt lat="63.32279" lon="10.1312">
        <ele>54.860441</ele>
        <time>2020-08-06T09:40:38.170Z</time>
      </trkpt>
      <trkpt lat="63.32275" lon="10.13142">
        <ele>54.782931</ele>
        <time>2020-08-06T09:40:40.144Z</time>
      </trkpt>
      <trkpt lat="63.32272" lon="10.13161">
        <ele>54.712017</ele>
        <time>2020-08-06T09:40:42.123Z</time>
      </trkpt>
      <trkpt lat="63.32267" lon="10.13187">
        <ele>54.619307</ele>
        <time>2020-08-06T09:40:45.149Z</time>
      </trkpt>
      <trkpt lat="63.32262" lon="10.13209">
        <ele>54.537717</ele>
        <time>2020-08-06T09:40:48.129Z</time>
      </trkpt>
      <trkpt lat="63.32256" lon="10.13227">
        <ele>54.464279</ele>
        <time>2020-08-06T09:40:51.119Z</time>
      </trkpt>
      <trkpt lat="63.3225" lon="10.13245">
        <ele>54.387358</ele>
        <time>2020-08-06T09:40:54.128Z</time>
      </trkpt>
      <trkpt lat="63.32242" lon="10.13259">
        <ele>54.311737</ele>
        <time>2020-08-06T09:40:57.154Z</time>
      </trkpt>
      <trkpt lat="63.32232" lon="10.13269">
        <ele>54.234017</ele>
        <time>2020-08-06T09:41:00.140Z</time>
      </trkpt>
      <trkpt lat="63.32223" lon="10.13274">
        <ele>54.163479</ele>
        <time>2020-08-06T09:41:03.134Z</time>
      </trkpt>
      <trkpt lat="63.32212" lon="10.13273">
        <ele>54.086528</ele>
        <time>2020-08-06T09:41:06.135Z</time>
      </trkpt>
      <trkpt lat="63.32202" lon="10.13273">
        <ele>54.011079</ele>
        <time>2020-08-06T09:41:09.130Z</time>
      </trkpt>
      <trkpt lat="63.3219" lon="10.13275">
        <ele>53.919904</ele>
        <time>2020-08-06T09:41:12.181Z</time>
      </trkpt>
      <trkpt lat="63.32177" lon="10.13279">
        <ele>53.796588</ele>
        <time>2020-08-06T09:41:15.125Z</time>
      </trkpt>
      <trkpt lat="63.32167" lon="10.13285">
        <ele>53.471608</ele>
        <time>2020-08-06T09:41:17.114Z</time>
      </trkpt>
      <trkpt lat="63.32157" lon="10.13292">
        <ele>53.128778</ele>
        <time>2020-08-06T09:41:19.175Z</time>
      </trkpt>
      <trkpt lat="63.32147" lon="10.13304">
        <ele>52.756219</ele>
        <time>2020-08-06T09:41:21.159Z</time>
      </trkpt>
      <trkpt lat="63.32138" lon="10.13319">
        <ele>52.368389</ele>
        <time>2020-08-06T09:41:23.133Z</time>
      </trkpt>
      <trkpt lat="63.32129" lon="10.13338">
        <ele>51.978081</ele>
        <time>2020-08-06T09:41:25.133Z</time>
      </trkpt>
      <trkpt lat="63.32121" lon="10.13358">
        <ele>51.580488</ele>
        <time>2020-08-06T09:41:27.130Z</time>
      </trkpt>
      <trkpt lat="63.32114" lon="10.13383">
        <ele>51.146794</ele>
        <time>2020-08-06T09:41:29.111Z</time>
      </trkpt>
      <trkpt lat="63.32108" lon="10.13411">
        <ele>50.688406</ele>
        <time>2020-08-06T09:41:31.125Z</time>
      </trkpt>
      <trkpt lat="63.32103" lon="10.13439">
        <ele>50.245371</ele>
        <time>2020-08-06T09:41:33.139Z</time>
      </trkpt>
      <trkpt lat="63.32101" lon="10.13468">
        <ele>49.808596</ele>
        <time>2020-08-06T09:41:35.120Z</time>
      </trkpt>
      <trkpt lat="63.32102" lon="10.13497">
        <ele>49.384341</ele>
        <time>2020-08-06T09:41:37.119Z</time>
      </trkpt>
      <trkpt lat="63.32104" lon="10.13524">
        <ele>48.983502</ele>
        <time>2020-08-06T09:41:39.140Z</time>
      </trkpt>
      <trkpt lat="63.32106" lon="10.1355">
        <ele>48.589703</ele>
        <time>2020-08-06T09:41:41.160Z</time>
      </trkpt>
      <trkpt lat="63.32108" lon="10.13575">
        <ele>48.211944</ele>
        <time>2020-08-06T09:41:43.159Z</time>
      </trkpt>
      <trkpt lat="63.32111" lon="10.13599">
        <ele>48.034466</ele>
        <time>2020-08-06T09:41:45.134Z</time>
      </trkpt>
      <trkpt lat="63.32112" lon="10.13622">
        <ele>48.531332</ele>
        <time>2020-08-06T09:41:47.118Z</time>
      </trkpt>
      <trkpt lat="63.32112" lon="10.13646">
        <ele>49.022489</ele>
        <time>2020-08-06T09:41:49.135Z</time>
      </trkpt>
      <trkpt lat="63.32112" lon="10.1367">
        <ele>49.507516</ele>
        <time>2020-08-06T09:41:51.136Z</time>
      </trkpt>
      <trkpt lat="63.32111" lon="10.13693">
        <ele>49.992041</ele>
        <time>2020-08-06T09:41:53.120Z</time>
      </trkpt>
      <trkpt lat="63.32108" lon="10.13715">
        <ele>50.469291</ele>
        <time>2020-08-06T09:41:55.119Z</time>
      </trkpt>
      <trkpt lat="63.32105" lon="10.13736">
        <ele>50.922563</ele>
        <time>2020-08-06T09:41:57.152Z</time>
      </trkpt>
      <trkpt lat="63.32101" lon="10.13755">
        <ele>51.373251</ele>
        <time>2020-08-06T09:41:59.135Z</time>
      </trkpt>
      <trkpt lat="63.32094" lon="10.1378">
        <ele>51.966559</ele>
        <time>2020-08-06T09:42:02.123Z</time>
      </trkpt>
      <trkpt lat="63.32089" lon="10.13805">
        <ele>52.544546</ele>
        <time>2020-08-06T09:42:05.114Z</time>
      </trkpt>
      <trkpt lat="63.32083" lon="10.13829">
        <ele>53.09903</ele>
        <time>2020-08-06T09:42:08.123Z</time>
      </trkpt>
      <trkpt lat="63.32077" lon="10.13852">
        <ele>53.646718</ele>
        <time>2020-08-06T09:42:11.137Z</time>
      </trkpt>
      <trkpt lat="63.3207" lon="10.13876">
        <ele>54.242571</ele>
        <time>2020-08-06T09:42:14.170Z</time>
      </trkpt>
      <trkpt lat="63.32063" lon="10.13899">
        <ele>54.813278</ele>
        <time>2020-08-06T09:42:17.130Z</time>
      </trkpt>
      <trkpt lat="63.32056" lon="10.1392">
        <ele>55.365095</ele>
        <time>2020-08-06T09:42:20.141Z</time>
      </trkpt>
      <trkpt lat="63.3205" lon="10.13942">
        <ele>55.899893</ele>
        <time>2020-08-06T09:42:23.130Z</time>
      </trkpt>
      <trkpt lat="63.32044" lon="10.13964">
        <ele>56.338612</ele>
        <time>2020-08-06T09:42:26.160Z</time>
      </trkpt>
      <trkpt lat="63.32038" lon="10.13985">
        <ele>56.628783</ele>
        <time>2020-08-06T09:42:29.164Z</time>
      </trkpt>
      <trkpt lat="63.32032" lon="10.14005">
        <ele>56.898335</ele>
        <time>2020-08-06T09:42:32.136Z</time>
      </trkpt>
      <trkpt lat="63.32026" lon="10.14021">
        <ele>57.138334</ele>
        <time>2020-08-06T09:42:35.121Z</time>
      </trkpt>
      <trkpt lat="63.32018" lon="10.14036">
        <ele>57.402089</ele>
        <time>2020-08-06T09:42:38.139Z</time>
      </trkpt>
      <trkpt lat="63.32011" lon="10.14053">
        <ele>57.652763</ele>
        <time>2020-08-06T09:42:41.119Z</time>
      </trkpt>
      <trkpt lat="63.32005" lon="10.14076">
        <ele>57.949537</ele>
        <time>2020-08-06T09:42:45.129Z</time>
      </trkpt>
      <trkpt lat="63.32001" lon="10.14094">
        <ele>58.182412</ele>
        <time>2020-08-06T09:42:48.120Z</time>
      </trkpt>
      <trkpt lat="63.31996" lon="10.14111">
        <ele>58.411325</ele>
        <time>2020-08-06T09:42:51.122Z</time>
      </trkpt>
      <trkpt lat="63.31989" lon="10.14131">
        <ele>58.695199</ele>
        <time>2020-08-06T09:42:55.137Z</time>
      </trkpt>
      <trkpt lat="63.31983" lon="10.14153">
        <ele>58.986801</ele>
        <time>2020-08-06T09:42:59.132Z</time>
      </trkpt>
      <trkpt lat="63.31979" lon="10.14171">
        <ele>59.21895</ele>
        <time>2020-08-06T09:43:02.120Z</time>
      </trkpt>
      <trkpt lat="63.31974" lon="10.1419">
        <ele>59.465379</ele>
        <time>2020-08-06T09:43:05.120Z</time>
      </trkpt>
      <trkpt lat="63.31969" lon="10.1421">
        <ele>59.727099</ele>
        <time>2020-08-06T09:43:08.140Z</time>
      </trkpt>
      <trkpt lat="63.31963" lon="10.14231">
        <ele>59.998127</ele>
        <time>2020-08-06T09:43:11.134Z</time>
      </trkpt>
      <trkpt lat="63.31957" lon="10.14253">
        <ele>60.295388</ele>
        <time>2020-08-06T09:43:14.146Z</time>
      </trkpt>
      <trkpt lat="63.3195" lon="10.14279">
        <ele>60.638403</ele>
        <time>2020-08-06T09:43:17.137Z</time>
      </trkpt>
      <trkpt lat="63.31945" lon="10.14298">
        <ele>60.631518</ele>
        <time>2020-08-06T09:43:19.126Z</time>
      </trkpt>
      <trkpt lat="63.31939" lon="10.14319">
        <ele>60.36579</ele>
        <time>2020-08-06T09:43:21.136Z</time>
      </trkpt>
      <trkpt lat="63.31933" lon="10.14341">
        <ele>60.07349</ele>
        <time>2020-08-06T09:43:23.136Z</time>
      </trkpt>
      <trkpt lat="63.31927" lon="10.14364">
        <ele>59.768698</ele>
        <time>2020-08-06T09:43:25.150Z</time>
      </trkpt>
      <trkpt lat="63.3192" lon="10.14388">
        <ele>59.460767</ele>
        <time>2020-08-06T09:43:27.125Z</time>
      </trkpt>
      <trkpt lat="63.31914" lon="10.14412">
        <ele>59.149641</ele>
        <time>2020-08-06T09:43:29.130Z</time>
      </trkpt>
      <trkpt lat="63.31908" lon="10.14436">
        <ele>58.832038</ele>
        <time>2020-08-06T09:43:31.162Z</time>
      </trkpt>
      <trkpt lat="63.31902" lon="10.14461">
        <ele>58.520776</ele>
        <time>2020-08-06T09:43:33.119Z</time>
      </trkpt>
      <trkpt lat="63.31897" lon="10.14486">
        <ele>58.216719</ele>
        <time>2020-08-06T09:43:35.161Z</time>
      </trkpt>
      <trkpt lat="63.31892" lon="10.1451">
        <ele>57.922966</ele>
        <time>2020-08-06T09:43:37.136Z</time>
      </trkpt>
      <trkpt lat="63.31888" lon="10.14532">
        <ele>57.652511</ele>
        <time>2020-08-06T09:43:39.134Z</time>
      </trkpt>
      <trkpt lat="63.31883" lon="10.14552">
        <ele>57.401395</ele>
        <time>2020-08-06T09:43:41.119Z</time>
      </trkpt>
      <trkpt lat="63.3188" lon="10.14571">
        <ele>57.172714</ele>
        <time>2020-08-06T09:43:43.134Z</time>
      </trkpt>
      <trkpt lat="63.31877" lon="10.14591">
        <ele>56.94542</ele>
        <time>2020-08-06T09:43:45.132Z</time>
      </trkpt>
      <trkpt lat="63.31874" lon="10.1461">
        <ele>56.709284</ele>
        <time>2020-08-06T09:43:47.145Z</time>
      </trkpt>
      <trkpt lat="63.31871" lon="10.14631">
        <ele>56.465311</ele>
        <time>2020-08-06T09:43:49.126Z</time>
      </trkpt>
      <trkpt lat="63.31868" lon="10.14653">
        <ele>56.212703</ele>
        <time>2020-08-06T09:43:51.131Z</time>
      </trkpt>
      <trkpt lat="63.31866" lon="10.14677">
        <ele>55.92867</ele>
        <time>2020-08-06T09:43:53.143Z</time>
      </trkpt>
      <trkpt lat="63.31863" lon="10.14703">
        <ele>55.628845</ele>
        <time>2020-08-06T09:43:55.123Z</time>
      </trkpt>
      <trkpt lat="63.31861" lon="10.14729">
        <ele>55.317456</ele>
        <time>2020-08-06T09:43:57.115Z</time>
      </trkpt>
      <trkpt lat="63.31859" lon="10.14757">
        <ele>54.997836</ele>
        <time>2020-08-06T09:43:59.136Z</time>
      </trkpt>
      <trkpt lat="63.31856" lon="10.14784">
        <ele>54.6758</ele>
        <time>2020-08-06T09:44:01.133Z</time>
      </trkpt>
      <trkpt lat="63.31852" lon="10.14811">
        <ele>54.35916</ele>
        <time>2020-08-06T09:44:03.144Z</time>
      </trkpt>
      <trkpt lat="63.3185" lon="10.14837">
        <ele>54.04552</ele>
        <time>2020-08-06T09:44:05.140Z</time>
      </trkpt>
      <trkpt lat="63.31846" lon="10.14864">
        <ele>53.731746</ele>
        <time>2020-08-06T09:44:07.126Z</time>
      </trkpt>
      <trkpt lat="63.31843" lon="10.14889">
        <ele>53.422806</ele>
        <time>2020-08-06T09:44:09.170Z</time>
      </trkpt>
      <trkpt lat="63.31838" lon="10.14915">
        <ele>53.111589</ele>
        <time>2020-08-06T09:44:11.133Z</time>
      </trkpt>
      <trkpt lat="63.31833" lon="10.1494">
        <ele>52.793778</ele>
        <time>2020-08-06T09:44:13.156Z</time>
      </trkpt>
      <trkpt lat="63.31827" lon="10.14963">
        <ele>52.483359</ele>
        <time>2020-08-06T09:44:15.124Z</time>
      </trkpt>
      <trkpt lat="63.31819" lon="10.14983">
        <ele>52.173823</ele>
        <time>2020-08-06T09:44:17.135Z</time>
      </trkpt>
      <trkpt lat="63.3181" lon="10.15001">
        <ele>51.873129</ele>
        <time>2020-08-06T09:44:19.129Z</time>
      </trkpt>
      <trkpt lat="63.318" lon="10.15017">
        <ele>51.578454</ele>
        <time>2020-08-06T09:44:21.114Z</time>
      </trkpt>
      <trkpt lat="63.3179" lon="10.1503">
        <ele>51.322857</ele>
        <time>2020-08-06T09:44:23.112Z</time>
      </trkpt>
      <trkpt lat="63.31779" lon="10.1504">
        <ele>51.06884</ele>
        <time>2020-08-06T09:44:25.128Z</time>
      </trkpt>
      <trkpt lat="63.31767" lon="10.15048">
        <ele>50.799875</ele>
        <time>2020-08-06T09:44:27.111Z</time>
      </trkpt>
      <trkpt lat="63.31756" lon="10.15056">
        <ele>50.547934</ele>
        <time>2020-08-06T09:44:29.154Z</time>
      </trkpt>
      <trkpt lat="63.31745" lon="10.15062">
        <ele>50.30407</ele>
        <time>2020-08-06T09:44:31.176Z</time>
      </trkpt>
      <trkpt lat="63.31734" lon="10.15069">
        <ele>50.053951</ele>
        <time>2020-08-06T09:44:33.116Z</time>
      </trkpt>
      <trkpt lat="63.31723" lon="10.15075">
        <ele>49.810339</ele>
        <time>2020-08-06T09:44:35.125Z</time>
      </trkpt>
      <trkpt lat="63.31711" lon="10.15083">
        <ele>49.550361</ele>
        <time>2020-08-06T09:44:37.124Z</time>
      </trkpt>
      <trkpt lat="63.317" lon="10.1509">
        <ele>49.290383</ele>
        <time>2020-08-06T09:44:39.139Z</time>
      </trkpt>
      <trkpt lat="63.31688" lon="10.15098">
        <ele>49.020774</ele>
        <time>2020-08-06T09:44:41.153Z</time>
      </trkpt>
      <trkpt lat="63.31675" lon="10.15104">
        <ele>48.73734</ele>
        <time>2020-08-06T09:44:43.151Z</time>
      </trkpt>
      <trkpt lat="63.31662" lon="10.1511">
        <ele>48.448989</ele>
        <time>2020-08-06T09:44:45.119Z</time>
      </trkpt>
      <trkpt lat="63.31649" lon="10.15117">
        <ele>48.175615</ele>
        <time>2020-08-06T09:44:47.152Z</time>
      </trkpt>
      <trkpt lat="63.31637" lon="10.15122">
        <ele>47.908198</ele>
        <time>2020-08-06T09:44:49.137Z</time>
      </trkpt>
      <trkpt lat="63.31626" lon="10.15129">
        <ele>47.858943</ele>
        <time>2020-08-06T09:44:51.135Z</time>
      </trkpt>
      <trkpt lat="63.31616" lon="10.15137">
        <ele>47.938954</ele>
        <time>2020-08-06T09:44:53.137Z</time>
      </trkpt>
      <trkpt lat="63.31605" lon="10.15144">
        <ele>48.018396</ele>
        <time>2020-08-06T09:44:55.133Z</time>
      </trkpt>
      <trkpt lat="63.31594" lon="10.15152">
        <ele>48.098239</ele>
        <time>2020-08-06T09:44:57.117Z</time>
      </trkpt>
      <trkpt lat="63.31584" lon="10.15161">
        <ele>48.173188</ele>
        <time>2020-08-06T09:44:59.183Z</time>
      </trkpt>
      <trkpt lat="63.31575" lon="10.15168">
        <ele>48.245265</ele>
        <time>2020-08-06T09:45:01.136Z</time>
      </trkpt>
      <trkpt lat="63.31566" lon="10.15177">
        <ele>48.315856</ele>
        <time>2020-08-06T09:45:03.141Z</time>
      </trkpt>
      <trkpt lat="63.31557" lon="10.15186">
        <ele>48.386319</ele>
        <time>2020-08-06T09:45:05.118Z</time>
      </trkpt>
      <trkpt lat="63.31548" lon="10.15196">
        <ele>48.455351</ele>
        <time>2020-08-06T09:45:07.122Z</time>
      </trkpt>
      <trkpt lat="63.3154" lon="10.15207">
        <ele>48.525345</ele>
        <time>2020-08-06T09:45:09.149Z</time>
      </trkpt>
      <trkpt lat="63.31531" lon="10.1522">
        <ele>48.595932</ele>
        <time>2020-08-06T09:45:11.140Z</time>
      </trkpt>
      <trkpt lat="63.31523" lon="10.15233">
        <ele>48.667163</ele>
        <time>2020-08-06T09:45:13.119Z</time>
      </trkpt>
      <trkpt lat="63.31516" lon="10.15245">
        <ele>48.735343</ele>
        <time>2020-08-06T09:45:15.129Z</time>
      </trkpt>
      <trkpt lat="63.31509" lon="10.15259">
        <ele>48.803034</ele>
        <time>2020-08-06T09:45:17.129Z</time>
      </trkpt>
      <trkpt lat="63.31501" lon="10.15273">
        <ele>48.869597</ele>
        <time>2020-08-06T09:45:19.138Z</time>
      </trkpt>
      <trkpt lat="63.31495" lon="10.15287">
        <ele>48.935062</ele>
        <time>2020-08-06T09:45:21.134Z</time>
      </trkpt>
      <trkpt lat="63.31488" lon="10.15302">
        <ele>48.999573</ele>
        <time>2020-08-06T09:45:23.114Z</time>
      </trkpt>
      <trkpt lat="63.31482" lon="10.15316">
        <ele>49.064766</ele>
        <time>2020-08-06T09:45:25.140Z</time>
      </trkpt>
      <trkpt lat="63.31474" lon="10.1534">
        <ele>49.728628</ele>
        <time>2020-08-06T09:45:28.137Z</time>
      </trkpt>
      <trkpt lat="63.31467" lon="10.15362">
        <ele>50.512384</ele>
        <time>2020-08-06T09:45:31.143Z</time>
      </trkpt>
      <trkpt lat="63.3146" lon="10.15385">
        <ele>51.299888</ele>
        <time>2020-08-06T09:45:34.151Z</time>
      </trkpt>
      <trkpt lat="63.31455" lon="10.15406">
        <ele>52.000951</ele>
        <time>2020-08-06T09:45:37.121Z</time>
      </trkpt>
      <trkpt lat="63.3145" lon="10.15427">
        <ele>52.68692</ele>
        <time>2020-08-06T09:45:40.152Z</time>
      </trkpt>
      <trkpt lat="63.31445" lon="10.15447">
        <ele>53.362886</ele>
        <time>2020-08-06T09:45:43.123Z</time>
      </trkpt>
      <trkpt lat="63.3144" lon="10.15465">
        <ele>53.976013</ele>
        <time>2020-08-06T09:45:46.131Z</time>
      </trkpt>
      <trkpt lat="63.31435" lon="10.15484">
        <ele>54.575784</ele>
        <time>2020-08-06T09:45:49.131Z</time>
      </trkpt>
      <trkpt lat="63.3143" lon="10.15505">
        <ele>55.281365</ele>
        <time>2020-08-06T09:45:53.130Z</time>
      </trkpt>
      <trkpt lat="63.31425" lon="10.15525">
        <ele>55.956518</ele>
        <time>2020-08-06T09:45:57.132Z</time>
      </trkpt>
      <trkpt lat="63.31419" lon="10.15547">
        <ele>56.689709</ele>
        <time>2020-08-06T09:46:01.140Z</time>
      </trkpt>
      <trkpt lat="63.31415" lon="10.15565">
        <ele>57.274257</ele>
        <time>2020-08-06T09:46:04.118Z</time>
      </trkpt>
      <trkpt lat="63.3141" lon="10.15584">
        <ele>57.906667</ele>
        <time>2020-08-06T09:46:07.137Z</time>
      </trkpt>
      <trkpt lat="63.31405" lon="10.15603">
        <ele>58.527808</ele>
        <time>2020-08-06T09:46:10.131Z</time>
      </trkpt>
      <trkpt lat="63.314" lon="10.15622">
        <ele>59.164107</ele>
        <time>2020-08-06T09:46:13.133Z</time>
      </trkpt>
      <trkpt lat="63.31394" lon="10.15641">
        <ele>59.837506</ele>
        <time>2020-08-06T09:46:16.163Z</time>
      </trkpt>
      <trkpt lat="63.31389" lon="10.15663">
        <ele>60.543095</ele>
        <time>2020-08-06T09:46:19.146Z</time>
      </trkpt>
      <trkpt lat="63.31384" lon="10.15685">
        <ele>60.700627</ele>
        <time>2020-08-06T09:46:22.127Z</time>
      </trkpt>
      <trkpt lat="63.31379" lon="10.15708">
        <ele>60.747242</ele>
        <time>2020-08-06T09:46:25.123Z</time>
      </trkpt>
      <trkpt lat="63.31375" lon="10.15732">
        <ele>60.793761</ele>
        <time>2020-08-06T09:46:28.145Z</time>
      </trkpt>
      <trkpt lat="63.3137" lon="10.15757">
        <ele>60.843715</ele>
        <time>2020-08-06T09:46:31.134Z</time>
      </trkpt>
      <trkpt lat="63.31363" lon="10.1578">
        <ele>60.894997</ele>
        <time>2020-08-06T09:46:34.140Z</time>
      </trkpt>
      <trkpt lat="63.31355" lon="10.15792">
        <ele>60.932196</ele>
        <time>2020-08-06T09:46:36.148Z</time>
      </trkpt>
      <trkpt lat="63.31347" lon="10.15802">
        <ele>60.971453</ele>
        <time>2020-08-06T09:46:38.115Z</time>
      </trkpt>
      <trkpt lat="63.31337" lon="10.1581">
        <ele>61.011327</ele>
        <time>2020-08-06T09:46:40.131Z</time>
      </trkpt>
      <trkpt lat="63.31328" lon="10.15815">
        <ele>61.050572</ele>
        <time>2020-08-06T09:46:42.158Z</time>
      </trkpt>
      <trkpt lat="63.31318" lon="10.1582">
        <ele>61.092065</ele>
        <time>2020-08-06T09:46:44.123Z</time>
      </trkpt>
      <trkpt lat="63.31308" lon="10.15825">
        <ele>61.134428</ele>
        <time>2020-08-06T09:46:46.139Z</time>
      </trkpt>
      <trkpt lat="63.31297" lon="10.1583">
        <ele>61.178178</ele>
        <time>2020-08-06T09:46:48.124Z</time>
      </trkpt>
      <trkpt lat="63.31288" lon="10.15835">
        <ele>61.217803</ele>
        <time>2020-08-06T09:46:50.119Z</time>
      </trkpt>
      <trkpt lat="63.31278" lon="10.15841">
        <ele>61.25931</ele>
        <time>2020-08-06T09:46:52.115Z</time>
      </trkpt>
      <trkpt lat="63.31268" lon="10.15847">
        <ele>61.303012</ele>
        <time>2020-08-06T09:46:54.158Z</time>
      </trkpt>
      <trkpt lat="63.31258" lon="10.15855">
        <ele>61.345553</ele>
        <time>2020-08-06T09:46:56.154Z</time>
      </trkpt>
      <trkpt lat="63.31248" lon="10.15864">
        <ele>61.387871</ele>
        <time>2020-08-06T09:46:58.133Z</time>
      </trkpt>
      <trkpt lat="63.3124" lon="10.15876">
        <ele>61.616928</ele>
        <time>2020-08-06T09:47:00.146Z</time>
      </trkpt>
      <trkpt lat="63.31232" lon="10.15889">
        <ele>61.860403</ele>
        <time>2020-08-06T09:47:02.120Z</time>
      </trkpt>
      <trkpt lat="63.31224" lon="10.15903">
        <ele>62.103074</ele>
        <time>2020-08-06T09:47:04.137Z</time>
      </trkpt>
      <trkpt lat="63.31218" lon="10.1592">
        <ele>62.349395</ele>
        <time>2020-08-06T09:47:06.144Z</time>
      </trkpt>
      <trkpt lat="63.31212" lon="10.15938">
        <ele>62.582204</ele>
        <time>2020-08-06T09:47:08.132Z</time>
      </trkpt>
      <trkpt lat="63.31205" lon="10.15963">
        <ele>62.911535</ele>
        <time>2020-08-06T09:47:11.124Z</time>
      </trkpt>
      <trkpt lat="63.31198" lon="10.15988">
        <ele>63.243512</ele>
        <time>2020-08-06T09:47:14.126Z</time>
      </trkpt>
      <trkpt lat="63.31194" lon="10.16006">
        <ele>63.463701</ele>
        <time>2020-08-06T09:47:16.133Z</time>
      </trkpt>
      <trkpt lat="63.3119" lon="10.16025">
        <ele>63.697064</ele>
        <time>2020-08-06T09:47:18.136Z</time>
      </trkpt>
      <trkpt lat="63.31187" lon="10.16044">
        <ele>63.92027</ele>
        <time>2020-08-06T09:47:20.125Z</time>
      </trkpt>
      <trkpt lat="63.31183" lon="10.1607">
        <ele>64.221639</ele>
        <time>2020-08-06T09:47:23.137Z</time>
      </trkpt>
      <trkpt lat="63.31179" lon="10.16094">
        <ele>64.498452</ele>
        <time>2020-08-06T09:47:26.118Z</time>
      </trkpt>
      <trkpt lat="63.31177" lon="10.16115">
        <ele>64.748406</ele>
        <time>2020-08-06T09:47:29.138Z</time>
      </trkpt>
      <trkpt lat="63.31174" lon="10.16138">
        <ele>65.003869</ele>
        <time>2020-08-06T09:47:32.131Z</time>
      </trkpt>
      <trkpt lat="63.31171" lon="10.16161">
        <ele>65.268656</ele>
        <time>2020-08-06T09:47:35.123Z</time>
      </trkpt>
      <trkpt lat="63.31168" lon="10.16181">
        <ele>65.509971</ele>
        <time>2020-08-06T09:47:38.113Z</time>
      </trkpt>
      <trkpt lat="63.31166" lon="10.16202">
        <ele>65.739671</ele>
        <time>2020-08-06T09:47:41.148Z</time>
      </trkpt>
      <trkpt lat="63.31165" lon="10.16222">
        <ele>65.849787</ele>
        <time>2020-08-06T09:47:44.122Z</time>
      </trkpt>
      <trkpt lat="63.31164" lon="10.16243">
        <ele>65.889689</ele>
        <time>2020-08-06T09:47:47.117Z</time>
      </trkpt>
      <trkpt lat="63.31163" lon="10.16266">
        <ele>65.932112</ele>
        <time>2020-08-06T09:47:50.122Z</time>
      </trkpt>
      <trkpt lat="63.31163" lon="10.1629">
        <ele>65.975766</ele>
        <time>2020-08-06T09:47:53.120Z</time>
      </trkpt>
      <trkpt lat="63.31163" lon="10.16313">
        <ele>66.01902</ele>
        <time>2020-08-06T09:47:56.161Z</time>
      </trkpt>
      <trkpt lat="63.31162" lon="10.16337">
        <ele>66.064546</ele>
        <time>2020-08-06T09:47:59.118Z</time>
      </trkpt>
      <trkpt lat="63.31163" lon="10.16363">
        <ele>66.111371</ele>
        <time>2020-08-06T09:48:02.122Z</time>
      </trkpt>
      <trkpt lat="63.31162" lon="10.16392">
        <ele>66.166695</ele>
        <time>2020-08-06T09:48:05.128Z</time>
      </trkpt>
      <trkpt lat="63.31162" lon="10.16415">
        <ele>66.208407</ele>
        <time>2020-08-06T09:48:07.136Z</time>
      </trkpt>
      <trkpt lat="63.31161" lon="10.16439">
        <ele>66.252618</ele>
        <time>2020-08-06T09:48:09.120Z</time>
      </trkpt>
      <trkpt lat="63.31159" lon="10.16465">
        <ele>66.302437</ele>
        <time>2020-08-06T09:48:11.125Z</time>
      </trkpt>
      <trkpt lat="63.31156" lon="10.16493">
        <ele>66.35607</ele>
        <time>2020-08-06T09:48:13.123Z</time>
      </trkpt>
      <trkpt lat="63.31149" lon="10.16522">
        <ele>66.416633</ele>
        <time>2020-08-06T09:48:15.165Z</time>
      </trkpt>
      <trkpt lat="63.31137" lon="10.16549">
        <ele>66.485303</ele>
        <time>2020-08-06T09:48:17.119Z</time>
      </trkpt>
      <trkpt lat="63.31125" lon="10.16567">
        <ele>66.54652</ele>
        <time>2020-08-06T09:48:19.128Z</time>
      </trkpt>
      <trkpt lat="63.31111" lon="10.16587">
        <ele>65.733185</ele>
        <time>2020-08-06T09:48:21.137Z</time>
      </trkpt>
      <trkpt lat="63.31097" lon="10.16607">
        <ele>64.493808</ele>
        <time>2020-08-06T09:48:23.117Z</time>
      </trkpt>
      <trkpt lat="63.31083" lon="10.16631">
        <ele>63.17267</ele>
        <time>2020-08-06T09:48:25.150Z</time>
      </trkpt>
      <trkpt lat="63.31076" lon="10.16644">
        <ele>62.485707</ele>
        <time>2020-08-06T09:48:26.133Z</time>
      </trkpt>
      <trkpt lat="63.31066" lon="10.16675">
        <ele>61.183917</ele>
        <time>2020-08-06T09:48:28.138Z</time>
      </trkpt>
      <trkpt lat="63.31062" lon="10.16694">
        <ele>60.508839</ele>
        <time>2020-08-06T09:48:29.132Z</time>
      </trkpt>
      <trkpt lat="63.31056" lon="10.16729">
        <ele>59.235068</ele>
        <time>2020-08-06T09:48:31.135Z</time>
      </trkpt>
      <trkpt lat="63.31051" lon="10.16767">
        <ele>57.917174</ele>
        <time>2020-08-06T09:48:33.164Z</time>
      </trkpt>
      <trkpt lat="63.31048" lon="10.16803">
        <ele>56.662463</ele>
        <time>2020-08-06T09:48:35.117Z</time>
      </trkpt>
      <trkpt lat="63.31047" lon="10.16837">
        <ele>55.523995</ele>
        <time>2020-08-06T09:48:37.156Z</time>
      </trkpt>
      <trkpt lat="63.31049" lon="10.16869">
        <ele>54.457264</ele>
        <time>2020-08-06T09:48:39.144Z</time>
      </trkpt>
      <trkpt lat="63.31053" lon="10.16897">
        <ele>53.478932</ele>
        <time>2020-08-06T09:48:41.148Z</time>
      </trkpt>
      <trkpt lat="63.31055" lon="10.16923">
        <ele>52.878445</ele>
        <time>2020-08-06T09:48:43.130Z</time>
      </trkpt>
      <trkpt lat="63.31057" lon="10.16949">
        <ele>52.50652</ele>
        <time>2020-08-06T09:48:45.143Z</time>
      </trkpt>
      <trkpt lat="63.31059" lon="10.16974">
        <ele>52.155859</ele>
        <time>2020-08-06T09:48:47.131Z</time>
      </trkpt>
      <trkpt lat="63.3106" lon="10.16998">
        <ele>51.806274</ele>
        <time>2020-08-06T09:48:49.138Z</time>
      </trkpt>
      <trkpt lat="63.31063" lon="10.17023">
        <ele>51.446874</ele>
        <time>2020-08-06T09:48:51.126Z</time>
      </trkpt>
      <trkpt lat="63.31064" lon="10.17048">
        <ele>51.096389</ele>
        <time>2020-08-06T09:48:53.123Z</time>
      </trkpt>
      <trkpt lat="63.31067" lon="10.17071">
        <ele>50.754291</ele>
        <time>2020-08-06T09:48:55.129Z</time>
      </trkpt>
      <trkpt lat="63.31069" lon="10.17095">
        <ele>50.412861</ele>
        <time>2020-08-06T09:48:57.149Z</time>
      </trkpt>
      <trkpt lat="63.31072" lon="10.17118">
        <ele>50.070764</ele>
        <time>2020-08-06T09:48:59.118Z</time>
      </trkpt>
      <trkpt lat="63.31074" lon="10.17142">
        <ele>49.731794</ele>
        <time>2020-08-06T09:49:01.137Z</time>
      </trkpt>
      <trkpt lat="63.31075" lon="10.17164">
        <ele>49.410619</ele>
        <time>2020-08-06T09:49:03.150Z</time>
      </trkpt>
      <trkpt lat="63.31077" lon="10.17186">
        <ele>49.097252</ele>
        <time>2020-08-06T09:49:05.149Z</time>
      </trkpt>
      <trkpt lat="63.31079" lon="10.17208">
        <ele>48.777892</ele>
        <time>2020-08-06T09:49:07.120Z</time>
      </trkpt>
      <trkpt lat="63.31081" lon="10.1723">
        <ele>48.462552</ele>
        <time>2020-08-06T09:49:09.135Z</time>
      </trkpt>
      <trkpt lat="63.31083" lon="10.17251">
        <ele>48.152181</ele>
        <time>2020-08-06T09:49:11.162Z</time>
      </trkpt>
      <trkpt lat="63.31085" lon="10.17272">
        <ele>47.853287</ele>
        <time>2020-08-06T09:49:13.152Z</time>
      </trkpt>
      <trkpt lat="63.31087" lon="10.17293">
        <ele>47.552154</ele>
        <time>2020-08-06T09:49:15.131Z</time>
      </trkpt>
      <trkpt lat="63.31089" lon="10.17314">
        <ele>47.457284</ele>
        <time>2020-08-06T09:49:17.136Z</time>
      </trkpt>
      <trkpt lat="63.31091" lon="10.17335">
        <ele>47.486278</ele>
        <time>2020-08-06T09:49:19.132Z</time>
      </trkpt>
      <trkpt lat="63.31092" lon="10.17356">
        <ele>47.515018</ele>
        <time>2020-08-06T09:49:21.127Z</time>
      </trkpt>
      <trkpt lat="63.31094" lon="10.17378">
        <ele>47.544905</ele>
        <time>2020-08-06T09:49:23.156Z</time>
      </trkpt>
      <trkpt lat="63.31096" lon="10.174">
        <ele>47.575892</ele>
        <time>2020-08-06T09:49:25.137Z</time>
      </trkpt>
      <trkpt lat="63.31098" lon="10.17423">
        <ele>47.607889</ele>
        <time>2020-08-06T09:49:27.139Z</time>
      </trkpt>
      <trkpt lat="63.311" lon="10.17446">
        <ele>47.639485</ele>
        <time>2020-08-06T09:49:29.130Z</time>
      </trkpt>
      <trkpt lat="63.31102" lon="10.17469">
        <ele>47.671126</ele>
        <time>2020-08-06T09:49:31.143Z</time>
      </trkpt>
      <trkpt lat="63.31104" lon="10.17492">
        <ele>47.702322</ele>
        <time>2020-08-06T09:49:33.140Z</time>
      </trkpt>
      <trkpt lat="63.31106" lon="10.17514">
        <ele>47.733598</ele>
        <time>2020-08-06T09:49:35.130Z</time>
      </trkpt>
      <trkpt lat="63.31108" lon="10.17537">
        <ele>47.76451</ele>
        <time>2020-08-06T09:49:37.150Z</time>
      </trkpt>
      <trkpt lat="63.31111" lon="10.17559">
        <ele>47.796187</ele>
        <time>2020-08-06T09:49:39.137Z</time>
      </trkpt>
      <trkpt lat="63.31114" lon="10.17582">
        <ele>47.828638</ele>
        <time>2020-08-06T09:49:41.150Z</time>
      </trkpt>
      <trkpt lat="63.31117" lon="10.17605">
        <ele>47.861398</ele>
        <time>2020-08-06T09:49:43.133Z</time>
      </trkpt>
      <trkpt lat="63.3112" lon="10.17629">
        <ele>47.894229</ele>
        <time>2020-08-06T09:49:45.136Z</time>
      </trkpt>
      <trkpt lat="63.31121" lon="10.17651">
        <ele>47.924532</ele>
        <time>2020-08-06T09:49:47.128Z</time>
      </trkpt>
      <trkpt lat="63.31124" lon="10.1767">
        <ele>47.951888</ele>
        <time>2020-08-06T09:49:49.124Z</time>
      </trkpt>
      <trkpt lat="63.31128" lon="10.17688">
        <ele>47.97977</ele>
        <time>2020-08-06T09:49:51.134Z</time>
      </trkpt>
      <trkpt lat="63.31132" lon="10.17708">
        <ele>48.117341</ele>
        <time>2020-08-06T09:49:53.138Z</time>
      </trkpt>
      <trkpt lat="63.31135" lon="10.17727">
        <ele>48.259016</ele>
        <time>2020-08-06T09:49:55.154Z</time>
      </trkpt>
      <trkpt lat="63.31139" lon="10.17746">
        <ele>48.398574</ele>
        <time>2020-08-06T09:49:57.152Z</time>
      </trkpt>
      <trkpt lat="63.31144" lon="10.17773">
        <ele>48.599565</ele>
        <time>2020-08-06T09:50:00.137Z</time>
      </trkpt>
      <trkpt lat="63.3115" lon="10.17799">
        <ele>48.798795</ele>
        <time>2020-08-06T09:50:03.141Z</time>
      </trkpt>
      <trkpt lat="63.31154" lon="10.17817">
        <ele>48.940391</ele>
        <time>2020-08-06T09:50:05.136Z</time>
      </trkpt>
      <trkpt lat="63.31159" lon="10.17836">
        <ele>49.088264</ele>
        <time>2020-08-06T09:50:07.115Z</time>
      </trkpt>
      <trkpt lat="63.31163" lon="10.17855">
        <ele>49.233698</ele>
        <time>2020-08-06T09:50:09.133Z</time>
      </trkpt>
      <trkpt lat="63.31167" lon="10.17874">
        <ele>49.380269</ele>
        <time>2020-08-06T09:50:11.181Z</time>
      </trkpt>
      <trkpt lat="63.31171" lon="10.17893">
        <ele>49.523602</ele>
        <time>2020-08-06T09:50:13.133Z</time>
      </trkpt>
      <trkpt lat="63.31175" lon="10.1792">
        <ele>49.717916</ele>
        <time>2020-08-06T09:50:16.115Z</time>
      </trkpt>
      <trkpt lat="63.31179" lon="10.17948">
        <ele>49.921448</ele>
        <time>2020-08-06T09:50:19.120Z</time>
      </trkpt>
      <trkpt lat="63.31182" lon="10.17975">
        <ele>50.109202</ele>
        <time>2020-08-06T09:50:22.173Z</time>
      </trkpt>
      <trkpt lat="63.31185" lon="10.18002">
        <ele>50.302648</ele>
        <time>2020-08-06T09:50:25.143Z</time>
      </trkpt>
      <trkpt lat="63.31188" lon="10.18029">
        <ele>50.492411</ele>
        <time>2020-08-06T09:50:28.124Z</time>
      </trkpt>
      <trkpt lat="63.3119" lon="10.18057">
        <ele>50.690575</ele>
        <time>2020-08-06T09:50:31.141Z</time>
      </trkpt>
      <trkpt lat="63.31192" lon="10.18085">
        <ele>50.677804</ele>
        <time>2020-08-06T09:50:34.117Z</time>
      </trkpt>
      <trkpt lat="63.31194" lon="10.18113">
        <ele>50.612005</ele>
        <time>2020-08-06T09:50:37.125Z</time>
      </trkpt>
      <trkpt lat="63.31196" lon="10.18143">
        <ele>50.54234</ele>
        <time>2020-08-06T09:50:40.141Z</time>
      </trkpt>
      <trkpt lat="63.31197" lon="10.18163">
        <ele>50.495618</ele>
        <time>2020-08-06T09:50:42.137Z</time>
      </trkpt>
      <trkpt lat="63.31198" lon="10.18184">
        <ele>50.445743</ele>
        <time>2020-08-06T09:50:44.199Z</time>
      </trkpt>
      <trkpt lat="63.31199" lon="10.18207">
        <ele>50.392627</ele>
        <time>2020-08-06T09:50:46.129Z</time>
      </trkpt>
      <trkpt lat="63.312" lon="10.18232">
        <ele>50.33498</ele>
        <time>2020-08-06T09:50:48.149Z</time>
      </trkpt>
      <trkpt lat="63.31202" lon="10.18255">
        <ele>50.280707</ele>
        <time>2020-08-06T09:50:50.172Z</time>
      </trkpt>
      <trkpt lat="63.31203" lon="10.18277">
        <ele>50.230244</ele>
        <time>2020-08-06T09:50:55.161Z</time>
      </trkpt>
      <trkpt lat="63.31212" lon="10.18284">
        <ele>50.182456</ele>
        <time>2020-08-06T09:50:59.159Z</time>
      </trkpt>
      <trkpt lat="63.31217" lon="10.18301">
        <ele>50.135118</ele>
        <time>2020-08-06T09:51:02.131Z</time>
      </trkpt>
      <trkpt lat="63.31223" lon="10.18322">
        <ele>50.076824</ele>
        <time>2020-08-06T09:51:05.136Z</time>
      </trkpt>
      <trkpt lat="63.31231" lon="10.18343">
        <ele>50.015925</ele>
        <time>2020-08-06T09:51:08.137Z</time>
      </trkpt>
      <trkpt lat="63.31238" lon="10.18365">
        <ele>49.954186</ele>
        <time>2020-08-06T09:51:11.142Z</time>
      </trkpt>
      <trkpt lat="63.31245" lon="10.18388">
        <ele>49.890045</ele>
        <time>2020-08-06T09:51:14.160Z</time>
      </trkpt>
      <trkpt lat="63.31251" lon="10.18411">
        <ele>49.825615</ele>
        <time>2020-08-06T09:51:17.144Z</time>
      </trkpt>
      <trkpt lat="63.31259" lon="10.18434">
        <ele>49.839633</ele>
        <time>2020-08-06T09:51:20.124Z</time>
      </trkpt>
      <trkpt lat="63.31266" lon="10.18456">
        <ele>49.89768</ele>
        <time>2020-08-06T09:51:23.125Z</time>
      </trkpt>
      <trkpt lat="63.31275" lon="10.18479">
        <ele>49.958528</ele>
        <time>2020-08-06T09:51:26.114Z</time>
      </trkpt>
      <trkpt lat="63.31283" lon="10.18501">
        <ele>50.018041</ele>
        <time>2020-08-06T09:51:29.118Z</time>
      </trkpt>
      <trkpt lat="63.3129" lon="10.18523">
        <ele>50.075855</ele>
        <time>2020-08-06T09:51:32.123Z</time>
      </trkpt>
      <trkpt lat="63.31297" lon="10.18545">
        <ele>50.132668</ele>
        <time>2020-08-06T09:51:35.120Z</time>
      </trkpt>
      <trkpt lat="63.31305" lon="10.18566">
        <ele>50.191047</ele>
        <time>2020-08-06T09:51:38.152Z</time>
      </trkpt>
      <trkpt lat="63.31314" lon="10.18587">
        <ele>50.248756</ele>
        <time>2020-08-06T09:51:41.138Z</time>
      </trkpt>
      <trkpt lat="63.3132" lon="10.18612">
        <ele>50.30797</ele>
        <time>2020-08-06T09:51:44.156Z</time>
      </trkpt>
      <trkpt lat="63.31329" lon="10.18635">
        <ele>50.370972</ele>
        <time>2020-08-06T09:51:47.124Z</time>
      </trkpt>
      <trkpt lat="63.31335" lon="10.18651">
        <ele>50.414826</ele>
        <time>2020-08-06T09:51:49.131Z</time>
      </trkpt>
      <trkpt lat="63.31341" lon="10.18668">
        <ele>50.459227</ele>
        <time>2020-08-06T09:51:51.142Z</time>
      </trkpt>
      <trkpt lat="63.31347" lon="10.18685">
        <ele>50.50431</ele>
        <time>2020-08-06T09:51:53.130Z</time>
      </trkpt>
      <trkpt lat="63.31353" lon="10.18702">
        <ele>50.549107</ele>
        <time>2020-08-06T09:51:55.154Z</time>
      </trkpt>
      <trkpt lat="63.31359" lon="10.18718">
        <ele>50.593291</ele>
        <time>2020-08-06T09:51:57.162Z</time>
      </trkpt>
      <trkpt lat="63.31364" lon="10.18735">
        <ele>50.634821</ele>
        <time>2020-08-06T09:51:59.118Z</time>
      </trkpt>
      <trkpt lat="63.3137" lon="10.18752">
        <ele>50.396843</ele>
        <time>2020-08-06T09:52:01.121Z</time>
      </trkpt>
      <trkpt lat="63.31376" lon="10.18769">
        <ele>50.153339</ele>
        <time>2020-08-06T09:52:03.126Z</time>
      </trkpt>
      <trkpt lat="63.31383" lon="10.18786">
        <ele>49.902371</ele>
        <time>2020-08-06T09:52:05.148Z</time>
      </trkpt>
      <trkpt lat="63.3139" lon="10.18805">
        <ele>49.638045</ele>
        <time>2020-08-06T09:52:07.132Z</time>
      </trkpt>
      <trkpt lat="63.31396" lon="10.18822">
        <ele>49.387077</ele>
        <time>2020-08-06T09:52:09.126Z</time>
      </trkpt>
      <trkpt lat="63.31402" lon="10.1884">
        <ele>49.135147</ele>
        <time>2020-08-06T09:52:11.160Z</time>
      </trkpt>
      <trkpt lat="63.31408" lon="10.18858">
        <ele>48.885013</ele>
        <time>2020-08-06T09:52:13.131Z</time>
      </trkpt>
      <trkpt lat="63.31414" lon="10.18876">
        <ele>48.633183</ele>
        <time>2020-08-06T09:52:15.155Z</time>
      </trkpt>
      <trkpt lat="63.3142" lon="10.18893">
        <ele>48.394541</ele>
        <time>2020-08-06T09:52:17.146Z</time>
      </trkpt>
      <trkpt lat="63.31427" lon="10.18908">
        <ele>48.160417</ele>
        <time>2020-08-06T09:52:19.139Z</time>
      </trkpt>
      <trkpt lat="63.31433" lon="10.18924">
        <ele>47.923815</ele>
        <time>2020-08-06T09:52:21.133Z</time>
      </trkpt>
      <trkpt lat="63.31439" lon="10.18941">
        <ele>47.680536</ele>
        <time>2020-08-06T09:52:23.163Z</time>
      </trkpt>
      <trkpt lat="63.31445" lon="10.18958">
        <ele>47.438395</ele>
        <time>2020-08-06T09:52:25.145Z</time>
      </trkpt>
      <trkpt lat="63.31451" lon="10.18974">
        <ele>47.199059</ele>
        <time>2020-08-06T09:52:27.148Z</time>
      </trkpt>
      <trkpt lat="63.31457" lon="10.18991">
        <ele>46.96129</ele>
        <time>2020-08-06T09:52:29.117Z</time>
      </trkpt>
      <trkpt lat="63.31463" lon="10.19008">
        <ele>46.728729</ele>
        <time>2020-08-06T09:52:31.155Z</time>
      </trkpt>
      <trkpt lat="63.31469" lon="10.19024">
        <ele>46.49096</ele>
        <time>2020-08-06T09:52:33.158Z</time>
      </trkpt>
      <trkpt lat="63.31475" lon="10.19041">
        <ele>46.250575</ele>
        <time>2020-08-06T09:52:35.169Z</time>
      </trkpt>
      <trkpt lat="63.31481" lon="10.19058">
        <ele>46.185415</ele>
        <time>2020-08-06T09:52:37.120Z</time>
      </trkpt>
      <trkpt lat="63.31487" lon="10.19074">
        <ele>46.212303</ele>
        <time>2020-08-06T09:52:39.127Z</time>
      </trkpt>
      <trkpt lat="63.31493" lon="10.1909">
        <ele>46.238191</ele>
        <time>2020-08-06T09:52:41.156Z</time>
      </trkpt>
      <trkpt lat="63.31501" lon="10.19113">
        <ele>46.27489</ele>
        <time>2020-08-06T09:52:44.119Z</time>
      </trkpt>
      <trkpt lat="63.31507" lon="10.19128">
        <ele>46.300458</ele>
        <time>2020-08-06T09:52:46.119Z</time>
      </trkpt>
      <trkpt lat="63.31513" lon="10.19143">
        <ele>46.325468</ele>
        <time>2020-08-06T09:52:48.161Z</time>
      </trkpt>
      <trkpt lat="63.31522" lon="10.19165">
        <ele>46.363455</ele>
        <time>2020-08-06T09:52:51.122Z</time>
      </trkpt>
      <trkpt lat="63.31529" lon="10.19181">
        <ele>46.389588</ele>
        <time>2020-08-06T09:52:53.129Z</time>
      </trkpt>
      <trkpt lat="63.31535" lon="10.19196">
        <ele>46.415463</ele>
        <time>2020-08-06T09:52:55.118Z</time>
      </trkpt>
      <trkpt lat="63.31545" lon="10.19216">
        <ele>46.452585</ele>
        <time>2020-08-06T09:52:58.130Z</time>
      </trkpt>
      <trkpt lat="63.31552" lon="10.1923">
        <ele>46.478696</ele>
        <time>2020-08-06T09:53:00.147Z</time>
      </trkpt>
      <trkpt lat="63.31559" lon="10.19244">
        <ele>46.504808</ele>
        <time>2020-08-06T09:53:02.136Z</time>
      </trkpt>
      <trkpt lat="63.31566" lon="10.19257">
        <ele>46.53123</ele>
        <time>2020-08-06T09:53:04.136Z</time>
      </trkpt>
      <trkpt lat="63.31573" lon="10.19271">
        <ele>46.557852</ele>
        <time>2020-08-06T09:53:06.128Z</time>
      </trkpt>
      <trkpt lat="63.31581" lon="10.19283">
        <ele>46.584092</ele>
        <time>2020-08-06T09:53:08.145Z</time>
      </trkpt>
      <trkpt lat="63.31589" lon="10.19295">
        <ele>46.611394</ele>
        <time>2020-08-06T09:53:10.136Z</time>
      </trkpt>
      <trkpt lat="63.31597" lon="10.19307">
        <ele>46.638964</ele>
        <time>2020-08-06T09:53:12.139Z</time>
      </trkpt>
      <trkpt lat="63.31605" lon="10.19318">
        <ele>46.665022</ele>
        <time>2020-08-06T09:53:14.127Z</time>
      </trkpt>
      <trkpt lat="63.31617" lon="10.19334">
        <ele>46.801302</ele>
        <time>2020-08-06T09:53:17.164Z</time>
      </trkpt>
      <trkpt lat="63.31625" lon="10.19345">
        <ele>46.908218</ele>
        <time>2020-08-06T09:53:19.123Z</time>
      </trkpt>
      <trkpt lat="63.31636" lon="10.19359">
        <ele>47.058254</ele>
        <time>2020-08-06T09:53:22.151Z</time>
      </trkpt>
      <trkpt lat="63.31648" lon="10.19371">
        <ele>47.206627</ele>
        <time>2020-08-06T09:53:25.124Z</time>
      </trkpt>
      <trkpt lat="63.3166" lon="10.19381">
        <ele>47.353097</ele>
        <time>2020-08-06T09:53:28.163Z</time>
      </trkpt>
      <trkpt lat="63.31669" lon="10.19388">
        <ele>47.456693</ele>
        <time>2020-08-06T09:53:30.120Z</time>
      </trkpt>
      <trkpt lat="63.31677" lon="10.19394">
        <ele>47.559643</ele>
        <time>2020-08-06T09:53:32.157Z</time>
      </trkpt>
      <trkpt lat="63.31686" lon="10.19399">
        <ele>47.66255</ele>
        <time>2020-08-06T09:53:34.121Z</time>
      </trkpt>
      <trkpt lat="63.31695" lon="10.19401">
        <ele>47.765624</ele>
        <time>2020-08-06T09:53:36.130Z</time>
      </trkpt>
      <trkpt lat="63.31708" lon="10.19402">
        <ele>47.913474</ele>
        <time>2020-08-06T09:53:39.123Z</time>
      </trkpt>
      <trkpt lat="63.31721" lon="10.19397">
        <ele>48.057463</ele>
        <time>2020-08-06T09:53:42.127Z</time>
      </trkpt>
      <trkpt lat="63.31733" lon="10.19389">
        <ele>48.205301</ele>
        <time>2020-08-06T09:53:45.120Z</time>
      </trkpt>
      <trkpt lat="63.31741" lon="10.1938">
        <ele>48.307563</ele>
        <time>2020-08-06T09:53:47.131Z</time>
      </trkpt>
      <trkpt lat="63.31749" lon="10.19369">
        <ele>48.410915</ele>
        <time>2020-08-06T09:53:49.130Z</time>
      </trkpt>
      <trkpt lat="63.31756" lon="10.19359">
        <ele>48.512276</ele>
        <time>2020-08-06T09:53:51.156Z</time>
      </trkpt>
      <trkpt lat="63.31764" lon="10.19349">
        <ele>48.615358</ele>
        <time>2020-08-06T09:53:53.122Z</time>
      </trkpt>
      <trkpt lat="63.31775" lon="10.19333">
        <ele>48.791886</ele>
        <time>2020-08-06T09:53:56.116Z</time>
      </trkpt>
      <trkpt lat="63.31787" lon="10.19318">
        <ele>49.040303</ele>
        <time>2020-08-06T09:53:59.186Z</time>
      </trkpt>
      <trkpt lat="63.31795" lon="10.19311">
        <ele>49.216254</ele>
        <time>2020-08-06T09:54:01.136Z</time>
      </trkpt>
      <trkpt lat="63.31805" lon="10.19307">
        <ele>49.402171</ele>
        <time>2020-08-06T09:54:03.141Z</time>
      </trkpt>
      <trkpt lat="63.31815" lon="10.19304">
        <ele>49.590453</ele>
        <time>2020-08-06T09:54:05.120Z</time>
      </trkpt>
      <trkpt lat="63.31825" lon="10.19305">
        <ele>49.777747</ele>
        <time>2020-08-06T09:54:07.123Z</time>
      </trkpt>
      <trkpt lat="63.31835" lon="10.19305">
        <ele>49.959432</ele>
        <time>2020-08-06T09:54:09.140Z</time>
      </trkpt>
      <trkpt lat="63.31844" lon="10.19306">
        <ele>50.139385</ele>
        <time>2020-08-06T09:54:11.131Z</time>
      </trkpt>
      <trkpt lat="63.31854" lon="10.19307">
        <ele>50.319418</ele>
        <time>2020-08-06T09:54:13.130Z</time>
      </trkpt>
      <trkpt lat="63.31867" lon="10.19307">
        <ele>50.570387</ele>
        <time>2020-08-06T09:54:16.160Z</time>
      </trkpt>
      <trkpt lat="63.31881" lon="10.19307">
        <ele>50.825097</ele>
        <time>2020-08-06T09:54:19.138Z</time>
      </trkpt>
      <trkpt lat="63.3189" lon="10.19307">
        <ele>50.997451</ele>
        <time>2020-08-06T09:54:21.163Z</time>
      </trkpt>
      <trkpt lat="63.319" lon="10.19309">
        <ele>51.171873</ele>
        <time>2020-08-06T09:54:23.122Z</time>
      </trkpt>
      <trkpt lat="63.31909" lon="10.19309">
        <ele>51.353571</ele>
        <time>2020-08-06T09:54:25.169Z</time>
      </trkpt>
      <trkpt lat="63.31919" lon="10.19312">
        <ele>51.536868</ele>
        <time>2020-08-06T09:54:27.134Z</time>
      </trkpt>
      <trkpt lat="63.31929" lon="10.19317">
        <ele>51.721904</ele>
        <time>2020-08-06T09:54:29.122Z</time>
      </trkpt>
      <trkpt lat="63.31938" lon="10.19325">
        <ele>51.915922</ele>
        <time>2020-08-06T09:54:31.119Z</time>
      </trkpt>
      <trkpt lat="63.31948" lon="10.19334">
        <ele>52.07766</ele>
        <time>2020-08-06T09:54:33.131Z</time>
      </trkpt>
      <trkpt lat="63.31956" lon="10.19344">
        <ele>52.024742</ele>
        <time>2020-08-06T09:54:35.136Z</time>
      </trkpt>
      <trkpt lat="63.31965" lon="10.19351">
        <ele>51.974001</ele>
        <time>2020-08-06T09:54:37.111Z</time>
      </trkpt>
      <trkpt lat="63.31976" lon="10.19363">
        <ele>51.90623</ele>
        <time>2020-08-06T09:54:40.120Z</time>
      </trkpt>
      <trkpt lat="63.31988" lon="10.19376">
        <ele>51.835004</ele>
        <time>2020-08-06T09:54:43.146Z</time>
      </trkpt>
      <trkpt lat="63.32" lon="10.19387">
        <ele>51.764329</ele>
        <time>2020-08-06T09:54:46.139Z</time>
      </trkpt>
      <trkpt lat="63.32009" lon="10.19394">
        <ele>51.713504</ele>
        <time>2020-08-06T09:54:48.150Z</time>
      </trkpt>
      <trkpt lat="63.32022" lon="10.19403">
        <ele>51.641383</ele>
        <time>2020-08-06T09:54:51.129Z</time>
      </trkpt>
      <trkpt lat="63.32034" lon="10.19413">
        <ele>51.569315</ele>
        <time>2020-08-06T09:54:54.169Z</time>
      </trkpt>
      <trkpt lat="63.32046" lon="10.19425">
        <ele>51.495875</ele>
        <time>2020-08-06T09:54:57.124Z</time>
      </trkpt>
      <trkpt lat="63.32055" lon="10.19432">
        <ele>51.446914</ele>
        <time>2020-08-06T09:54:59.130Z</time>
      </trkpt>
      <trkpt lat="63.32067" lon="10.19441">
        <ele>51.377164</ele>
        <time>2020-08-06T09:55:02.138Z</time>
      </trkpt>
      <trkpt lat="63.32076" lon="10.19451">
        <ele>51.324136</ele>
        <time>2020-08-06T09:55:04.122Z</time>
      </trkpt>
      <trkpt lat="63.32084" lon="10.19463">
        <ele>51.269087</ele>
        <time>2020-08-06T09:55:06.143Z</time>
      </trkpt>
      <trkpt lat="63.32092" lon="10.19478">
        <ele>51.212741</ele>
        <time>2020-08-06T09:55:08.122Z</time>
      </trkpt>
      <trkpt lat="63.321" lon="10.19495">
        <ele>51.152755</ele>
        <time>2020-08-06T09:55:10.191Z</time>
      </trkpt>
      <trkpt lat="63.32107" lon="10.19515">
        <ele>51.073631</ele>
        <time>2020-08-06T09:55:12.123Z</time>
      </trkpt>
      <trkpt lat="63.32113" lon="10.19538">
        <ele>50.928685</ele>
        <time>2020-08-06T09:55:14.122Z</time>
      </trkpt>
      <trkpt lat="63.32117" lon="10.1956">
        <ele>50.796325</ele>
        <time>2020-08-06T09:55:16.152Z</time>
      </trkpt>
      <trkpt lat="63.32118" lon="10.19582">
        <ele>50.675313</ele>
        <time>2020-08-06T09:55:18.124Z</time>
      </trkpt>
      <trkpt lat="63.32117" lon="10.19605">
        <ele>50.549817</ele>
        <time>2020-08-06T09:55:20.144Z</time>
      </trkpt>
      <trkpt lat="63.32114" lon="10.19628">
        <ele>50.419918</ele>
        <time>2020-08-06T09:55:22.112Z</time>
      </trkpt>
      <trkpt lat="63.32111" lon="10.19651">
        <ele>50.288412</ele>
        <time>2020-08-06T09:55:24.143Z</time>
      </trkpt>
      <trkpt lat="63.32106" lon="10.19672">
        <ele>50.161724</ele>
        <time>2020-08-06T09:55:26.120Z</time>
      </trkpt>
      <trkpt lat="63.32102" lon="10.19692">
        <ele>50.040993</ele>
        <time>2020-08-06T09:55:28.133Z</time>
      </trkpt>
      <trkpt lat="63.32097" lon="10.19709">
        <ele>49.929319</ele>
        <time>2020-08-06T09:55:30.129Z</time>
      </trkpt>
      <trkpt lat="63.32091" lon="10.19736">
        <ele>49.767413</ele>
        <time>2020-08-06T09:55:33.145Z</time>
      </trkpt>
      <trkpt lat="63.32087" lon="10.19764">
        <ele>49.602138</ele>
        <time>2020-08-06T09:55:36.150Z</time>
      </trkpt>
      <trkpt lat="63.32085" lon="10.19785">
        <ele>49.485484</ele>
        <time>2020-08-06T09:55:38.129Z</time>
      </trkpt>
      <trkpt lat="63.32085" lon="10.19807">
        <ele>49.367947</ele>
        <time>2020-08-06T09:55:40.136Z</time>
      </trkpt>
      <trkpt lat="63.32087" lon="10.19829">
        <ele>49.24287</ele>
        <time>2020-08-06T09:55:42.136Z</time>
      </trkpt>
      <trkpt lat="63.3209" lon="10.19849">
        <ele>49.12908</ele>
        <time>2020-08-06T09:55:44.129Z</time>
      </trkpt>
      <trkpt lat="63.32095" lon="10.19866">
        <ele>49.016604</ele>
        <time>2020-08-06T09:55:46.128Z</time>
      </trkpt>
      <trkpt lat="63.32101" lon="10.19883">
        <ele>48.939424</ele>
        <time>2020-08-06T09:55:48.135Z</time>
      </trkpt>
      <trkpt lat="63.32106" lon="10.19899">
        <ele>49.115031</ele>
        <time>2020-08-06T09:55:50.148Z</time>
      </trkpt>
      <trkpt lat="63.32112" lon="10.19914">
        <ele>49.288957</ele>
        <time>2020-08-06T09:55:52.140Z</time>
      </trkpt>
      <trkpt lat="63.32118" lon="10.1993">
        <ele>49.467819</ele>
        <time>2020-08-06T09:55:54.146Z</time>
      </trkpt>
      <trkpt lat="63.32123" lon="10.19948">
        <ele>49.650332</ele>
        <time>2020-08-06T09:55:56.172Z</time>
      </trkpt>
      <trkpt lat="63.32128" lon="10.19966">
        <ele>49.837513</ele>
        <time>2020-08-06T09:55:58.139Z</time>
      </trkpt>
      <trkpt lat="63.32131" lon="10.19986">
        <ele>50.019799</ele>
        <time>2020-08-06T09:56:00.142Z</time>
      </trkpt>
      <trkpt lat="63.32132" lon="10.20007">
        <ele>50.205966</ele>
        <time>2020-08-06T09:56:02.119Z</time>
      </trkpt>
      <trkpt lat="63.32134" lon="10.20029">
        <ele>50.395353</ele>
        <time>2020-08-06T09:56:04.118Z</time>
      </trkpt>
      <trkpt lat="63.32136" lon="10.2005">
        <ele>50.586246</ele>
        <time>2020-08-06T09:56:06.151Z</time>
      </trkpt>
      <trkpt lat="63.32138" lon="10.20071">
        <ele>50.772034</ele>
        <time>2020-08-06T09:56:08.116Z</time>
      </trkpt>
      <trkpt lat="63.3214" lon="10.20092">
        <ele>50.960029</ele>
        <time>2020-08-06T09:56:10.127Z</time>
      </trkpt>
      <trkpt lat="63.32143" lon="10.20111">
        <ele>51.141121</ele>
        <time>2020-08-06T09:56:12.152Z</time>
      </trkpt>
      <trkpt lat="63.32148" lon="10.2013">
        <ele>51.324042</ele>
        <time>2020-08-06T09:56:14.142Z</time>
      </trkpt>
      <trkpt lat="63.32152" lon="10.20149">
        <ele>51.504036</ele>
        <time>2020-08-06T09:56:16.158Z</time>
      </trkpt>
      <trkpt lat="63.32159" lon="10.20171">
        <ele>51.752197</ele>
        <time>2020-08-06T09:56:19.121Z</time>
      </trkpt>
      <trkpt lat="63.32167" lon="10.20191">
        <ele>51.976812</ele>
        <time>2020-08-06T09:56:22.124Z</time>
      </trkpt>
      <trkpt lat="63.32175" lon="10.20211">
        <ele>52.211679</ele>
        <time>2020-08-06T09:56:25.110Z</time>
      </trkpt>
      <trkpt lat="63.32184" lon="10.2023">
        <ele>52.374684</ele>
        <time>2020-08-06T09:56:28.140Z</time>
      </trkpt>
      <trkpt lat="63.32193" lon="10.20249">
        <ele>52.207061</ele>
        <time>2020-08-06T09:56:31.123Z</time>
      </trkpt>
      <trkpt lat="63.32203" lon="10.20269">
        <ele>52.026064</ele>
        <time>2020-08-06T09:56:34.137Z</time>
      </trkpt>
      <trkpt lat="63.3221" lon="10.20286">
        <ele>51.886796</ele>
        <time>2020-08-06T09:56:36.149Z</time>
      </trkpt>
      <trkpt lat="63.32218" lon="10.20301">
        <ele>51.748759</ele>
        <time>2020-08-06T09:56:38.196Z</time>
      </trkpt>
      <trkpt lat="63.32225" lon="10.20318">
        <ele>51.597964</ele>
        <time>2020-08-06T09:56:40.147Z</time>
      </trkpt>
      <trkpt lat="63.32233" lon="10.20339">
        <ele>51.433216</ele>
        <time>2020-08-06T09:56:42.137Z</time>
      </trkpt>
      <trkpt lat="63.3224" lon="10.20362">
        <ele>51.265123</ele>
        <time>2020-08-06T09:56:44.114Z</time>
      </trkpt>
      <trkpt lat="63.32245" lon="10.20387">
        <ele>51.099437</ele>
        <time>2020-08-06T09:56:46.129Z</time>
      </trkpt>
      <trkpt lat="63.3225" lon="10.20412">
        <ele>50.932477</ele>
        <time>2020-08-06T09:56:48.157Z</time>
      </trkpt>
      <trkpt lat="63.32253" lon="10.20437">
        <ele>50.774652</ele>
        <time>2020-08-06T09:56:50.132Z</time>
      </trkpt>
      <trkpt lat="63.32257" lon="10.20462">
        <ele>50.616642</ele>
        <time>2020-08-06T09:56:52.116Z</time>
      </trkpt>
      <trkpt lat="63.32259" lon="10.20486">
        <ele>50.462642</ele>
        <time>2020-08-06T09:56:54.153Z</time>
      </trkpt>
      <trkpt lat="63.32263" lon="10.20511">
        <ele>50.30812</ele>
        <time>2020-08-06T09:56:56.117Z</time>
      </trkpt>
      <trkpt lat="63.32265" lon="10.20535">
        <ele>50.152548</ele>
        <time>2020-08-06T09:56:58.122Z</time>
      </trkpt>
      <trkpt lat="63.32268" lon="10.20561">
        <ele>49.995849</ele>
        <time>2020-08-06T09:57:00.166Z</time>
      </trkpt>
      <trkpt lat="63.3227" lon="10.20585">
        <ele>49.755279</ele>
        <time>2020-08-06T09:57:02.135Z</time>
      </trkpt>
      <trkpt lat="63.32272" lon="10.20611">
        <ele>49.48332</ele>
        <time>2020-08-06T09:57:04.164Z</time>
      </trkpt>
      <trkpt lat="63.32273" lon="10.20638">
        <ele>49.203565</ele>
        <time>2020-08-06T09:57:06.123Z</time>
      </trkpt>
      <trkpt lat="63.32275" lon="10.20665">
        <ele>48.926113</ele>
        <time>2020-08-06T09:57:08.160Z</time>
      </trkpt>
      <trkpt lat="63.32274" lon="10.20691">
        <ele>48.655988</ele>
        <time>2020-08-06T09:57:10.124Z</time>
      </trkpt>
      <trkpt lat="63.32273" lon="10.20718">
        <ele>48.384229</ele>
        <time>2020-08-06T09:57:12.123Z</time>
      </trkpt>
      <trkpt lat="63.32271" lon="10.20743">
        <ele>48.115616</ele>
        <time>2020-08-06T09:57:14.120Z</time>
      </trkpt>
      <trkpt lat="63.32268" lon="10.20768">
        <ele>47.849039</ele>
        <time>2020-08-06T09:57:16.171Z</time>
      </trkpt>
      <trkpt lat="63.32265" lon="10.20793">
        <ele>47.582016</ele>
        <time>2020-08-06T09:57:18.119Z</time>
      </trkpt>
      <trkpt lat="63.32261" lon="10.20818">
        <ele>47.314983</ele>
        <time>2020-08-06T09:57:20.122Z</time>
      </trkpt>
      <trkpt lat="63.32258" lon="10.20843">
        <ele>47.041058</ele>
        <time>2020-08-06T09:57:22.156Z</time>
      </trkpt>
      <trkpt lat="63.32255" lon="10.20869">
        <ele>46.768787</ele>
        <time>2020-08-06T09:57:24.147Z</time>
      </trkpt>
      <trkpt lat="63.32253" lon="10.20895">
        <ele>46.498226</ele>
        <time>2020-08-06T09:57:26.137Z</time>
      </trkpt>
      <trkpt lat="63.32252" lon="10.20921">
        <ele>46.226107</ele>
        <time>2020-08-06T09:57:28.150Z</time>
      </trkpt>
      <trkpt lat="63.32252" lon="10.20946">
        <ele>45.962166</ele>
        <time>2020-08-06T09:57:30.178Z</time>
      </trkpt>
      <trkpt lat="63.32253" lon="10.20971">
        <ele>45.817228</ele>
        <time>2020-08-06T09:57:32.144Z</time>
      </trkpt>
      <trkpt lat="63.32255" lon="10.20996">
        <ele>45.781805</ele>
        <time>2020-08-06T09:57:34.150Z</time>
      </trkpt>
      <trkpt lat="63.32258" lon="10.2102">
        <ele>45.746447</ele>
        <time>2020-08-06T09:57:36.136Z</time>
      </trkpt>
      <trkpt lat="63.32261" lon="10.21042">
        <ele>45.71276</ele>
        <time>2020-08-06T09:57:38.129Z</time>
      </trkpt>
      <trkpt lat="63.32266" lon="10.21064">
        <ele>45.677545</ele>
        <time>2020-08-06T09:57:40.138Z</time>
      </trkpt>
      <trkpt lat="63.3227" lon="10.21086">
        <ele>45.643383</ele>
        <time>2020-08-06T09:57:42.135Z</time>
      </trkpt>
      <trkpt lat="63.32275" lon="10.21107">
        <ele>45.608695</ele>
        <time>2020-08-06T09:57:44.139Z</time>
      </trkpt>
      <trkpt lat="63.32281" lon="10.21129">
        <ele>45.572997</ele>
        <time>2020-08-06T09:57:46.124Z</time>
      </trkpt>
      <trkpt lat="63.32286" lon="10.2115">
        <ele>45.538059</ele>
        <time>2020-08-06T09:57:48.136Z</time>
      </trkpt>
      <trkpt lat="63.32292" lon="10.21171">
        <ele>45.503588</ele>
        <time>2020-08-06T09:57:50.114Z</time>
      </trkpt>
      <trkpt lat="63.32298" lon="10.21191">
        <ele>45.468185</ele>
        <time>2020-08-06T09:57:52.144Z</time>
      </trkpt>
      <trkpt lat="63.32304" lon="10.21211">
        <ele>45.433556</ele>
        <time>2020-08-06T09:57:54.121Z</time>
      </trkpt>
      <trkpt lat="63.3231" lon="10.21231">
        <ele>45.398927</ele>
        <time>2020-08-06T09:57:56.141Z</time>
      </trkpt>
      <trkpt lat="63.32316" lon="10.21251">
        <ele>45.364177</ele>
        <time>2020-08-06T09:57:58.132Z</time>
      </trkpt>
      <trkpt lat="63.32322" lon="10.21271">
        <ele>45.330553</ele>
        <time>2020-08-06T09:58:00.135Z</time>
      </trkpt>
      <trkpt lat="63.32328" lon="10.2129">
        <ele>45.297591</ele>
        <time>2020-08-06T09:58:02.131Z</time>
      </trkpt>
      <trkpt lat="63.32333" lon="10.21309">
        <ele>45.264674</ele>
        <time>2020-08-06T09:58:04.162Z</time>
      </trkpt>
      <trkpt lat="63.32339" lon="10.21329">
        <ele>45.156212</ele>
        <time>2020-08-06T09:58:06.140Z</time>
      </trkpt>
      <trkpt lat="63.32344" lon="10.21348">
        <ele>45.04309</ele>
        <time>2020-08-06T09:58:08.135Z</time>
      </trkpt>
      <trkpt lat="63.32349" lon="10.21368">
        <ele>44.92911</ele>
        <time>2020-08-06T09:58:10.137Z</time>
      </trkpt>
      <trkpt lat="63.32355" lon="10.21387">
        <ele>44.814821</ele>
        <time>2020-08-06T09:58:12.127Z</time>
      </trkpt>
      <trkpt lat="63.32361" lon="10.21404">
        <ele>44.703766</ele>
        <time>2020-08-06T09:58:14.129Z</time>
      </trkpt>
      <trkpt lat="63.32368" lon="10.21419">
        <ele>44.593713</ele>
        <time>2020-08-06T09:58:16.118Z</time>
      </trkpt>
      <trkpt lat="63.32376" lon="10.21433">
        <ele>44.485412</ele>
        <time>2020-08-06T09:58:18.154Z</time>
      </trkpt>
      <trkpt lat="63.32384" lon="10.21446">
        <ele>44.373089</ele>
        <time>2020-08-06T09:58:20.115Z</time>
      </trkpt>
      <trkpt lat="63.32391" lon="10.21461">
        <ele>44.263331</ele>
        <time>2020-08-06T09:58:22.167Z</time>
      </trkpt>
      <trkpt lat="63.32398" lon="10.21477">
        <ele>44.150832</ele>
        <time>2020-08-06T09:58:24.136Z</time>
      </trkpt>
      <trkpt lat="63.32404" lon="10.21494">
        <ele>44.035688</ele>
        <time>2020-08-06T09:58:26.131Z</time>
      </trkpt>
      <trkpt lat="63.3241" lon="10.21514">
        <ele>43.915966</ele>
        <time>2020-08-06T09:58:28.147Z</time>
      </trkpt>
      <trkpt lat="63.32416" lon="10.21535">
        <ele>43.7946</ele>
        <time>2020-08-06T09:58:30.156Z</time>
      </trkpt>
      <trkpt lat="63.3242" lon="10.21556">
        <ele>43.677403</ele>
        <time>2020-08-06T09:58:32.120Z</time>
      </trkpt>
      <trkpt lat="63.32422" lon="10.2158">
        <ele>43.554219</ele>
        <time>2020-08-06T09:58:34.144Z</time>
      </trkpt>
      <trkpt lat="63.32427" lon="10.21607">
        <ele>43.408525</ele>
        <time>2020-08-06T09:58:36.135Z</time>
      </trkpt>
      <trkpt lat="63.32432" lon="10.21632">
        <ele>43.271121</ele>
        <time>2020-08-06T09:58:38.151Z</time>
      </trkpt>
      <trkpt lat="63.32434" lon="10.2166">
        <ele>43.431628</ele>
        <time>2020-08-06T09:58:40.147Z</time>
      </trkpt>
      <trkpt lat="63.32436" lon="10.21686">
        <ele>43.663257</ele>
        <time>2020-08-06T09:58:42.124Z</time>
      </trkpt>
      <trkpt lat="63.32438" lon="10.21713">
        <ele>43.888718</ele>
        <time>2020-08-06T09:58:44.131Z</time>
      </trkpt>
      <trkpt lat="63.32439" lon="10.21738">
        <ele>44.106528</ele>
        <time>2020-08-06T09:58:46.170Z</time>
      </trkpt>
      <trkpt lat="63.3244" lon="10.21764">
        <ele>44.322855</ele>
        <time>2020-08-06T09:58:48.131Z</time>
      </trkpt>
      <trkpt lat="63.32441" lon="10.21789">
        <ele>44.539883</ele>
        <time>2020-08-06T09:58:50.145Z</time>
      </trkpt>
      <trkpt lat="63.32442" lon="10.21814">
        <ele>44.753409</ele>
        <time>2020-08-06T09:58:52.119Z</time>
      </trkpt>
      <trkpt lat="63.32443" lon="10.21838">
        <ele>44.959858</ele>
        <time>2020-08-06T09:58:54.121Z</time>
      </trkpt>
      <trkpt lat="63.32444" lon="10.21862">
        <ele>45.159254</ele>
        <time>2020-08-06T09:58:56.125Z</time>
      </trkpt>
      <trkpt lat="63.32446" lon="10.21885">
        <ele>45.357269</ele>
        <time>2020-08-06T09:58:58.133Z</time>
      </trkpt>
      <trkpt lat="63.32447" lon="10.21908">
        <ele>45.556781</ele>
        <time>2020-08-06T09:59:00.153Z</time>
      </trkpt>
      <trkpt lat="63.32448" lon="10.21929">
        <ele>45.738547</ele>
        <time>2020-08-06T09:59:02.132Z</time>
      </trkpt>
      <trkpt lat="63.3245" lon="10.21958">
        <ele>45.989471</ele>
        <time>2020-08-06T09:59:05.123Z</time>
      </trkpt>
      <trkpt lat="63.32452" lon="10.21986">
        <ele>46.22925</ele>
        <time>2020-08-06T09:59:08.118Z</time>
      </trkpt>
      <trkpt lat="63.32454" lon="10.22013">
        <ele>46.463831</ele>
        <time>2020-08-06T09:59:11.170Z</time>
      </trkpt>
      <trkpt lat="63.32456" lon="10.22041">
        <ele>46.713644</ele>
        <time>2020-08-06T09:59:14.154Z</time>
      </trkpt>
      <trkpt lat="63.32458" lon="10.22068">
        <ele>47.005399</ele>
        <time>2020-08-06T09:59:17.123Z</time>
      </trkpt>
      <trkpt lat="63.3246" lon="10.22097">
        <ele>47.311744</ele>
        <time>2020-08-06T09:59:20.128Z</time>
      </trkpt>
      <trkpt lat="63.32463" lon="10.22126">
        <ele>47.618227</ele>
        <time>2020-08-06T09:59:23.128Z</time>
      </trkpt>
      <trkpt lat="63.32465" lon="10.22154">
        <ele>47.92429</ele>
        <time>2020-08-06T09:59:26.117Z</time>
      </trkpt>
      <trkpt lat="63.32467" lon="10.22182">
        <ele>48.217138</ele>
        <time>2020-08-06T09:59:29.151Z</time>
      </trkpt>
      <trkpt lat="63.32469" lon="10.2221">
        <ele>48.509931</ele>
        <time>2020-08-06T09:59:32.119Z</time>
      </trkpt>
      <trkpt lat="63.3247" lon="10.22238">
        <ele>48.809873</ele>
        <time>2020-08-06T09:59:35.132Z</time>
      </trkpt>
      <trkpt lat="63.32472" lon="10.22265">
        <ele>49.098906</ele>
        <time>2020-08-06T09:59:38.130Z</time>
      </trkpt>
      <trkpt lat="63.32473" lon="10.22291">
        <ele>49.37516</ele>
        <time>2020-08-06T09:59:41.156Z</time>
      </trkpt>
      <trkpt lat="63.32474" lon="10.22317">
        <ele>49.645461</ele>
        <time>2020-08-06T09:59:44.126Z</time>
      </trkpt>
      <trkpt lat="63.32474" lon="10.22342">
        <ele>49.908966</ele>
        <time>2020-08-06T09:59:47.119Z</time>
      </trkpt>
      <trkpt lat="63.32474" lon="10.22368">
        <ele>50.17982</ele>
        <time>2020-08-06T09:59:50.137Z</time>
      </trkpt>
      <trkpt lat="63.32475" lon="10.22394">
        <ele>50.454461</ele>
        <time>2020-08-06T09:59:53.136Z</time>
      </trkpt>
      <trkpt lat="63.32476" lon="10.22421">
        <ele>50.732412</ele>
        <time>2020-08-06T09:59:56.131Z</time>
      </trkpt>
      <trkpt lat="63.32477" lon="10.22446">
        <ele>50.964137</ele>
        <time>2020-08-06T09:59:59.135Z</time>
      </trkpt>
      <trkpt lat="63.32477" lon="10.22472">
        <ele>51.164933</ele>
        <time>2020-08-06T10:00:02.133Z</time>
      </trkpt>
      <trkpt lat="63.32478" lon="10.22498">
        <ele>51.36436</ele>
        <time>2020-08-06T10:00:05.129Z</time>
      </trkpt>
      <trkpt lat="63.32479" lon="10.22524">
        <ele>51.565265</ele>
        <time>2020-08-06T10:00:08.124Z</time>
      </trkpt>
      <trkpt lat="63.32481" lon="10.2255">
        <ele>51.771938</ele>
        <time>2020-08-06T10:00:11.142Z</time>
      </trkpt>
      <trkpt lat="63.32482" lon="10.22576">
        <ele>51.976237</ele>
        <time>2020-08-06T10:00:14.128Z</time>
      </trkpt>
      <trkpt lat="63.32483" lon="10.22602">
        <ele>52.17522</ele>
        <time>2020-08-06T10:00:17.180Z</time>
      </trkpt>
      <trkpt lat="63.32484" lon="10.22627">
        <ele>52.370154</ele>
        <time>2020-08-06T10:00:20.136Z</time>
      </trkpt>
      <trkpt lat="63.32486" lon="10.22653">
        <ele>52.572212</ele>
        <time>2020-08-06T10:00:23.135Z</time>
      </trkpt>
      <trkpt lat="63.32487" lon="10.22678">
        <ele>52.768017</ele>
        <time>2020-08-06T10:00:26.160Z</time>
      </trkpt>
      <trkpt lat="63.32487" lon="10.22703">
        <ele>52.961505</ele>
        <time>2020-08-06T10:00:29.127Z</time>
      </trkpt>
      <trkpt lat="63.32488" lon="10.22727">
        <ele>53.147598</ele>
        <time>2020-08-06T10:00:32.140Z</time>
      </trkpt>
      <trkpt lat="63.32488" lon="10.22752">
        <ele>53.340531</ele>
        <time>2020-08-06T10:00:35.176Z</time>
      </trkpt>
      <trkpt lat="63.32488" lon="10.22778">
        <ele>53.542697</ele>
        <time>2020-08-06T10:00:38.124Z</time>
      </trkpt>
      <trkpt lat="63.32488" lon="10.22804">
        <ele>53.747361</ele>
        <time>2020-08-06T10:00:41.123Z</time>
      </trkpt>
      <trkpt lat="63.32488" lon="10.22831">
        <ele>53.951068</ele>
        <time>2020-08-06T10:00:44.136Z</time>
      </trkpt>
      <trkpt lat="63.32487" lon="10.22857">
        <ele>53.935936</ele>
        <time>2020-08-06T10:00:47.134Z</time>
      </trkpt>
      <trkpt lat="63.32486" lon="10.22884">
        <ele>53.915444</ele>
        <time>2020-08-06T10:00:50.159Z</time>
      </trkpt>
      <trkpt lat="63.32484" lon="10.2291">
        <ele>53.895318</ele>
        <time>2020-08-06T10:00:53.124Z</time>
      </trkpt>
      <trkpt lat="63.32482" lon="10.22937">
        <ele>53.874742</ele>
        <time>2020-08-06T10:00:56.137Z</time>
      </trkpt>
      <trkpt lat="63.32481" lon="10.22963">
        <ele>53.8543</ele>
        <time>2020-08-06T10:00:59.145Z</time>
      </trkpt>
      <trkpt lat="63.3248" lon="10.22991">
        <ele>53.832724</ele>
        <time>2020-08-06T10:01:02.115Z</time>
      </trkpt>
      <trkpt lat="63.32478" lon="10.2302">
        <ele>53.810704</ele>
        <time>2020-08-06T10:01:05.136Z</time>
      </trkpt>
      <trkpt lat="63.32477" lon="10.2305">
        <ele>53.788193</ele>
        <time>2020-08-06T10:01:08.123Z</time>
      </trkpt>
      <trkpt lat="63.32475" lon="10.2307">
        <ele>53.772656</ele>
        <time>2020-08-06T10:01:10.132Z</time>
      </trkpt>
      <trkpt lat="63.32474" lon="10.2309">
        <ele>53.75736</ele>
        <time>2020-08-06T10:01:12.131Z</time>
      </trkpt>
      <trkpt lat="63.32473" lon="10.2311">
        <ele>53.741871</ele>
        <time>2020-08-06T10:01:14.145Z</time>
      </trkpt>
      <trkpt lat="63.32471" lon="10.2313">
        <ele>53.726697</ele>
        <time>2020-08-06T10:01:16.132Z</time>
      </trkpt>
      <trkpt lat="63.32469" lon="10.2315">
        <ele>53.710956</ele>
        <time>2020-08-06T10:01:18.125Z</time>
      </trkpt>
      <trkpt lat="63.32468" lon="10.2317">
        <ele>53.695364</ele>
        <time>2020-08-06T10:01:20.138Z</time>
      </trkpt>
      <trkpt lat="63.32466" lon="10.23191">
        <ele>53.679547</ele>
        <time>2020-08-06T10:01:22.129Z</time>
      </trkpt>
      <trkpt lat="63.32465" lon="10.23211">
        <ele>53.663885</ele>
        <time>2020-08-06T10:01:24.115Z</time>
      </trkpt>
      <trkpt lat="63.32464" lon="10.23232">
        <ele>53.657525</ele>
        <time>2020-08-06T10:01:26.141Z</time>
      </trkpt>
      <trkpt lat="63.32463" lon="10.23253">
        <ele>53.696376</ele>
        <time>2020-08-06T10:01:28.153Z</time>
      </trkpt>
      <trkpt lat="63.32461" lon="10.23273">
        <ele>53.735133</ele>
        <time>2020-08-06T10:01:30.114Z</time>
      </trkpt>
      <trkpt lat="63.32459" lon="10.23294">
        <ele>53.773823</ele>
        <time>2020-08-06T10:01:32.113Z</time>
      </trkpt>
      <trkpt lat="63.32457" lon="10.23315">
        <ele>53.813316</ele>
        <time>2020-08-06T10:01:34.135Z</time>
      </trkpt>
      <trkpt lat="63.32455" lon="10.23336">
        <ele>53.853047</ele>
        <time>2020-08-06T10:01:36.136Z</time>
      </trkpt>
      <trkpt lat="63.32454" lon="10.23358">
        <ele>53.893541</ele>
        <time>2020-08-06T10:01:38.138Z</time>
      </trkpt>
      <trkpt lat="63.32452" lon="10.23379">
        <ele>53.93414</ele>
        <time>2020-08-06T10:01:40.123Z</time>
      </trkpt>
      <trkpt lat="63.3245" lon="10.23401">
        <ele>53.974778</ele>
        <time>2020-08-06T10:01:42.168Z</time>
      </trkpt>
      <trkpt lat="63.32449" lon="10.23424">
        <ele>54.016507</ele>
        <time>2020-08-06T10:01:44.119Z</time>
      </trkpt>
      <trkpt lat="63.32447" lon="10.23445">
        <ele>54.055636</ele>
        <time>2020-08-06T10:01:46.129Z</time>
      </trkpt>
      <trkpt lat="63.32446" lon="10.23466">
        <ele>54.096093</ele>
        <time>2020-08-06T10:01:48.120Z</time>
      </trkpt>
      <trkpt lat="63.32444" lon="10.23488">
        <ele>54.136981</ele>
        <time>2020-08-06T10:01:50.131Z</time>
      </trkpt>
      <trkpt lat="63.32442" lon="10.2351">
        <ele>54.177439</ele>
        <time>2020-08-06T10:01:52.140Z</time>
      </trkpt>
      <trkpt lat="63.32441" lon="10.23532">
        <ele>54.217783</ele>
        <time>2020-08-06T10:01:54.150Z</time>
      </trkpt>
      <trkpt lat="63.32439" lon="10.23553">
        <ele>54.257916</ele>
        <time>2020-08-06T10:01:56.150Z</time>
      </trkpt>
      <trkpt lat="63.32437" lon="10.23574">
        <ele>54.297411</ele>
        <time>2020-08-06T10:01:58.127Z</time>
      </trkpt>
      <trkpt lat="63.32435" lon="10.23595">
        <ele>54.336713</ele>
        <time>2020-08-06T10:02:00.143Z</time>
      </trkpt>
      <trkpt lat="63.32434" lon="10.23616">
        <ele>54.376152</ele>
        <time>2020-08-06T10:02:02.131Z</time>
      </trkpt>
      <trkpt lat="63.32432" lon="10.23637">
        <ele>54.44827</ele>
        <time>2020-08-06T10:02:04.137Z</time>
      </trkpt>
      <trkpt lat="63.32431" lon="10.23657">
        <ele>54.530305</ele>
        <time>2020-08-06T10:02:06.150Z</time>
      </trkpt>
      <trkpt lat="63.32428" lon="10.23686">
        <ele>54.648978</ele>
        <time>2020-08-06T10:02:09.133Z</time>
      </trkpt>
      <trkpt lat="63.32426" lon="10.23714">
        <ele>54.765666</ele>
        <time>2020-08-06T10:02:12.159Z</time>
      </trkpt>
      <trkpt lat="63.32424" lon="10.23735">
        <ele>54.848498</ele>
        <time>2020-08-06T10:02:14.123Z</time>
      </trkpt>
      <trkpt lat="63.32423" lon="10.23756">
        <ele>54.934274</ele>
        <time>2020-08-06T10:02:16.154Z</time>
      </trkpt>
      <trkpt lat="63.32421" lon="10.23776">
        <ele>55.018613</ele>
        <time>2020-08-06T10:02:18.124Z</time>
      </trkpt>
      <trkpt lat="63.32419" lon="10.23797">
        <ele>55.103442</ele>
        <time>2020-08-06T10:02:20.122Z</time>
      </trkpt>
      <trkpt lat="63.32418" lon="10.23818">
        <ele>55.188284</ele>
        <time>2020-08-06T10:02:22.153Z</time>
      </trkpt>
      <trkpt lat="63.32417" lon="10.23838">
        <ele>55.272725</ele>
        <time>2020-08-06T10:02:24.151Z</time>
      </trkpt>
      <trkpt lat="63.32415" lon="10.23859">
        <ele>55.357233</ele>
        <time>2020-08-06T10:02:26.142Z</time>
      </trkpt>
      <trkpt lat="63.32414" lon="10.23879">
        <ele>55.440066</ele>
        <time>2020-08-06T10:02:28.116Z</time>
      </trkpt>
      <trkpt lat="63.32411" lon="10.23909">
        <ele>55.562089</ele>
        <time>2020-08-06T10:02:31.152Z</time>
      </trkpt>
      <trkpt lat="63.3241" lon="10.23929">
        <ele>55.64478</ele>
        <time>2020-08-06T10:02:33.138Z</time>
      </trkpt>
      <trkpt lat="63.32408" lon="10.23949">
        <ele>55.727529</ele>
        <time>2020-08-06T10:02:35.139Z</time>
      </trkpt>
      <trkpt lat="63.32406" lon="10.23969">
        <ele>55.811471</ele>
        <time>2020-08-06T10:02:37.137Z</time>
      </trkpt>
      <trkpt lat="63.32405" lon="10.2399">
        <ele>55.896562</ele>
        <time>2020-08-06T10:02:39.138Z</time>
      </trkpt>
      <trkpt lat="63.32403" lon="10.2401">
        <ele>55.980455</ele>
        <time>2020-08-06T10:02:41.151Z</time>
      </trkpt>
      <trkpt lat="63.32402" lon="10.24031">
        <ele>56.034938</ele>
        <time>2020-08-06T10:02:43.143Z</time>
      </trkpt>
      <trkpt lat="63.32401" lon="10.24052">
        <ele>56.076365</ele>
        <time>2020-08-06T10:02:45.142Z</time>
      </trkpt>
      <trkpt lat="63.324" lon="10.24074">
        <ele>56.118425</ele>
        <time>2020-08-06T10:02:47.139Z</time>
      </trkpt>
      <trkpt lat="63.32398" lon="10.24096">
        <ele>56.160236</ele>
        <time>2020-08-06T10:02:49.156Z</time>
      </trkpt>
      <trkpt lat="63.32396" lon="10.24117">
        <ele>56.201363</ele>
        <time>2020-08-06T10:02:51.125Z</time>
      </trkpt>
      <trkpt lat="63.32395" lon="10.24138">
        <ele>56.243699</ele>
        <time>2020-08-06T10:02:53.129Z</time>
      </trkpt>
      <trkpt lat="63.32393" lon="10.2416">
        <ele>56.285393</ele>
        <time>2020-08-06T10:02:55.137Z</time>
      </trkpt>
      <trkpt lat="63.32391" lon="10.24181">
        <ele>56.32781</ele>
        <time>2020-08-06T10:02:57.118Z</time>
      </trkpt>
      <trkpt lat="63.3239" lon="10.24203">
        <ele>56.36905</ele>
        <time>2020-08-06T10:02:59.138Z</time>
      </trkpt>
      <trkpt lat="63.32388" lon="10.24224">
        <ele>56.41054</ele>
        <time>2020-08-06T10:03:01.134Z</time>
      </trkpt>
      <trkpt lat="63.32387" lon="10.24246">
        <ele>56.452919</ele>
        <time>2020-08-06T10:03:03.145Z</time>
      </trkpt>
      <trkpt lat="63.32385" lon="10.24268">
        <ele>56.495936</ele>
        <time>2020-08-06T10:03:05.166Z</time>
      </trkpt>
      <trkpt lat="63.32383" lon="10.2429">
        <ele>56.538084</ele>
        <time>2020-08-06T10:03:07.138Z</time>
      </trkpt>
      <trkpt lat="63.32382" lon="10.24311">
        <ele>56.579827</ele>
        <time>2020-08-06T10:03:09.133Z</time>
      </trkpt>
      <trkpt lat="63.3238" lon="10.24332">
        <ele>56.621002</ele>
        <time>2020-08-06T10:03:11.122Z</time>
      </trkpt>
      <trkpt lat="63.32379" lon="10.24354">
        <ele>56.662435</ele>
        <time>2020-08-06T10:03:13.140Z</time>
      </trkpt>
      <trkpt lat="63.32377" lon="10.24375">
        <ele>56.703166</ele>
        <time>2020-08-06T10:03:15.157Z</time>
      </trkpt>
      <trkpt lat="63.32376" lon="10.24395">
        <ele>56.743015</ele>
        <time>2020-08-06T10:03:17.116Z</time>
      </trkpt>
      <trkpt lat="63.32374" lon="10.24415">
        <ele>56.775508</ele>
        <time>2020-08-06T10:03:19.129Z</time>
      </trkpt>
      <trkpt lat="63.32372" lon="10.24445">
        <ele>56.751702</ele>
        <time>2020-08-06T10:03:22.139Z</time>
      </trkpt>
      <trkpt lat="63.3237" lon="10.24466">
        <ele>56.735268</ele>
        <time>2020-08-06T10:03:24.126Z</time>
      </trkpt>
      <trkpt lat="63.32368" lon="10.24486">
        <ele>56.718863</ele>
        <time>2020-08-06T10:03:26.121Z</time>
      </trkpt>
      <trkpt lat="63.32367" lon="10.24507">
        <ele>56.702478</ele>
        <time>2020-08-06T10:03:28.125Z</time>
      </trkpt>
      <trkpt lat="63.32365" lon="10.24528">
        <ele>56.685684</ele>
        <time>2020-08-06T10:03:30.148Z</time>
      </trkpt>
      <trkpt lat="63.32363" lon="10.24549">
        <ele>56.668928</ele>
        <time>2020-08-06T10:03:32.152Z</time>
      </trkpt>
      <trkpt lat="63.32362" lon="10.2457">
        <ele>56.652002</ele>
        <time>2020-08-06T10:03:34.143Z</time>
      </trkpt>
      <trkpt lat="63.3236" lon="10.24591">
        <ele>56.635568</ele>
        <time>2020-08-06T10:03:36.125Z</time>
      </trkpt>
      <trkpt lat="63.32359" lon="10.24612">
        <ele>56.618719</ele>
        <time>2020-08-06T10:03:38.139Z</time>
      </trkpt>
      <trkpt lat="63.32357" lon="10.24633">
        <ele>56.602208</ele>
        <time>2020-08-06T10:03:40.124Z</time>
      </trkpt>
      <trkpt lat="63.32356" lon="10.24654">
        <ele>56.58533</ele>
        <time>2020-08-06T10:03:42.133Z</time>
      </trkpt>
      <trkpt lat="63.32354" lon="10.24676">
        <ele>56.568148</ele>
        <time>2020-08-06T10:03:44.133Z</time>
      </trkpt>
      <trkpt lat="63.32353" lon="10.24698">
        <ele>56.550526</ele>
        <time>2020-08-06T10:03:46.170Z</time>
      </trkpt>
      <trkpt lat="63.32351" lon="10.24721">
        <ele>56.532659</ele>
        <time>2020-08-06T10:03:48.136Z</time>
      </trkpt>
      <trkpt lat="63.32349" lon="10.24743">
        <ele>56.515031</ele>
        <time>2020-08-06T10:03:50.141Z</time>
      </trkpt>
      <trkpt lat="63.32347" lon="10.24765">
        <ele>56.497616</ele>
        <time>2020-08-06T10:03:52.152Z</time>
      </trkpt>
      <trkpt lat="63.32346" lon="10.24786">
        <ele>56.480486</ele>
        <time>2020-08-06T10:03:54.161Z</time>
      </trkpt>
      <trkpt lat="63.32344" lon="10.24807">
        <ele>56.463584</ele>
        <time>2020-08-06T10:03:56.152Z</time>
      </trkpt>
      <trkpt lat="63.32342" lon="10.24828">
        <ele>56.48603</ele>
        <time>2020-08-06T10:03:58.119Z</time>
      </trkpt>
      <trkpt lat="63.32341" lon="10.2485">
        <ele>56.509099</ele>
        <time>2020-08-06T10:04:00.138Z</time>
      </trkpt>
      <trkpt lat="63.32339" lon="10.24871">
        <ele>56.531852</ele>
        <time>2020-08-06T10:04:02.133Z</time>
      </trkpt>
      <trkpt lat="63.32337" lon="10.24893">
        <ele>56.555929</ele>
        <time>2020-08-06T10:04:04.171Z</time>
      </trkpt>
      <trkpt lat="63.32335" lon="10.24916">
        <ele>56.580337</ele>
        <time>2020-08-06T10:04:06.130Z</time>
      </trkpt>
      <trkpt lat="63.32334" lon="10.24938">
        <ele>56.604599</ele>
        <time>2020-08-06T10:04:08.119Z</time>
      </trkpt>
      <trkpt lat="63.32332" lon="10.24961">
        <ele>56.628718</ele>
        <time>2020-08-06T10:04:10.123Z</time>
      </trkpt>
      <trkpt lat="63.3233" lon="10.24983">
        <ele>56.652561</ele>
        <time>2020-08-06T10:04:12.173Z</time>
      </trkpt>
      <trkpt lat="63.32329" lon="10.25004">
        <ele>56.67584</ele>
        <time>2020-08-06T10:04:14.133Z</time>
      </trkpt>
      <trkpt lat="63.32327" lon="10.25026">
        <ele>56.69891</ele>
        <time>2020-08-06T10:04:16.153Z</time>
      </trkpt>
      <trkpt lat="63.32326" lon="10.25047">
        <ele>56.721601</ele>
        <time>2020-08-06T10:04:18.129Z</time>
      </trkpt>
      <trkpt lat="63.32324" lon="10.25068">
        <ele>56.744187</ele>
        <time>2020-08-06T10:04:20.133Z</time>
      </trkpt>
      <trkpt lat="63.32322" lon="10.25088">
        <ele>56.765833</ele>
        <time>2020-08-06T10:04:22.157Z</time>
      </trkpt>
      <trkpt lat="63.3232" lon="10.25107">
        <ele>56.787211</ele>
        <time>2020-08-06T10:04:24.163Z</time>
      </trkpt>
      <trkpt lat="63.32318" lon="10.25136">
        <ele>56.818447</ele>
        <time>2020-08-06T10:04:27.152Z</time>
      </trkpt>
      <trkpt lat="63.32316" lon="10.25156">
        <ele>56.839666</ele>
        <time>2020-08-06T10:04:29.155Z</time>
      </trkpt>
      <trkpt lat="63.32314" lon="10.25185">
        <ele>56.870695</ele>
        <time>2020-08-06T10:04:32.116Z</time>
      </trkpt>
      <trkpt lat="63.32311" lon="10.25213">
        <ele>56.956648</ele>
        <time>2020-08-06T10:04:35.117Z</time>
      </trkpt>
      <trkpt lat="63.32309" lon="10.25241">
        <ele>57.118626</ele>
        <time>2020-08-06T10:04:38.153Z</time>
      </trkpt>
      <trkpt lat="63.32307" lon="10.2527">
        <ele>57.282291</ele>
        <time>2020-08-06T10:04:41.145Z</time>
      </trkpt>
      <trkpt lat="63.32305" lon="10.2529">
        <ele>57.397006</ele>
        <time>2020-08-06T10:04:43.124Z</time>
      </trkpt>
      <trkpt lat="63.32303" lon="10.2531">
        <ele>57.513137</ele>
        <time>2020-08-06T10:04:45.122Z</time>
      </trkpt>
      <trkpt lat="63.32302" lon="10.25329">
        <ele>57.628465</ele>
        <time>2020-08-06T10:04:47.133Z</time>
      </trkpt>
      <trkpt lat="63.323" lon="10.25349">
        <ele>57.744851</ele>
        <time>2020-08-06T10:04:49.140Z</time>
      </trkpt>
      <trkpt lat="63.32296" lon="10.25376">
        <ele>57.903405</ele>
        <time>2020-08-06T10:04:52.148Z</time>
      </trkpt>
      <trkpt lat="63.32291" lon="10.254">
        <ele>58.050392</ele>
        <time>2020-08-06T10:04:55.123Z</time>
      </trkpt>
      <trkpt lat="63.32286" lon="10.25422">
        <ele>58.19548</ele>
        <time>2020-08-06T10:04:58.140Z</time>
      </trkpt>
      <trkpt lat="63.32283" lon="10.25446">
        <ele>58.334822</ele>
        <time>2020-08-06T10:05:01.142Z</time>
      </trkpt>
      <trkpt lat="63.3228" lon="10.25473">
        <ele>58.49342</ele>
        <time>2020-08-06T10:05:04.139Z</time>
      </trkpt>
      <trkpt lat="63.32278" lon="10.25501">
        <ele>58.65862</ele>
        <time>2020-08-06T10:05:07.135Z</time>
      </trkpt>
      <trkpt lat="63.32276" lon="10.25531">
        <ele>58.828109</ele>
        <time>2020-08-06T10:05:10.133Z</time>
      </trkpt>
      <trkpt lat="63.32274" lon="10.25551">
        <ele>58.943768</ele>
        <time>2020-08-06T10:05:12.133Z</time>
      </trkpt>
      <trkpt lat="63.32271" lon="10.25579">
        <ele>59.109368</ele>
        <time>2020-08-06T10:05:15.129Z</time>
      </trkpt>
      <trkpt lat="63.32269" lon="10.25607">
        <ele>59.103121</ele>
        <time>2020-08-06T10:05:18.138Z</time>
      </trkpt>
      <trkpt lat="63.32266" lon="10.25637">
        <ele>58.990513</ele>
        <time>2020-08-06T10:05:21.178Z</time>
      </trkpt>
      <trkpt lat="63.32264" lon="10.25657">
        <ele>58.913257</ele>
        <time>2020-08-06T10:05:23.171Z</time>
      </trkpt>
      <trkpt lat="63.32262" lon="10.25677">
        <ele>58.834328</ele>
        <time>2020-08-06T10:05:25.131Z</time>
      </trkpt>
      <trkpt lat="63.3226" lon="10.25698">
        <ele>58.756312</ele>
        <time>2020-08-06T10:05:27.168Z</time>
      </trkpt>
      <trkpt lat="63.32258" lon="10.25719">
        <ele>58.675642</ele>
        <time>2020-08-06T10:05:29.148Z</time>
      </trkpt>
      <trkpt lat="63.32257" lon="10.25741">
        <ele>58.590158</ele>
        <time>2020-08-06T10:05:31.135Z</time>
      </trkpt>
      <trkpt lat="63.32255" lon="10.25764">
        <ele>58.503746</ele>
        <time>2020-08-06T10:05:33.140Z</time>
      </trkpt>
      <trkpt lat="63.32252" lon="10.25787">
        <ele>58.412389</ele>
        <time>2020-08-06T10:05:35.125Z</time>
      </trkpt>
      <trkpt lat="63.3225" lon="10.25811">
        <ele>58.321032</ele>
        <time>2020-08-06T10:05:37.156Z</time>
      </trkpt>
      <trkpt lat="63.32247" lon="10.25836">
        <ele>58.226697</ele>
        <time>2020-08-06T10:05:39.137Z</time>
      </trkpt>
      <trkpt lat="63.32245" lon="10.25861">
        <ele>58.132144</ele>
        <time>2020-08-06T10:05:41.132Z</time>
      </trkpt>
      <trkpt lat="63.32243" lon="10.25886">
        <ele>58.036381</ele>
        <time>2020-08-06T10:05:43.171Z</time>
      </trkpt>
      <trkpt lat="63.32241" lon="10.25912">
        <ele>57.937023</ele>
        <time>2020-08-06T10:05:45.132Z</time>
      </trkpt>
      <trkpt lat="63.32239" lon="10.25938">
        <ele>57.837665</ele>
        <time>2020-08-06T10:05:47.130Z</time>
      </trkpt>
      <trkpt lat="63.32237" lon="10.25964">
        <ele>57.736381</ele>
        <time>2020-08-06T10:05:49.133Z</time>
      </trkpt>
      <trkpt lat="63.32235" lon="10.25991">
        <ele>57.543576</ele>
        <time>2020-08-06T10:05:51.158Z</time>
      </trkpt>
      <trkpt lat="63.32233" lon="10.26018">
        <ele>57.151891</ele>
        <time>2020-08-06T10:05:53.119Z</time>
      </trkpt>
      <trkpt lat="63.32232" lon="10.26046">
        <ele>56.750294</ele>
        <time>2020-08-06T10:05:55.136Z</time>
      </trkpt>
      <trkpt lat="63.3223" lon="10.26074">
        <ele>56.352634</ele>
        <time>2020-08-06T10:05:57.129Z</time>
      </trkpt>
      <trkpt lat="63.32229" lon="10.261">
        <ele>55.970856</ele>
        <time>2020-08-06T10:05:59.117Z</time>
      </trkpt>
      <trkpt lat="63.32227" lon="10.26128">
        <ele>55.577331</ele>
        <time>2020-08-06T10:06:01.134Z</time>
      </trkpt>
      <trkpt lat="63.32226" lon="10.26156">
        <ele>55.178859</ele>
        <time>2020-08-06T10:06:03.134Z</time>
      </trkpt>
      <trkpt lat="63.32226" lon="10.26183">
        <ele>54.788857</ele>
        <time>2020-08-06T10:06:05.139Z</time>
      </trkpt>
      <trkpt lat="63.32225" lon="10.26211">
        <ele>54.384734</ele>
        <time>2020-08-06T10:06:07.120Z</time>
      </trkpt>
      <trkpt lat="63.32226" lon="10.26239">
        <ele>53.980611</ele>
        <time>2020-08-06T10:06:09.154Z</time>
      </trkpt>
      <trkpt lat="63.32226" lon="10.26269">
        <ele>53.563494</ele>
        <time>2020-08-06T10:06:11.159Z</time>
      </trkpt>
      <trkpt lat="63.32226" lon="10.263">
        <ele>53.112303</ele>
        <time>2020-08-06T10:06:13.135Z</time>
      </trkpt>
      <trkpt lat="63.32227" lon="10.26334">
        <ele>52.62651</ele>
        <time>2020-08-06T10:06:15.140Z</time>
      </trkpt>
      <trkpt lat="63.3223" lon="10.26373">
        <ele>52.065406</ele>
        <time>2020-08-06T10:06:17.137Z</time>
      </trkpt>
      <trkpt lat="63.32232" lon="10.26393">
        <ele>51.8874</ele>
        <time>2020-08-06T10:06:18.132Z</time>
      </trkpt>
      <trkpt lat="63.32234" lon="10.26414">
        <ele>51.787347</ele>
        <time>2020-08-06T10:06:19.158Z</time>
      </trkpt>
      <trkpt lat="63.32236" lon="10.26436">
        <ele>51.682712</ele>
        <time>2020-08-06T10:06:20.163Z</time>
      </trkpt>
      <trkpt lat="63.32238" lon="10.26458">
        <ele>51.57555</ele>
        <time>2020-08-06T10:06:21.127Z</time>
      </trkpt>
      <trkpt lat="63.32241" lon="10.26481">
        <ele>51.466319</ele>
        <time>2020-08-06T10:06:22.167Z</time>
      </trkpt>
      <trkpt lat="63.32243" lon="10.26504">
        <ele>51.356148</ele>
        <time>2020-08-06T10:06:23.143Z</time>
      </trkpt>
      <trkpt lat="63.32244" lon="10.26526">
        <ele>51.247956</ele>
        <time>2020-08-06T10:06:24.153Z</time>
      </trkpt>
      <trkpt lat="63.32246" lon="10.26549">
        <ele>51.140217</ele>
        <time>2020-08-06T10:06:25.117Z</time>
      </trkpt>
      <trkpt lat="63.32247" lon="10.26571">
        <ele>51.036456</ele>
        <time>2020-08-06T10:06:26.129Z</time>
      </trkpt>
      <trkpt lat="63.32248" lon="10.26592">
        <ele>50.935142</ele>
        <time>2020-08-06T10:06:27.155Z</time>
      </trkpt>
      <trkpt lat="63.32248" lon="10.26613">
        <ele>50.839174</ele>
        <time>2020-08-06T10:06:28.159Z</time>
      </trkpt>
      <trkpt lat="63.32249" lon="10.26649">
        <ele>50.667277</ele>
        <time>2020-08-06T10:06:30.125Z</time>
      </trkpt>
      <trkpt lat="63.3225" lon="10.26678">
        <ele>50.530323</ele>
        <time>2020-08-06T10:06:32.122Z</time>
      </trkpt>
      <trkpt lat="63.32251" lon="10.26702">
        <ele>50.418016</ele>
        <time>2020-08-06T10:06:34.140Z</time>
      </trkpt>
      <trkpt lat="63.32251" lon="10.2673">
        <ele>50.285459</ele>
        <time>2020-08-06T10:06:37.133Z</time>
      </trkpt>
      <trkpt lat="63.32252" lon="10.26754">
        <ele>50.170438</ele>
        <time>2020-08-06T10:06:40.129Z</time>
      </trkpt>
      <trkpt lat="63.32255" lon="10.26779">
        <ele>50.082434</ele>
        <time>2020-08-06T10:06:43.137Z</time>
      </trkpt>
      <trkpt lat="63.32258" lon="10.26808">
        <ele>50.414284</ele>
        <time>2020-08-06T10:06:46.155Z</time>
      </trkpt>
      <trkpt lat="63.32261" lon="10.26827">
        <ele>50.637587</ele>
        <time>2020-08-06T10:06:48.158Z</time>
      </trkpt>
      <trkpt lat="63.32266" lon="10.26855">
        <ele>50.971627</ele>
        <time>2020-08-06T10:06:51.152Z</time>
      </trkpt>
      <trkpt lat="63.3227" lon="10.26883">
        <ele>51.308119</ele>
        <time>2020-08-06T10:06:54.149Z</time>
      </trkpt>
      <trkpt lat="63.32275" lon="10.26911">
        <ele>51.637671</ele>
        <time>2020-08-06T10:06:57.138Z</time>
      </trkpt>
      <trkpt lat="63.3228" lon="10.26937">
        <ele>51.957959</ele>
        <time>2020-08-06T10:07:00.134Z</time>
      </trkpt>
      <trkpt lat="63.32284" lon="10.26964">
        <ele>52.280356</ele>
        <time>2020-08-06T10:07:03.157Z</time>
      </trkpt>
      <trkpt lat="63.32287" lon="10.26984">
        <ele>52.508469</ele>
        <time>2020-08-06T10:07:05.136Z</time>
      </trkpt>
      <trkpt lat="63.32292" lon="10.2701">
        <ele>52.827154</ele>
        <time>2020-08-06T10:07:08.123Z</time>
      </trkpt>
      <trkpt lat="63.32296" lon="10.27038">
        <ele>53.153153</ele>
        <time>2020-08-06T10:07:11.130Z</time>
      </trkpt>
      <trkpt lat="63.323" lon="10.27065">
        <ele>53.477397</ele>
        <time>2020-08-06T10:07:14.144Z</time>
      </trkpt>
      <trkpt lat="63.32304" lon="10.27093">
        <ele>53.800187</ele>
        <time>2020-08-06T10:07:17.134Z</time>
      </trkpt>
      <trkpt lat="63.32308" lon="10.27119">
        <ele>54.111009</ele>
        <time>2020-08-06T10:07:20.136Z</time>
      </trkpt>
      <trkpt lat="63.32314" lon="10.27146">
        <ele>54.439521</ele>
        <time>2020-08-06T10:07:23.146Z</time>
      </trkpt>
      <trkpt lat="63.32319" lon="10.27171">
        <ele>54.549554</ele>
        <time>2020-08-06T10:07:26.153Z</time>
      </trkpt>
      <trkpt lat="63.32325" lon="10.27196">
        <ele>54.566775</ele>
        <time>2020-08-06T10:07:29.119Z</time>
      </trkpt>
      <trkpt lat="63.3233" lon="10.27221">
        <ele>54.583712</ele>
        <time>2020-08-06T10:07:32.130Z</time>
      </trkpt>
      <trkpt lat="63.32335" lon="10.27246">
        <ele>54.600425</ele>
        <time>2020-08-06T10:07:35.120Z</time>
      </trkpt>
      <trkpt lat="63.3234" lon="10.27272">
        <ele>54.617272</ele>
        <time>2020-08-06T10:07:38.143Z</time>
      </trkpt>
      <trkpt lat="63.32344" lon="10.27298">
        <ele>54.63432</ele>
        <time>2020-08-06T10:07:41.117Z</time>
      </trkpt>
      <trkpt lat="63.32349" lon="10.27322">
        <ele>54.650747</ele>
        <time>2020-08-06T10:07:44.141Z</time>
      </trkpt>
      <trkpt lat="63.32354" lon="10.27347">
        <ele>54.667399</ele>
        <time>2020-08-06T10:07:47.137Z</time>
      </trkpt>
      <trkpt lat="63.32359" lon="10.27373">
        <ele>54.68472</ele>
        <time>2020-08-06T10:07:50.186Z</time>
      </trkpt>
      <trkpt lat="63.32365" lon="10.27399">
        <ele>54.702611</ele>
        <time>2020-08-06T10:07:53.182Z</time>
      </trkpt>
      <trkpt lat="63.3237" lon="10.27426">
        <ele>54.720184</ele>
        <time>2020-08-06T10:07:56.140Z</time>
      </trkpt>
      <trkpt lat="63.32375" lon="10.27451">
        <ele>54.736891</ele>
        <time>2020-08-06T10:07:59.124Z</time>
      </trkpt>
      <trkpt lat="63.3238" lon="10.27475">
        <ele>54.753668</ele>
        <time>2020-08-06T10:08:02.132Z</time>
      </trkpt>
      <trkpt lat="63.32385" lon="10.275">
        <ele>54.770374</ele>
        <time>2020-08-06T10:08:05.139Z</time>
      </trkpt>
      <trkpt lat="63.3239" lon="10.27524">
        <ele>54.823378</ele>
        <time>2020-08-06T10:08:08.149Z</time>
      </trkpt>
      <trkpt lat="63.32395" lon="10.27547">
        <ele>54.984557</ele>
        <time>2020-08-06T10:08:11.183Z</time>
      </trkpt>
      <trkpt lat="63.32399" lon="10.27569">
        <ele>55.143959</ele>
        <time>2020-08-06T10:08:14.138Z</time>
      </trkpt>
      <trkpt lat="63.32404" lon="10.27591">
        <ele>55.300344</ele>
        <time>2020-08-06T10:08:17.142Z</time>
      </trkpt>
      <trkpt lat="63.32408" lon="10.27612">
        <ele>55.454993</ele>
        <time>2020-08-06T10:08:20.124Z</time>
      </trkpt>
      <trkpt lat="63.32413" lon="10.27631">
        <ele>55.596817</ele>
        <time>2020-08-06T10:08:23.160Z</time>
      </trkpt>
      <trkpt lat="63.32419" lon="10.27647">
        <ele>55.736277</ele>
        <time>2020-08-06T10:08:26.121Z</time>
      </trkpt>
      <trkpt lat="63.32428" lon="10.27661">
        <ele>55.890931</ele>
        <time>2020-08-06T10:08:30.160Z</time>
      </trkpt>
      <trkpt lat="63.32429" lon="10.2769">
        <ele>56.084579</ele>
        <time>2020-08-06T10:14:41.131Z</time>
      </trkpt>
      <trkpt lat="63.32428" lon="10.27712">
        <ele>56.225503</ele>
        <time>2020-08-06T10:14:45.127Z</time>
      </trkpt>
      <trkpt lat="63.32428" lon="10.27737">
        <ele>56.391018</ele>
        <time>2020-08-06T10:14:49.152Z</time>
      </trkpt>
      <trkpt lat="63.32429" lon="10.27759">
        <ele>56.535983</ele>
        <time>2020-08-06T10:14:52.145Z</time>
      </trkpt>
      <trkpt lat="63.3243" lon="10.27781">
        <ele>56.680234</ele>
        <time>2020-08-06T10:14:55.190Z</time>
      </trkpt>
      <trkpt lat="63.32432" lon="10.27804">
        <ele>56.832538</ele>
        <time>2020-08-06T10:14:58.183Z</time>
      </trkpt>
      <trkpt lat="63.32434" lon="10.27827">
        <ele>56.98576</ele>
        <time>2020-08-06T10:15:01.145Z</time>
      </trkpt>
      <trkpt lat="63.32436" lon="10.2785">
        <ele>57.142853</ele>
        <time>2020-08-06T10:15:04.127Z</time>
      </trkpt>
      <trkpt lat="63.32438" lon="10.27875">
        <ele>57.306107</ele>
        <time>2020-08-06T10:15:07.129Z</time>
      </trkpt>
      <trkpt lat="63.3244" lon="10.27897">
        <ele>57.403586</ele>
        <time>2020-08-06T10:15:10.138Z</time>
      </trkpt>
      <trkpt lat="63.32441" lon="10.2792">
        <ele>57.368209</ele>
        <time>2020-08-06T10:15:13.118Z</time>
      </trkpt>
      <trkpt lat="63.32442" lon="10.27942">
        <ele>57.333618</ele>
        <time>2020-08-06T10:15:16.183Z</time>
      </trkpt>
      <trkpt lat="63.32441" lon="10.27964">
        <ele>57.300117</ele>
        <time>2020-08-06T10:15:19.123Z</time>
      </trkpt>
      <trkpt lat="63.32442" lon="10.27988">
        <ele>57.261521</ele>
        <time>2020-08-06T10:15:22.139Z</time>
      </trkpt>
      <trkpt lat="63.32443" lon="10.28015">
        <ele>57.219884</ele>
        <time>2020-08-06T10:15:25.145Z</time>
      </trkpt>
      <trkpt lat="63.32444" lon="10.28041">
        <ele>57.179493</ele>
        <time>2020-08-06T10:15:28.140Z</time>
      </trkpt>
      <trkpt lat="63.32445" lon="10.28066">
        <ele>57.140121</ele>
        <time>2020-08-06T10:15:31.124Z</time>
      </trkpt>
      <trkpt lat="63.32445" lon="10.28089">
        <ele>57.103791</ele>
        <time>2020-08-06T10:15:34.132Z</time>
      </trkpt>
      <trkpt lat="63.32446" lon="10.28113">
        <ele>57.066407</ele>
        <time>2020-08-06T10:15:37.134Z</time>
      </trkpt>
      <trkpt lat="63.32447" lon="10.28138">
        <ele>57.026929</ele>
        <time>2020-08-06T10:15:40.156Z</time>
      </trkpt>
      <trkpt lat="63.32448" lon="10.28162">
        <ele>56.990041</ele>
        <time>2020-08-06T10:15:43.123Z</time>
      </trkpt>
      <trkpt lat="63.32449" lon="10.28186">
        <ele>56.952778</ele>
        <time>2020-08-06T10:15:46.159Z</time>
      </trkpt>
      <trkpt lat="63.32451" lon="10.28212">
        <ele>56.912415</ele>
        <time>2020-08-06T10:15:49.122Z</time>
      </trkpt>
      <trkpt lat="63.32451" lon="10.28238">
        <ele>56.870894</ele>
        <time>2020-08-06T10:15:52.141Z</time>
      </trkpt>
      <trkpt lat="63.32452" lon="10.28266">
        <ele>56.828151</ele>
        <time>2020-08-06T10:15:55.159Z</time>
      </trkpt>
      <trkpt lat="63.32453" lon="10.28292">
        <ele>56.804907</ele>
        <time>2020-08-06T10:15:58.180Z</time>
      </trkpt>
      <trkpt lat="63.32454" lon="10.28317">
        <ele>56.995489</ele>
        <time>2020-08-06T10:16:01.155Z</time>
      </trkpt>
      <trkpt lat="63.32455" lon="10.28343">
        <ele>57.192276</ele>
        <time>2020-08-06T10:16:04.188Z</time>
      </trkpt>
      <trkpt lat="63.32456" lon="10.28368">
        <ele>57.382903</ele>
        <time>2020-08-06T10:16:07.112Z</time>
      </trkpt>
      <trkpt lat="63.32456" lon="10.28394">
        <ele>57.581959</ele>
        <time>2020-08-06T10:16:10.131Z</time>
      </trkpt>
      <trkpt lat="63.32457" lon="10.28419">
        <ele>57.771648</ele>
        <time>2020-08-06T10:16:13.154Z</time>
      </trkpt>
      <trkpt lat="63.32458" lon="10.28443">
        <ele>57.956955</ele>
        <time>2020-08-06T10:16:16.142Z</time>
      </trkpt>
      <trkpt lat="63.32459" lon="10.28466">
        <ele>58.132866</ele>
        <time>2020-08-06T10:16:19.120Z</time>
      </trkpt>
      <trkpt lat="63.3246" lon="10.28488">
        <ele>58.298972</ele>
        <time>2020-08-06T10:16:22.147Z</time>
      </trkpt>
      <trkpt lat="63.32461" lon="10.28509">
        <ele>58.455858</ele>
        <time>2020-08-06T10:16:25.143Z</time>
      </trkpt>
      <trkpt lat="63.32461" lon="10.2853">
        <ele>58.617455</ele>
        <time>2020-08-06T10:16:28.143Z</time>
      </trkpt>
      <trkpt lat="63.32462" lon="10.28551">
        <ele>58.774187</ele>
        <time>2020-08-06T10:16:31.183Z</time>
      </trkpt>
      <trkpt lat="63.32463" lon="10.28571">
        <ele>58.927898</ele>
        <time>2020-08-06T10:16:34.127Z</time>
      </trkpt>
      <trkpt lat="63.32464" lon="10.28592">
        <ele>59.086333</ele>
        <time>2020-08-06T10:16:37.147Z</time>
      </trkpt>
      <trkpt lat="63.32466" lon="10.28612">
        <ele>59.239765</ele>
        <time>2020-08-06T10:16:40.128Z</time>
      </trkpt>
      <trkpt lat="63.32467" lon="10.28632">
        <ele>59.397975</ele>
        <time>2020-08-06T10:16:43.121Z</time>
      </trkpt>
      <trkpt lat="63.32468" lon="10.28653">
        <ele>59.557482</ele>
        <time>2020-08-06T10:16:46.139Z</time>
      </trkpt>
      <trkpt lat="63.32469" lon="10.28674">
        <ele>59.718141</ele>
        <time>2020-08-06T10:16:49.141Z</time>
      </trkpt>
      <trkpt lat="63.3247" lon="10.28695">
        <ele>59.893592</ele>
        <time>2020-08-06T10:16:52.137Z</time>
      </trkpt>
      <trkpt lat="63.3247" lon="10.28716">
        <ele>60.125886</ele>
        <time>2020-08-06T10:16:55.138Z</time>
      </trkpt>
      <trkpt lat="63.32471" lon="10.28738">
        <ele>60.355274</ele>
        <time>2020-08-06T10:16:58.152Z</time>
      </trkpt>
      <trkpt lat="63.32471" lon="10.28759">
        <ele>60.583098</ele>
        <time>2020-08-06T10:17:01.135Z</time>
      </trkpt>
      <trkpt lat="63.32472" lon="10.28781">
        <ele>60.814802</ele>
        <time>2020-08-06T10:17:04.121Z</time>
      </trkpt>
      <trkpt lat="63.32473" lon="10.28801">
        <ele>61.028399</ele>
        <time>2020-08-06T10:17:07.135Z</time>
      </trkpt>
      <trkpt lat="63.32473" lon="10.28827">
        <ele>61.312782</ele>
        <time>2020-08-06T10:17:11.151Z</time>
      </trkpt>
      <trkpt lat="63.32473" lon="10.28849">
        <ele>61.540507</ele>
        <time>2020-08-06T10:17:14.137Z</time>
      </trkpt>
      <trkpt lat="63.32472" lon="10.28869">
        <ele>61.763993</ele>
        <time>2020-08-06T10:17:17.182Z</time>
      </trkpt>
      <trkpt lat="63.32471" lon="10.2889">
        <ele>61.985506</ele>
        <time>2020-08-06T10:17:20.126Z</time>
      </trkpt>
      <trkpt lat="63.3247" lon="10.28912">
        <ele>62.216587</ele>
        <time>2020-08-06T10:17:23.127Z</time>
      </trkpt>
      <trkpt lat="63.32469" lon="10.28932">
        <ele>62.435482</ele>
        <time>2020-08-06T10:17:26.135Z</time>
      </trkpt>
      <trkpt lat="63.32468" lon="10.28958">
        <ele>62.718158</ele>
        <time>2020-08-06T10:17:30.149Z</time>
      </trkpt>
      <trkpt lat="63.32465" lon="10.28984">
        <ele>63.000331</ele>
        <time>2020-08-06T10:17:34.176Z</time>
      </trkpt>
      <trkpt lat="63.32463" lon="10.29009">
        <ele>63.278846</ele>
        <time>2020-08-06T10:17:38.160Z</time>
      </trkpt>
      <trkpt lat="63.3246" lon="10.29035">
        <ele>63.558403</ele>
        <time>2020-08-06T10:17:42.122Z</time>
      </trkpt>
      <trkpt lat="63.32457" lon="10.29055">
        <ele>63.783593</ele>
        <time>2020-08-06T10:17:45.130Z</time>
      </trkpt>
      <trkpt lat="63.32454" lon="10.29075">
        <ele>64.014615</ele>
        <time>2020-08-06T10:17:48.126Z</time>
      </trkpt>
      <trkpt lat="63.32451" lon="10.291">
        <ele>64.400931</ele>
        <time>2020-08-06T10:17:52.167Z</time>
      </trkpt>
      <trkpt lat="63.32447" lon="10.29124">
        <ele>64.828552</ele>
        <time>2020-08-06T10:17:56.148Z</time>
      </trkpt>
      <trkpt lat="63.32443" lon="10.29146">
        <ele>65.243152</ele>
        <time>2020-08-06T10:18:00.137Z</time>
      </trkpt>
      <trkpt lat="63.32439" lon="10.29169">
        <ele>65.665296</ele>
        <time>2020-08-06T10:18:04.135Z</time>
      </trkpt>
      <trkpt lat="63.32435" lon="10.29192">
        <ele>66.090361</ele>
        <time>2020-08-06T10:18:08.135Z</time>
      </trkpt>
      <trkpt lat="63.32432" lon="10.29215">
        <ele>66.502607</ele>
        <time>2020-08-06T10:18:12.124Z</time>
      </trkpt>
      <trkpt lat="63.32428" lon="10.29238">
        <ele>66.922561</ele>
        <time>2020-08-06T10:18:16.131Z</time>
      </trkpt>
      <trkpt lat="63.32425" lon="10.29261">
        <ele>67.337713</ele>
        <time>2020-08-06T10:18:20.157Z</time>
      </trkpt>
      <trkpt lat="63.32422" lon="10.29284">
        <ele>67.755455</ele>
        <time>2020-08-06T10:18:24.121Z</time>
      </trkpt>
      <trkpt lat="63.32419" lon="10.29307">
        <ele>68.174942</ele>
        <time>2020-08-06T10:18:28.123Z</time>
      </trkpt>
      <trkpt lat="63.32417" lon="10.29332">
        <ele>68.610055</ele>
        <time>2020-08-06T10:18:32.121Z</time>
      </trkpt>
      <trkpt lat="63.32414" lon="10.29355">
        <ele>69.023554</ele>
        <time>2020-08-06T10:18:36.115Z</time>
      </trkpt>
      <trkpt lat="63.32412" lon="10.29378">
        <ele>69.415738</ele>
        <time>2020-08-06T10:18:40.140Z</time>
      </trkpt>
      <trkpt lat="63.3241" lon="10.29399">
        <ele>69.790241</ele>
        <time>2020-08-06T10:18:44.175Z</time>
      </trkpt>
      <trkpt lat="63.3241" lon="10.29423">
        <ele>70.19661</ele>
        <time>2020-08-06T10:18:48.127Z</time>
      </trkpt>
      <trkpt lat="63.32411" lon="10.29444">
        <ele>70.568276</ele>
        <time>2020-08-06T10:18:52.130Z</time>
      </trkpt>
      <trkpt lat="63.32413" lon="10.29466">
        <ele>70.952041</ele>
        <time>2020-08-06T10:18:56.121Z</time>
      </trkpt>
      <trkpt lat="63.32415" lon="10.29486">
        <ele>71.083039</ele>
        <time>2020-08-06T10:19:00.125Z</time>
      </trkpt>
      <trkpt lat="63.32418" lon="10.29508">
        <ele>71.187752</ele>
        <time>2020-08-06T10:19:04.135Z</time>
      </trkpt>
      <trkpt lat="63.32421" lon="10.29528">
        <ele>71.286454</ele>
        <time>2020-08-06T10:19:08.147Z</time>
      </trkpt>
      <trkpt lat="63.32424" lon="10.29548">
        <ele>71.382593</ele>
        <time>2020-08-06T10:19:12.162Z</time>
      </trkpt>
      <trkpt lat="63.32422" lon="10.2957">
        <ele>71.482899</ele>
        <time>2020-08-06T10:19:17.119Z</time>
      </trkpt>
      <trkpt lat="63.32413" lon="10.2957">
        <ele>71.574709</ele>
        <time>2020-08-06T10:19:22.135Z</time>
      </trkpt>
      <trkpt lat="63.32404" lon="10.29566">
        <ele>71.666282</ele>
        <time>2020-08-06T10:19:28.173Z</time>
      </trkpt>
      <trkpt lat="63.32395" lon="10.29567">
        <ele>71.758135</ele>
        <time>2020-08-06T10:19:33.135Z</time>
      </trkpt>
      <trkpt lat="63.32384" lon="10.29564">
        <ele>71.870082</ele>
        <time>2020-08-06T10:19:39.163Z</time>
      </trkpt>
      <trkpt lat="63.32375" lon="10.29561">
        <ele>71.966618</ele>
        <time>2020-08-06T10:19:43.142Z</time>
      </trkpt>
      <trkpt lat="63.32364" lon="10.29567">
        <ele>72.08095</ele>
        <time>2020-08-06T10:19:48.139Z</time>
      </trkpt>
      <trkpt lat="63.32365" lon="10.29591">
        <ele>72.187145</ele>
        <time>2020-08-06T10:19:52.136Z</time>
      </trkpt>
      <trkpt lat="63.32369" lon="10.29611">
        <ele>72.285094</ele>
        <time>2020-08-06T10:19:55.131Z</time>
      </trkpt>
      <trkpt lat="63.32368" lon="10.29633">
        <ele>72.38702</ele>
        <time>2020-08-06T10:19:58.177Z</time>
      </trkpt>
      <trkpt lat="63.32368" lon="10.29655">
        <ele>72.486887</ele>
        <time>2020-08-06T10:20:01.184Z</time>
      </trkpt>
      <trkpt lat="63.32368" lon="10.29677">
        <ele>72.585151</ele>
        <time>2020-08-06T10:20:04.132Z</time>
      </trkpt>
      <trkpt lat="63.32367" lon="10.29698">
        <ele>72.680374</ele>
        <time>2020-08-06T10:20:07.129Z</time>
      </trkpt>
      <trkpt lat="63.32366" lon="10.29718">
        <ele>72.774267</ele>
        <time>2020-08-06T10:20:10.135Z</time>
      </trkpt>
      <trkpt lat="63.32364" lon="10.29739">
        <ele>72.744522</ele>
        <time>2020-08-06T10:20:13.120Z</time>
      </trkpt>
      <trkpt lat="63.32363" lon="10.29761">
        <ele>72.594097</ele>
        <time>2020-08-06T10:20:16.123Z</time>
      </trkpt>
      <trkpt lat="63.32361" lon="10.29784">
        <ele>72.435104</ele>
        <time>2020-08-06T10:20:19.132Z</time>
      </trkpt>
      <trkpt lat="63.32359" lon="10.29805">
        <ele>72.28521</ele>
        <time>2020-08-06T10:20:22.119Z</time>
      </trkpt>
      <trkpt lat="63.32358" lon="10.29826">
        <ele>72.136353</ele>
        <time>2020-08-06T10:20:25.146Z</time>
      </trkpt>
      <trkpt lat="63.32356" lon="10.29847">
        <ele>71.991219</ele>
        <time>2020-08-06T10:20:28.129Z</time>
      </trkpt>
      <trkpt lat="63.32353" lon="10.29869">
        <ele>71.835529</ele>
        <time>2020-08-06T10:20:31.147Z</time>
      </trkpt>
      <trkpt lat="63.32351" lon="10.2989">
        <ele>71.68328</ele>
        <time>2020-08-06T10:20:34.167Z</time>
      </trkpt>
      <trkpt lat="63.32348" lon="10.29915">
        <ele>71.503997</ele>
        <time>2020-08-06T10:20:38.126Z</time>
      </trkpt>
      <trkpt lat="63.32344" lon="10.29941">
        <ele>71.314876</ele>
        <time>2020-08-06T10:20:42.119Z</time>
      </trkpt>
      <trkpt lat="63.32342" lon="10.29967">
        <ele>71.135645</ele>
        <time>2020-08-06T10:20:45.127Z</time>
      </trkpt>
      <trkpt lat="63.3234" lon="10.29987">
        <ele>70.991837</ele>
        <time>2020-08-06T10:20:47.124Z</time>
      </trkpt>
      <trkpt lat="63.32337" lon="10.30011">
        <ele>70.823865</ele>
        <time>2020-08-06T10:20:49.132Z</time>
      </trkpt>
      <trkpt lat="63.32333" lon="10.30035">
        <ele>70.6406</ele>
        <time>2020-08-06T10:20:51.166Z</time>
      </trkpt>
      <trkpt lat="63.32327" lon="10.3006">
        <ele>70.450747</ele>
        <time>2020-08-06T10:20:53.134Z</time>
      </trkpt>
      <trkpt lat="63.32319" lon="10.30081">
        <ele>70.257545</ele>
        <time>2020-08-06T10:20:55.139Z</time>
      </trkpt>
      <trkpt lat="63.3231" lon="10.30099">
        <ele>70.06791</ele>
        <time>2020-08-06T10:20:57.159Z</time>
      </trkpt>
      <trkpt lat="63.32301" lon="10.30119">
        <ele>69.975639</ele>
        <time>2020-08-06T10:20:59.146Z</time>
      </trkpt>
      <trkpt lat="63.32295" lon="10.30142">
        <ele>69.890539</ele>
        <time>2020-08-06T10:21:01.127Z</time>
      </trkpt>
      <trkpt lat="63.3229" lon="10.30164">
        <ele>69.81265</ele>
        <time>2020-08-06T10:21:03.148Z</time>
      </trkpt>
      <trkpt lat="63.32291" lon="10.30186">
        <ele>69.744464</ele>
        <time>2020-08-06T10:21:05.136Z</time>
      </trkpt>
      <trkpt lat="63.32303" lon="10.30208">
        <ele>69.637285</ele>
        <time>2020-08-06T10:21:08.176Z</time>
      </trkpt>
      <trkpt lat="63.3231" lon="10.30223">
        <ele>69.569089</ele>
        <time>2020-08-06T10:21:10.129Z</time>
      </trkpt>
      <trkpt lat="63.3232" lon="10.30221">
        <ele>69.495957</ele>
        <time>2020-08-06T10:21:14.119Z</time>
      </trkpt>
      <trkpt lat="63.32326" lon="10.30239">
        <ele>69.425428</ele>
        <time>2020-08-06T10:21:16.133Z</time>
      </trkpt>
      <trkpt lat="63.32331" lon="10.30256">
        <ele>69.361965</ele>
        <time>2020-08-06T10:21:18.117Z</time>
      </trkpt>
      <trkpt lat="63.32338" lon="10.30277">
        <ele>69.282539</ele>
        <time>2020-08-06T10:21:21.140Z</time>
      </trkpt>
      <trkpt lat="63.32342" lon="10.30295">
        <ele>69.215808</ele>
        <time>2020-08-06T10:21:24.144Z</time>
      </trkpt>
      <trkpt lat="63.32347" lon="10.30314">
        <ele>69.145026</ele>
        <time>2020-08-06T10:21:28.116Z</time>
      </trkpt>
      <trkpt lat="63.32351" lon="10.30333">
        <ele>69.080971</ele>
        <time>2020-08-06T10:21:33.130Z</time>
      </trkpt>
      <trkpt lat="63.32357" lon="10.3035">
        <ele>69.012644</ele>
        <time>2020-08-06T10:21:38.137Z</time>
      </trkpt>
      <trkpt lat="63.32361" lon="10.30369">
        <ele>68.946119</ele>
        <time>2020-08-06T10:21:43.134Z</time>
      </trkpt>
      <trkpt lat="63.32367" lon="10.30387">
        <ele>68.879256</ele>
        <time>2020-08-06T10:21:48.125Z</time>
      </trkpt>
      <trkpt lat="63.32372" lon="10.30403">
        <ele>68.814865</ele>
        <time>2020-08-06T10:21:52.174Z</time>
      </trkpt>
      <trkpt lat="63.32377" lon="10.30422">
        <ele>69.005314</ele>
        <time>2020-08-06T10:21:56.156Z</time>
      </trkpt>
      <trkpt lat="63.32383" lon="10.30442">
        <ele>69.344597</ele>
        <time>2020-08-06T10:22:00.127Z</time>
      </trkpt>
      <trkpt lat="63.32387" lon="10.3046">
        <ele>69.628819</ele>
        <time>2020-08-06T10:22:03.144Z</time>
      </trkpt>
      <trkpt lat="63.3239" lon="10.3048">
        <ele>69.933972</ele>
        <time>2020-08-06T10:22:06.143Z</time>
      </trkpt>
      <trkpt lat="63.32393" lon="10.30501">
        <ele>70.244705</ele>
        <time>2020-08-06T10:22:09.123Z</time>
      </trkpt>
      <trkpt lat="63.32397" lon="10.30522">
        <ele>70.56161</ele>
        <time>2020-08-06T10:22:12.135Z</time>
      </trkpt>
      <trkpt lat="63.32402" lon="10.30541">
        <ele>70.882282</ele>
        <time>2020-08-06T10:22:15.134Z</time>
      </trkpt>
      <trkpt lat="63.32409" lon="10.30559">
        <ele>71.222881</ele>
        <time>2020-08-06T10:22:18.130Z</time>
      </trkpt>
      <trkpt lat="63.32416" lon="10.30578">
        <ele>71.566762</ele>
        <time>2020-08-06T10:22:21.132Z</time>
      </trkpt>
      <trkpt lat="63.32423" lon="10.30597">
        <ele>71.921966</ele>
        <time>2020-08-06T10:22:24.131Z</time>
      </trkpt>
      <trkpt lat="63.32431" lon="10.30617">
        <ele>72.289065</ele>
        <time>2020-08-06T10:22:27.122Z</time>
      </trkpt>
      <trkpt lat="63.32439" lon="10.30635">
        <ele>72.659247</ele>
        <time>2020-08-06T10:22:30.141Z</time>
      </trkpt>
      <trkpt lat="63.32447" lon="10.30653">
        <ele>73.013074</ele>
        <time>2020-08-06T10:22:33.136Z</time>
      </trkpt>
      <trkpt lat="63.32455" lon="10.30668">
        <ele>73.361593</ele>
        <time>2020-08-06T10:22:36.132Z</time>
      </trkpt>
      <trkpt lat="63.32462" lon="10.30683">
        <ele>73.647447</ele>
        <time>2020-08-06T10:22:40.127Z</time>
      </trkpt>
      <trkpt lat="63.32459" lon="10.30706">
        <ele>73.987931</ele>
        <time>2020-08-06T10:22:46.157Z</time>
      </trkpt>
      <trkpt lat="63.3246" lon="10.30727">
        <ele>74.282616</ele>
        <time>2020-08-06T10:22:49.153Z</time>
      </trkpt>
      <trkpt lat="63.32465" lon="10.3075">
        <ele>74.58337</ele>
        <time>2020-08-06T10:22:53.152Z</time>
      </trkpt>
      <trkpt lat="63.32468" lon="10.30775">
        <ele>74.811406</ele>
        <time>2020-08-06T10:22:57.151Z</time>
      </trkpt>
      <trkpt lat="63.32468" lon="10.30802">
        <ele>75.042424</ele>
        <time>2020-08-06T10:23:01.126Z</time>
      </trkpt>
      <trkpt lat="63.32468" lon="10.30827">
        <ele>75.259695</ele>
        <time>2020-08-06T10:23:05.177Z</time>
      </trkpt>
      <trkpt lat="63.32468" lon="10.30853">
        <ele>75.484681</ele>
        <time>2020-08-06T10:23:09.143Z</time>
      </trkpt>
      <trkpt lat="63.32468" lon="10.30875">
        <ele>75.671095</ele>
        <time>2020-08-06T10:23:12.132Z</time>
      </trkpt>
      <trkpt lat="63.32469" lon="10.30896">
        <ele>75.85173</ele>
        <time>2020-08-06T10:23:15.139Z</time>
      </trkpt>
      <trkpt lat="63.32469" lon="10.30917">
        <ele>76.032818</ele>
        <time>2020-08-06T10:23:18.145Z</time>
      </trkpt>
      <trkpt lat="63.3247" lon="10.30938">
        <ele>76.21644</ele>
        <time>2020-08-06T10:23:21.167Z</time>
      </trkpt>
      <trkpt lat="63.3247" lon="10.30959">
        <ele>76.393793</ele>
        <time>2020-08-06T10:23:24.151Z</time>
      </trkpt>
      <trkpt lat="63.32471" lon="10.30979">
        <ele>76.570662</ele>
        <time>2020-08-06T10:23:27.138Z</time>
      </trkpt>
      <trkpt lat="63.32473" lon="10.31005">
        <ele>76.795282</ele>
        <time>2020-08-06T10:23:31.122Z</time>
      </trkpt>
      <trkpt lat="63.32473" lon="10.3103">
        <ele>77.010787</ele>
        <time>2020-08-06T10:23:35.161Z</time>
      </trkpt>
      <trkpt lat="63.32473" lon="10.31056">
        <ele>77.236601</ele>
        <time>2020-08-06T10:23:39.123Z</time>
      </trkpt>
      <trkpt lat="63.32473" lon="10.31077">
        <ele>77.416745</ele>
        <time>2020-08-06T10:23:42.131Z</time>
      </trkpt>
      <trkpt lat="63.32473" lon="10.31097">
        <ele>77.59008</ele>
        <time>2020-08-06T10:23:45.136Z</time>
      </trkpt>
      <trkpt lat="63.32475" lon="10.31123">
        <ele>77.817488</ele>
        <time>2020-08-06T10:23:49.178Z</time>
      </trkpt>
      <trkpt lat="63.32475" lon="10.31144">
        <ele>77.940972</ele>
        <time>2020-08-06T10:23:52.175Z</time>
      </trkpt>
      <trkpt lat="63.32476" lon="10.31164">
        <ele>77.948374</ele>
        <time>2020-08-06T10:23:55.135Z</time>
      </trkpt>
      <trkpt lat="63.32476" lon="10.31185">
        <ele>77.956088</ele>
        <time>2020-08-06T10:23:58.123Z</time>
      </trkpt>
      <trkpt lat="63.32477" lon="10.31208">
        <ele>77.964249</ele>
        <time>2020-08-06T10:24:01.137Z</time>
      </trkpt>
      <trkpt lat="63.32477" lon="10.3123">
        <ele>77.972229</ele>
        <time>2020-08-06T10:24:04.209Z</time>
      </trkpt>
      <trkpt lat="63.32478" lon="10.31251">
        <ele>77.979943</ele>
        <time>2020-08-06T10:24:07.135Z</time>
      </trkpt>
      <trkpt lat="63.32479" lon="10.31272">
        <ele>77.9877</ele>
        <time>2020-08-06T10:24:10.128Z</time>
      </trkpt>
      <trkpt lat="63.32479" lon="10.31298">
        <ele>77.997257</ele>
        <time>2020-08-06T10:24:14.136Z</time>
      </trkpt>
      <trkpt lat="63.3248" lon="10.31319">
        <ele>78.004746</ele>
        <time>2020-08-06T10:24:17.131Z</time>
      </trkpt>
      <trkpt lat="63.3248" lon="10.31339">
        <ele>78.012257</ele>
        <time>2020-08-06T10:24:20.137Z</time>
      </trkpt>
      <trkpt lat="63.3248" lon="10.31361">
        <ele>78.01998</ele>
        <time>2020-08-06T10:24:23.138Z</time>
      </trkpt>
      <trkpt lat="63.32481" lon="10.31382">
        <ele>78.027746</ele>
        <time>2020-08-06T10:24:26.135Z</time>
      </trkpt>
      <trkpt lat="63.32481" lon="10.31404">
        <ele>78.035761</ele>
        <time>2020-08-06T10:24:29.134Z</time>
      </trkpt>
      <trkpt lat="63.32481" lon="10.31425">
        <ele>78.043644</ele>
        <time>2020-08-06T10:24:32.143Z</time>
      </trkpt>
      <trkpt lat="63.32481" lon="10.31447">
        <ele>78.051333</ele>
        <time>2020-08-06T10:24:35.143Z</time>
      </trkpt>
      <trkpt lat="63.32482" lon="10.31468">
        <ele>78.058986</ele>
        <time>2020-08-06T10:24:38.125Z</time>
      </trkpt>
      <trkpt lat="63.32482" lon="10.31489">
        <ele>78.066643</ele>
        <time>2020-08-06T10:24:41.147Z</time>
      </trkpt>
      <trkpt lat="63.32482" lon="10.31509">
        <ele>78.074261</ele>
        <time>2020-08-06T10:24:44.120Z</time>
      </trkpt>
      <trkpt lat="63.32483" lon="10.3153">
        <ele>78.081587</ele>
        <time>2020-08-06T10:24:47.139Z</time>
      </trkpt>
      <trkpt lat="63.32482" lon="10.3155">
        <ele>78.270886</ele>
        <time>2020-08-06T10:24:50.137Z</time>
      </trkpt>
      <trkpt lat="63.32482" lon="10.31571">
        <ele>78.585216</ele>
        <time>2020-08-06T10:24:53.135Z</time>
      </trkpt>
      <trkpt lat="63.32483" lon="10.31592">
        <ele>78.887667</ele>
        <time>2020-08-06T10:24:56.125Z</time>
      </trkpt>
      <trkpt lat="63.32484" lon="10.31613">
        <ele>79.200151</ele>
        <time>2020-08-06T10:24:59.169Z</time>
      </trkpt>
      <trkpt lat="63.32485" lon="10.31633">
        <ele>79.504981</ele>
        <time>2020-08-06T10:25:02.135Z</time>
      </trkpt>
      <trkpt lat="63.32486" lon="10.31654">
        <ele>79.810036</ele>
        <time>2020-08-06T10:25:05.126Z</time>
      </trkpt>
      <trkpt lat="63.32487" lon="10.31675">
        <ele>80.123736</ele>
        <time>2020-08-06T10:25:08.166Z</time>
      </trkpt>
      <trkpt lat="63.32487" lon="10.31696">
        <ele>80.438136</ele>
        <time>2020-08-06T10:25:11.133Z</time>
      </trkpt>
      <trkpt lat="63.32487" lon="10.31722">
        <ele>80.826825</ele>
        <time>2020-08-06T10:25:15.127Z</time>
      </trkpt>
      <trkpt lat="63.32487" lon="10.31746">
        <ele>81.187134</ele>
        <time>2020-08-06T10:25:19.152Z</time>
      </trkpt>
      <trkpt lat="63.32488" lon="10.31769">
        <ele>81.527969</ele>
        <time>2020-08-06T10:25:23.117Z</time>
      </trkpt>
      <trkpt lat="63.3249" lon="10.31791">
        <ele>81.853018</ele>
        <time>2020-08-06T10:25:27.133Z</time>
      </trkpt>
      <trkpt lat="63.3249" lon="10.31813">
        <ele>82.177322</ele>
        <time>2020-08-06T10:25:31.121Z</time>
      </trkpt>
      <trkpt lat="63.32495" lon="10.31834">
        <ele>82.520928</ele>
        <time>2020-08-06T10:25:35.141Z</time>
      </trkpt>
      <trkpt lat="63.32501" lon="10.31856">
        <ele>82.902164</ele>
        <time>2020-08-06T10:25:39.167Z</time>
      </trkpt>
      <trkpt lat="63.32507" lon="10.31876">
        <ele>83.26253</ele>
        <time>2020-08-06T10:25:43.122Z</time>
      </trkpt>
      <trkpt lat="63.32514" lon="10.31889">
        <ele>83.559454</ele>
        <time>2020-08-06T10:25:46.138Z</time>
      </trkpt>
      <trkpt lat="63.32523" lon="10.31904">
        <ele>83.94931</ele>
        <time>2020-08-06T10:25:50.123Z</time>
      </trkpt>
      <trkpt lat="63.32533" lon="10.31918">
        <ele>84.280536</ele>
        <time>2020-08-06T10:25:54.121Z</time>
      </trkpt>
      <trkpt lat="63.32542" lon="10.31932">
        <ele>84.594918</ele>
        <time>2020-08-06T10:25:58.151Z</time>
      </trkpt>
      <trkpt lat="63.3255" lon="10.31946">
        <ele>84.884693</ele>
        <time>2020-08-06T10:26:02.153Z</time>
      </trkpt>
      <trkpt lat="63.32557" lon="10.31959">
        <ele>85.147135</ele>
        <time>2020-08-06T10:26:06.141Z</time>
      </trkpt>
      <trkpt lat="63.32564" lon="10.31977">
        <ele>85.446385</ele>
        <time>2020-08-06T10:26:11.140Z</time>
      </trkpt>
      <trkpt lat="63.32572" lon="10.3199">
        <ele>85.718712</ele>
        <time>2020-08-06T10:26:15.134Z</time>
      </trkpt>
      <trkpt lat="63.32581" lon="10.32003">
        <ele>86.026258</ele>
        <time>2020-08-06T10:26:19.124Z</time>
      </trkpt>
      <trkpt lat="63.32591" lon="10.32019">
        <ele>86.370123</ele>
        <time>2020-08-06T10:26:23.156Z</time>
      </trkpt>
      <trkpt lat="63.32599" lon="10.32031">
        <ele>86.658119</ele>
        <time>2020-08-06T10:26:26.166Z</time>
      </trkpt>
      <trkpt lat="63.32608" lon="10.32043">
        <ele>86.960949</ele>
        <time>2020-08-06T10:26:29.139Z</time>
      </trkpt>
      <trkpt lat="63.32617" lon="10.32058">
        <ele>87.278079</ele>
        <time>2020-08-06T10:26:32.141Z</time>
      </trkpt>
      <trkpt lat="63.32626" lon="10.3207">
        <ele>87.55924</ele>
        <time>2020-08-06T10:26:35.145Z</time>
      </trkpt>
      <trkpt lat="63.32634" lon="10.3208">
        <ele>87.82373</ele>
        <time>2020-08-06T10:26:38.151Z</time>
      </trkpt>
      <trkpt lat="63.32642" lon="10.32095">
        <ele>88.133325</ele>
        <time>2020-08-06T10:26:42.119Z</time>
      </trkpt>
      <trkpt lat="63.32651" lon="10.3211">
        <ele>88.434477</ele>
        <time>2020-08-06T10:26:46.129Z</time>
      </trkpt>
      <trkpt lat="63.32661" lon="10.32122">
        <ele>88.768165</ele>
        <time>2020-08-06T10:26:50.135Z</time>
      </trkpt>
      <trkpt lat="63.32671" lon="10.32135">
        <ele>89.0952</ele>
        <time>2020-08-06T10:26:54.134Z</time>
      </trkpt>
      <trkpt lat="63.3268" lon="10.3215">
        <ele>89.40396</ele>
        <time>2020-08-06T10:26:58.137Z</time>
      </trkpt>
      <trkpt lat="63.32688" lon="10.32164">
        <ele>89.694304</ele>
        <time>2020-08-06T10:27:02.134Z</time>
      </trkpt>
      <trkpt lat="63.32697" lon="10.32178">
        <ele>89.980926</ele>
        <time>2020-08-06T10:27:06.139Z</time>
      </trkpt>
      <trkpt lat="63.32705" lon="10.32191">
        <ele>90.267548</ele>
        <time>2020-08-06T10:27:10.126Z</time>
      </trkpt>
      <trkpt lat="63.32714" lon="10.32204">
        <ele>90.557878</ele>
        <time>2020-08-06T10:27:14.140Z</time>
      </trkpt>
      <trkpt lat="63.32721" lon="10.32217">
        <ele>90.831126</ele>
        <time>2020-08-06T10:27:18.125Z</time>
      </trkpt>
      <trkpt lat="63.32729" lon="10.32228">
        <ele>91.086261</ele>
        <time>2020-08-06T10:27:22.139Z</time>
      </trkpt>
      <trkpt lat="63.32737" lon="10.32242">
        <ele>91.352153</ele>
        <time>2020-08-06T10:27:26.144Z</time>
      </trkpt>
      <trkpt lat="63.32745" lon="10.32255">
        <ele>91.625371</ele>
        <time>2020-08-06T10:27:30.177Z</time>
      </trkpt>
      <trkpt lat="63.32752" lon="10.32269">
        <ele>91.905358</ele>
        <time>2020-08-06T10:27:34.123Z</time>
      </trkpt>
      <trkpt lat="63.3276" lon="10.32285">
        <ele>92.206138</ele>
        <time>2020-08-06T10:27:38.149Z</time>
      </trkpt>
      <trkpt lat="63.32768" lon="10.32302">
        <ele>92.517162</ele>
        <time>2020-08-06T10:27:42.126Z</time>
      </trkpt>
      <trkpt lat="63.32776" lon="10.32321">
        <ele>92.835881</ele>
        <time>2020-08-06T10:27:46.145Z</time>
      </trkpt>
      <trkpt lat="63.32782" lon="10.32337">
        <ele>93.10163</ele>
        <time>2020-08-06T10:27:49.125Z</time>
      </trkpt>
      <trkpt lat="63.3279" lon="10.32358">
        <ele>93.4316</ele>
        <time>2020-08-06T10:27:53.147Z</time>
      </trkpt>
      <trkpt lat="63.32795" lon="10.32376">
        <ele>93.696319</ele>
        <time>2020-08-06T10:27:56.139Z</time>
      </trkpt>
      <trkpt lat="63.32801" lon="10.32394">
        <ele>93.970286</ele>
        <time>2020-08-06T10:27:59.143Z</time>
      </trkpt>
      <trkpt lat="63.32806" lon="10.32412">
        <ele>94.079938</ele>
        <time>2020-08-06T10:28:02.136Z</time>
      </trkpt>
      <trkpt lat="63.32812" lon="10.32429">
        <ele>93.981148</ele>
        <time>2020-08-06T10:28:05.128Z</time>
      </trkpt>
      <trkpt lat="63.32817" lon="10.32451">
        <ele>93.860771</ele>
        <time>2020-08-06T10:28:09.125Z</time>
      </trkpt>
      <trkpt lat="63.32819" lon="10.32476">
        <ele>93.73963</ele>
        <time>2020-08-06T10:28:13.122Z</time>
      </trkpt>
      <trkpt lat="63.32819" lon="10.325">
        <ele>93.623163</ele>
        <time>2020-08-06T10:28:16.131Z</time>
      </trkpt>
      <trkpt lat="63.32817" lon="10.32522">
        <ele>93.514971</ele>
        <time>2020-08-06T10:28:18.137Z</time>
      </trkpt>
      <trkpt lat="63.32815" lon="10.32548">
        <ele>93.390114</ele>
        <time>2020-08-06T10:28:20.124Z</time>
      </trkpt>
      <trkpt lat="63.32815" lon="10.32576">
        <ele>93.251909</ele>
        <time>2020-08-06T10:28:22.144Z</time>
      </trkpt>
      <trkpt lat="63.32817" lon="10.32606">
        <ele>93.104613</ele>
        <time>2020-08-06T10:28:24.136Z</time>
      </trkpt>
      <trkpt lat="63.32823" lon="10.32633">
        <ele>92.961494</ele>
        <time>2020-08-06T10:28:26.146Z</time>
      </trkpt>
      <trkpt lat="63.3283" lon="10.32656">
        <ele>92.82937</ele>
        <time>2020-08-06T10:28:28.124Z</time>
      </trkpt>
      <trkpt lat="63.32838" lon="10.32674">
        <ele>92.712596</ele>
        <time>2020-08-06T10:28:30.122Z</time>
      </trkpt>
      <trkpt lat="63.32845" lon="10.32687">
        <ele>92.609029</ele>
        <time>2020-08-06T10:28:32.125Z</time>
      </trkpt>
      <trkpt lat="63.32853" lon="10.32698">
        <ele>92.509812</ele>
        <time>2020-08-06T10:28:34.126Z</time>
      </trkpt>
      <trkpt lat="63.32865" lon="10.32711">
        <ele>92.368697</ele>
        <time>2020-08-06T10:28:37.116Z</time>
      </trkpt>
      <trkpt lat="63.32875" lon="10.32722">
        <ele>92.24252</ele>
        <time>2020-08-06T10:28:40.120Z</time>
      </trkpt>
      <trkpt lat="63.32885" lon="10.32735">
        <ele>92.411097</ele>
        <time>2020-08-06T10:28:43.130Z</time>
      </trkpt>
      <trkpt lat="63.32892" lon="10.32748">
        <ele>92.724422</ele>
        <time>2020-08-06T10:28:46.144Z</time>
      </trkpt>
      <trkpt lat="63.32899" lon="10.32765">
        <ele>93.054629</ele>
        <time>2020-08-06T10:28:49.156Z</time>
      </trkpt>
      <trkpt lat="63.32906" lon="10.32782">
        <ele>93.376196</ele>
        <time>2020-08-06T10:28:52.162Z</time>
      </trkpt>
      <trkpt lat="63.32911" lon="10.32799">
        <ele>93.682949</ele>
        <time>2020-08-06T10:28:55.136Z</time>
      </trkpt>
      <trkpt lat="63.32915" lon="10.32818">
        <ele>93.992165</ele>
        <time>2020-08-06T10:28:58.136Z</time>
      </trkpt>
      <trkpt lat="63.3292" lon="10.32835">
        <ele>94.283741</ele>
        <time>2020-08-06T10:29:01.149Z</time>
      </trkpt>
      <trkpt lat="63.32926" lon="10.32851">
        <ele>94.575427</ele>
        <time>2020-08-06T10:29:04.130Z</time>
      </trkpt>
      <trkpt lat="63.32935" lon="10.32869">
        <ele>94.961365</ele>
        <time>2020-08-06T10:29:08.151Z</time>
      </trkpt>
      <trkpt lat="63.32945" lon="10.32882">
        <ele>95.339652</ele>
        <time>2020-08-06T10:29:12.127Z</time>
      </trkpt>
      <trkpt lat="63.32955" lon="10.32889">
        <ele>95.70144</ele>
        <time>2020-08-06T10:29:16.142Z</time>
      </trkpt>
      <trkpt lat="63.32967" lon="10.32891">
        <ele>96.073975</ele>
        <time>2020-08-06T10:29:20.140Z</time>
      </trkpt>
      <trkpt lat="63.32976" lon="10.32888">
        <ele>96.369528</ele>
        <time>2020-08-06T10:29:23.138Z</time>
      </trkpt>
      <trkpt lat="63.32985" lon="10.32883">
        <ele>96.673759</ele>
        <time>2020-08-06T10:29:26.137Z</time>
      </trkpt>
      <trkpt lat="63.32996" lon="10.32877">
        <ele>97.027803</ele>
        <time>2020-08-06T10:29:30.181Z</time>
      </trkpt>
      <trkpt lat="63.33007" lon="10.32873">
        <ele>97.385412</ele>
        <time>2020-08-06T10:29:34.124Z</time>
      </trkpt>
      <trkpt lat="63.33017" lon="10.32869">
        <ele>97.716814</ele>
        <time>2020-08-06T10:29:38.135Z</time>
      </trkpt>
      <trkpt lat="63.33027" lon="10.32868">
        <ele>98.055727</ele>
        <time>2020-08-06T10:29:42.138Z</time>
      </trkpt>
      <trkpt lat="63.33036" lon="10.32869">
        <ele>98.583873</ele>
        <time>2020-08-06T10:29:46.117Z</time>
      </trkpt>
      <trkpt lat="63.33047" lon="10.32871">
        <ele>99.177875</ele>
        <time>2020-08-06T10:29:50.133Z</time>
      </trkpt>
      <trkpt lat="63.33057" lon="10.32873">
        <ele>99.718422</ele>
        <time>2020-08-06T10:29:54.126Z</time>
      </trkpt>
      <trkpt lat="63.33066" lon="10.3288">
        <ele>100.253796</ele>
        <time>2020-08-06T10:29:58.125Z</time>
      </trkpt>
      <trkpt lat="63.33075" lon="10.3289">
        <ele>100.765676</ele>
        <time>2020-08-06T10:30:02.123Z</time>
      </trkpt>
      <trkpt lat="63.33083" lon="10.32899">
        <ele>101.258965</ele>
        <time>2020-08-06T10:30:06.125Z</time>
      </trkpt>
      <trkpt lat="63.33091" lon="10.32908">
        <ele>101.752252</ele>
        <time>2020-08-06T10:30:10.144Z</time>
      </trkpt>
      <trkpt lat="63.331" lon="10.32922">
        <ele>102.357168</ele>
        <time>2020-08-06T10:30:15.127Z</time>
      </trkpt>
      <trkpt lat="63.33108" lon="10.32933">
        <ele>102.878147</ele>
        <time>2020-08-06T10:30:19.133Z</time>
      </trkpt>
      <trkpt lat="63.33117" lon="10.32947">
        <ele>103.445669</ele>
        <time>2020-08-06T10:30:24.127Z</time>
      </trkpt>
      <trkpt lat="63.33125" lon="10.32962">
        <ele>104.042292</ele>
        <time>2020-08-06T10:30:29.127Z</time>
      </trkpt>
      <trkpt lat="63.33134" lon="10.32977">
        <ele>104.6245</ele>
        <time>2020-08-06T10:30:34.132Z</time>
      </trkpt>
      <trkpt lat="63.33141" lon="10.32994">
        <ele>105.193196</ele>
        <time>2020-08-06T10:30:39.127Z</time>
      </trkpt>
      <trkpt lat="63.33147" lon="10.33012">
        <ele>105.756446</ele>
        <time>2020-08-06T10:30:44.161Z</time>
      </trkpt>
      <trkpt lat="63.33155" lon="10.33031">
        <ele>106.356103</ele>
        <time>2020-08-06T10:30:49.145Z</time>
      </trkpt>
      <trkpt lat="63.33161" lon="10.33049">
        <ele>106.93199</ele>
        <time>2020-08-06T10:30:54.128Z</time>
      </trkpt>
      <trkpt lat="63.33167" lon="10.33068">
        <ele>107.505311</ele>
        <time>2020-08-06T10:30:59.134Z</time>
      </trkpt>
      <trkpt lat="63.33173" lon="10.33088">
        <ele>107.962586</ele>
        <time>2020-08-06T10:31:04.127Z</time>
      </trkpt>
      <trkpt lat="63.33178" lon="10.33108">
        <ele>108.303306</ele>
        <time>2020-08-06T10:31:09.144Z</time>
      </trkpt>
      <trkpt lat="63.33183" lon="10.33128">
        <ele>108.64635</ele>
        <time>2020-08-06T10:31:14.129Z</time>
      </trkpt>
      <trkpt lat="63.33187" lon="10.3315">
        <ele>108.992061</ele>
        <time>2020-08-06T10:31:19.137Z</time>
      </trkpt>
      <trkpt lat="63.33191" lon="10.33167">
        <ele>109.296517</ele>
        <time>2020-08-06T10:31:23.139Z</time>
      </trkpt>
      <trkpt lat="63.33198" lon="10.33183">
        <ele>109.619938</ele>
        <time>2020-08-06T10:31:27.145Z</time>
      </trkpt>
      <trkpt lat="63.33205" lon="10.33199">
        <ele>109.955577</ele>
        <time>2020-08-06T10:31:31.140Z</time>
      </trkpt>
      <trkpt lat="63.33212" lon="10.33214">
        <ele>110.283338</ele>
        <time>2020-08-06T10:31:35.139Z</time>
      </trkpt>
      <trkpt lat="63.3322" lon="10.33229">
        <ele>110.625596</ele>
        <time>2020-08-06T10:31:40.141Z</time>
      </trkpt>
      <trkpt lat="63.33229" lon="10.3324">
        <ele>110.968891</ele>
        <time>2020-08-06T10:31:45.142Z</time>
      </trkpt>
      <trkpt lat="63.3324" lon="10.33246">
        <ele>111.328338</ele>
        <time>2020-08-06T10:31:50.144Z</time>
      </trkpt>
      <trkpt lat="63.33249" lon="10.33251">
        <ele>111.644558</ele>
        <time>2020-08-06T10:31:54.133Z</time>
      </trkpt>
      <trkpt lat="63.33259" lon="10.33254">
        <ele>111.985531</ele>
        <time>2020-08-06T10:31:58.162Z</time>
      </trkpt>
      <trkpt lat="63.33269" lon="10.33256">
        <ele>112.318742</ele>
        <time>2020-08-06T10:32:02.125Z</time>
      </trkpt>
      <trkpt lat="63.33279" lon="10.33258">
        <ele>112.658413</ele>
        <time>2020-08-06T10:32:06.164Z</time>
      </trkpt>
      <trkpt lat="63.3329" lon="10.33261">
        <ele>112.995556</ele>
        <time>2020-08-06T10:32:10.127Z</time>
      </trkpt>
      <trkpt lat="63.33299" lon="10.33264">
        <ele>113.323575</ele>
        <time>2020-08-06T10:32:14.139Z</time>
      </trkpt>
      <trkpt lat="63.33309" lon="10.33266">
        <ele>113.647545</ele>
        <time>2020-08-06T10:32:18.128Z</time>
      </trkpt>
      <trkpt lat="63.33318" lon="10.3327">
        <ele>113.957333</ele>
        <time>2020-08-06T10:32:22.135Z</time>
      </trkpt>
      <trkpt lat="63.33328" lon="10.33272">
        <ele>114.259241</ele>
        <time>2020-08-06T10:32:26.135Z</time>
      </trkpt>
      <trkpt lat="63.33337" lon="10.33275">
        <ele>114.555793</ele>
        <time>2020-08-06T10:32:30.158Z</time>
      </trkpt>
      <trkpt lat="63.33346" lon="10.33275">
        <ele>114.846419</ele>
        <time>2020-08-06T10:32:34.122Z</time>
      </trkpt>
      <trkpt lat="63.33355" lon="10.33275">
        <ele>115.137046</ele>
        <time>2020-08-06T10:32:38.128Z</time>
      </trkpt>
      <trkpt lat="63.33365" lon="10.33273">
        <ele>115.454731</ele>
        <time>2020-08-06T10:32:42.152Z</time>
      </trkpt>
      <trkpt lat="63.33374" lon="10.33268">
        <ele>115.761347</ele>
        <time>2020-08-06T10:32:46.149Z</time>
      </trkpt>
      <trkpt lat="63.33383" lon="10.33263">
        <ele>116.058739</ele>
        <time>2020-08-06T10:32:50.162Z</time>
      </trkpt>
      <trkpt lat="63.33392" lon="10.33257">
        <ele>116.373997</ele>
        <time>2020-08-06T10:32:54.127Z</time>
      </trkpt>
      <trkpt lat="63.33402" lon="10.33252">
        <ele>116.687832</ele>
        <time>2020-08-06T10:32:58.140Z</time>
      </trkpt>
      <trkpt lat="63.33411" lon="10.3325">
        <ele>116.989448</ele>
        <time>2020-08-06T10:33:02.129Z</time>
      </trkpt>
      <trkpt lat="63.33422" lon="10.33251">
        <ele>117.348068</ele>
        <time>2020-08-06T10:33:07.139Z</time>
      </trkpt>
      <trkpt lat="63.33432" lon="10.33258">
        <ele>117.685879</ele>
        <time>2020-08-06T10:33:11.117Z</time>
      </trkpt>
      <trkpt lat="63.33441" lon="10.33268">
        <ele>117.995429</ele>
        <time>2020-08-06T10:33:15.161Z</time>
      </trkpt>
      <trkpt lat="63.33449" lon="10.33284">
        <ele>118.356647</ele>
        <time>2020-08-06T10:33:20.119Z</time>
      </trkpt>
      <trkpt lat="63.33455" lon="10.33298">
        <ele>118.647766</ele>
        <time>2020-08-06T10:33:24.143Z</time>
      </trkpt>
      <trkpt lat="63.33462" lon="10.33318">
        <ele>119.000451</ele>
        <time>2020-08-06T10:33:29.151Z</time>
      </trkpt>
      <trkpt lat="63.33469" lon="10.33337">
        <ele>119.343123</ele>
        <time>2020-08-06T10:33:34.188Z</time>
      </trkpt>
      <trkpt lat="63.33474" lon="10.33356">
        <ele>119.798516</ele>
        <time>2020-08-06T10:33:39.139Z</time>
      </trkpt>
      <trkpt lat="63.3348" lon="10.33376">
        <ele>120.475777</ele>
        <time>2020-08-06T10:33:44.134Z</time>
      </trkpt>
      <trkpt lat="63.33485" lon="10.33395">
        <ele>121.110668</ele>
        <time>2020-08-06T10:33:49.125Z</time>
      </trkpt>
      <trkpt lat="63.33491" lon="10.33414">
        <ele>121.783681</ele>
        <time>2020-08-06T10:33:54.137Z</time>
      </trkpt>
      <trkpt lat="63.33498" lon="10.33433">
        <ele>122.467585</ele>
        <time>2020-08-06T10:33:59.161Z</time>
      </trkpt>
      <trkpt lat="63.33503" lon="10.3345">
        <ele>123.060987</ele>
        <time>2020-08-06T10:34:04.129Z</time>
      </trkpt>
      <trkpt lat="63.33509" lon="10.33469">
        <ele>123.746731</ele>
        <time>2020-08-06T10:34:10.147Z</time>
      </trkpt>
      <trkpt lat="63.33516" lon="10.33488">
        <ele>124.440971</ele>
        <time>2020-08-06T10:34:16.139Z</time>
      </trkpt>
      <trkpt lat="63.33523" lon="10.33503">
        <ele>125.050314</ele>
        <time>2020-08-06T10:34:21.167Z</time>
      </trkpt>
      <trkpt lat="63.33532" lon="10.33514">
        <ele>125.725129</ele>
        <time>2020-08-06T10:34:27.125Z</time>
      </trkpt>
      <trkpt lat="63.33542" lon="10.33522">
        <ele>126.395438</ele>
        <time>2020-08-06T10:34:33.145Z</time>
      </trkpt>
      <trkpt lat="63.33552" lon="10.33524">
        <ele>127.0472</ele>
        <time>2020-08-06T10:34:38.132Z</time>
      </trkpt>
      <trkpt lat="63.33563" lon="10.33525">
        <ele>127.752562</ele>
        <time>2020-08-06T10:34:43.153Z</time>
      </trkpt>
      <trkpt lat="63.33573" lon="10.33524">
        <ele>128.406656</ele>
        <time>2020-08-06T10:34:48.134Z</time>
      </trkpt>
      <trkpt lat="63.33584" lon="10.33524">
        <ele>129.124771</ele>
        <time>2020-08-06T10:34:53.136Z</time>
      </trkpt>
      <trkpt lat="63.33593" lon="10.33523">
        <ele>129.695889</ele>
        <time>2020-08-06T10:34:57.130Z</time>
      </trkpt>
      <trkpt lat="63.33603" lon="10.33523">
        <ele>130.311354</ele>
        <time>2020-08-06T10:35:01.125Z</time>
      </trkpt>
      <trkpt lat="63.33612" lon="10.33524">
        <ele>130.888876</ele>
        <time>2020-08-06T10:35:05.139Z</time>
      </trkpt>
      <trkpt lat="63.33622" lon="10.33521">
        <ele>131.442242</ele>
        <time>2020-08-06T10:35:10.141Z</time>
      </trkpt>
      <trkpt lat="63.33633" lon="10.3352">
        <ele>131.959292</ele>
        <time>2020-08-06T10:35:15.148Z</time>
      </trkpt>
      <trkpt lat="63.33644" lon="10.3352">
        <ele>132.462066</ele>
        <time>2020-08-06T10:35:20.161Z</time>
      </trkpt>
      <trkpt lat="63.33655" lon="10.33523">
        <ele>132.963746</ele>
        <time>2020-08-06T10:35:25.124Z</time>
      </trkpt>
      <trkpt lat="63.33665" lon="10.33528">
        <ele>133.449836</ele>
        <time>2020-08-06T10:35:30.136Z</time>
      </trkpt>
      <trkpt lat="63.33675" lon="10.33534">
        <ele>133.9067</ele>
        <time>2020-08-06T10:35:35.121Z</time>
      </trkpt>
      <trkpt lat="63.33684" lon="10.33546">
        <ele>134.407824</ele>
        <time>2020-08-06T10:35:40.161Z</time>
      </trkpt>
      <trkpt lat="63.33691" lon="10.33559">
        <ele>134.851346</ele>
        <time>2020-08-06T10:35:44.128Z</time>
      </trkpt>
      <trkpt lat="63.33699" lon="10.33574">
        <ele>135.330871</ele>
        <time>2020-08-06T10:35:49.162Z</time>
      </trkpt>
      <trkpt lat="63.33707" lon="10.33591">
        <ele>135.834311</ele>
        <time>2020-08-06T10:35:54.136Z</time>
      </trkpt>
      <trkpt lat="63.33714" lon="10.33608">
        <ele>136.327113</ele>
        <time>2020-08-06T10:35:59.160Z</time>
      </trkpt>
      <trkpt lat="63.33721" lon="10.33627">
        <ele>136.840551</ele>
        <time>2020-08-06T10:36:04.164Z</time>
      </trkpt>
      <trkpt lat="63.33729" lon="10.33645">
        <ele>137.350385</ele>
        <time>2020-08-06T10:36:09.168Z</time>
      </trkpt>
      <trkpt lat="63.33735" lon="10.33661">
        <ele>137.776338</ele>
        <time>2020-08-06T10:36:13.127Z</time>
      </trkpt>
      <trkpt lat="63.3374" lon="10.33678">
        <ele>138.216446</ele>
        <time>2020-08-06T10:36:17.135Z</time>
      </trkpt>
      <trkpt lat="63.33743" lon="10.33697">
        <ele>138.633753</ele>
        <time>2020-08-06T10:36:21.127Z</time>
      </trkpt>
      <trkpt lat="63.33746" lon="10.3372">
        <ele>139.13406</ele>
        <time>2020-08-06T10:36:26.122Z</time>
      </trkpt>
      <trkpt lat="63.33748" lon="10.33741">
        <ele>139.567852</ele>
        <time>2020-08-06T10:36:31.198Z</time>
      </trkpt>
      <trkpt lat="63.3375" lon="10.33762">
        <ele>139.974917</ele>
        <time>2020-08-06T10:36:36.170Z</time>
      </trkpt>
      <trkpt lat="63.33755" lon="10.33783">
        <ele>140.416386</ele>
        <time>2020-08-06T10:36:41.160Z</time>
      </trkpt>
      <trkpt lat="63.3376" lon="10.33803">
        <ele>140.840432</ele>
        <time>2020-08-06T10:36:46.116Z</time>
      </trkpt>
      <trkpt lat="63.33767" lon="10.33823">
        <ele>141.290924</ele>
        <time>2020-08-06T10:36:51.126Z</time>
      </trkpt>
      <trkpt lat="63.33776" lon="10.33836">
        <ele>141.728501</ele>
        <time>2020-08-06T10:36:56.125Z</time>
      </trkpt>
      <trkpt lat="63.33784" lon="10.33847">
        <ele>142.112996</ele>
        <time>2020-08-06T10:37:00.164Z</time>
      </trkpt>
      <trkpt lat="63.33791" lon="10.33858">
        <ele>142.493997</ele>
        <time>2020-08-06T10:37:04.151Z</time>
      </trkpt>
      <trkpt lat="63.338" lon="10.33872">
        <ele>142.951308</ele>
        <time>2020-08-06T10:37:09.118Z</time>
      </trkpt>
      <trkpt lat="63.3381" lon="10.33885">
        <ele>143.408569</ele>
        <time>2020-08-06T10:37:14.127Z</time>
      </trkpt>
      <trkpt lat="63.3382" lon="10.33897">
        <ele>143.862948</ele>
        <time>2020-08-06T10:37:19.149Z</time>
      </trkpt>
      <trkpt lat="63.33828" lon="10.33911">
        <ele>144.292603</ele>
        <time>2020-08-06T10:37:24.154Z</time>
      </trkpt>
      <trkpt lat="63.33836" lon="10.33926">
        <ele>144.743928</ele>
        <time>2020-08-06T10:37:29.154Z</time>
      </trkpt>
      <trkpt lat="63.33843" lon="10.33942">
        <ele>145.135418</ele>
        <time>2020-08-06T10:37:33.179Z</time>
      </trkpt>
      <trkpt lat="63.3385" lon="10.33956">
        <ele>145.531736</ele>
        <time>2020-08-06T10:37:37.117Z</time>
      </trkpt>
      <trkpt lat="63.33857" lon="10.33969">
        <ele>145.923281</ele>
        <time>2020-08-06T10:37:41.141Z</time>
      </trkpt>
      <trkpt lat="63.33867" lon="10.33983">
        <ele>146.38241</ele>
        <time>2020-08-06T10:37:46.177Z</time>
      </trkpt>
      <trkpt lat="63.33877" lon="10.33992">
        <ele>146.831385</ele>
        <time>2020-08-06T10:37:51.137Z</time>
      </trkpt>
      <trkpt lat="63.33887" lon="10.34002">
        <ele>147.221377</ele>
        <time>2020-08-06T10:37:56.115Z</time>
      </trkpt>
      <trkpt lat="63.33897" lon="10.34006">
        <ele>147.585601</ele>
        <time>2020-08-06T10:38:01.136Z</time>
      </trkpt>
      <trkpt lat="63.33908" lon="10.34008">
        <ele>147.939497</ele>
        <time>2020-08-06T10:38:06.138Z</time>
      </trkpt>
      <trkpt lat="63.33918" lon="10.34003">
        <ele>148.285836</ele>
        <time>2020-08-06T10:38:11.127Z</time>
      </trkpt>
      <trkpt lat="63.33927" lon="10.34">
        <ele>148.606935</ele>
        <time>2020-08-06T10:38:15.119Z</time>
      </trkpt>
      <trkpt lat="63.33937" lon="10.33994">
        <ele>148.962088</ele>
        <time>2020-08-06T10:38:20.141Z</time>
      </trkpt>
      <trkpt lat="63.33946" lon="10.33984">
        <ele>149.305222</ele>
        <time>2020-08-06T10:38:24.133Z</time>
      </trkpt>
      <trkpt lat="63.33955" lon="10.33972">
        <ele>149.668583</ele>
        <time>2020-08-06T10:38:28.127Z</time>
      </trkpt>
      <trkpt lat="63.33964" lon="10.33957">
        <ele>150.055179</ele>
        <time>2020-08-06T10:38:32.136Z</time>
      </trkpt>
      <trkpt lat="63.33973" lon="10.33943">
        <ele>150.427915</ele>
        <time>2020-08-06T10:38:36.140Z</time>
      </trkpt>
      <trkpt lat="63.33982" lon="10.33926">
        <ele>150.833214</ele>
        <time>2020-08-06T10:38:40.128Z</time>
      </trkpt>
      <trkpt lat="63.33991" lon="10.33912">
        <ele>151.208586</ele>
        <time>2020-08-06T10:38:44.141Z</time>
      </trkpt>
      <trkpt lat="63.34" lon="10.33896">
        <ele>151.601546</ele>
        <time>2020-08-06T10:38:48.131Z</time>
      </trkpt>
      <trkpt lat="63.34008" lon="10.33881">
        <ele>151.96888</ele>
        <time>2020-08-06T10:38:52.166Z</time>
      </trkpt>
      <trkpt lat="63.34016" lon="10.33868">
        <ele>152.314038</ele>
        <time>2020-08-06T10:38:56.127Z</time>
      </trkpt>
      <trkpt lat="63.34024" lon="10.33855">
        <ele>152.625376</ele>
        <time>2020-08-06T10:39:00.137Z</time>
      </trkpt>
      <trkpt lat="63.34032" lon="10.33845">
        <ele>152.943741</ele>
        <time>2020-08-06T10:39:04.126Z</time>
      </trkpt>
      <trkpt lat="63.34041" lon="10.3384">
        <ele>153.308295</ele>
        <time>2020-08-06T10:39:08.136Z</time>
      </trkpt>
      <trkpt lat="63.3405" lon="10.3384">
        <ele>153.670197</ele>
        <time>2020-08-06T10:39:12.127Z</time>
      </trkpt>
      <trkpt lat="63.34062" lon="10.33842">
        <ele>154.133394</ele>
        <time>2020-08-06T10:39:17.142Z</time>
      </trkpt>
      <trkpt lat="63.34071" lon="10.3385">
        <ele>154.522598</ele>
        <time>2020-08-06T10:39:21.122Z</time>
      </trkpt>
      <trkpt lat="63.34081" lon="10.33861">
        <ele>154.965325</ele>
        <time>2020-08-06T10:39:26.134Z</time>
      </trkpt>
      <trkpt lat="63.34089" lon="10.33876">
        <ele>155.384147</ele>
        <time>2020-08-06T10:39:30.144Z</time>
      </trkpt>
      <trkpt lat="63.34095" lon="10.33894">
        <ele>155.772937</ele>
        <time>2020-08-06T10:39:34.136Z</time>
      </trkpt>
      <trkpt lat="63.34102" lon="10.33912">
        <ele>156.188481</ele>
        <time>2020-08-06T10:39:38.121Z</time>
      </trkpt>
      <trkpt lat="63.34107" lon="10.3393">
        <ele>156.584091</ele>
        <time>2020-08-06T10:39:42.148Z</time>
      </trkpt>
      <trkpt lat="63.34113" lon="10.33949">
        <ele>157.004926</ele>
        <time>2020-08-06T10:39:46.115Z</time>
      </trkpt>
      <trkpt lat="63.34119" lon="10.3397">
        <ele>157.438257</ele>
        <time>2020-08-06T10:39:50.137Z</time>
      </trkpt>
      <trkpt lat="63.34123" lon="10.33991">
        <ele>157.844942</ele>
        <time>2020-08-06T10:39:54.157Z</time>
      </trkpt>
      <trkpt lat="63.34128" lon="10.34012">
        <ele>158.263277</ele>
        <time>2020-08-06T10:39:58.143Z</time>
      </trkpt>
      <trkpt lat="63.34133" lon="10.34032">
        <ele>158.690591</ele>
        <time>2020-08-06T10:40:02.191Z</time>
      </trkpt>
      <trkpt lat="63.34139" lon="10.34052">
        <ele>159.104652</ele>
        <time>2020-08-06T10:40:06.123Z</time>
      </trkpt>
      <trkpt lat="63.34144" lon="10.34073">
        <ele>159.530015</ele>
        <time>2020-08-06T10:40:10.137Z</time>
      </trkpt>
      <trkpt lat="63.34148" lon="10.34093">
        <ele>159.928061</ele>
        <time>2020-08-06T10:40:14.151Z</time>
      </trkpt>
      <trkpt lat="63.34154" lon="10.34116">
        <ele>160.244897</ele>
        <time>2020-08-06T10:40:18.153Z</time>
      </trkpt>
      <trkpt lat="63.34161" lon="10.34136">
        <ele>160.367094</ele>
        <time>2020-08-06T10:40:22.141Z</time>
      </trkpt>
      <trkpt lat="63.34165" lon="10.34156">
        <ele>160.479953</ele>
        <time>2020-08-06T10:40:26.181Z</time>
      </trkpt>
      <trkpt lat="63.3417" lon="10.34176">
        <ele>160.593702</ele>
        <time>2020-08-06T10:40:30.146Z</time>
      </trkpt>
      <trkpt lat="63.34176" lon="10.34196">
        <ele>160.714663</ele>
        <time>2020-08-06T10:40:34.132Z</time>
      </trkpt>
      <trkpt lat="63.34182" lon="10.34215">
        <ele>160.833378</ele>
        <time>2020-08-06T10:40:38.130Z</time>
      </trkpt>
      <trkpt lat="63.3419" lon="10.34233">
        <ele>160.959109</ele>
        <time>2020-08-06T10:40:42.116Z</time>
      </trkpt>
      <trkpt lat="63.34198" lon="10.3425">
        <ele>161.082987</ele>
        <time>2020-08-06T10:40:46.139Z</time>
      </trkpt>
      <trkpt lat="63.34207" lon="10.34266">
        <ele>161.210568</ele>
        <time>2020-08-06T10:40:50.151Z</time>
      </trkpt>
      <trkpt lat="63.34216" lon="10.3428">
        <ele>161.332086</ele>
        <time>2020-08-06T10:40:54.164Z</time>
      </trkpt>
      <trkpt lat="63.34225" lon="10.34296">
        <ele>161.458112</ele>
        <time>2020-08-06T10:40:58.132Z</time>
      </trkpt>
      <trkpt lat="63.34232" lon="10.34308">
        <ele>161.560471</ele>
        <time>2020-08-06T10:41:01.139Z</time>
      </trkpt>
      <trkpt lat="63.34241" lon="10.34323">
        <ele>161.684974</ele>
        <time>2020-08-06T10:41:05.141Z</time>
      </trkpt>
      <trkpt lat="63.34249" lon="10.34336">
        <ele>161.799934</ele>
        <time>2020-08-06T10:41:09.126Z</time>
      </trkpt>
      <trkpt lat="63.34259" lon="10.34351">
        <ele>161.93021</ele>
        <time>2020-08-06T10:41:13.136Z</time>
      </trkpt>
      <trkpt lat="63.34268" lon="10.34366">
        <ele>162.059234</ele>
        <time>2020-08-06T10:41:17.140Z</time>
      </trkpt>
      <trkpt lat="63.34276" lon="10.3438">
        <ele>162.177179</ele>
        <time>2020-08-06T10:41:21.152Z</time>
      </trkpt>
      <trkpt lat="63.34285" lon="10.34394">
        <ele>162.296765</ele>
        <time>2020-08-06T10:41:25.138Z</time>
      </trkpt>
      <trkpt lat="63.34296" lon="10.34405">
        <ele>162.426098</ele>
        <time>2020-08-06T10:41:29.134Z</time>
      </trkpt>
      <trkpt lat="63.34305" lon="10.34419">
        <ele>162.549102</ele>
        <time>2020-08-06T10:41:33.129Z</time>
      </trkpt>
      <trkpt lat="63.34314" lon="10.34434">
        <ele>162.676746</ele>
        <time>2020-08-06T10:41:37.125Z</time>
      </trkpt>
      <trkpt lat="63.34322" lon="10.34453">
        <ele>162.803899</ele>
        <time>2020-08-06T10:41:41.137Z</time>
      </trkpt>
      <trkpt lat="63.34328" lon="10.34472">
        <ele>162.922199</ele>
        <time>2020-08-06T10:41:45.121Z</time>
      </trkpt>
      <trkpt lat="63.34333" lon="10.34491">
        <ele>163.02596</ele>
        <time>2020-08-06T10:41:49.123Z</time>
      </trkpt>
      <trkpt lat="63.34337" lon="10.34508">
        <ele>163.12677</ele>
        <time>2020-08-06T10:41:53.164Z</time>
      </trkpt>
      <trkpt lat="63.34342" lon="10.34526">
        <ele>163.231971</ele>
        <time>2020-08-06T10:41:57.122Z</time>
      </trkpt>
      <trkpt lat="63.34347" lon="10.34544">
        <ele>163.331486</ele>
        <time>2020-08-06T10:42:01.126Z</time>
      </trkpt>
      <trkpt lat="63.34353" lon="10.34559">
        <ele>163.436682</ele>
        <time>2020-08-06T10:42:05.113Z</time>
      </trkpt>
      <trkpt lat="63.34358" lon="10.34576">
        <ele>163.537916</ele>
        <time>2020-08-06T10:42:09.146Z</time>
      </trkpt>
      <trkpt lat="63.34366" lon="10.34591">
        <ele>163.654344</ele>
        <time>2020-08-06T10:42:13.136Z</time>
      </trkpt>
      <trkpt lat="63.34374" lon="10.34608">
        <ele>163.777885</ele>
        <time>2020-08-06T10:42:17.144Z</time>
      </trkpt>
      <trkpt lat="63.34383" lon="10.34624">
        <ele>163.90278</ele>
        <time>2020-08-06T10:42:21.146Z</time>
      </trkpt>
      <trkpt lat="63.34391" lon="10.34641">
        <ele>164.025152</ele>
        <time>2020-08-06T10:42:25.150Z</time>
      </trkpt>
      <trkpt lat="63.34399" lon="10.34659">
        <ele>164.154648</ele>
        <time>2020-08-06T10:42:29.144Z</time>
      </trkpt>
      <trkpt lat="63.34406" lon="10.34674">
        <ele>164.264592</ele>
        <time>2020-08-06T10:42:32.154Z</time>
      </trkpt>
      <trkpt lat="63.34413" lon="10.34689">
        <ele>164.3784</ele>
        <time>2020-08-06T10:42:35.138Z</time>
      </trkpt>
      <trkpt lat="63.34419" lon="10.34706">
        <ele>164.494201</ele>
        <time>2020-08-06T10:42:38.142Z</time>
      </trkpt>
      <trkpt lat="63.34425" lon="10.34722">
        <ele>164.610385</ele>
        <time>2020-08-06T10:42:41.164Z</time>
      </trkpt>
      <trkpt lat="63.34431" lon="10.34738">
        <ele>164.718764</ele>
        <time>2020-08-06T10:42:44.167Z</time>
      </trkpt>
      <trkpt lat="63.34437" lon="10.34759">
        <ele>164.856529</ele>
        <time>2020-08-06T10:42:48.172Z</time>
      </trkpt>
      <trkpt lat="63.34445" lon="10.34779">
        <ele>164.999742</ele>
        <time>2020-08-06T10:42:52.136Z</time>
      </trkpt>
      <trkpt lat="63.34451" lon="10.34801">
        <ele>165.141742</ele>
        <time>2020-08-06T10:42:56.156Z</time>
      </trkpt>
      <trkpt lat="63.34457" lon="10.34819">
        <ele>165.257397</ele>
        <time>2020-08-06T10:42:59.138Z</time>
      </trkpt>
      <trkpt lat="63.34462" lon="10.34836">
        <ele>165.367516</ele>
        <time>2020-08-06T10:43:02.141Z</time>
      </trkpt>
      <trkpt lat="63.34467" lon="10.34855">
        <ele>165.484108</ele>
        <time>2020-08-06T10:43:05.131Z</time>
      </trkpt>
      <trkpt lat="63.34471" lon="10.34874">
        <ele>165.600151</ele>
        <time>2020-08-06T10:43:08.175Z</time>
      </trkpt>
      <trkpt lat="63.34476" lon="10.34895">
        <ele>165.723472</ele>
        <time>2020-08-06T10:43:11.165Z</time>
      </trkpt>
      <trkpt lat="63.34479" lon="10.34914">
        <ele>165.832393</ele>
        <time>2020-08-06T10:43:14.180Z</time>
      </trkpt>
      <trkpt lat="63.34483" lon="10.34938">
        <ele>165.972935</ele>
        <time>2020-08-06T10:43:18.152Z</time>
      </trkpt>
      <trkpt lat="63.34487" lon="10.34956">
        <ele>166.081495</ele>
        <time>2020-08-06T10:43:21.124Z</time>
      </trkpt>
      <trkpt lat="63.3449" lon="10.34975">
        <ele>166.189301</ele>
        <time>2020-08-06T10:43:24.140Z</time>
      </trkpt>
      <trkpt lat="63.34495" lon="10.34999">
        <ele>166.330246</ele>
        <time>2020-08-06T10:43:28.135Z</time>
      </trkpt>
      <trkpt lat="63.345" lon="10.3502">
        <ele>166.633385</ele>
        <time>2020-08-06T10:43:32.139Z</time>
      </trkpt>
      <trkpt lat="63.34508" lon="10.35039">
        <ele>166.992382</ele>
        <time>2020-08-06T10:43:36.155Z</time>
      </trkpt>
      <trkpt lat="63.34516" lon="10.35056">
        <ele>167.343675</ele>
        <time>2020-08-06T10:43:40.143Z</time>
      </trkpt>
      <trkpt lat="63.34524" lon="10.35072">
        <ele>167.678654</ele>
        <time>2020-08-06T10:43:44.137Z</time>
      </trkpt>
      <trkpt lat="63.34532" lon="10.35086">
        <ele>168.001466</ele>
        <time>2020-08-06T10:43:48.166Z</time>
      </trkpt>
      <trkpt lat="63.34539" lon="10.35101">
        <ele>168.312185</ele>
        <time>2020-08-06T10:43:52.145Z</time>
      </trkpt>
      <trkpt lat="63.34547" lon="10.35113">
        <ele>168.60759</ele>
        <time>2020-08-06T10:43:56.124Z</time>
      </trkpt>
      <trkpt lat="63.34555" lon="10.35127">
        <ele>168.925013</ele>
        <time>2020-08-06T10:44:00.160Z</time>
      </trkpt>
      <trkpt lat="63.34565" lon="10.35141">
        <ele>169.285408</ele>
        <time>2020-08-06T10:44:04.140Z</time>
      </trkpt>
      <trkpt lat="63.34574" lon="10.35155">
        <ele>169.643944</ele>
        <time>2020-08-06T10:44:08.160Z</time>
      </trkpt>
      <trkpt lat="63.34583" lon="10.35172">
        <ele>169.996746</ele>
        <time>2020-08-06T10:44:12.123Z</time>
      </trkpt>
      <trkpt lat="63.34592" lon="10.35186">
        <ele>170.336272</ele>
        <time>2020-08-06T10:44:16.140Z</time>
      </trkpt>
      <trkpt lat="63.34602" lon="10.352">
        <ele>170.700812</ele>
        <time>2020-08-06T10:44:20.139Z</time>
      </trkpt>
      <trkpt lat="63.34611" lon="10.35214">
        <ele>171.065823</ele>
        <time>2020-08-06T10:44:24.136Z</time>
      </trkpt>
      <trkpt lat="63.3462" lon="10.35229">
        <ele>171.401981</ele>
        <time>2020-08-06T10:44:28.148Z</time>
      </trkpt>
      <trkpt lat="63.34629" lon="10.35242">
        <ele>171.74092</ele>
        <time>2020-08-06T10:44:32.149Z</time>
      </trkpt>
      <trkpt lat="63.34639" lon="10.35255">
        <ele>172.123441</ele>
        <time>2020-08-06T10:44:36.115Z</time>
      </trkpt>
      <trkpt lat="63.34647" lon="10.35269">
        <ele>172.523313</ele>
        <time>2020-08-06T10:44:40.158Z</time>
      </trkpt>
      <trkpt lat="63.34654" lon="10.35281">
        <ele>172.871692</ele>
        <time>2020-08-06T10:44:44.115Z</time>
      </trkpt>
      <trkpt lat="63.34662" lon="10.35293">
        <ele>173.221158</ele>
        <time>2020-08-06T10:44:48.141Z</time>
      </trkpt>
      <trkpt lat="63.3467" lon="10.35304">
        <ele>173.587264</ele>
        <time>2020-08-06T10:44:52.143Z</time>
      </trkpt>
      <trkpt lat="63.34679" lon="10.35316">
        <ele>173.980665</ele>
        <time>2020-08-06T10:44:56.125Z</time>
      </trkpt>
      <trkpt lat="63.34687" lon="10.35326">
        <ele>174.337244</ele>
        <time>2020-08-06T10:45:00.136Z</time>
      </trkpt>
      <trkpt lat="63.34695" lon="10.35338">
        <ele>174.722436</ele>
        <time>2020-08-06T10:45:04.123Z</time>
      </trkpt>
      <trkpt lat="63.34705" lon="10.35347">
        <ele>175.118908</ele>
        <time>2020-08-06T10:45:09.175Z</time>
      </trkpt>
      <trkpt lat="63.34715" lon="10.35356">
        <ele>175.558781</ele>
        <time>2020-08-06T10:45:14.162Z</time>
      </trkpt>
      <trkpt lat="63.34724" lon="10.35361">
        <ele>175.90612</ele>
        <time>2020-08-06T10:45:17.165Z</time>
      </trkpt>
      <trkpt lat="63.34734" lon="10.35369">
        <ele>176.310283</ele>
        <time>2020-08-06T10:45:21.127Z</time>
      </trkpt>
      <trkpt lat="63.34744" lon="10.35375">
        <ele>176.726568</ele>
        <time>2020-08-06T10:45:25.130Z</time>
      </trkpt>
      <trkpt lat="63.34754" lon="10.35384">
        <ele>177.117854</ele>
        <time>2020-08-06T10:45:29.127Z</time>
      </trkpt>
      <trkpt lat="63.34761" lon="10.35397">
        <ele>177.481874</ele>
        <time>2020-08-06T10:45:33.129Z</time>
      </trkpt>
      <trkpt lat="63.34767" lon="10.35416">
        <ele>177.884441</ele>
        <time>2020-08-06T10:45:38.125Z</time>
      </trkpt>
      <trkpt lat="63.34778" lon="10.35417">
        <ele>178.307734</ele>
        <time>2020-08-06T10:45:43.130Z</time>
      </trkpt>
      <trkpt lat="63.34789" lon="10.35409">
        <ele>178.722391</ele>
        <time>2020-08-06T10:45:48.131Z</time>
      </trkpt>
      <trkpt lat="63.34799" lon="10.3541">
        <ele>179.31745</ele>
        <time>2020-08-06T10:45:52.161Z</time>
      </trkpt>
      <trkpt lat="63.34809" lon="10.35415">
        <ele>180.056166</ele>
        <time>2020-08-06T10:45:56.138Z</time>
      </trkpt>
      <trkpt lat="63.34819" lon="10.35421">
        <ele>180.760997</ele>
        <time>2020-08-06T10:46:00.146Z</time>
      </trkpt>
      <trkpt lat="63.3483" lon="10.35428">
        <ele>181.545248</ele>
        <time>2020-08-06T10:46:04.143Z</time>
      </trkpt>
      <trkpt lat="63.34839" lon="10.35432">
        <ele>182.204101</ele>
        <time>2020-08-06T10:46:08.124Z</time>
      </trkpt>
      <trkpt lat="63.34848" lon="10.35436">
        <ele>182.832412</ele>
        <time>2020-08-06T10:46:12.169Z</time>
      </trkpt>
      <trkpt lat="63.34858" lon="10.35443">
        <ele>183.518851</ele>
        <time>2020-08-06T10:46:16.140Z</time>
      </trkpt>
      <trkpt lat="63.34868" lon="10.35452">
        <ele>184.271186</ele>
        <time>2020-08-06T10:46:20.137Z</time>
      </trkpt>
      <trkpt lat="63.34878" lon="10.3546">
        <ele>185.000248</ele>
        <time>2020-08-06T10:46:24.140Z</time>
      </trkpt>
      <trkpt lat="63.34888" lon="10.35466">
        <ele>185.759602</ele>
        <time>2020-08-06T10:46:29.141Z</time>
      </trkpt>
      <trkpt lat="63.34897" lon="10.35471">
        <ele>186.389392</ele>
        <time>2020-08-06T10:46:33.161Z</time>
      </trkpt>
      <trkpt lat="63.34906" lon="10.35477">
        <ele>187.048297</ele>
        <time>2020-08-06T10:46:37.151Z</time>
      </trkpt>
      <trkpt lat="63.34916" lon="10.35486">
        <ele>187.77885</ele>
        <time>2020-08-06T10:46:42.125Z</time>
      </trkpt>
      <trkpt lat="63.34925" lon="10.35497">
        <ele>188.52892</ele>
        <time>2020-08-06T10:46:47.128Z</time>
      </trkpt>
      <trkpt lat="63.34935" lon="10.35503">
        <ele>189.253048</ele>
        <time>2020-08-06T10:46:52.146Z</time>
      </trkpt>
      <trkpt lat="63.34945" lon="10.35511">
        <ele>189.955983</ele>
        <time>2020-08-06T10:46:57.139Z</time>
      </trkpt>
      <trkpt lat="63.34955" lon="10.35518">
        <ele>190.711196</ele>
        <time>2020-08-06T10:47:02.126Z</time>
      </trkpt>
      <trkpt lat="63.34964" lon="10.35527">
        <ele>191.353002</ele>
        <time>2020-08-06T10:47:06.144Z</time>
      </trkpt>
      <trkpt lat="63.34973" lon="10.35538">
        <ele>191.849144</ele>
        <time>2020-08-06T10:47:10.136Z</time>
      </trkpt>
      <trkpt lat="63.34983" lon="10.35547">
        <ele>192.354344</ele>
        <time>2020-08-06T10:47:14.157Z</time>
      </trkpt>
      <trkpt lat="63.34995" lon="10.35552">
        <ele>192.896873</ele>
        <time>2020-08-06T10:47:18.125Z</time>
      </trkpt>
      <trkpt lat="63.35003" lon="10.35559">
        <ele>193.322239</ele>
        <time>2020-08-06T10:47:22.160Z</time>
      </trkpt>
      <trkpt lat="63.35014" lon="10.35558">
        <ele>193.809181</ele>
        <time>2020-08-06T10:47:27.153Z</time>
      </trkpt>
      <trkpt lat="63.35025" lon="10.35561">
        <ele>194.336114</ele>
        <time>2020-08-06T10:47:32.127Z</time>
      </trkpt>
      <trkpt lat="63.35034" lon="10.35569">
        <ele>194.764965</ele>
        <time>2020-08-06T10:47:35.137Z</time>
      </trkpt>
      <trkpt lat="63.35042" lon="10.35578">
        <ele>195.184571</ele>
        <time>2020-08-06T10:47:38.145Z</time>
      </trkpt>
      <trkpt lat="63.35051" lon="10.35587">
        <ele>195.637302</ele>
        <time>2020-08-06T10:47:42.145Z</time>
      </trkpt>
      <trkpt lat="63.35059" lon="10.356">
        <ele>196.096914</ele>
        <time>2020-08-06T10:47:47.170Z</time>
      </trkpt>
      <trkpt lat="63.35069" lon="10.35607">
        <ele>196.587005</ele>
        <time>2020-08-06T10:47:53.142Z</time>
      </trkpt>
      <trkpt lat="63.35079" lon="10.35611">
        <ele>197.071848</ele>
        <time>2020-08-06T10:47:57.127Z</time>
      </trkpt>
      <trkpt lat="63.35089" lon="10.35621">
        <ele>197.597137</ele>
        <time>2020-08-06T10:48:01.131Z</time>
      </trkpt>
      <trkpt lat="63.351" lon="10.3563">
        <ele>198.102082</ele>
        <time>2020-08-06T10:48:04.143Z</time>
      </trkpt>
      <trkpt lat="63.35109" lon="10.35639">
        <ele>198.573354</ele>
        <time>2020-08-06T10:48:08.139Z</time>
      </trkpt>
      <trkpt lat="63.35119" lon="10.35641">
        <ele>199.024822</ele>
        <time>2020-08-06T10:48:13.185Z</time>
      </trkpt>
      <trkpt lat="63.35131" lon="10.35653">
        <ele>199.659175</ele>
        <time>2020-08-06T10:49:00.158Z</time>
      </trkpt>
      <trkpt lat="63.3514" lon="10.35664">
        <ele>199.451849</ele>
        <time>2020-08-06T10:49:05.143Z</time>
      </trkpt>
      <trkpt lat="63.35148" lon="10.35673">
        <ele>199.198269</ele>
        <time>2020-08-06T10:49:09.123Z</time>
      </trkpt>
      <trkpt lat="63.35157" lon="10.3568">
        <ele>198.934852</ele>
        <time>2020-08-06T10:49:14.130Z</time>
      </trkpt>
      <trkpt lat="63.35167" lon="10.35687">
        <ele>198.661432</ele>
        <time>2020-08-06T10:49:18.141Z</time>
      </trkpt>
      <trkpt lat="63.35178" lon="10.35696">
        <ele>198.337877</ele>
        <time>2020-08-06T10:49:21.155Z</time>
      </trkpt>
      <trkpt lat="63.3519" lon="10.35703">
        <ele>198.005257</ele>
        <time>2020-08-06T10:49:24.133Z</time>
      </trkpt>
      <trkpt lat="63.35201" lon="10.35711">
        <ele>197.68503</ele>
        <time>2020-08-06T10:49:27.125Z</time>
      </trkpt>
      <trkpt lat="63.35212" lon="10.35717">
        <ele>197.371776</ele>
        <time>2020-08-06T10:49:30.131Z</time>
      </trkpt>
      <trkpt lat="63.35224" lon="10.35724">
        <ele>197.018695</ele>
        <time>2020-08-06T10:49:33.162Z</time>
      </trkpt>
      <trkpt lat="63.35234" lon="10.35726">
        <ele>196.760187</ele>
        <time>2020-08-06T10:49:35.122Z</time>
      </trkpt>
      <trkpt lat="63.35243" lon="10.35731">
        <ele>196.497504</ele>
        <time>2020-08-06T10:49:37.137Z</time>
      </trkpt>
      <trkpt lat="63.35252" lon="10.35735">
        <ele>196.249445</ele>
        <time>2020-08-06T10:49:39.124Z</time>
      </trkpt>
      <trkpt lat="63.35265" lon="10.35741">
        <ele>195.8838</ele>
        <time>2020-08-06T10:49:42.129Z</time>
      </trkpt>
      <trkpt lat="63.35274" lon="10.35744">
        <ele>195.631701</ele>
        <time>2020-08-06T10:49:44.196Z</time>
      </trkpt>
      <trkpt lat="63.35285" lon="10.35747">
        <ele>195.351057</ele>
        <time>2020-08-06T10:49:46.158Z</time>
      </trkpt>
      <trkpt lat="63.35295" lon="10.35749">
        <ele>195.062542</ele>
        <time>2020-08-06T10:49:48.136Z</time>
      </trkpt>
      <trkpt lat="63.35304" lon="10.35752">
        <ele>194.804301</ele>
        <time>2020-08-06T10:49:50.156Z</time>
      </trkpt>
      <trkpt lat="63.35317" lon="10.3575">
        <ele>194.537925</ele>
        <time>2020-08-06T10:49:53.136Z</time>
      </trkpt>
      <trkpt lat="63.35327" lon="10.35748">
        <ele>194.354896</ele>
        <time>2020-08-06T10:49:56.141Z</time>
      </trkpt>
      <trkpt lat="63.35336" lon="10.35746">
        <ele>194.167333</ele>
        <time>2020-08-06T10:49:59.135Z</time>
      </trkpt>
      <trkpt lat="63.35347" lon="10.35747">
        <ele>193.938829</ele>
        <time>2020-08-06T10:50:02.142Z</time>
      </trkpt>
      <trkpt lat="63.3536" lon="10.35748">
        <ele>193.684164</ele>
        <time>2020-08-06T10:50:05.140Z</time>
      </trkpt>
      <trkpt lat="63.35372" lon="10.35755">
        <ele>193.425288</ele>
        <time>2020-08-06T10:50:08.124Z</time>
      </trkpt>
      <trkpt lat="63.35383" lon="10.35765">
        <ele>193.196894</ele>
        <time>2020-08-06T10:50:10.140Z</time>
      </trkpt>
      <trkpt lat="63.35393" lon="10.35779">
        <ele>192.965637</ele>
        <time>2020-08-06T10:50:12.168Z</time>
      </trkpt>
      <trkpt lat="63.35403" lon="10.35793">
        <ele>192.730503</ele>
        <time>2020-08-06T10:50:14.175Z</time>
      </trkpt>
      <trkpt lat="63.35411" lon="10.35804">
        <ele>192.524422</ele>
        <time>2020-08-06T10:50:16.140Z</time>
      </trkpt>
      <trkpt lat="63.35421" lon="10.35818">
        <ele>192.300418</ele>
        <time>2020-08-06T10:50:18.115Z</time>
      </trkpt>
      <trkpt lat="63.35433" lon="10.35834">
        <ele>192.025913</ele>
        <time>2020-08-06T10:50:20.160Z</time>
      </trkpt>
      <trkpt lat="63.35442" lon="10.35842">
        <ele>191.817744</ele>
        <time>2020-08-06T10:50:22.120Z</time>
      </trkpt>
      <trkpt lat="63.35454" lon="10.35844">
        <ele>191.580514</ele>
        <time>2020-08-06T10:50:25.135Z</time>
      </trkpt>
      <trkpt lat="63.35465" lon="10.35842">
        <ele>191.37183</ele>
        <time>2020-08-06T10:50:28.180Z</time>
      </trkpt>
      <trkpt lat="63.35474" lon="10.35831">
        <ele>191.143882</ele>
        <time>2020-08-06T10:50:32.177Z</time>
      </trkpt>
      <trkpt lat="63.35484" lon="10.35822">
        <ele>190.876391</ele>
        <time>2020-08-06T10:50:35.135Z</time>
      </trkpt>
      <trkpt lat="63.35495" lon="10.35819">
        <ele>190.577207</ele>
        <time>2020-08-06T10:50:38.129Z</time>
      </trkpt>
      <trkpt lat="63.35507" lon="10.35817">
        <ele>190.284733</ele>
        <time>2020-08-06T10:50:41.141Z</time>
      </trkpt>
      <trkpt lat="63.35518" lon="10.35818">
        <ele>189.995047</ele>
        <time>2020-08-06T10:50:44.153Z</time>
      </trkpt>
      <trkpt lat="63.35531" lon="10.3582">
        <ele>189.654217</ele>
        <time>2020-08-06T10:50:47.149Z</time>
      </trkpt>
      <trkpt lat="63.35542" lon="10.35823">
        <ele>189.37831</ele>
        <time>2020-08-06T10:50:50.140Z</time>
      </trkpt>
      <trkpt lat="63.3555" lon="10.35833">
        <ele>189.136946</ele>
        <time>2020-08-06T10:50:53.138Z</time>
      </trkpt>
      <trkpt lat="63.35562" lon="10.35848">
        <ele>188.791089</ele>
        <time>2020-08-06T10:50:56.132Z</time>
      </trkpt>
      <trkpt lat="63.3557" lon="10.35858">
        <ele>188.552529</ele>
        <time>2020-08-06T10:50:58.136Z</time>
      </trkpt>
      <trkpt lat="63.35579" lon="10.35864">
        <ele>188.308542</ele>
        <time>2020-08-06T10:51:00.134Z</time>
      </trkpt>
      <trkpt lat="63.3559" lon="10.35868">
        <ele>188.038536</ele>
        <time>2020-08-06T10:51:02.180Z</time>
      </trkpt>
      <trkpt lat="63.35601" lon="10.35872">
        <ele>187.74903</ele>
        <time>2020-08-06T10:51:04.123Z</time>
      </trkpt>
      <trkpt lat="63.35611" lon="10.35878">
        <ele>187.478244</ele>
        <time>2020-08-06T10:51:06.156Z</time>
      </trkpt>
      <trkpt lat="63.35622" lon="10.35886">
        <ele>187.195095</ele>
        <time>2020-08-06T10:51:08.152Z</time>
      </trkpt>
      <trkpt lat="63.35632" lon="10.35892">
        <ele>186.922723</ele>
        <time>2020-08-06T10:51:10.128Z</time>
      </trkpt>
      <trkpt lat="63.35642" lon="10.35899">
        <ele>186.651316</ele>
        <time>2020-08-06T10:51:12.141Z</time>
      </trkpt>
      <trkpt lat="63.35653" lon="10.35904">
        <ele>186.122113</ele>
        <time>2020-08-06T10:51:14.173Z</time>
      </trkpt>
      <trkpt lat="63.35665" lon="10.35911">
        <ele>185.469589</ele>
        <time>2020-08-06T10:51:16.127Z</time>
      </trkpt>
      <trkpt lat="63.35676" lon="10.35919">
        <ele>184.797304</ele>
        <time>2020-08-06T10:51:18.169Z</time>
      </trkpt>
      <trkpt lat="63.35689" lon="10.35926">
        <ele>184.079452</ele>
        <time>2020-08-06T10:51:20.149Z</time>
      </trkpt>
      <trkpt lat="63.35702" lon="10.35932">
        <ele>183.333474</ele>
        <time>2020-08-06T10:51:22.157Z</time>
      </trkpt>
      <trkpt lat="63.35716" lon="10.35933">
        <ele>182.592365</ele>
        <time>2020-08-06T10:51:24.147Z</time>
      </trkpt>
      <trkpt lat="63.35729" lon="10.35935">
        <ele>181.867332</ele>
        <time>2020-08-06T10:51:26.140Z</time>
      </trkpt>
      <trkpt lat="63.35742" lon="10.35938">
        <ele>181.133649</ele>
        <time>2020-08-06T10:51:28.153Z</time>
      </trkpt>
      <trkpt lat="63.35755" lon="10.35946">
        <ele>180.400453</ele>
        <time>2020-08-06T10:51:30.146Z</time>
      </trkpt>
      <trkpt lat="63.35768" lon="10.35957">
        <ele>179.658329</ele>
        <time>2020-08-06T10:51:32.139Z</time>
      </trkpt>
      <trkpt lat="63.35781" lon="10.35966">
        <ele>178.925133</ele>
        <time>2020-08-06T10:51:34.157Z</time>
      </trkpt>
      <trkpt lat="63.35796" lon="10.35969">
        <ele>178.093895</ele>
        <time>2020-08-06T10:51:36.172Z</time>
      </trkpt>
      <trkpt lat="63.35812" lon="10.35971">
        <ele>177.214985</ele>
        <time>2020-08-06T10:51:38.141Z</time>
      </trkpt>
      <trkpt lat="63.35827" lon="10.35978">
        <ele>176.358208</ele>
        <time>2020-08-06T10:51:40.165Z</time>
      </trkpt>
      <trkpt lat="63.35841" lon="10.35991">
        <ele>175.529636</ele>
        <time>2020-08-06T10:51:42.149Z</time>
      </trkpt>
      <trkpt lat="63.35855" lon="10.36002">
        <ele>174.730219</ele>
        <time>2020-08-06T10:51:44.139Z</time>
      </trkpt>
      <trkpt lat="63.3587" lon="10.36006">
        <ele>173.881013</ele>
        <time>2020-08-06T10:51:46.156Z</time>
      </trkpt>
      <trkpt lat="63.35886" lon="10.36013">
        <ele>172.968737</ele>
        <time>2020-08-06T10:51:48.145Z</time>
      </trkpt>
      <trkpt lat="63.35902" lon="10.36028">
        <ele>172.041142</ele>
        <time>2020-08-06T10:51:50.123Z</time>
      </trkpt>
      <trkpt lat="63.35918" lon="10.36046">
        <ele>171.07669</ele>
        <time>2020-08-06T10:51:52.149Z</time>
      </trkpt>
      <trkpt lat="63.35932" lon="10.36057">
        <ele>170.232117</ele>
        <time>2020-08-06T10:51:54.134Z</time>
      </trkpt>
      <trkpt lat="63.35948" lon="10.36058">
        <ele>169.361547</ele>
        <time>2020-08-06T10:51:56.137Z</time>
      </trkpt>
      <trkpt lat="63.35965" lon="10.36057">
        <ele>168.469014</ele>
        <time>2020-08-06T10:51:58.126Z</time>
      </trkpt>
      <trkpt lat="63.35982" lon="10.36058">
        <ele>167.537794</ele>
        <time>2020-08-06T10:52:00.131Z</time>
      </trkpt>
      <trkpt lat="63.35998" lon="10.36066">
        <ele>166.648267</ele>
        <time>2020-08-06T10:52:02.137Z</time>
      </trkpt>
      <trkpt lat="63.36015" lon="10.36075">
        <ele>165.849824</ele>
        <time>2020-08-06T10:52:04.142Z</time>
      </trkpt>
      <trkpt lat="63.36024" lon="10.3608">
        <ele>165.440768</ele>
        <time>2020-08-06T10:52:05.148Z</time>
      </trkpt>
      <trkpt lat="63.36033" lon="10.36084">
        <ele>165.032161</ele>
        <time>2020-08-06T10:52:06.135Z</time>
      </trkpt>
      <trkpt lat="63.36042" lon="10.36089">
        <ele>164.627519</ele>
        <time>2020-08-06T10:52:07.161Z</time>
      </trkpt>
      <trkpt lat="63.36051" lon="10.36093">
        <ele>164.214925</ele>
        <time>2020-08-06T10:52:08.140Z</time>
      </trkpt>
      <trkpt lat="63.3606" lon="10.36097">
        <ele>163.802756</ele>
        <time>2020-08-06T10:52:09.138Z</time>
      </trkpt>
      <trkpt lat="63.36069" lon="10.36101">
        <ele>163.378834</ele>
        <time>2020-08-06T10:52:10.137Z</time>
      </trkpt>
      <trkpt lat="63.36078" lon="10.36105">
        <ele>162.952946</ele>
        <time>2020-08-06T10:52:11.125Z</time>
      </trkpt>
      <trkpt lat="63.36087" lon="10.36111">
        <ele>162.529603</ele>
        <time>2020-08-06T10:52:12.132Z</time>
      </trkpt>
      <trkpt lat="63.36096" lon="10.36117">
        <ele>162.108301</ele>
        <time>2020-08-06T10:52:13.131Z</time>
      </trkpt>
      <trkpt lat="63.36104" lon="10.36124">
        <ele>161.702015</ele>
        <time>2020-08-06T10:52:14.124Z</time>
      </trkpt>
      <trkpt lat="63.3612" lon="10.3614">
        <ele>160.93982</ele>
        <time>2020-08-06T10:52:16.176Z</time>
      </trkpt>
      <trkpt lat="63.36134" lon="10.36154">
        <ele>160.201633</ele>
        <time>2020-08-06T10:52:18.192Z</time>
      </trkpt>
      <trkpt lat="63.36149" lon="10.36168">
        <ele>159.480578</ele>
        <time>2020-08-06T10:52:20.131Z</time>
      </trkpt>
      <trkpt lat="63.36164" lon="10.36182">
        <ele>158.740447</ele>
        <time>2020-08-06T10:52:22.155Z</time>
      </trkpt>
      <trkpt lat="63.36181" lon="10.36196">
        <ele>158.182524</ele>
        <time>2020-08-06T10:52:24.129Z</time>
      </trkpt>
      <trkpt lat="63.36189" lon="10.36204">
        <ele>157.891452</ele>
        <time>2020-08-06T10:52:25.131Z</time>
      </trkpt>
      <trkpt lat="63.36197" lon="10.36214">
        <ele>157.601767</ele>
        <time>2020-08-06T10:52:26.173Z</time>
      </trkpt>
      <trkpt lat="63.36205" lon="10.36224">
        <ele>157.317041</ele>
        <time>2020-08-06T10:52:27.155Z</time>
      </trkpt>
      <trkpt lat="63.36219" lon="10.36245">
        <ele>156.796312</ele>
        <time>2020-08-06T10:52:29.124Z</time>
      </trkpt>
      <trkpt lat="63.36228" lon="10.36264">
        <ele>156.397254</ele>
        <time>2020-08-06T10:52:31.124Z</time>
      </trkpt>
      <trkpt lat="63.36235" lon="10.36284">
        <ele>156.050397</ele>
        <time>2020-08-06T10:52:33.135Z</time>
      </trkpt>
      <trkpt lat="63.36238" lon="10.36304">
        <ele>155.73729</ele>
        <time>2020-08-06T10:52:35.156Z</time>
      </trkpt>
      <trkpt lat="63.36242" lon="10.36323">
        <ele>155.448093</ele>
        <time>2020-08-06T10:52:37.153Z</time>
      </trkpt>
      <trkpt lat="63.36249" lon="10.36345">
        <ele>155.075627</ele>
        <time>2020-08-06T10:52:40.135Z</time>
      </trkpt>
      <trkpt lat="63.3626" lon="10.3635">
        <ele>154.717566</ele>
        <time>2020-08-06T10:52:44.136Z</time>
      </trkpt>
      <trkpt lat="63.36269" lon="10.36354">
        <ele>154.415112</ele>
        <time>2020-08-06T10:52:47.149Z</time>
      </trkpt>
      <trkpt lat="63.3628" lon="10.36362">
        <ele>154.073918</ele>
        <time>2020-08-06T10:52:50.119Z</time>
      </trkpt>
      <trkpt lat="63.36292" lon="10.36375">
        <ele>153.633336</ele>
        <time>2020-08-06T10:52:53.137Z</time>
      </trkpt>
      <trkpt lat="63.36303" lon="10.36384">
        <ele>153.283606</ele>
        <time>2020-08-06T10:52:55.143Z</time>
      </trkpt>
      <trkpt lat="63.36315" lon="10.36394">
        <ele>152.848631</ele>
        <time>2020-08-06T10:52:57.148Z</time>
      </trkpt>
      <trkpt lat="63.36327" lon="10.36402">
        <ele>152.427122</ele>
        <time>2020-08-06T10:52:59.159Z</time>
      </trkpt>
      <trkpt lat="63.36341" lon="10.3641">
        <ele>151.950739</ele>
        <time>2020-08-06T10:53:01.170Z</time>
      </trkpt>
      <trkpt lat="63.36356" lon="10.36417">
        <ele>151.444914</ele>
        <time>2020-08-06T10:53:03.139Z</time>
      </trkpt>
      <trkpt lat="63.36371" lon="10.36422">
        <ele>150.929991</ele>
        <time>2020-08-06T10:53:05.137Z</time>
      </trkpt>
      <trkpt lat="63.36387" lon="10.36422">
        <ele>150.380194</ele>
        <time>2020-08-06T10:53:07.140Z</time>
      </trkpt>
      <trkpt lat="63.36404" lon="10.36421">
        <ele>149.826752</ele>
        <time>2020-08-06T10:53:09.131Z</time>
      </trkpt>
      <trkpt lat="63.36421" lon="10.36423">
        <ele>149.256441</ele>
        <time>2020-08-06T10:53:11.139Z</time>
      </trkpt>
      <trkpt lat="63.36438" lon="10.36429">
        <ele>148.666369</ele>
        <time>2020-08-06T10:53:13.147Z</time>
      </trkpt>
      <trkpt lat="63.36447" lon="10.36433">
        <ele>148.363109</ele>
        <time>2020-08-06T10:53:14.131Z</time>
      </trkpt>
      <trkpt lat="63.36456" lon="10.36438">
        <ele>148.055148</ele>
        <time>2020-08-06T10:53:15.129Z</time>
      </trkpt>
      <trkpt lat="63.36465" lon="10.36443">
        <ele>147.746037</ele>
        <time>2020-08-06T10:53:16.138Z</time>
      </trkpt>
      <trkpt lat="63.36474" lon="10.36448">
        <ele>147.436593</ele>
        <time>2020-08-06T10:53:17.122Z</time>
      </trkpt>
      <trkpt lat="63.36483" lon="10.36453">
        <ele>147.129064</ele>
        <time>2020-08-06T10:53:18.152Z</time>
      </trkpt>
      <trkpt lat="63.36491" lon="10.36461">
        <ele>146.866729</ele>
        <time>2020-08-06T10:53:19.115Z</time>
      </trkpt>
      <trkpt lat="63.36506" lon="10.36479">
        <ele>146.402473</ele>
        <time>2020-08-06T10:53:21.156Z</time>
      </trkpt>
      <trkpt lat="63.36521" lon="10.36495">
        <ele>145.949318</ele>
        <time>2020-08-06T10:53:23.147Z</time>
      </trkpt>
      <trkpt lat="63.36537" lon="10.36509">
        <ele>145.509647</ele>
        <time>2020-08-06T10:53:25.153Z</time>
      </trkpt>
      <trkpt lat="63.36552" lon="10.3652">
        <ele>145.067465</ele>
        <time>2020-08-06T10:53:27.124Z</time>
      </trkpt>
      <trkpt lat="63.36568" lon="10.36531">
        <ele>144.621216</ele>
        <time>2020-08-06T10:53:29.161Z</time>
      </trkpt>
      <trkpt lat="63.36585" lon="10.36542">
        <ele>144.154655</ele>
        <time>2020-08-06T10:53:31.170Z</time>
      </trkpt>
      <trkpt lat="63.36602" lon="10.36551">
        <ele>143.684582</ele>
        <time>2020-08-06T10:53:33.173Z</time>
      </trkpt>
      <trkpt lat="63.36619" lon="10.36558">
        <ele>143.215044</ele>
        <time>2020-08-06T10:53:35.132Z</time>
      </trkpt>
      <trkpt lat="63.36636" lon="10.36565">
        <ele>142.737985</ele>
        <time>2020-08-06T10:53:37.152Z</time>
      </trkpt>
      <trkpt lat="63.36652" lon="10.36573">
        <ele>142.29448</ele>
        <time>2020-08-06T10:53:39.166Z</time>
      </trkpt>
      <trkpt lat="63.36667" lon="10.36587">
        <ele>141.766414</ele>
        <time>2020-08-06T10:53:41.138Z</time>
      </trkpt>
      <trkpt lat="63.3668" lon="10.36608">
        <ele>141.196131</ele>
        <time>2020-08-06T10:53:43.141Z</time>
      </trkpt>
      <trkpt lat="63.36693" lon="10.36631">
        <ele>140.61701</ele>
        <time>2020-08-06T10:53:45.132Z</time>
      </trkpt>
      <trkpt lat="63.36706" lon="10.3665">
        <ele>140.059138</ele>
        <time>2020-08-06T10:53:47.154Z</time>
      </trkpt>
      <trkpt lat="63.36722" lon="10.36663">
        <ele>139.491263</ele>
        <time>2020-08-06T10:53:49.129Z</time>
      </trkpt>
      <trkpt lat="63.36738" lon="10.36672">
        <ele>138.889017</ele>
        <time>2020-08-06T10:53:51.135Z</time>
      </trkpt>
      <trkpt lat="63.36747" lon="10.36675">
        <ele>138.575397</ele>
        <time>2020-08-06T10:53:52.124Z</time>
      </trkpt>
      <trkpt lat="63.36756" lon="10.36679">
        <ele>138.247975</ele>
        <time>2020-08-06T10:53:53.123Z</time>
      </trkpt>
      <trkpt lat="63.36765" lon="10.36683">
        <ele>137.926886</ele>
        <time>2020-08-06T10:53:54.160Z</time>
      </trkpt>
      <trkpt lat="63.36783" lon="10.36691">
        <ele>137.306251</ele>
        <time>2020-08-06T10:53:56.142Z</time>
      </trkpt>
      <trkpt lat="63.36799" lon="10.36699">
        <ele>136.70341</ele>
        <time>2020-08-06T10:53:58.131Z</time>
      </trkpt>
      <trkpt lat="63.36808" lon="10.36703">
        <ele>136.385466</ele>
        <time>2020-08-06T10:53:59.149Z</time>
      </trkpt>
      <trkpt lat="63.36826" lon="10.36705">
        <ele>135.793861</ele>
        <time>2020-08-06T10:54:01.120Z</time>
      </trkpt>
      <trkpt lat="63.36843" lon="10.36703">
        <ele>135.348681</ele>
        <time>2020-08-06T10:54:03.140Z</time>
      </trkpt>
      <trkpt lat="63.36861" lon="10.36699">
        <ele>134.909422</ele>
        <time>2020-08-06T10:54:05.151Z</time>
      </trkpt>
      <trkpt lat="63.36876" lon="10.36696">
        <ele>134.508984</ele>
        <time>2020-08-06T10:54:07.139Z</time>
      </trkpt>
      <trkpt lat="63.36892" lon="10.36695">
        <ele>134.110201</ele>
        <time>2020-08-06T10:54:09.123Z</time>
      </trkpt>
      <trkpt lat="63.36905" lon="10.36694">
        <ele>133.78045</ele>
        <time>2020-08-06T10:54:11.129Z</time>
      </trkpt>
      <trkpt lat="63.36914" lon="10.36691">
        <ele>133.545857</ele>
        <time>2020-08-06T10:54:13.139Z</time>
      </trkpt>
      <trkpt lat="63.36923" lon="10.3669">
        <ele>133.307308</ele>
        <time>2020-08-06T10:54:16.175Z</time>
      </trkpt>
      <trkpt lat="63.36932" lon="10.36694">
        <ele>133.073321</ele>
        <time>2020-08-06T10:54:19.131Z</time>
      </trkpt>
      <trkpt lat="63.36941" lon="10.36704">
        <ele>132.815683</ele>
        <time>2020-08-06T10:54:22.163Z</time>
      </trkpt>
      <trkpt lat="63.36952" lon="10.36716">
        <ele>132.501764</ele>
        <time>2020-08-06T10:54:25.136Z</time>
      </trkpt>
      <trkpt lat="63.36963" lon="10.3673">
        <ele>132.174249</ele>
        <time>2020-08-06T10:54:28.166Z</time>
      </trkpt>
      <trkpt lat="63.36975" lon="10.36746">
        <ele>131.830635</ele>
        <time>2020-08-06T10:54:31.123Z</time>
      </trkpt>
      <trkpt lat="63.36983" lon="10.36759">
        <ele>131.582354</ele>
        <time>2020-08-06T10:54:33.165Z</time>
      </trkpt>
      <trkpt lat="63.36991" lon="10.3677">
        <ele>131.332071</ele>
        <time>2020-08-06T10:54:35.135Z</time>
      </trkpt>
      <trkpt lat="63.36999" lon="10.36781">
        <ele>130.791092</ele>
        <time>2020-08-06T10:54:37.147Z</time>
      </trkpt>
      <trkpt lat="63.3701" lon="10.3679">
        <ele>130.082483</ele>
        <time>2020-08-06T10:54:39.139Z</time>
      </trkpt>
      <trkpt lat="63.37022" lon="10.36799">
        <ele>129.283885</ele>
        <time>2020-08-06T10:54:41.125Z</time>
      </trkpt>
      <trkpt lat="63.37034" lon="10.36806">
        <ele>128.493611</ele>
        <time>2020-08-06T10:54:43.135Z</time>
      </trkpt>
      <trkpt lat="63.37046" lon="10.36811">
        <ele>127.710843</ele>
        <time>2020-08-06T10:54:45.136Z</time>
      </trkpt>
      <trkpt lat="63.37059" lon="10.36814">
        <ele>126.858348</ele>
        <time>2020-08-06T10:54:47.155Z</time>
      </trkpt>
      <trkpt lat="63.37073" lon="10.36816">
        <ele>125.975158</ele>
        <time>2020-08-06T10:54:49.129Z</time>
      </trkpt>
      <trkpt lat="63.37088" lon="10.3682">
        <ele>124.994327</ele>
        <time>2020-08-06T10:54:51.158Z</time>
      </trkpt>
      <trkpt lat="63.37104" lon="10.36825">
        <ele>123.986226</ele>
        <time>2020-08-06T10:54:53.139Z</time>
      </trkpt>
      <trkpt lat="63.37119" lon="10.36832">
        <ele>122.972017</ele>
        <time>2020-08-06T10:54:55.161Z</time>
      </trkpt>
      <trkpt lat="63.37134" lon="10.36841">
        <ele>122.025256</ele>
        <time>2020-08-06T10:54:57.128Z</time>
      </trkpt>
      <trkpt lat="63.37147" lon="10.36852">
        <ele>121.086608</ele>
        <time>2020-08-06T10:54:59.119Z</time>
      </trkpt>
      <trkpt lat="63.37163" lon="10.36863">
        <ele>120.058823</ele>
        <time>2020-08-06T10:55:01.132Z</time>
      </trkpt>
      <trkpt lat="63.37178" lon="10.36874">
        <ele>119.335402</ele>
        <time>2020-08-06T10:55:03.126Z</time>
      </trkpt>
      <trkpt lat="63.37194" lon="10.36883">
        <ele>118.716371</ele>
        <time>2020-08-06T10:55:05.124Z</time>
      </trkpt>
      <trkpt lat="63.3721" lon="10.36887">
        <ele>118.114806</ele>
        <time>2020-08-06T10:55:07.145Z</time>
      </trkpt>
      <trkpt lat="63.37225" lon="10.36886">
        <ele>117.556511</ele>
        <time>2020-08-06T10:55:09.143Z</time>
      </trkpt>
      <trkpt lat="63.37238" lon="10.3687">
        <ele>116.985434</ele>
        <time>2020-08-06T10:55:11.143Z</time>
      </trkpt>
      <trkpt lat="63.37254" lon="10.36855">
        <ele>116.334386</ele>
        <time>2020-08-06T10:55:13.130Z</time>
      </trkpt>
      <trkpt lat="63.37263" lon="10.36849">
        <ele>115.977317</ele>
        <time>2020-08-06T10:55:14.120Z</time>
      </trkpt>
      <trkpt lat="63.37271" lon="10.36843">
        <ele>115.626281</ele>
        <time>2020-08-06T10:55:15.130Z</time>
      </trkpt>
      <trkpt lat="63.3728" lon="10.36836">
        <ele>115.285291</ele>
        <time>2020-08-06T10:55:16.132Z</time>
      </trkpt>
      <trkpt lat="63.37292" lon="10.36814">
        <ele>114.67265</ele>
        <time>2020-08-06T10:55:18.154Z</time>
      </trkpt>
      <trkpt lat="63.37303" lon="10.36783">
        <ele>114.022461</ele>
        <time>2020-08-06T10:55:20.160Z</time>
      </trkpt>
      <trkpt lat="63.37316" lon="10.3676">
        <ele>113.381714</ele>
        <time>2020-08-06T10:55:22.129Z</time>
      </trkpt>
      <trkpt lat="63.3733" lon="10.36739">
        <ele>112.744227</ele>
        <time>2020-08-06T10:55:24.140Z</time>
      </trkpt>
      <trkpt lat="63.37342" lon="10.36717">
        <ele>112.148103</ele>
        <time>2020-08-06T10:55:26.152Z</time>
      </trkpt>
      <trkpt lat="63.37356" lon="10.36701">
        <ele>111.573062</ele>
        <time>2020-08-06T10:55:28.157Z</time>
      </trkpt>
      <trkpt lat="63.3737" lon="10.36693">
        <ele>111.004545</ele>
        <time>2020-08-06T10:55:30.146Z</time>
      </trkpt>
      <trkpt lat="63.37384" lon="10.36685">
        <ele>110.455248</ele>
        <time>2020-08-06T10:55:32.153Z</time>
      </trkpt>
      <trkpt lat="63.37397" lon="10.36668">
        <ele>109.895103</ele>
        <time>2020-08-06T10:55:34.127Z</time>
      </trkpt>
      <trkpt lat="63.37409" lon="10.36645">
        <ele>109.295416</ele>
        <time>2020-08-06T10:55:36.167Z</time>
      </trkpt>
      <trkpt lat="63.37418" lon="10.36614">
        <ele>108.672914</ele>
        <time>2020-08-06T10:55:38.150Z</time>
      </trkpt>
      <trkpt lat="63.37421" lon="10.36581">
        <ele>108.095272</ele>
        <time>2020-08-06T10:55:40.130Z</time>
      </trkpt>
      <trkpt lat="63.37427" lon="10.36551">
        <ele>107.533338</ele>
        <time>2020-08-06T10:55:42.118Z</time>
      </trkpt>
      <trkpt lat="63.37439" lon="10.36526">
        <ele>106.910302</ele>
        <time>2020-08-06T10:55:44.156Z</time>
      </trkpt>
      <trkpt lat="63.37447" lon="10.36515">
        <ele>106.569698</ele>
        <time>2020-08-06T10:55:45.143Z</time>
      </trkpt>
      <trkpt lat="63.37459" lon="10.36495">
        <ele>106.066369</ele>
        <time>2020-08-06T10:55:47.122Z</time>
      </trkpt>
      <trkpt lat="63.3747" lon="10.36479">
        <ele>105.812205</ele>
        <time>2020-08-06T10:55:49.146Z</time>
      </trkpt>
      <trkpt lat="63.3748" lon="10.3647">
        <ele>105.607378</ele>
        <time>2020-08-06T10:55:51.124Z</time>
      </trkpt>
      <trkpt lat="63.37491" lon="10.36475">
        <ele>105.389579</ele>
        <time>2020-08-06T10:55:53.125Z</time>
      </trkpt>
      <trkpt lat="63.37503" lon="10.3649">
        <ele>105.137449</ele>
        <time>2020-08-06T10:55:55.141Z</time>
      </trkpt>
      <trkpt lat="63.37513" lon="10.36504">
        <ele>104.90204</ele>
        <time>2020-08-06T10:55:57.129Z</time>
      </trkpt>
      <trkpt lat="63.37524" lon="10.36516">
        <ele>104.670873</ele>
        <time>2020-08-06T10:55:59.124Z</time>
      </trkpt>
      <trkpt lat="63.37536" lon="10.36529">
        <ele>104.416608</ele>
        <time>2020-08-06T10:56:01.165Z</time>
      </trkpt>
      <trkpt lat="63.37548" lon="10.36547">
        <ele>104.13498</ele>
        <time>2020-08-06T10:56:03.136Z</time>
      </trkpt>
      <trkpt lat="63.3756" lon="10.36567">
        <ele>103.851017</ele>
        <time>2020-08-06T10:56:05.128Z</time>
      </trkpt>
      <trkpt lat="63.3757" lon="10.36591">
        <ele>103.55922</ele>
        <time>2020-08-06T10:56:07.143Z</time>
      </trkpt>
      <trkpt lat="63.3758" lon="10.36615">
        <ele>103.285148</ele>
        <time>2020-08-06T10:56:09.152Z</time>
      </trkpt>
      <trkpt lat="63.37589" lon="10.36638">
        <ele>103.014274</ele>
        <time>2020-08-06T10:56:11.128Z</time>
      </trkpt>
      <trkpt lat="63.37599" lon="10.36662">
        <ele>102.734427</ele>
        <time>2020-08-06T10:56:13.138Z</time>
      </trkpt>
      <trkpt lat="63.37612" lon="10.36684">
        <ele>102.61484</ele>
        <time>2020-08-06T10:56:15.124Z</time>
      </trkpt>
      <trkpt lat="63.37626" lon="10.36699">
        <ele>102.522535</ele>
        <time>2020-08-06T10:56:17.138Z</time>
      </trkpt>
      <trkpt lat="63.37642" lon="10.36711">
        <ele>102.430043</ele>
        <time>2020-08-06T10:56:19.124Z</time>
      </trkpt>
      <trkpt lat="63.37657" lon="10.36724">
        <ele>102.338698</ele>
        <time>2020-08-06T10:56:21.121Z</time>
      </trkpt>
      <trkpt lat="63.37672" lon="10.36736">
        <ele>102.24693</ele>
        <time>2020-08-06T10:56:23.138Z</time>
      </trkpt>
      <trkpt lat="63.37686" lon="10.36747">
        <ele>102.159062</ele>
        <time>2020-08-06T10:56:25.127Z</time>
      </trkpt>
      <trkpt lat="63.37702" lon="10.36751">
        <ele>102.066758</ele>
        <time>2020-08-06T10:56:27.124Z</time>
      </trkpt>
      <trkpt lat="63.3772" lon="10.36747">
        <ele>101.96593</ele>
        <time>2020-08-06T10:56:29.132Z</time>
      </trkpt>
      <trkpt lat="63.37736" lon="10.36739">
        <ele>101.875613</ele>
        <time>2020-08-06T10:56:31.127Z</time>
      </trkpt>
      <trkpt lat="63.37751" lon="10.36732">
        <ele>101.785402</ele>
        <time>2020-08-06T10:56:33.156Z</time>
      </trkpt>
      <trkpt lat="63.37767" lon="10.36726">
        <ele>101.69304</ele>
        <time>2020-08-06T10:56:35.135Z</time>
      </trkpt>
      <trkpt lat="63.37785" lon="10.36729">
        <ele>101.555637</ele>
        <time>2020-08-06T10:56:37.172Z</time>
      </trkpt>
      <trkpt lat="63.378" lon="10.36742">
        <ele>101.416255</ele>
        <time>2020-08-06T10:56:39.163Z</time>
      </trkpt>
      <trkpt lat="63.37813" lon="10.36762">
        <ele>101.283458</ele>
        <time>2020-08-06T10:56:41.151Z</time>
      </trkpt>
      <trkpt lat="63.37825" lon="10.36783">
        <ele>101.151058</ele>
        <time>2020-08-06T10:56:43.143Z</time>
      </trkpt>
      <trkpt lat="63.37835" lon="10.36805">
        <ele>101.031388</ele>
        <time>2020-08-06T10:56:45.155Z</time>
      </trkpt>
      <trkpt lat="63.37845" lon="10.36821">
        <ele>100.924566</ele>
        <time>2020-08-06T10:56:47.124Z</time>
      </trkpt>
      <trkpt lat="63.37857" lon="10.36829">
        <ele>100.815781</ele>
        <time>2020-08-06T10:56:49.136Z</time>
      </trkpt>
      <trkpt lat="63.37872" lon="10.36826">
        <ele>100.689878</ele>
        <time>2020-08-06T10:56:51.163Z</time>
      </trkpt>
      <trkpt lat="63.37887" lon="10.36819">
        <ele>100.560006</ele>
        <time>2020-08-06T10:56:53.146Z</time>
      </trkpt>
      <trkpt lat="63.37903" lon="10.36811">
        <ele>100.422818</ele>
        <time>2020-08-06T10:56:55.148Z</time>
      </trkpt>
      <trkpt lat="63.37919" lon="10.36805">
        <ele>100.286182</ele>
        <time>2020-08-06T10:56:57.129Z</time>
      </trkpt>
      <trkpt lat="63.37935" lon="10.36807">
        <ele>100.143612</ele>
        <time>2020-08-06T10:56:59.128Z</time>
      </trkpt>
      <trkpt lat="63.37951" lon="10.36818">
        <ele>99.628944</ele>
        <time>2020-08-06T10:57:01.128Z</time>
      </trkpt>
      <trkpt lat="63.37964" lon="10.36839">
        <ele>99.073393</ele>
        <time>2020-08-06T10:57:03.143Z</time>
      </trkpt>
      <trkpt lat="63.37977" lon="10.36862">
        <ele>98.512474</ele>
        <time>2020-08-06T10:57:05.141Z</time>
      </trkpt>
      <trkpt lat="63.37989" lon="10.36883">
        <ele>97.997433</ele>
        <time>2020-08-06T10:57:07.149Z</time>
      </trkpt>
      <trkpt lat="63.38001" lon="10.36902">
        <ele>97.522895</ele>
        <time>2020-08-06T10:57:09.142Z</time>
      </trkpt>
      <trkpt lat="63.3801" lon="10.36919">
        <ele>97.109223</ele>
        <time>2020-08-06T10:57:11.165Z</time>
      </trkpt>
      <trkpt lat="63.3802" lon="10.36937">
        <ele>96.698646</ele>
        <time>2020-08-06T10:57:13.135Z</time>
      </trkpt>
      <trkpt lat="63.38029" lon="10.36955">
        <ele>96.295595</ele>
        <time>2020-08-06T10:57:15.156Z</time>
      </trkpt>
      <trkpt lat="63.38039" lon="10.36974">
        <ele>95.8583</ele>
        <time>2020-08-06T10:57:17.135Z</time>
      </trkpt>
      <trkpt lat="63.3805" lon="10.36991">
        <ele>95.400379</ele>
        <time>2020-08-06T10:57:19.164Z</time>
      </trkpt>
      <trkpt lat="63.38062" lon="10.37007">
        <ele>94.935952</ele>
        <time>2020-08-06T10:57:21.135Z</time>
      </trkpt>
      <trkpt lat="63.38075" lon="10.3702">
        <ele>94.460461</ele>
        <time>2020-08-06T10:57:23.157Z</time>
      </trkpt>
      <trkpt lat="63.38088" lon="10.37032">
        <ele>94.00079</ele>
        <time>2020-08-06T10:57:25.142Z</time>
      </trkpt>
      <trkpt lat="63.38102" lon="10.3704">
        <ele>93.54667</ele>
        <time>2020-08-06T10:57:27.189Z</time>
      </trkpt>
      <trkpt lat="63.38117" lon="10.37046">
        <ele>93.075054</ele>
        <time>2020-08-06T10:57:29.176Z</time>
      </trkpt>
      <trkpt lat="63.38132" lon="10.3705">
        <ele>92.595708</ele>
        <time>2020-08-06T10:57:31.128Z</time>
      </trkpt>
      <trkpt lat="63.3815" lon="10.37054">
        <ele>92.062942</ele>
        <time>2020-08-06T10:57:33.136Z</time>
      </trkpt>
      <trkpt lat="63.38166" lon="10.37053">
        <ele>91.544617</ele>
        <time>2020-08-06T10:57:35.181Z</time>
      </trkpt>
      <trkpt lat="63.38181" lon="10.37044">
        <ele>91.087842</ele>
        <time>2020-08-06T10:57:37.156Z</time>
      </trkpt>
      <trkpt lat="63.38194" lon="10.37031">
        <ele>90.643448</ele>
        <time>2020-08-06T10:57:39.151Z</time>
      </trkpt>
      <trkpt lat="63.38208" lon="10.37024">
        <ele>90.181565</ele>
        <time>2020-08-06T10:57:41.125Z</time>
      </trkpt>
      <trkpt lat="63.38223" lon="10.37028">
        <ele>89.721971</ele>
        <time>2020-08-06T10:57:43.161Z</time>
      </trkpt>
      <trkpt lat="63.38237" lon="10.37035">
        <ele>89.300872</ele>
        <time>2020-08-06T10:57:45.135Z</time>
      </trkpt>
      <trkpt lat="63.38251" lon="10.37041">
        <ele>88.860157</ele>
        <time>2020-08-06T10:57:47.178Z</time>
      </trkpt>
      <trkpt lat="63.38264" lon="10.37048">
        <ele>88.315797</ele>
        <time>2020-08-06T10:57:49.152Z</time>
      </trkpt>
      <trkpt lat="63.38276" lon="10.37053">
        <ele>87.588383</ele>
        <time>2020-08-06T10:57:51.140Z</time>
      </trkpt>
      <trkpt lat="63.38288" lon="10.3706">
        <ele>86.897301</ele>
        <time>2020-08-06T10:57:53.127Z</time>
      </trkpt>
      <trkpt lat="63.38297" lon="10.37064">
        <ele>86.349348</ele>
        <time>2020-08-06T10:57:55.168Z</time>
      </trkpt>
      <trkpt lat="63.38307" lon="10.37069">
        <ele>85.726571</ele>
        <time>2020-08-06T10:57:58.156Z</time>
      </trkpt>
      <trkpt lat="63.38316" lon="10.37078">
        <ele>85.168249</ele>
        <time>2020-08-06T10:58:01.159Z</time>
      </trkpt>
      <trkpt lat="63.38325" lon="10.3709">
        <ele>84.570663</ele>
        <time>2020-08-06T10:58:04.170Z</time>
      </trkpt>
      <trkpt lat="63.38335" lon="10.37105">
        <ele>83.857477</ele>
        <time>2020-08-06T10:58:07.140Z</time>
      </trkpt>
      <trkpt lat="63.38343" lon="10.37118">
        <ele>83.270113</ele>
        <time>2020-08-06T10:58:10.131Z</time>
      </trkpt>
      <trkpt lat="63.38352" lon="10.37131">
        <ele>82.666955</ele>
        <time>2020-08-06T10:58:13.129Z</time>
      </trkpt>
      <trkpt lat="63.3836" lon="10.37147">
        <ele>82.028661</ele>
        <time>2020-08-06T10:58:16.142Z</time>
      </trkpt>
      <trkpt lat="63.38366" lon="10.37165">
        <ele>81.420878</ele>
        <time>2020-08-06T10:58:19.186Z</time>
      </trkpt>
      <trkpt lat="63.38371" lon="10.37185">
        <ele>80.831386</ele>
        <time>2020-08-06T10:58:22.138Z</time>
      </trkpt>
      <trkpt lat="63.38375" lon="10.37207">
        <ele>80.193805</ele>
        <time>2020-08-06T10:58:25.158Z</time>
      </trkpt>
      <trkpt lat="63.38379" lon="10.37233">
        <ele>79.46121</ele>
        <time>2020-08-06T10:58:28.121Z</time>
      </trkpt>
      <trkpt lat="63.38385" lon="10.37258">
        <ele>78.723993</ele>
        <time>2020-08-06T10:58:31.125Z</time>
      </trkpt>
      <trkpt lat="63.38391" lon="10.37277">
        <ele>78.153183</ele>
        <time>2020-08-06T10:58:33.147Z</time>
      </trkpt>
      <trkpt lat="63.38397" lon="10.37294">
        <ele>77.826982</ele>
        <time>2020-08-06T10:58:35.135Z</time>
      </trkpt>
      <trkpt lat="63.38404" lon="10.37311">
        <ele>77.568905</ele>
        <time>2020-08-06T10:58:37.118Z</time>
      </trkpt>
      <trkpt lat="63.38411" lon="10.37325">
        <ele>77.314395</ele>
        <time>2020-08-06T10:58:39.138Z</time>
      </trkpt>
      <trkpt lat="63.38419" lon="10.37336">
        <ele>77.08221</ele>
        <time>2020-08-06T10:58:41.167Z</time>
      </trkpt>
      <trkpt lat="63.38429" lon="10.37342">
        <ele>76.821482</ele>
        <time>2020-08-06T10:58:43.147Z</time>
      </trkpt>
      <trkpt lat="63.3844" lon="10.37346">
        <ele>76.547265</ele>
        <time>2020-08-06T10:58:45.172Z</time>
      </trkpt>
      <trkpt lat="63.38451" lon="10.37346">
        <ele>76.263247</ele>
        <time>2020-08-06T10:58:47.129Z</time>
      </trkpt>
      <trkpt lat="63.38463" lon="10.37344">
        <ele>75.958199</ele>
        <time>2020-08-06T10:58:49.133Z</time>
      </trkpt>
      <trkpt lat="63.38475" lon="10.3734">
        <ele>75.646152</ele>
        <time>2020-08-06T10:58:51.135Z</time>
      </trkpt>
      <trkpt lat="63.38486" lon="10.37337">
        <ele>75.357463</ele>
        <time>2020-08-06T10:58:53.151Z</time>
      </trkpt>
      <trkpt lat="63.38497" lon="10.37334">
        <ele>75.086935</ele>
        <time>2020-08-06T10:58:55.161Z</time>
      </trkpt>
      <trkpt lat="63.38508" lon="10.37332">
        <ele>74.804043</ele>
        <time>2020-08-06T10:58:57.128Z</time>
      </trkpt>
      <trkpt lat="63.3852" lon="10.37331">
        <ele>74.507104</ele>
        <time>2020-08-06T10:58:59.151Z</time>
      </trkpt>
      <trkpt lat="63.38531" lon="10.37333">
        <ele>74.219758</ele>
        <time>2020-08-06T10:59:01.122Z</time>
      </trkpt>
      <trkpt lat="63.38542" lon="10.37337">
        <ele>73.936587</ele>
        <time>2020-08-06T10:59:03.184Z</time>
      </trkpt>
      <trkpt lat="63.38553" lon="10.37343">
        <ele>73.660888</ele>
        <time>2020-08-06T10:59:05.140Z</time>
      </trkpt>
      <trkpt lat="63.38561" lon="10.37351">
        <ele>73.434787</ele>
        <time>2020-08-06T10:59:07.147Z</time>
      </trkpt>
      <trkpt lat="63.38573" lon="10.37366">
        <ele>73.215662</ele>
        <time>2020-08-06T10:59:10.161Z</time>
      </trkpt>
      <trkpt lat="63.38583" lon="10.37383">
        <ele>73.003521</ele>
        <time>2020-08-06T10:59:13.139Z</time>
      </trkpt>
      <trkpt lat="63.38594" lon="10.374">
        <ele>72.792628</ele>
        <time>2020-08-06T10:59:16.147Z</time>
      </trkpt>
      <trkpt lat="63.38604" lon="10.37417">
        <ele>72.579171</ele>
        <time>2020-08-06T10:59:19.164Z</time>
      </trkpt>
      <trkpt lat="63.38611" lon="10.3743">
        <ele>72.4282</ele>
        <time>2020-08-06T10:59:21.152Z</time>
      </trkpt>
      <trkpt lat="63.38619" lon="10.37444">
        <ele>72.267848</ele>
        <time>2020-08-06T10:59:23.142Z</time>
      </trkpt>
      <trkpt lat="63.38626" lon="10.37458">
        <ele>72.105855</ele>
        <time>2020-08-06T10:59:25.139Z</time>
      </trkpt>
      <trkpt lat="63.38634" lon="10.37472">
        <ele>71.947961</ele>
        <time>2020-08-06T10:59:27.125Z</time>
      </trkpt>
      <trkpt lat="63.38642" lon="10.37486">
        <ele>71.779987</ele>
        <time>2020-08-06T10:59:29.143Z</time>
      </trkpt>
      <trkpt lat="63.3865" lon="10.37499">
        <ele>71.617904</ele>
        <time>2020-08-06T10:59:31.138Z</time>
      </trkpt>
      <trkpt lat="63.38658" lon="10.37512">
        <ele>71.446076</ele>
        <time>2020-08-06T10:59:33.131Z</time>
      </trkpt>
      <trkpt lat="63.38667" lon="10.37526">
        <ele>71.272982</ele>
        <time>2020-08-06T10:59:35.161Z</time>
      </trkpt>
      <trkpt lat="63.38675" lon="10.3754">
        <ele>71.109134</ele>
        <time>2020-08-06T10:59:37.144Z</time>
      </trkpt>
      <trkpt lat="63.38683" lon="10.37552">
        <ele>70.948813</ele>
        <time>2020-08-06T10:59:39.127Z</time>
      </trkpt>
      <trkpt lat="63.38692" lon="10.37566">
        <ele>70.772504</ele>
        <time>2020-08-06T10:59:41.142Z</time>
      </trkpt>
      <trkpt lat="63.387" lon="10.3758">
        <ele>70.598579</ele>
        <time>2020-08-06T10:59:43.169Z</time>
      </trkpt>
      <trkpt lat="63.38708" lon="10.37594">
        <ele>70.511779</ele>
        <time>2020-08-06T10:59:45.139Z</time>
      </trkpt>
      <trkpt lat="63.38716" lon="10.37608">
        <ele>70.525645</ele>
        <time>2020-08-06T10:59:47.143Z</time>
      </trkpt>
      <trkpt lat="63.38724" lon="10.3762">
        <ele>70.538464</ele>
        <time>2020-08-06T10:59:49.134Z</time>
      </trkpt>
      <trkpt lat="63.38732" lon="10.37631">
        <ele>70.551313</ele>
        <time>2020-08-06T10:59:51.150Z</time>
      </trkpt>
      <trkpt lat="63.38743" lon="10.37648">
        <ele>70.569581</ele>
        <time>2020-08-06T10:59:54.122Z</time>
      </trkpt>
      <trkpt lat="63.38751" lon="10.37659">
        <ele>70.58173</ele>
        <time>2020-08-06T10:59:56.125Z</time>
      </trkpt>
      <trkpt lat="63.38762" lon="10.37673">
        <ele>70.598872</ele>
        <time>2020-08-06T10:59:59.150Z</time>
      </trkpt>
      <trkpt lat="63.38772" lon="10.37687">
        <ele>70.615524</ele>
        <time>2020-08-06T11:00:02.142Z</time>
      </trkpt>
      <trkpt lat="63.38783" lon="10.37702">
        <ele>70.632827</ele>
        <time>2020-08-06T11:00:05.157Z</time>
      </trkpt>
      <trkpt lat="63.38794" lon="10.37717">
        <ele>70.6503</ele>
        <time>2020-08-06T11:00:08.161Z</time>
      </trkpt>
      <trkpt lat="63.38806" lon="10.37732">
        <ele>70.668419</ele>
        <time>2020-08-06T11:00:11.138Z</time>
      </trkpt>
      <trkpt lat="63.38814" lon="10.37743">
        <ele>70.681235</ele>
        <time>2020-08-06T11:00:13.155Z</time>
      </trkpt>
      <trkpt lat="63.38822" lon="10.37757">
        <ele>70.695138</ele>
        <time>2020-08-06T11:00:15.143Z</time>
      </trkpt>
      <trkpt lat="63.38831" lon="10.37772">
        <ele>70.710057</ele>
        <time>2020-08-06T11:00:17.124Z</time>
      </trkpt>
      <trkpt lat="63.3884" lon="10.37789">
        <ele>70.72654</ele>
        <time>2020-08-06T11:00:19.162Z</time>
      </trkpt>
      <trkpt lat="63.3885" lon="10.37808">
        <ele>70.744051</ele>
        <time>2020-08-06T11:00:21.135Z</time>
      </trkpt>
      <trkpt lat="63.38861" lon="10.37827">
        <ele>70.479416</ele>
        <time>2020-08-06T11:00:23.160Z</time>
      </trkpt>
      <trkpt lat="63.38873" lon="10.37847">
        <ele>70.093985</ele>
        <time>2020-08-06T11:00:25.144Z</time>
      </trkpt>
      <trkpt lat="63.38884" lon="10.37866">
        <ele>69.72184</ele>
        <time>2020-08-06T11:00:27.141Z</time>
      </trkpt>
      <trkpt lat="63.38897" lon="10.37882">
        <ele>69.344054</ele>
        <time>2020-08-06T11:00:29.128Z</time>
      </trkpt>
      <trkpt lat="63.38909" lon="10.37899">
        <ele>68.959699</ele>
        <time>2020-08-06T11:00:31.171Z</time>
      </trkpt>
      <trkpt lat="63.38922" lon="10.37916">
        <ele>68.585369</ele>
        <time>2020-08-06T11:00:33.126Z</time>
      </trkpt>
      <trkpt lat="63.38934" lon="10.37931">
        <ele>68.214178</ele>
        <time>2020-08-06T11:00:35.150Z</time>
      </trkpt>
      <trkpt lat="63.38946" lon="10.37948">
        <ele>67.84084</ele>
        <time>2020-08-06T11:00:37.153Z</time>
      </trkpt>
      <trkpt lat="63.38958" lon="10.37965">
        <ele>67.466254</ele>
        <time>2020-08-06T11:00:39.145Z</time>
      </trkpt>
      <trkpt lat="63.3897" lon="10.37982">
        <ele>67.102055</ele>
        <time>2020-08-06T11:00:41.122Z</time>
      </trkpt>
      <trkpt lat="63.38981" lon="10.37997">
        <ele>66.761444</ele>
        <time>2020-08-06T11:00:43.160Z</time>
      </trkpt>
      <trkpt lat="63.38993" lon="10.38011">
        <ele>66.415319</ele>
        <time>2020-08-06T11:00:45.131Z</time>
      </trkpt>
      <trkpt lat="63.39003" lon="10.38025">
        <ele>66.092987</ele>
        <time>2020-08-06T11:00:47.148Z</time>
      </trkpt>
      <trkpt lat="63.39013" lon="10.3804">
        <ele>65.85443</ele>
        <time>2020-08-06T11:00:49.121Z</time>
      </trkpt>
      <trkpt lat="63.39023" lon="10.38055">
        <ele>65.629474</ele>
        <time>2020-08-06T11:00:51.144Z</time>
      </trkpt>
      <trkpt lat="63.39033" lon="10.38069">
        <ele>65.409055</ele>
        <time>2020-08-06T11:00:53.161Z</time>
      </trkpt>
      <trkpt lat="63.39043" lon="10.38082">
        <ele>65.195449</ele>
        <time>2020-08-06T11:00:55.168Z</time>
      </trkpt>
      <trkpt lat="63.39052" lon="10.38096">
        <ele>64.986904</ele>
        <time>2020-08-06T11:00:57.136Z</time>
      </trkpt>
      <trkpt lat="63.39061" lon="10.38111">
        <ele>64.770094</ele>
        <time>2020-08-06T11:00:59.148Z</time>
      </trkpt>
      <trkpt lat="63.39071" lon="10.38125">
        <ele>64.552174</ele>
        <time>2020-08-06T11:01:01.127Z</time>
      </trkpt>
      <trkpt lat="63.3908" lon="10.38138">
        <ele>64.352398</ele>
        <time>2020-08-06T11:01:03.143Z</time>
      </trkpt>
      <trkpt lat="63.39089" lon="10.3815">
        <ele>64.150587</ele>
        <time>2020-08-06T11:01:05.125Z</time>
      </trkpt>
      <trkpt lat="63.391" lon="10.38162">
        <ele>63.922709</ele>
        <time>2020-08-06T11:01:07.167Z</time>
      </trkpt>
      <trkpt lat="63.3911" lon="10.38172">
        <ele>63.711914</ele>
        <time>2020-08-06T11:01:09.145Z</time>
      </trkpt>
      <trkpt lat="63.3912" lon="10.38179">
        <ele>63.50865</ele>
        <time>2020-08-06T11:01:11.132Z</time>
      </trkpt>
      <trkpt lat="63.3913" lon="10.38187">
        <ele>63.311275</ele>
        <time>2020-08-06T11:01:13.143Z</time>
      </trkpt>
      <trkpt lat="63.3914" lon="10.38194">
        <ele>63.116994</ele>
        <time>2020-08-06T11:01:15.144Z</time>
      </trkpt>
      <trkpt lat="63.39151" lon="10.38201">
        <ele>62.913538</ele>
        <time>2020-08-06T11:01:17.124Z</time>
      </trkpt>
      <trkpt lat="63.3916" lon="10.38208">
        <ele>62.724383</ele>
        <time>2020-08-06T11:01:19.119Z</time>
      </trkpt>
      <trkpt lat="63.3917" lon="10.38215">
        <ele>62.612817</ele>
        <time>2020-08-06T11:01:21.142Z</time>
      </trkpt>
      <trkpt lat="63.39179" lon="10.38221">
        <ele>62.540752</ele>
        <time>2020-08-06T11:01:23.125Z</time>
      </trkpt>
      <trkpt lat="63.39189" lon="10.38228">
        <ele>62.471386</ele>
        <time>2020-08-06T11:01:25.138Z</time>
      </trkpt>
      <trkpt lat="63.39199" lon="10.38236">
        <ele>62.396509</ele>
        <time>2020-08-06T11:01:27.149Z</time>
      </trkpt>
      <trkpt lat="63.39208" lon="10.38243">
        <ele>62.325753</ele>
        <time>2020-08-06T11:01:29.142Z</time>
      </trkpt>
      <trkpt lat="63.39217" lon="10.3825">
        <ele>62.255414</ele>
        <time>2020-08-06T11:01:31.135Z</time>
      </trkpt>
      <trkpt lat="63.39228" lon="10.38258">
        <ele>62.174658</ele>
        <time>2020-08-06T11:01:33.150Z</time>
      </trkpt>
      <trkpt lat="63.3924" lon="10.38266">
        <ele>62.083848</ele>
        <time>2020-08-06T11:01:35.140Z</time>
      </trkpt>
      <trkpt lat="63.39253" lon="10.38275">
        <ele>61.991589</ele>
        <time>2020-08-06T11:01:37.144Z</time>
      </trkpt>
      <trkpt lat="63.39266" lon="10.38283">
        <ele>61.896517</ele>
        <time>2020-08-06T11:01:39.128Z</time>
      </trkpt>
      <trkpt lat="63.39278" lon="10.38291">
        <ele>61.805833</ele>
        <time>2020-08-06T11:01:41.137Z</time>
      </trkpt>
      <trkpt lat="63.3929" lon="10.38298">
        <ele>61.721259</ele>
        <time>2020-08-06T11:01:43.160Z</time>
      </trkpt>
      <trkpt lat="63.39301" lon="10.38307">
        <ele>61.635784</ele>
        <time>2020-08-06T11:01:45.126Z</time>
      </trkpt>
      <trkpt lat="63.39313" lon="10.38314">
        <ele>61.550499</ele>
        <time>2020-08-06T11:01:47.157Z</time>
      </trkpt>
      <trkpt lat="63.39325" lon="10.38323">
        <ele>61.46087</ele>
        <time>2020-08-06T11:01:49.145Z</time>
      </trkpt>
      <trkpt lat="63.39336" lon="10.38332">
        <ele>61.359683</ele>
        <time>2020-08-06T11:01:51.148Z</time>
      </trkpt>
      <trkpt lat="63.39347" lon="10.38341">
        <ele>60.975289</ele>
        <time>2020-08-06T11:01:53.156Z</time>
      </trkpt>
      <trkpt lat="63.39358" lon="10.38352">
        <ele>60.56924</ele>
        <time>2020-08-06T11:01:55.150Z</time>
      </trkpt>
      <trkpt lat="63.3937" lon="10.38363">
        <ele>60.181161</ele>
        <time>2020-08-06T11:01:57.135Z</time>
      </trkpt>
      <trkpt lat="63.39381" lon="10.38374">
        <ele>59.785047</ele>
        <time>2020-08-06T11:01:59.177Z</time>
      </trkpt>
      <trkpt lat="63.39391" lon="10.38386">
        <ele>59.414928</ele>
        <time>2020-08-06T11:02:01.146Z</time>
      </trkpt>
      <trkpt lat="63.39401" lon="10.384">
        <ele>59.053993</ele>
        <time>2020-08-06T11:02:03.146Z</time>
      </trkpt>
      <trkpt lat="63.39409" lon="10.38414">
        <ele>58.712527</ele>
        <time>2020-08-06T11:02:05.126Z</time>
      </trkpt>
      <trkpt lat="63.39417" lon="10.38427">
        <ele>58.394128</ele>
        <time>2020-08-06T11:02:07.155Z</time>
      </trkpt>
      <trkpt lat="63.39424" lon="10.38441">
        <ele>58.100734</ele>
        <time>2020-08-06T11:02:09.144Z</time>
      </trkpt>
      <trkpt lat="63.39433" lon="10.38457">
        <ele>57.72927</ele>
        <time>2020-08-06T11:02:12.133Z</time>
      </trkpt>
      <trkpt lat="63.39442" lon="10.3847">
        <ele>57.377514</ele>
        <time>2020-08-06T11:02:15.149Z</time>
      </trkpt>
      <trkpt lat="63.39453" lon="10.3848">
        <ele>56.991044</ele>
        <time>2020-08-06T11:02:18.146Z</time>
      </trkpt>
      <trkpt lat="63.39465" lon="10.38487">
        <ele>56.605143</ele>
        <time>2020-08-06T11:02:21.151Z</time>
      </trkpt>
      <trkpt lat="63.39477" lon="10.38491">
        <ele>56.208648</ele>
        <time>2020-08-06T11:02:24.139Z</time>
      </trkpt>
      <trkpt lat="63.39489" lon="10.38497">
        <ele>55.82933</ele>
        <time>2020-08-06T11:02:27.130Z</time>
      </trkpt>
      <trkpt lat="63.395" lon="10.38502">
        <ele>55.757253</ele>
        <time>2020-08-06T11:02:30.163Z</time>
      </trkpt>
      <trkpt lat="63.39509" lon="10.38508">
        <ele>56.059791</ele>
        <time>2020-08-06T11:02:33.157Z</time>
      </trkpt>
      <trkpt lat="63.3952" lon="10.38511">
        <ele>56.380643</ele>
        <time>2020-08-06T11:02:36.156Z</time>
      </trkpt>
      <trkpt lat="63.39531" lon="10.38511">
        <ele>56.715887</ele>
        <time>2020-08-06T11:02:39.130Z</time>
      </trkpt>
      <trkpt lat="63.3954" lon="10.38516">
        <ele>57.007759</ele>
        <time>2020-08-06T11:02:42.139Z</time>
      </trkpt>
      <trkpt lat="63.3955" lon="10.38521">
        <ele>57.327262</ele>
        <time>2020-08-06T11:02:46.161Z</time>
      </trkpt>
      <trkpt lat="63.39552" lon="10.38564">
        <ele>57.924385</ele>
        <time>2020-08-06T11:03:48.148Z</time>
      </trkpt>
      <trkpt lat="63.39551" lon="10.38587">
        <ele>58.24135</ele>
        <time>2020-08-06T11:03:52.138Z</time>
      </trkpt>
      <trkpt lat="63.39556" lon="10.38607">
        <ele>58.561063</ele>
        <time>2020-08-06T11:03:55.129Z</time>
      </trkpt>
      <trkpt lat="63.39561" lon="10.3863">
        <ele>58.913028</ele>
        <time>2020-08-06T11:03:58.161Z</time>
      </trkpt>
      <trkpt lat="63.39565" lon="10.38652">
        <ele>59.236146</ele>
        <time>2020-08-06T11:04:01.134Z</time>
      </trkpt>
      <trkpt lat="63.39568" lon="10.38673">
        <ele>59.552519</ele>
        <time>2020-08-06T11:04:04.126Z</time>
      </trkpt>
      <trkpt lat="63.39572" lon="10.38696">
        <ele>59.88326</ele>
        <time>2020-08-06T11:04:07.146Z</time>
      </trkpt>
      <trkpt lat="63.39577" lon="10.38719">
        <ele>60.233972</ele>
        <time>2020-08-06T11:04:10.148Z</time>
      </trkpt>
      <trkpt lat="63.39582" lon="10.38737">
        <ele>60.535971</ele>
        <time>2020-08-06T11:04:13.134Z</time>
      </trkpt>
      <trkpt lat="63.39591" lon="10.3875">
        <ele>60.873414</ele>
        <time>2020-08-06T11:04:17.146Z</time>
      </trkpt>
      <trkpt lat="63.39601" lon="10.3876">
        <ele>61.222405</ele>
        <time>2020-08-06T11:04:22.157Z</time>
      </trkpt>
      <trkpt lat="63.39611" lon="10.38771">
        <ele>61.631265</ele>
        <time>2020-08-06T11:04:27.125Z</time>
      </trkpt>
      <trkpt lat="63.39622" lon="10.38782">
        <ele>62.056719</ele>
        <time>2020-08-06T11:04:32.137Z</time>
      </trkpt>
      <trkpt lat="63.3963" lon="10.38793">
        <ele>62.429397</ele>
        <time>2020-08-06T11:04:36.136Z</time>
      </trkpt>
      <trkpt lat="63.3964" lon="10.38805">
        <ele>62.834676</ele>
        <time>2020-08-06T11:04:41.135Z</time>
      </trkpt>
      <trkpt lat="63.39649" lon="10.38817">
        <ele>63.24563</ele>
        <time>2020-08-06T11:04:46.149Z</time>
      </trkpt>
      <trkpt lat="63.39657" lon="10.3883">
        <ele>63.612425</ele>
        <time>2020-08-06T11:04:51.143Z</time>
      </trkpt>
      <trkpt lat="63.39667" lon="10.38842">
        <ele>64.023343</ele>
        <time>2020-08-06T11:04:57.158Z</time>
      </trkpt>
      <trkpt lat="63.39676" lon="10.38854">
        <ele>64.425643</ele>
        <time>2020-08-06T11:05:02.145Z</time>
      </trkpt>
      <trkpt lat="63.39684" lon="10.38867">
        <ele>64.802845</ele>
        <time>2020-08-06T11:05:07.165Z</time>
      </trkpt>
      <trkpt lat="63.39692" lon="10.38878">
        <ele>65.135141</ele>
        <time>2020-08-06T11:05:12.149Z</time>
      </trkpt>
      <trkpt lat="63.39701" lon="10.38891">
        <ele>65.5356</ele>
        <time>2020-08-06T11:05:17.143Z</time>
      </trkpt>
      <trkpt lat="63.3971" lon="10.38904">
        <ele>65.947264</ele>
        <time>2020-08-06T11:05:22.159Z</time>
      </trkpt>
      <trkpt lat="63.39718" lon="10.38916">
        <ele>66.286213</ele>
        <time>2020-08-06T11:05:26.135Z</time>
      </trkpt>
      <trkpt lat="63.39726" lon="10.3893">
        <ele>66.679919</ele>
        <time>2020-08-06T11:05:31.140Z</time>
      </trkpt>
      <trkpt lat="63.39736" lon="10.38941">
        <ele>67.078387</ele>
        <time>2020-08-06T11:05:36.132Z</time>
      </trkpt>
      <trkpt lat="63.39745" lon="10.38947">
        <ele>67.432022</ele>
        <time>2020-08-06T11:05:40.190Z</time>
      </trkpt>
      <trkpt lat="63.39755" lon="10.38958">
        <ele>67.847552</ele>
        <time>2020-08-06T11:05:44.131Z</time>
      </trkpt>
      <trkpt lat="63.39762" lon="10.38973">
        <ele>68.041779</ele>
        <time>2020-08-06T11:05:48.159Z</time>
      </trkpt>
      <trkpt lat="63.39769" lon="10.38988">
        <ele>68.234482</ele>
        <time>2020-08-06T11:05:52.157Z</time>
      </trkpt>
      <trkpt lat="63.39775" lon="10.39005">
        <ele>68.422573</ele>
        <time>2020-08-06T11:05:56.137Z</time>
      </trkpt>
      <trkpt lat="63.39782" lon="10.39022">
        <ele>68.622958</ele>
        <time>2020-08-06T11:06:01.143Z</time>
      </trkpt>
      <trkpt lat="63.39788" lon="10.39036">
        <ele>68.79983</ele>
        <time>2020-08-06T11:06:05.147Z</time>
      </trkpt>
      <trkpt lat="63.39796" lon="10.39051">
        <ele>69.009414</ele>
        <time>2020-08-06T11:06:09.125Z</time>
      </trkpt>
      <trkpt lat="63.39805" lon="10.39064">
        <ele>69.219779</ele>
        <time>2020-08-06T11:06:13.169Z</time>
      </trkpt>
      <trkpt lat="63.39815" lon="10.39077">
        <ele>69.437223</ele>
        <time>2020-08-06T11:06:17.153Z</time>
      </trkpt>
      <trkpt lat="63.39823" lon="10.39094">
        <ele>69.663855</ele>
        <time>2020-08-06T11:06:21.129Z</time>
      </trkpt>
      <trkpt lat="63.39832" lon="10.39111">
        <ele>69.89499</ele>
        <time>2020-08-06T11:06:25.142Z</time>
      </trkpt>
      <trkpt lat="63.39842" lon="10.39127">
        <ele>70.126111</ele>
        <time>2020-08-06T11:06:29.139Z</time>
      </trkpt>
      <trkpt lat="63.39851" lon="10.39142">
        <ele>70.357819</ele>
        <time>2020-08-06T11:06:33.157Z</time>
      </trkpt>
      <trkpt lat="63.3986" lon="10.39157">
        <ele>70.576908</ele>
        <time>2020-08-06T11:06:37.145Z</time>
      </trkpt>
      <trkpt lat="63.39869" lon="10.3917">
        <ele>70.785935</ele>
        <time>2020-08-06T11:06:41.127Z</time>
      </trkpt>
      <trkpt lat="63.39877" lon="10.39185">
        <ele>70.992423</ele>
        <time>2020-08-06T11:06:45.121Z</time>
      </trkpt>
      <trkpt lat="63.39885" lon="10.39201">
        <ele>71.205668</ele>
        <time>2020-08-06T11:06:49.121Z</time>
      </trkpt>
      <trkpt lat="63.39893" lon="10.39216">
        <ele>71.426053</ele>
        <time>2020-08-06T11:06:53.162Z</time>
      </trkpt>
      <trkpt lat="63.39902" lon="10.39231">
        <ele>71.929634</ele>
        <time>2020-08-06T11:06:57.157Z</time>
      </trkpt>
      <trkpt lat="63.39911" lon="10.39246">
        <ele>72.470001</ele>
        <time>2020-08-06T11:07:01.128Z</time>
      </trkpt>
      <trkpt lat="63.39921" lon="10.3926">
        <ele>72.988615</ele>
        <time>2020-08-06T11:07:05.136Z</time>
      </trkpt>
      <trkpt lat="63.39931" lon="10.39272">
        <ele>73.503538</ele>
        <time>2020-08-06T11:07:09.139Z</time>
      </trkpt>
      <trkpt lat="63.3994" lon="10.39285">
        <ele>74.025585</ele>
        <time>2020-08-06T11:07:13.161Z</time>
      </trkpt>
      <trkpt lat="63.3995" lon="10.393">
        <ele>74.55375</ele>
        <time>2020-08-06T11:07:17.123Z</time>
      </trkpt>
      <trkpt lat="63.39959" lon="10.39311">
        <ele>75.040679</ele>
        <time>2020-08-06T11:07:21.131Z</time>
      </trkpt>
      <trkpt lat="63.39968" lon="10.39325">
        <ele>75.552532</ele>
        <time>2020-08-06T11:07:26.151Z</time>
      </trkpt>
      <trkpt lat="63.39977" lon="10.39336">
        <ele>76.006435</ele>
        <time>2020-08-06T11:07:30.132Z</time>
      </trkpt>
      <trkpt lat="63.39987" lon="10.39346">
        <ele>76.491901</ele>
        <time>2020-08-06T11:07:34.136Z</time>
      </trkpt>
      <trkpt lat="63.39995" lon="10.39355">
        <ele>76.93519</ele>
        <time>2020-08-06T11:07:37.184Z</time>
      </trkpt>
      <trkpt lat="63.40005" lon="10.39365">
        <ele>77.401044</ele>
        <time>2020-08-06T11:07:40.140Z</time>
      </trkpt>
      <trkpt lat="63.40013" lon="10.39373">
        <ele>77.830944</ele>
        <time>2020-08-06T11:07:43.159Z</time>
      </trkpt>
      <trkpt lat="63.40024" lon="10.39383">
        <ele>78.346978</ele>
        <time>2020-08-06T11:07:47.125Z</time>
      </trkpt>
      <trkpt lat="63.40034" lon="10.39394">
        <ele>78.860733</ele>
        <time>2020-08-06T11:07:51.174Z</time>
      </trkpt>
      <trkpt lat="63.40043" lon="10.39403">
        <ele>79.339477</ele>
        <time>2020-08-06T11:07:55.122Z</time>
      </trkpt>
      <trkpt lat="63.40054" lon="10.3941">
        <ele>79.673579</ele>
        <time>2020-08-06T11:07:59.119Z</time>
      </trkpt>
      <trkpt lat="63.40065" lon="10.39416">
        <ele>79.788597</ele>
        <time>2020-08-06T11:08:03.160Z</time>
      </trkpt>
      <trkpt lat="63.40073" lon="10.39424">
        <ele>79.884045</ele>
        <time>2020-08-06T11:08:06.145Z</time>
      </trkpt>
      <trkpt lat="63.40084" lon="10.39434">
        <ele>80.006287</ele>
        <time>2020-08-06T11:08:10.155Z</time>
      </trkpt>
      <trkpt lat="63.40093" lon="10.3944">
        <ele>80.100263</ele>
        <time>2020-08-06T11:08:13.159Z</time>
      </trkpt>
      <trkpt lat="63.40104" lon="10.39447">
        <ele>80.217486</ele>
        <time>2020-08-06T11:08:17.125Z</time>
      </trkpt>
      <trkpt lat="63.40115" lon="10.39454">
        <ele>80.327268</ele>
        <time>2020-08-06T11:08:21.136Z</time>
      </trkpt>
      <trkpt lat="63.40125" lon="10.3946">
        <ele>80.432233</ele>
        <time>2020-08-06T11:08:25.143Z</time>
      </trkpt>
      <trkpt lat="63.40135" lon="10.39467">
        <ele>80.547015</ele>
        <time>2020-08-06T11:08:29.153Z</time>
      </trkpt>
      <trkpt lat="63.40146" lon="10.39472">
        <ele>80.653671</ele>
        <time>2020-08-06T11:08:33.129Z</time>
      </trkpt>
      <trkpt lat="63.40155" lon="10.39478">
        <ele>80.75128</ele>
        <time>2020-08-06T11:08:37.166Z</time>
      </trkpt>
      <trkpt lat="63.40165" lon="10.39484">
        <ele>80.855873</ele>
        <time>2020-08-06T11:08:41.179Z</time>
      </trkpt>
      <trkpt lat="63.40176" lon="10.39491">
        <ele>80.973719</ele>
        <time>2020-08-06T11:08:45.164Z</time>
      </trkpt>
      <trkpt lat="63.40186" lon="10.39497">
        <ele>81.078827</ele>
        <time>2020-08-06T11:08:48.143Z</time>
      </trkpt>
      <trkpt lat="63.40195" lon="10.39502">
        <ele>81.177731</ele>
        <time>2020-08-06T11:08:51.142Z</time>
      </trkpt>
      <trkpt lat="63.40205" lon="10.39506">
        <ele>81.276635</ele>
        <time>2020-08-06T11:08:54.125Z</time>
      </trkpt>
      <trkpt lat="63.40214" lon="10.39511">
        <ele>81.36868</ele>
        <time>2020-08-06T11:08:57.135Z</time>
      </trkpt>
      <trkpt lat="63.40223" lon="10.39515">
        <ele>81.454856</ele>
        <time>2020-08-06T11:09:00.144Z</time>
      </trkpt>
      <trkpt lat="63.40233" lon="10.39519">
        <ele>81.22856</ele>
        <time>2020-08-06T11:09:04.124Z</time>
      </trkpt>
      <trkpt lat="63.40243" lon="10.39522">
        <ele>81.018471</ele>
        <time>2020-08-06T11:09:07.135Z</time>
      </trkpt>
      <trkpt lat="63.40252" lon="10.39526">
        <ele>80.815927</ele>
        <time>2020-08-06T11:09:10.128Z</time>
      </trkpt>
      <trkpt lat="63.40261" lon="10.39531">
        <ele>80.601239</ele>
        <time>2020-08-06T11:09:13.165Z</time>
      </trkpt>
      <trkpt lat="63.40272" lon="10.39535">
        <ele>80.378664</ele>
        <time>2020-08-06T11:09:16.139Z</time>
      </trkpt>
      <trkpt lat="63.40283" lon="10.39539">
        <ele>80.137448</ele>
        <time>2020-08-06T11:09:19.151Z</time>
      </trkpt>
      <trkpt lat="63.40293" lon="10.39544">
        <ele>79.906551</ele>
        <time>2020-08-06T11:09:22.132Z</time>
      </trkpt>
      <trkpt lat="63.40304" lon="10.39549">
        <ele>79.667788</ele>
        <time>2020-08-06T11:09:25.139Z</time>
      </trkpt>
      <trkpt lat="63.40315" lon="10.39555">
        <ele>79.41257</ele>
        <time>2020-08-06T11:09:28.161Z</time>
      </trkpt>
      <trkpt lat="63.40328" lon="10.3956">
        <ele>79.138936</ele>
        <time>2020-08-06T11:09:31.147Z</time>
      </trkpt>
      <trkpt lat="63.4034" lon="10.39566">
        <ele>78.862188</ele>
        <time>2020-08-06T11:09:34.171Z</time>
      </trkpt>
      <trkpt lat="63.40353" lon="10.39572">
        <ele>78.583731</ele>
        <time>2020-08-06T11:09:37.139Z</time>
      </trkpt>
      <trkpt lat="63.40366" lon="10.39579">
        <ele>78.30023</ele>
        <time>2020-08-06T11:09:40.139Z</time>
      </trkpt>
      <trkpt lat="63.40378" lon="10.39587">
        <ele>78.021326</ele>
        <time>2020-08-06T11:09:43.136Z</time>
      </trkpt>
      <trkpt lat="63.40391" lon="10.39591">
        <ele>77.732509</ele>
        <time>2020-08-06T11:09:46.133Z</time>
      </trkpt>
      <trkpt lat="63.40401" lon="10.39596">
        <ele>77.641718</ele>
        <time>2020-08-06T11:09:48.123Z</time>
      </trkpt>
      <trkpt lat="63.4041" lon="10.39601">
        <ele>77.943289</ele>
        <time>2020-08-06T11:09:50.136Z</time>
      </trkpt>
      <trkpt lat="63.40421" lon="10.39605">
        <ele>78.260774</ele>
        <time>2020-08-06T11:09:52.147Z</time>
      </trkpt>
      <trkpt lat="63.4043" lon="10.39612">
        <ele>78.580611</ele>
        <time>2020-08-06T11:09:54.164Z</time>
      </trkpt>
      <trkpt lat="63.4044" lon="10.3962">
        <ele>78.905514</ele>
        <time>2020-08-06T11:09:56.173Z</time>
      </trkpt>
      <trkpt lat="63.4045" lon="10.39627">
        <ele>79.222124</ele>
        <time>2020-08-06T11:09:58.132Z</time>
      </trkpt>
      <trkpt lat="63.4046" lon="10.39634">
        <ele>79.539877</ele>
        <time>2020-08-06T11:10:00.138Z</time>
      </trkpt>
      <trkpt lat="63.4047" lon="10.39639">
        <ele>79.864526</ele>
        <time>2020-08-06T11:10:02.175Z</time>
      </trkpt>
      <trkpt lat="63.40479" lon="10.39642">
        <ele>80.150698</ele>
        <time>2020-08-06T11:10:04.135Z</time>
      </trkpt>
      <trkpt lat="63.40489" lon="10.39646">
        <ele>80.449863</ele>
        <time>2020-08-06T11:10:06.138Z</time>
      </trkpt>
      <trkpt lat="63.40498" lon="10.3965">
        <ele>80.74295</ele>
        <time>2020-08-06T11:10:08.145Z</time>
      </trkpt>
      <trkpt lat="63.40507" lon="10.39654">
        <ele>81.02586</ele>
        <time>2020-08-06T11:10:10.151Z</time>
      </trkpt>
      <trkpt lat="63.40517" lon="10.39658">
        <ele>81.330185</ele>
        <time>2020-08-06T11:10:12.138Z</time>
      </trkpt>
      <trkpt lat="63.40528" lon="10.39664">
        <ele>81.672633</ele>
        <time>2020-08-06T11:10:14.146Z</time>
      </trkpt>
      <trkpt lat="63.40539" lon="10.39671">
        <ele>82.013808</ele>
        <time>2020-08-06T11:10:16.150Z</time>
      </trkpt>
      <trkpt lat="63.4055" lon="10.39676">
        <ele>82.37303</ele>
        <time>2020-08-06T11:10:18.156Z</time>
      </trkpt>
      <trkpt lat="63.40563" lon="10.39681">
        <ele>82.768872</ele>
        <time>2020-08-06T11:10:20.160Z</time>
      </trkpt>
      <trkpt lat="63.40575" lon="10.39685">
        <ele>83.127181</ele>
        <time>2020-08-06T11:10:22.133Z</time>
      </trkpt>
      <trkpt lat="63.40588" lon="10.39689">
        <ele>83.247545</ele>
        <time>2020-08-06T11:10:24.151Z</time>
      </trkpt>
      <trkpt lat="63.406" lon="10.39694">
        <ele>83.359976</ele>
        <time>2020-08-06T11:10:26.123Z</time>
      </trkpt>
      <trkpt lat="63.40612" lon="10.39699">
        <ele>83.476216</ele>
        <time>2020-08-06T11:10:28.174Z</time>
      </trkpt>
      <trkpt lat="63.40625" lon="10.39703">
        <ele>83.593028</ele>
        <time>2020-08-06T11:10:30.125Z</time>
      </trkpt>
      <trkpt lat="63.40637" lon="10.39709">
        <ele>83.706997</ele>
        <time>2020-08-06T11:10:32.131Z</time>
      </trkpt>
      <trkpt lat="63.40649" lon="10.39712">
        <ele>83.816518</ele>
        <time>2020-08-06T11:10:34.141Z</time>
      </trkpt>
      <trkpt lat="63.40661" lon="10.39713">
        <ele>83.93672</ele>
        <time>2020-08-06T11:10:36.160Z</time>
      </trkpt>
      <trkpt lat="63.40674" lon="10.39714">
        <ele>84.055818</ele>
        <time>2020-08-06T11:10:38.145Z</time>
      </trkpt>
      <trkpt lat="63.40688" lon="10.39711">
        <ele>84.181031</ele>
        <time>2020-08-06T11:10:40.158Z</time>
      </trkpt>
      <trkpt lat="63.40701" lon="10.39707">
        <ele>84.304279</ele>
        <time>2020-08-06T11:10:42.119Z</time>
      </trkpt>
      <trkpt lat="63.40711" lon="10.39701">
        <ele>84.405248</ele>
        <time>2020-08-06T11:10:44.128Z</time>
      </trkpt>
      <trkpt lat="63.40724" lon="10.39697">
        <ele>84.523179</ele>
        <time>2020-08-06T11:10:47.140Z</time>
      </trkpt>
      <trkpt lat="63.40734" lon="10.39689">
        <ele>84.62574</ele>
        <time>2020-08-06T11:10:50.121Z</time>
      </trkpt>
      <trkpt lat="63.40744" lon="10.39686">
        <ele>84.714203</ele>
        <time>2020-08-06T11:10:52.161Z</time>
      </trkpt>
      <trkpt lat="63.40755" lon="10.39684">
        <ele>84.755658</ele>
        <time>2020-08-06T11:10:54.161Z</time>
      </trkpt>
      <trkpt lat="63.40765" lon="10.39686">
        <ele>84.672872</ele>
        <time>2020-08-06T11:10:56.143Z</time>
      </trkpt>
      <trkpt lat="63.40778" lon="10.39691">
        <ele>84.572919</ele>
        <time>2020-08-06T11:10:59.141Z</time>
      </trkpt>
      <trkpt lat="63.40787" lon="10.39696">
        <ele>84.499705</ele>
        <time>2020-08-06T11:11:01.138Z</time>
      </trkpt>
      <trkpt lat="63.40796" lon="10.39702">
        <ele>84.419958</ele>
        <time>2020-08-06T11:11:03.133Z</time>
      </trkpt>
      <trkpt lat="63.40806" lon="10.39708">
        <ele>84.342659</ele>
        <time>2020-08-06T11:11:05.147Z</time>
      </trkpt>
      <trkpt lat="63.40816" lon="10.39713">
        <ele>84.258751</ele>
        <time>2020-08-06T11:11:07.136Z</time>
      </trkpt>
      <trkpt lat="63.40829" lon="10.39715">
        <ele>84.155488</ele>
        <time>2020-08-06T11:11:09.146Z</time>
      </trkpt>
      <trkpt lat="63.40842" lon="10.39718">
        <ele>84.056557</ele>
        <time>2020-08-06T11:11:11.160Z</time>
      </trkpt>
      <trkpt lat="63.40852" lon="10.39724">
        <ele>83.971216</ele>
        <time>2020-08-06T11:11:13.165Z</time>
      </trkpt>
      <trkpt lat="63.40861" lon="10.3973">
        <ele>83.896276</ele>
        <time>2020-08-06T11:11:15.169Z</time>
      </trkpt>
      <trkpt lat="63.4087" lon="10.39735">
        <ele>83.825612</ele>
        <time>2020-08-06T11:11:17.139Z</time>
      </trkpt>
      <trkpt lat="63.40881" lon="10.3974">
        <ele>83.734999</ele>
        <time>2020-08-06T11:11:20.137Z</time>
      </trkpt>
      <trkpt lat="63.40894" lon="10.39744">
        <ele>83.637276</ele>
        <time>2020-08-06T11:11:23.121Z</time>
      </trkpt>
      <trkpt lat="63.40903" lon="10.39748">
        <ele>83.562256</ele>
        <time>2020-08-06T11:11:25.131Z</time>
      </trkpt>
      <trkpt lat="63.40913" lon="10.39751">
        <ele>83.481803</ele>
        <time>2020-08-06T11:11:27.137Z</time>
      </trkpt>
      <trkpt lat="63.40924" lon="10.39754">
        <ele>83.393298</ele>
        <time>2020-08-06T11:11:29.135Z</time>
      </trkpt>
      <trkpt lat="63.40936" lon="10.39757">
        <ele>83.111213</ele>
        <time>2020-08-06T11:11:31.193Z</time>
      </trkpt>
      <trkpt lat="63.40947" lon="10.3976">
        <ele>82.758405</ele>
        <time>2020-08-06T11:11:33.141Z</time>
      </trkpt>
      <trkpt lat="63.40958" lon="10.39764">
        <ele>82.412877</ele>
        <time>2020-08-06T11:11:35.158Z</time>
      </trkpt>
      <trkpt lat="63.40971" lon="10.3977">
        <ele>82.019112</ele>
        <time>2020-08-06T11:11:38.142Z</time>
      </trkpt>
      <trkpt lat="63.4098" lon="10.39774">
        <ele>81.740485</ele>
        <time>2020-08-06T11:11:40.174Z</time>
      </trkpt>
      <trkpt lat="63.40992" lon="10.39778">
        <ele>81.363779</ele>
        <time>2020-08-06T11:11:43.138Z</time>
      </trkpt>
      <trkpt lat="63.41003" lon="10.39782">
        <ele>81.016296</ele>
        <time>2020-08-06T11:11:46.124Z</time>
      </trkpt>
      <trkpt lat="63.41015" lon="10.39785">
        <ele>80.645849</ele>
        <time>2020-08-06T11:11:49.134Z</time>
      </trkpt>
      <trkpt lat="63.41028" lon="10.39788">
        <ele>80.258852</ele>
        <time>2020-08-06T11:11:52.148Z</time>
      </trkpt>
      <trkpt lat="63.41041" lon="10.39793">
        <ele>79.852068</ele>
        <time>2020-08-06T11:11:55.141Z</time>
      </trkpt>
      <trkpt lat="63.4105" lon="10.39795">
        <ele>79.562623</ele>
        <time>2020-08-06T11:11:57.149Z</time>
      </trkpt>
      <trkpt lat="63.4106" lon="10.39795">
        <ele>79.255511</ele>
        <time>2020-08-06T11:11:59.118Z</time>
      </trkpt>
      <trkpt lat="63.4107" lon="10.39798">
        <ele>78.961762</ele>
        <time>2020-08-06T11:12:01.137Z</time>
      </trkpt>
      <trkpt lat="63.41079" lon="10.398">
        <ele>78.663029</ele>
        <time>2020-08-06T11:12:03.140Z</time>
      </trkpt>
      <trkpt lat="63.4109" lon="10.39801">
        <ele>78.340273</ele>
        <time>2020-08-06T11:12:05.132Z</time>
      </trkpt>
      <trkpt lat="63.41101" lon="10.39801">
        <ele>78.005732</ele>
        <time>2020-08-06T11:12:07.156Z</time>
      </trkpt>
      <trkpt lat="63.41111" lon="10.39801">
        <ele>77.787868</ele>
        <time>2020-08-06T11:12:09.184Z</time>
      </trkpt>
      <trkpt lat="63.41123" lon="10.39801">
        <ele>77.645794</ele>
        <time>2020-08-06T11:12:12.139Z</time>
      </trkpt>
      <trkpt lat="63.41135" lon="10.39797">
        <ele>77.50566</ele>
        <time>2020-08-06T11:12:15.135Z</time>
      </trkpt>
      <trkpt lat="63.41146" lon="10.39792">
        <ele>77.371702</ele>
        <time>2020-08-06T11:12:18.125Z</time>
      </trkpt>
      <trkpt lat="63.41157" lon="10.39791">
        <ele>77.24491</ele>
        <time>2020-08-06T11:12:21.152Z</time>
      </trkpt>
      <trkpt lat="63.41167" lon="10.3979">
        <ele>77.116886</ele>
        <time>2020-08-06T11:12:24.136Z</time>
      </trkpt>
      <trkpt lat="63.41179" lon="10.3979">
        <ele>76.980733</ele>
        <time>2020-08-06T11:12:27.151Z</time>
      </trkpt>
      <trkpt lat="63.41192" lon="10.39789">
        <ele>76.829185</ele>
        <time>2020-08-06T11:12:30.156Z</time>
      </trkpt>
      <trkpt lat="63.41204" lon="10.39786">
        <ele>76.677749</ele>
        <time>2020-08-06T11:12:33.124Z</time>
      </trkpt>
      <trkpt lat="63.41217" lon="10.39782">
        <ele>76.524729</ele>
        <time>2020-08-06T11:12:36.136Z</time>
      </trkpt>
      <trkpt lat="63.4123" lon="10.39775">
        <ele>76.367808</ele>
        <time>2020-08-06T11:12:39.126Z</time>
      </trkpt>
      <trkpt lat="63.41239" lon="10.39771">
        <ele>76.259773</ele>
        <time>2020-08-06T11:12:41.183Z</time>
      </trkpt>
      <trkpt lat="63.41252" lon="10.39767">
        <ele>76.098399</ele>
        <time>2020-08-06T11:12:44.155Z</time>
      </trkpt>
      <trkpt lat="63.41265" lon="10.39765">
        <ele>75.945559</ele>
        <time>2020-08-06T11:12:47.130Z</time>
      </trkpt>
      <trkpt lat="63.41278" lon="10.39769">
        <ele>75.794958</ele>
        <time>2020-08-06T11:12:50.127Z</time>
      </trkpt>
      <trkpt lat="63.41288" lon="10.39774">
        <ele>75.834778</ele>
        <time>2020-08-06T11:12:53.132Z</time>
      </trkpt>
      <trkpt lat="63.41301" lon="10.39779">
        <ele>76.198089</ele>
        <time>2020-08-06T11:12:56.136Z</time>
      </trkpt>
      <trkpt lat="63.41314" lon="10.39778">
        <ele>76.542399</ele>
        <time>2020-08-06T11:12:59.155Z</time>
      </trkpt>
      <trkpt lat="63.41326" lon="10.39772">
        <ele>76.899604</ele>
        <time>2020-08-06T11:13:02.118Z</time>
      </trkpt>
      <trkpt lat="63.41336" lon="10.39766">
        <ele>77.175723</ele>
        <time>2020-08-06T11:13:04.155Z</time>
      </trkpt>
      <trkpt lat="63.41346" lon="10.3976">
        <ele>77.459891</ele>
        <time>2020-08-06T11:13:06.148Z</time>
      </trkpt>
      <trkpt lat="63.41356" lon="10.39753">
        <ele>77.748202</ele>
        <time>2020-08-06T11:13:08.156Z</time>
      </trkpt>
      <trkpt lat="63.41364" lon="10.39743">
        <ele>77.997889</ele>
        <time>2020-08-06T11:13:10.121Z</time>
      </trkpt>
      <trkpt lat="63.41373" lon="10.39735">
        <ele>78.287639</ele>
        <time>2020-08-06T11:13:13.125Z</time>
      </trkpt>
      <trkpt lat="63.41383" lon="10.39732">
        <ele>78.562629</ele>
        <time>2020-08-06T11:13:16.161Z</time>
      </trkpt>
      <trkpt lat="63.41393" lon="10.3973">
        <ele>78.846717</ele>
        <time>2020-08-06T11:13:19.129Z</time>
      </trkpt>
      <trkpt lat="63.41405" lon="10.39729">
        <ele>79.185638</ele>
        <time>2020-08-06T11:13:22.131Z</time>
      </trkpt>
      <trkpt lat="63.41417" lon="10.39725">
        <ele>79.517018</ele>
        <time>2020-08-06T11:13:25.145Z</time>
      </trkpt>
      <trkpt lat="63.41429" lon="10.39717">
        <ele>79.864012</ele>
        <time>2020-08-06T11:13:28.133Z</time>
      </trkpt>
      <trkpt lat="63.41438" lon="10.39713">
        <ele>80.12279</ele>
        <time>2020-08-06T11:13:30.157Z</time>
      </trkpt>
      <trkpt lat="63.41448" lon="10.39708">
        <ele>80.402577</ele>
        <time>2020-08-06T11:13:32.144Z</time>
      </trkpt>
      <trkpt lat="63.41458" lon="10.39703">
        <ele>80.674146</ele>
        <time>2020-08-06T11:13:34.128Z</time>
      </trkpt>
      <trkpt lat="63.41469" lon="10.39696">
        <ele>82.080089</ele>
        <time>2020-08-06T11:13:37.127Z</time>
      </trkpt>
      <trkpt lat="63.41476" lon="10.39709">
        <ele>83.276518</ele>
        <time>2020-08-06T11:13:43.136Z</time>
      </trkpt>
      <trkpt lat="63.41477" lon="10.39731">
        <ele>84.541543</ele>
        <time>2020-08-06T11:13:47.146Z</time>
      </trkpt>
      <trkpt lat="63.41477" lon="10.39755">
        <ele>85.969423</ele>
        <time>2020-08-06T11:13:51.181Z</time>
      </trkpt>
      <trkpt lat="63.4148" lon="10.39774">
        <ele>87.173321</ele>
        <time>2020-08-06T11:13:57.144Z</time>
      </trkpt>
      <trkpt lat="63.41482" lon="10.39806">
        <ele>89.03185</ele>
        <time>2020-08-06T11:15:07.205Z</time>
      </trkpt>
      <trkpt lat="63.41488" lon="10.39823">
        <ele>90.299436</ele>
        <time>2020-08-06T11:15:11.177Z</time>
      </trkpt>
      <trkpt lat="63.41493" lon="10.3984">
        <ele>91.534011</ele>
        <time>2020-08-06T11:15:14.121Z</time>
      </trkpt>
      <trkpt lat="63.41498" lon="10.39863">
        <ele>93.027052</ele>
        <time>2020-08-06T11:15:17.128Z</time>
      </trkpt>
      <trkpt lat="63.41499" lon="10.39886">
        <ele>94.373658</ele>
        <time>2020-08-06T11:15:20.120Z</time>
      </trkpt>
      <trkpt lat="63.41502" lon="10.39909">
        <ele>95.78728</ele>
        <time>2020-08-06T11:15:24.136Z</time>
      </trkpt>
      <trkpt lat="63.41505" lon="10.39929">
        <ele>96.992179</ele>
        <time>2020-08-06T11:15:27.141Z</time>
      </trkpt>
      <trkpt lat="63.41509" lon="10.39948">
        <ele>98.241955</ele>
        <time>2020-08-06T11:15:30.140Z</time>
      </trkpt>
      <trkpt lat="63.41518" lon="10.39961">
        <ele>99.713902</ele>
        <time>2020-08-06T11:15:35.162Z</time>
      </trkpt>
      <trkpt lat="63.41528" lon="10.39959">
        <ele>100.967933</ele>
        <time>2020-08-06T11:15:38.129Z</time>
      </trkpt>
      <trkpt lat="63.41539" lon="10.39953">
        <ele>102.413588</ele>
        <time>2020-08-06T11:15:42.160Z</time>
      </trkpt>
      <trkpt lat="63.41549" lon="10.39948">
        <ele>103.792678</ele>
        <time>2020-08-06T11:15:46.129Z</time>
      </trkpt>
      <trkpt lat="63.41559" lon="10.3994">
        <ele>104.16534</ele>
        <time>2020-08-06T11:15:50.140Z</time>
      </trkpt>
      <trkpt lat="63.4157" lon="10.39931">
        <ele>103.873933</ele>
        <time>2020-08-06T11:15:53.141Z</time>
      </trkpt>
      <trkpt lat="63.41581" lon="10.39917">
        <ele>103.565567</ele>
        <time>2020-08-06T11:15:56.136Z</time>
      </trkpt>
      <trkpt lat="63.41589" lon="10.39908">
        <ele>103.34628</ele>
        <time>2020-08-06T11:15:58.140Z</time>
      </trkpt>
      <trkpt lat="63.41598" lon="10.39903">
        <ele>103.110465</ele>
        <time>2020-08-06T11:16:00.155Z</time>
      </trkpt>
      <trkpt lat="63.41608" lon="10.39898">
        <ele>102.865295</ele>
        <time>2020-08-06T11:16:02.135Z</time>
      </trkpt>
      <trkpt lat="63.41619" lon="10.39894">
        <ele>102.596117</ele>
        <time>2020-08-06T11:16:04.158Z</time>
      </trkpt>
      <trkpt lat="63.4163" lon="10.39889">
        <ele>102.324329</ele>
        <time>2020-08-06T11:16:06.132Z</time>
      </trkpt>
      <trkpt lat="63.41642" lon="10.39881">
        <ele>102.028979</ele>
        <time>2020-08-06T11:16:08.134Z</time>
      </trkpt>
      <trkpt lat="63.41652" lon="10.39872">
        <ele>101.762356</ele>
        <time>2020-08-06T11:16:10.131Z</time>
      </trkpt>
      <trkpt lat="63.41663" lon="10.39867">
        <ele>101.485127</ele>
        <time>2020-08-06T11:16:12.138Z</time>
      </trkpt>
      <trkpt lat="63.41674" lon="10.39861">
        <ele>101.192062</ele>
        <time>2020-08-06T11:16:14.154Z</time>
      </trkpt>
      <trkpt lat="63.41688" lon="10.39856">
        <ele>100.864091</ele>
        <time>2020-08-06T11:16:16.128Z</time>
      </trkpt>
      <trkpt lat="63.41701" lon="10.39851">
        <ele>100.537175</ele>
        <time>2020-08-06T11:16:18.144Z</time>
      </trkpt>
      <trkpt lat="63.41713" lon="10.39846">
        <ele>100.232463</ele>
        <time>2020-08-06T11:16:20.127Z</time>
      </trkpt>
      <trkpt lat="63.41725" lon="10.39839">
        <ele>99.935432</ele>
        <time>2020-08-06T11:16:22.141Z</time>
      </trkpt>
      <trkpt lat="63.41736" lon="10.39833">
        <ele>99.159258</ele>
        <time>2020-08-06T11:16:24.177Z</time>
      </trkpt>
      <trkpt lat="63.41748" lon="10.39829">
        <ele>98.371074</ele>
        <time>2020-08-06T11:16:26.145Z</time>
      </trkpt>
      <trkpt lat="63.4176" lon="10.39819">
        <ele>97.471609</ele>
        <time>2020-08-06T11:16:28.128Z</time>
      </trkpt>
      <trkpt lat="63.41772" lon="10.3981">
        <ele>96.609803</ele>
        <time>2020-08-06T11:16:30.141Z</time>
      </trkpt>
      <trkpt lat="63.41782" lon="10.39805">
        <ele>95.940458</ele>
        <time>2020-08-06T11:16:32.159Z</time>
      </trkpt>
      <trkpt lat="63.41794" lon="10.39799">
        <ele>95.125142</ele>
        <time>2020-08-06T11:16:35.157Z</time>
      </trkpt>
      <trkpt lat="63.41805" lon="10.39793">
        <ele>94.361566</ele>
        <time>2020-08-06T11:16:38.149Z</time>
      </trkpt>
      <trkpt lat="63.41817" lon="10.39784">
        <ele>93.495044</ele>
        <time>2020-08-06T11:16:41.135Z</time>
      </trkpt>
      <trkpt lat="63.41829" lon="10.3978">
        <ele>92.666353</ele>
        <time>2020-08-06T11:16:44.151Z</time>
      </trkpt>
      <trkpt lat="63.41839" lon="10.39774">
        <ele>92.002858</ele>
        <time>2020-08-06T11:16:47.142Z</time>
      </trkpt>
      <trkpt lat="63.4185" lon="10.39767">
        <ele>91.233928</ele>
        <time>2020-08-06T11:16:50.136Z</time>
      </trkpt>
      <trkpt lat="63.41861" lon="10.39761">
        <ele>90.457976</ele>
        <time>2020-08-06T11:16:53.136Z</time>
      </trkpt>
      <trkpt lat="63.41873" lon="10.39756">
        <ele>89.639276</ele>
        <time>2020-08-06T11:16:56.139Z</time>
      </trkpt>
      <trkpt lat="63.41883" lon="10.39756">
        <ele>88.958805</ele>
        <time>2020-08-06T11:16:59.144Z</time>
      </trkpt>
      <trkpt lat="63.41892" lon="10.3976">
        <ele>88.310497</ele>
        <time>2020-08-06T11:17:02.144Z</time>
      </trkpt>
      <trkpt lat="63.41903" lon="10.39766">
        <ele>87.714632</ele>
        <time>2020-08-06T11:17:08.123Z</time>
      </trkpt>
      <trkpt lat="63.41915" lon="10.39766">
        <ele>87.327078</ele>
        <time>2020-08-06T11:17:12.128Z</time>
      </trkpt>
      <trkpt lat="63.41925" lon="10.3976">
        <ele>86.985904</ele>
        <time>2020-08-06T11:17:15.152Z</time>
      </trkpt>
      <trkpt lat="63.41934" lon="10.39763">
        <ele>86.685046</ele>
        <time>2020-08-06T11:17:17.125Z</time>
      </trkpt>
      <trkpt lat="63.41944" lon="10.39769">
        <ele>86.374307</ele>
        <time>2020-08-06T11:17:19.124Z</time>
      </trkpt>
      <trkpt lat="63.41956" lon="10.39779">
        <ele>85.949441</ele>
        <time>2020-08-06T11:17:22.143Z</time>
      </trkpt>
      <trkpt lat="63.41965" lon="10.39785">
        <ele>85.643986</ele>
        <time>2020-08-06T11:17:24.171Z</time>
      </trkpt>
      <trkpt lat="63.41977" lon="10.39794">
        <ele>85.23263</ele>
        <time>2020-08-06T11:17:27.127Z</time>
      </trkpt>
      <trkpt lat="63.41988" lon="10.398">
        <ele>84.897642</ele>
        <time>2020-08-06T11:17:29.161Z</time>
      </trkpt>
      <trkpt lat="63.41998" lon="10.39808">
        <ele>84.553832</ele>
        <time>2020-08-06T11:17:31.130Z</time>
      </trkpt>
      <trkpt lat="63.42007" lon="10.39813">
        <ele>84.237215</ele>
        <time>2020-08-06T11:17:33.165Z</time>
      </trkpt>
      <trkpt lat="63.42017" lon="10.39818">
        <ele>83.932288</ele>
        <time>2020-08-06T11:17:35.137Z</time>
      </trkpt>
      <trkpt lat="63.42026" lon="10.39825">
        <ele>83.605783</ele>
        <time>2020-08-06T11:17:37.126Z</time>
      </trkpt>
      <trkpt lat="63.42035" lon="10.39829">
        <ele>83.306736</ele>
        <time>2020-08-06T11:17:39.143Z</time>
      </trkpt>
      <trkpt lat="63.42047" lon="10.39837">
        <ele>82.91804</ele>
        <time>2020-08-06T11:17:42.156Z</time>
      </trkpt>
      <trkpt lat="63.42059" lon="10.39846">
        <ele>82.518896</ele>
        <time>2020-08-06T11:17:45.175Z</time>
      </trkpt>
      <trkpt lat="63.42068" lon="10.39851">
        <ele>82.207041</ele>
        <time>2020-08-06T11:17:48.144Z</time>
      </trkpt>
      <trkpt lat="63.42079" lon="10.39857">
        <ele>81.892297</ele>
        <time>2020-08-06T11:17:51.120Z</time>
      </trkpt>
      <trkpt lat="63.42088" lon="10.3986">
        <ele>81.617615</ele>
        <time>2020-08-06T11:17:54.168Z</time>
      </trkpt>
      <trkpt lat="63.42098" lon="10.39863">
        <ele>81.323169</ele>
        <time>2020-08-06T11:17:57.130Z</time>
      </trkpt>
      <trkpt lat="63.42108" lon="10.39871">
        <ele>81.045347</ele>
        <time>2020-08-06T11:18:00.164Z</time>
      </trkpt>
      <trkpt lat="63.4212" lon="10.3988">
        <ele>80.67277</ele>
        <time>2020-08-06T11:18:04.212Z</time>
      </trkpt>
      <trkpt lat="63.42131" lon="10.39885">
        <ele>80.360337</ele>
        <time>2020-08-06T11:18:07.123Z</time>
      </trkpt>
      <trkpt lat="63.42142" lon="10.39889">
        <ele>80.042572</ele>
        <time>2020-08-06T11:18:10.182Z</time>
      </trkpt>
      <trkpt lat="63.42151" lon="10.39894">
        <ele>79.775399</ele>
        <time>2020-08-06T11:18:13.146Z</time>
      </trkpt>
      <trkpt lat="63.42162" lon="10.39898">
        <ele>79.469787</ele>
        <time>2020-08-06T11:18:16.140Z</time>
      </trkpt>
      <trkpt lat="63.42173" lon="10.39903">
        <ele>79.150978</ele>
        <time>2020-08-06T11:18:19.133Z</time>
      </trkpt>
      <trkpt lat="63.42185" lon="10.39907">
        <ele>78.820809</ele>
        <time>2020-08-06T11:18:22.132Z</time>
      </trkpt>
      <trkpt lat="63.42195" lon="10.39915">
        <ele>78.497904</ele>
        <time>2020-08-06T11:18:25.137Z</time>
      </trkpt>
      <trkpt lat="63.42208" lon="10.39923">
        <ele>78.12949</ele>
        <time>2020-08-06T11:18:28.111Z</time>
      </trkpt>
      <trkpt lat="63.4222" lon="10.39931">
        <ele>77.78799</ele>
        <time>2020-08-06T11:18:31.129Z</time>
      </trkpt>
      <trkpt lat="63.42228" lon="10.39941">
        <ele>77.52877</ele>
        <time>2020-08-06T11:18:34.138Z</time>
      </trkpt>
      <trkpt lat="63.42235" lon="10.39952">
        <ele>77.26521</ele>
        <time>2020-08-06T11:18:37.160Z</time>
      </trkpt>
      <trkpt lat="63.42244" lon="10.39964">
        <ele>76.981565</ele>
        <time>2020-08-06T11:18:40.158Z</time>
      </trkpt>
      <trkpt lat="63.42255" lon="10.39975">
        <ele>76.720574</ele>
        <time>2020-08-06T11:18:43.148Z</time>
      </trkpt>
      <trkpt lat="63.42263" lon="10.39984">
        <ele>76.513095</ele>
        <time>2020-08-06T11:18:45.131Z</time>
      </trkpt>
      <trkpt lat="63.42271" lon="10.39995">
        <ele>76.311062</ele>
        <time>2020-08-06T11:18:47.138Z</time>
      </trkpt>
      <trkpt lat="63.4228" lon="10.40005">
        <ele>76.09972</ele>
        <time>2020-08-06T11:18:49.129Z</time>
      </trkpt>
      <trkpt lat="63.42288" lon="10.40015">
        <ele>75.887272</ele>
        <time>2020-08-06T11:18:51.151Z</time>
      </trkpt>
      <trkpt lat="63.42297" lon="10.40024">
        <ele>75.682176</ele>
        <time>2020-08-06T11:18:53.181Z</time>
      </trkpt>
      <trkpt lat="63.42306" lon="10.40035">
        <ele>75.464174</ele>
        <time>2020-08-06T11:18:55.131Z</time>
      </trkpt>
      <trkpt lat="63.42315" lon="10.40047">
        <ele>75.219559</ele>
        <time>2020-08-06T11:18:57.139Z</time>
      </trkpt>
      <trkpt lat="63.42328" lon="10.40064">
        <ele>74.904015</ele>
        <time>2020-08-06T11:18:59.167Z</time>
      </trkpt>
      <trkpt lat="63.42343" lon="10.40082">
        <ele>74.521177</ele>
        <time>2020-08-06T11:19:01.141Z</time>
      </trkpt>
      <trkpt lat="63.42352" lon="10.40092">
        <ele>74.317358</ele>
        <time>2020-08-06T11:19:02.158Z</time>
      </trkpt>
      <trkpt lat="63.4236" lon="10.40102">
        <ele>74.10878</ele>
        <time>2020-08-06T11:19:03.140Z</time>
      </trkpt>
      <trkpt lat="63.42375" lon="10.40121">
        <ele>73.734545</ele>
        <time>2020-08-06T11:19:05.161Z</time>
      </trkpt>
      <trkpt lat="63.42388" lon="10.4014">
        <ele>73.387875</ele>
        <time>2020-08-06T11:19:07.139Z</time>
      </trkpt>
      <trkpt lat="63.42403" lon="10.40163">
        <ele>72.897886</ele>
        <time>2020-08-06T11:19:09.139Z</time>
      </trkpt>
      <trkpt lat="63.42411" lon="10.40174">
        <ele>72.213175</ele>
        <time>2020-08-06T11:19:10.175Z</time>
      </trkpt>
      <trkpt lat="63.42418" lon="10.40186">
        <ele>71.522885</ele>
        <time>2020-08-06T11:19:11.142Z</time>
      </trkpt>
      <trkpt lat="63.42426" lon="10.40198">
        <ele>70.828821</ele>
        <time>2020-08-06T11:19:12.128Z</time>
      </trkpt>
      <trkpt lat="63.42434" lon="10.40209">
        <ele>70.135028</ele>
        <time>2020-08-06T11:19:13.126Z</time>
      </trkpt>
      <trkpt lat="63.42448" lon="10.40229">
        <ele>68.938215</ele>
        <time>2020-08-06T11:19:15.136Z</time>
      </trkpt>
      <trkpt lat="63.4246" lon="10.40247">
        <ele>67.853316</ele>
        <time>2020-08-06T11:19:17.144Z</time>
      </trkpt>
      <trkpt lat="63.42472" lon="10.40262">
        <ele>66.824994</ele>
        <time>2020-08-06T11:19:19.160Z</time>
      </trkpt>
      <trkpt lat="63.42483" lon="10.40277">
        <ele>65.874145</ele>
        <time>2020-08-06T11:19:21.164Z</time>
      </trkpt>
      <trkpt lat="63.42494" lon="10.40292">
        <ele>64.97031</ele>
        <time>2020-08-06T11:19:23.144Z</time>
      </trkpt>
      <trkpt lat="63.42504" lon="10.40305">
        <ele>64.108872</ele>
        <time>2020-08-06T11:19:25.167Z</time>
      </trkpt>
      <trkpt lat="63.42513" lon="10.40316">
        <ele>63.307285</ele>
        <time>2020-08-06T11:19:27.140Z</time>
      </trkpt>
      <trkpt lat="63.42522" lon="10.40327">
        <ele>62.586323</ele>
        <time>2020-08-06T11:19:29.136Z</time>
      </trkpt>
      <trkpt lat="63.42531" lon="10.40338">
        <ele>61.826583</ele>
        <time>2020-08-06T11:19:31.166Z</time>
      </trkpt>
      <trkpt lat="63.42541" lon="10.40347">
        <ele>61.046577</ele>
        <time>2020-08-06T11:19:33.125Z</time>
      </trkpt>
      <trkpt lat="63.4255" lon="10.40352">
        <ele>60.335575</ele>
        <time>2020-08-06T11:19:35.161Z</time>
      </trkpt>
      <trkpt lat="63.4256" lon="10.40354">
        <ele>59.73582</ele>
        <time>2020-08-06T11:19:37.155Z</time>
      </trkpt>
      <trkpt lat="63.42572" lon="10.40357">
        <ele>59.446827</ele>
        <time>2020-08-06T11:19:40.147Z</time>
      </trkpt>
      <trkpt lat="63.42584" lon="10.40363">
        <ele>59.157609</ele>
        <time>2020-08-06T11:19:43.136Z</time>
      </trkpt>
      <trkpt lat="63.42597" lon="10.40367">
        <ele>58.860215</ele>
        <time>2020-08-06T11:19:46.141Z</time>
      </trkpt>
      <trkpt lat="63.42609" lon="10.4037">
        <ele>58.572957</ele>
        <time>2020-08-06T11:19:49.156Z</time>
      </trkpt>
      <trkpt lat="63.4262" lon="10.40369">
        <ele>58.31547</ele>
        <time>2020-08-06T11:19:52.130Z</time>
      </trkpt>
      <trkpt lat="63.4263" lon="10.40369">
        <ele>58.085852</ele>
        <time>2020-08-06T11:19:56.129Z</time>
      </trkpt>
      <trkpt lat="63.42641" lon="10.40364">
        <ele>57.830722</ele>
        <time>2020-08-06T11:20:00.140Z</time>
      </trkpt>
      <trkpt lat="63.42652" lon="10.4036">
        <ele>57.583198</ele>
        <time>2020-08-06T11:20:03.125Z</time>
      </trkpt>
      <trkpt lat="63.42663" lon="10.40355">
        <ele>57.320843</ele>
        <time>2020-08-06T11:20:06.119Z</time>
      </trkpt>
      <trkpt lat="63.42673" lon="10.4035">
        <ele>57.080279</ele>
        <time>2020-08-06T11:20:09.195Z</time>
      </trkpt>
      <trkpt lat="63.42683" lon="10.40344">
        <ele>56.831735</ele>
        <time>2020-08-06T11:20:12.136Z</time>
      </trkpt>
      <trkpt lat="63.42694" lon="10.40338">
        <ele>56.583925</ele>
        <time>2020-08-06T11:20:15.160Z</time>
      </trkpt>
      <trkpt lat="63.42703" lon="10.40331">
        <ele>56.345048</ele>
        <time>2020-08-06T11:20:18.156Z</time>
      </trkpt>
      <trkpt lat="63.42713" lon="10.40326">
        <ele>56.111005</ele>
        <time>2020-08-06T11:20:21.126Z</time>
      </trkpt>
      <trkpt lat="63.42722" lon="10.40318">
        <ele>55.900092</ele>
        <time>2020-08-06T11:20:24.135Z</time>
      </trkpt>
      <trkpt lat="63.42733" lon="10.40314">
        <ele>55.641838</ele>
        <time>2020-08-06T11:20:28.130Z</time>
      </trkpt>
      <trkpt lat="63.42742" lon="10.40317">
        <ele>55.467341</ele>
        <time>2020-08-06T11:20:33.121Z</time>
      </trkpt>
      <trkpt lat="63.42752" lon="10.40342">
        <ele>55.187693</ele>
        <time>2020-08-06T11:24:40.139Z</time>
      </trkpt>
      <trkpt lat="63.4277" lon="10.40315">
        <ele>54.785329</ele>
        <time>2020-08-06T11:32:41.129Z</time>
      </trkpt>
      <trkpt lat="63.42779" lon="10.40312">
        <ele>54.605844</ele>
        <time>2020-08-06T11:32:45.123Z</time>
      </trkpt>
      <trkpt lat="63.42788" lon="10.40309">
        <ele>54.439356</ele>
        <time>2020-08-06T11:32:48.143Z</time>
      </trkpt>
      <trkpt lat="63.42798" lon="10.40303">
        <ele>54.245993</ele>
        <time>2020-08-06T11:32:53.129Z</time>
      </trkpt>
      <trkpt lat="63.42808" lon="10.40296">
        <ele>54.06203</ele>
        <time>2020-08-06T11:32:58.126Z</time>
      </trkpt>
      <trkpt lat="63.42813" lon="10.40276">
        <ele>53.875971</ele>
        <time>2020-08-06T11:33:02.135Z</time>
      </trkpt>
      <trkpt lat="63.42812" lon="10.40253">
        <ele>53.683723</ele>
        <time>2020-08-06T11:33:06.173Z</time>
      </trkpt>
      <trkpt lat="63.42815" lon="10.4023">
        <ele>53.484257</ele>
        <time>2020-08-06T11:33:12.123Z</time>
      </trkpt>
      <trkpt lat="63.42819" lon="10.40206">
        <ele>53.278052</ele>
        <time>2020-08-06T11:33:17.138Z</time>
      </trkpt>
      <trkpt lat="63.42821" lon="10.40185">
        <ele>53.097788</ele>
        <time>2020-08-06T11:33:22.123Z</time>
      </trkpt>
      <trkpt lat="63.42823" lon="10.40165">
        <ele>52.929897</ele>
        <time>2020-08-06T11:33:26.161Z</time>
      </trkpt>
      <trkpt lat="63.42824" lon="10.40142">
        <ele>52.73929</ele>
        <time>2020-08-06T11:33:31.142Z</time>
      </trkpt>
      <trkpt lat="63.42826" lon="10.40121">
        <ele>52.561462</ele>
        <time>2020-08-06T11:33:35.155Z</time>
      </trkpt>
      <trkpt lat="63.4283" lon="10.40102">
        <ele>52.391679</ele>
        <time>2020-08-06T11:33:41.124Z</time>
      </trkpt>
      <trkpt lat="63.42831" lon="10.40078">
        <ele>52.590247</ele>
        <time>2020-08-06T11:33:45.126Z</time>
      </trkpt>
      <trkpt lat="63.42834" lon="10.40053">
        <ele>53.106013</ele>
        <time>2020-08-06T11:33:49.138Z</time>
      </trkpt>
      <trkpt lat="63.42841" lon="10.40036">
        <ele>53.548651</ele>
        <time>2020-08-06T11:33:53.123Z</time>
      </trkpt>
      <trkpt lat="63.42851" lon="10.40034">
        <ele>54.018914</ele>
        <time>2020-08-06T11:33:56.161Z</time>
      </trkpt>
      <trkpt lat="63.42862" lon="10.40039">
        <ele>54.509598</ele>
        <time>2020-08-06T11:33:59.150Z</time>
      </trkpt>
      <trkpt lat="63.42873" lon="10.40046">
        <ele>55.049212</ele>
        <time>2020-08-06T11:34:02.138Z</time>
      </trkpt>
      <trkpt lat="63.42885" lon="10.40054">
        <ele>55.590568</ele>
        <time>2020-08-06T11:34:05.139Z</time>
      </trkpt>
      <trkpt lat="63.42897" lon="10.40061">
        <ele>56.174786</ele>
        <time>2020-08-06T11:34:08.163Z</time>
      </trkpt>
      <trkpt lat="63.42908" lon="10.40069">
        <ele>56.674603</ele>
        <time>2020-08-06T11:34:11.138Z</time>
      </trkpt>
      <trkpt lat="63.4292" lon="10.40081">
        <ele>57.27147</ele>
        <time>2020-08-06T11:34:14.150Z</time>
      </trkpt>
      <trkpt lat="63.42929" lon="10.40087">
        <ele>57.685528</ele>
        <time>2020-08-06T11:34:16.116Z</time>
      </trkpt>
      <trkpt lat="63.42938" lon="10.40093">
        <ele>58.107</ele>
        <time>2020-08-06T11:34:18.127Z</time>
      </trkpt>
      <trkpt lat="63.42947" lon="10.401">
        <ele>58.535133</ele>
        <time>2020-08-06T11:34:20.136Z</time>
      </trkpt>
      <trkpt lat="63.42956" lon="10.40106">
        <ele>58.963798</ele>
        <time>2020-08-06T11:34:22.128Z</time>
      </trkpt>
      <trkpt lat="63.42965" lon="10.40111">
        <ele>59.376731</ele>
        <time>2020-08-06T11:34:24.135Z</time>
      </trkpt>
      <trkpt lat="63.42977" lon="10.40119">
        <ele>59.942834</ele>
        <time>2020-08-06T11:34:27.140Z</time>
      </trkpt>
      <trkpt lat="63.42988" lon="10.40127">
        <ele>60.437048</ele>
        <time>2020-08-06T11:34:30.146Z</time>
      </trkpt>
      <trkpt lat="63.42999" lon="10.40135">
        <ele>60.71141</ele>
        <time>2020-08-06T11:34:33.166Z</time>
      </trkpt>
      <trkpt lat="63.4301" lon="10.40141">
        <ele>60.980199</ele>
        <time>2020-08-06T11:34:36.147Z</time>
      </trkpt>
      <trkpt lat="63.4302" lon="10.40148">
        <ele>61.245795</ele>
        <time>2020-08-06T11:34:39.147Z</time>
      </trkpt>
      <trkpt lat="63.4303" lon="10.40154">
        <ele>61.489954</ele>
        <time>2020-08-06T11:34:42.126Z</time>
      </trkpt>
      <trkpt lat="63.43042" lon="10.4016">
        <ele>61.772721</ele>
        <time>2020-08-06T11:34:45.169Z</time>
      </trkpt>
      <trkpt lat="63.43053" lon="10.4017">
        <ele>62.070736</ele>
        <time>2020-08-06T11:34:48.157Z</time>
      </trkpt>
      <trkpt lat="63.43064" lon="10.40179">
        <ele>62.343642</ele>
        <time>2020-08-06T11:34:51.154Z</time>
      </trkpt>
      <trkpt lat="63.43074" lon="10.40189">
        <ele>62.612453</ele>
        <time>2020-08-06T11:34:54.126Z</time>
      </trkpt>
      <trkpt lat="63.43085" lon="10.40198">
        <ele>62.889817</ele>
        <time>2020-08-06T11:34:57.128Z</time>
      </trkpt>
      <trkpt lat="63.43094" lon="10.40204">
        <ele>63.127305</ele>
        <time>2020-08-06T11:35:00.120Z</time>
      </trkpt>
      <trkpt lat="63.43104" lon="10.40212">
        <ele>63.384723</ele>
        <time>2020-08-06T11:35:03.135Z</time>
      </trkpt>
      <trkpt lat="63.43114" lon="10.4022">
        <ele>63.631953</ele>
        <time>2020-08-06T11:35:06.140Z</time>
      </trkpt>
      <trkpt lat="63.43126" lon="10.40229">
        <ele>63.927697</ele>
        <time>2020-08-06T11:35:09.167Z</time>
      </trkpt>
      <trkpt lat="63.43134" lon="10.40235">
        <ele>64.143126</ele>
        <time>2020-08-06T11:35:11.130Z</time>
      </trkpt>
      <trkpt lat="63.43143" lon="10.40243">
        <ele>64.372321</ele>
        <time>2020-08-06T11:35:13.156Z</time>
      </trkpt>
      <trkpt lat="63.43152" lon="10.4025">
        <ele>64.597754</ele>
        <time>2020-08-06T11:35:15.142Z</time>
      </trkpt>
      <trkpt lat="63.43161" lon="10.40257">
        <ele>64.69563</ele>
        <time>2020-08-06T11:35:17.125Z</time>
      </trkpt>
      <trkpt lat="63.43172" lon="10.40264">
        <ele>64.616905</ele>
        <time>2020-08-06T11:35:19.138Z</time>
      </trkpt>
      <trkpt lat="63.43181" lon="10.40271">
        <ele>64.547214</ele>
        <time>2020-08-06T11:35:21.167Z</time>
      </trkpt>
      <trkpt lat="63.43189" lon="10.4028">
        <ele>64.479177</ele>
        <time>2020-08-06T11:35:23.129Z</time>
      </trkpt>
      <trkpt lat="63.43198" lon="10.40288">
        <ele>64.412834</ele>
        <time>2020-08-06T11:35:25.155Z</time>
      </trkpt>
      <trkpt lat="63.43207" lon="10.40296">
        <ele>64.343145</ele>
        <time>2020-08-06T11:35:27.140Z</time>
      </trkpt>
      <trkpt lat="63.43217" lon="10.40303">
        <ele>64.27096</ele>
        <time>2020-08-06T11:35:29.157Z</time>
      </trkpt>
      <trkpt lat="63.43225" lon="10.4031">
        <ele>64.206852</ele>
        <time>2020-08-06T11:35:31.126Z</time>
      </trkpt>
      <trkpt lat="63.43234" lon="10.40317">
        <ele>64.141163</ele>
        <time>2020-08-06T11:35:33.131Z</time>
      </trkpt>
      <trkpt lat="63.43243" lon="10.40324">
        <ele>64.072145</ele>
        <time>2020-08-06T11:35:35.137Z</time>
      </trkpt>
      <trkpt lat="63.43254" lon="10.40333">
        <ele>63.989734</ele>
        <time>2020-08-06T11:35:37.128Z</time>
      </trkpt>
      <trkpt lat="63.43264" lon="10.4034">
        <ele>63.915685</ele>
        <time>2020-08-06T11:35:39.126Z</time>
      </trkpt>
      <trkpt lat="63.43276" lon="10.4035">
        <ele>63.823703</ele>
        <time>2020-08-06T11:35:42.145Z</time>
      </trkpt>
      <trkpt lat="63.43287" lon="10.4036">
        <ele>63.739522</ele>
        <time>2020-08-06T11:35:45.127Z</time>
      </trkpt>
      <trkpt lat="63.43296" lon="10.40365">
        <ele>63.667312</ele>
        <time>2020-08-06T11:35:48.146Z</time>
      </trkpt>
      <trkpt lat="63.43308" lon="10.4037">
        <ele>63.584253</ele>
        <time>2020-08-06T11:35:52.127Z</time>
      </trkpt>
      <trkpt lat="63.43317" lon="10.40375">
        <ele>63.516187</ele>
        <time>2020-08-06T11:35:58.148Z</time>
      </trkpt>
      <trkpt lat="63.43322" lon="10.40352">
        <ele>63.439404</ele>
        <time>2020-08-06T11:36:03.155Z</time>
      </trkpt>
      <trkpt lat="63.43325" lon="10.40331">
        <ele>63.413189</ele>
        <time>2020-08-06T11:36:06.140Z</time>
      </trkpt>
      <trkpt lat="63.4333" lon="10.40308">
        <ele>63.384733</ele>
        <time>2020-08-06T11:36:09.157Z</time>
      </trkpt>
      <trkpt lat="63.43334" lon="10.40287">
        <ele>63.357448</ele>
        <time>2020-08-06T11:36:12.181Z</time>
      </trkpt>
      <trkpt lat="63.43336" lon="10.40265">
        <ele>63.330415</ele>
        <time>2020-08-06T11:36:15.158Z</time>
      </trkpt>
      <trkpt lat="63.43335" lon="10.40242">
        <ele>63.304258</ele>
        <time>2020-08-06T11:36:18.136Z</time>
      </trkpt>
      <trkpt lat="63.43332" lon="10.40218">
        <ele>63.274542</ele>
        <time>2020-08-06T11:36:21.122Z</time>
      </trkpt>
      <trkpt lat="63.43331" lon="10.40195">
        <ele>63.247223</ele>
        <time>2020-08-06T11:36:24.164Z</time>
      </trkpt>
      <trkpt lat="63.4333" lon="10.40172">
        <ele>63.22045</ele>
        <time>2020-08-06T11:36:27.138Z</time>
      </trkpt>
      <trkpt lat="63.4333" lon="10.40148">
        <ele>63.192545</ele>
        <time>2020-08-06T11:36:30.126Z</time>
      </trkpt>
      <trkpt lat="63.43329" lon="10.40124">
        <ele>63.16404</ele>
        <time>2020-08-06T11:36:34.118Z</time>
      </trkpt>
      <trkpt lat="63.43327" lon="10.40104">
        <ele>63.14029</ele>
        <time>2020-08-06T11:36:38.141Z</time>
      </trkpt>
      <trkpt lat="63.43327" lon="10.40081">
        <ele>63.113764</ele>
        <time>2020-08-06T11:36:44.144Z</time>
      </trkpt>
      <trkpt lat="63.4333" lon="10.40058">
        <ele>63.085745</ele>
        <time>2020-08-06T11:36:52.144Z</time>
      </trkpt>
      <trkpt lat="63.43337" lon="10.40035">
        <ele>63.053852</ele>
        <time>2020-08-06T11:36:56.180Z</time>
      </trkpt>
      <trkpt lat="63.43347" lon="10.4003">
        <ele>63.026116</ele>
        <time>2020-08-06T11:36:59.135Z</time>
      </trkpt>
      <trkpt lat="63.43359" lon="10.40026">
        <ele>62.993938</ele>
        <time>2020-08-06T11:37:02.152Z</time>
      </trkpt>
      <trkpt lat="63.43373" lon="10.40019">
        <ele>62.972657</ele>
        <time>2020-08-06T11:37:05.139Z</time>
      </trkpt>
      <trkpt lat="63.43383" lon="10.40019">
        <ele>62.972657</ele>
        <time>2020-08-06T11:37:07.122Z</time>
      </trkpt>
      <trkpt lat="63.43392" lon="10.40021">
        <ele>62.972657</ele>
        <time>2020-08-06T11:37:09.138Z</time>
      </trkpt>
      <trkpt lat="63.43404" lon="10.40022">
        <ele>62.972657</ele>
        <time>2020-08-06T11:37:12.136Z</time>
      </trkpt>
      <trkpt lat="63.43416" lon="10.40026">
        <ele>62.972657</ele>
        <time>2020-08-06T11:37:15.123Z</time>
      </trkpt>
      <trkpt lat="63.43427" lon="10.40023">
        <ele>62.972657</ele>
        <time>2020-08-06T11:37:18.177Z</time>
      </trkpt>
      <trkpt lat="63.43438" lon="10.40021">
        <ele>62.972657</ele>
        <time>2020-08-06T11:37:21.138Z</time>
      </trkpt>
      <trkpt lat="63.4345" lon="10.40022">
        <ele>62.972657</ele>
        <time>2020-08-06T11:37:25.158Z</time>
      </trkpt>
      <trkpt lat="63.43459" lon="10.40017">
        <ele>62.972657</ele>
        <time>2020-08-06T11:37:28.167Z</time>
      </trkpt>
      <trkpt lat="63.43452" lon="10.40003">
        <ele>62.972657</ele>
        <time>2020-08-06T11:37:35.122Z</time>
      </trkpt>
      <trkpt lat="63.43442" lon="10.4001">
        <ele>62.972657</ele>
        <time>2020-08-06T11:37:39.116Z</time>
      </trkpt>
      <trkpt lat="63.43438" lon="10.40016">
        <ele>62.972657</ele>
        <time>2020-08-06T11:38:46.001Z</time>
      </trkpt>
    </trkseg>
  </trk>
</gpx>